<?xml version="1.0" encoding="UTF-8" standalone="no" ?>
<gpx xmlns="http://www.topografix.com/GPX/1/1" xmlns:xsi="http://www.w3.org/2001/XMLSchema-instance" xsi:schemaLocation="http://www.topografix.com/GPX/1/1 http://www.topografix.com/GPX/1/1/gpx.xsd" version="1.1" creator="VisuGPX - https://www.visugpx.com">
  <metadata>
    <name>Mont Saxonnex</name>
  </metadata>
  <trk>
    <name><![CDATA[190729080252 on AllTrails]]></name>
    <trkseg>
      <trkpt lat="46.19288" lon="6.25009">
        <ele>226</ele>
        <time>2019-07-29T08:03:12Z</time>
      </trkpt>
      <trkpt lat="46.19287" lon="6.2502">
        <ele>226</ele>
        <time>2019-07-29T08:03:16Z</time>
      </trkpt>
      <trkpt lat="46.19284" lon="6.25035">
        <ele>226</ele>
        <time>2019-07-29T08:03:20Z</time>
      </trkpt>
      <trkpt lat="46.19282" lon="6.25056">
        <ele>227</ele>
        <time>2019-07-29T08:03:24Z</time>
      </trkpt>
      <trkpt lat="46.19279" lon="6.25072">
        <ele>227</ele>
        <time>2019-07-29T08:03:28Z</time>
      </trkpt>
      <trkpt lat="46.19279" lon="6.25085">
        <ele>228</ele>
        <time>2019-07-29T08:03:32Z</time>
      </trkpt>
      <trkpt lat="46.19277" lon="6.25089">
        <ele>228</ele>
        <time>2019-07-29T08:03:40Z</time>
      </trkpt>
      <trkpt lat="46.19278" lon="6.25094">
        <ele>228</ele>
        <time>2019-07-29T08:03:44Z</time>
      </trkpt>
      <trkpt lat="46.19276" lon="6.25099">
        <ele>228</ele>
        <time>2019-07-29T08:03:48Z</time>
      </trkpt>
      <trkpt lat="46.19276" lon="6.25105">
        <ele>228</ele>
        <time>2019-07-29T08:03:56Z</time>
      </trkpt>
      <trkpt lat="46.19269" lon="6.25109">
        <ele>228</ele>
        <time>2019-07-29T08:04:00Z</time>
      </trkpt>
      <trkpt lat="46.19258" lon="6.25109">
        <ele>227</ele>
        <time>2019-07-29T08:04:04Z</time>
      </trkpt>
      <trkpt lat="46.19241" lon="6.25111">
        <ele>228</ele>
        <time>2019-07-29T08:04:08Z</time>
      </trkpt>
      <trkpt lat="46.19224" lon="6.25112">
        <ele>229</ele>
        <time>2019-07-29T08:04:12Z</time>
      </trkpt>
      <trkpt lat="46.19207" lon="6.25108">
        <ele>230</ele>
        <time>2019-07-29T08:04:16Z</time>
      </trkpt>
      <trkpt lat="46.19195" lon="6.25089">
        <ele>230</ele>
        <time>2019-07-29T08:04:20Z</time>
      </trkpt>
      <trkpt lat="46.19183" lon="6.25071">
        <ele>231</ele>
        <time>2019-07-29T08:04:24Z</time>
      </trkpt>
      <trkpt lat="46.19172" lon="6.25066">
        <ele>231</ele>
        <time>2019-07-29T08:04:28Z</time>
      </trkpt>
      <trkpt lat="46.19169" lon="6.25065">
        <ele>230</ele>
        <time>2019-07-29T08:04:32Z</time>
      </trkpt>
      <trkpt lat="46.19161" lon="6.25057">
        <ele>230</ele>
        <time>2019-07-29T08:04:36Z</time>
      </trkpt>
      <trkpt lat="46.19145" lon="6.25047">
        <ele>230</ele>
        <time>2019-07-29T08:04:40Z</time>
      </trkpt>
      <trkpt lat="46.19128" lon="6.25055">
        <ele>230</ele>
        <time>2019-07-29T08:04:44Z</time>
      </trkpt>
      <trkpt lat="46.1912" lon="6.25077">
        <ele>231</ele>
        <time>2019-07-29T08:04:48Z</time>
      </trkpt>
      <trkpt lat="46.19111" lon="6.25098">
        <ele>227</ele>
        <time>2019-07-29T08:04:52Z</time>
      </trkpt>
      <trkpt lat="46.1909" lon="6.25112">
        <ele>225</ele>
        <time>2019-07-29T08:04:56Z</time>
      </trkpt>
      <trkpt lat="46.19061" lon="6.2511">
        <ele>227</ele>
        <time>2019-07-29T08:05:00Z</time>
      </trkpt>
      <trkpt lat="46.1904" lon="6.25095">
        <ele>228</ele>
        <time>2019-07-29T08:05:04Z</time>
      </trkpt>
      <trkpt lat="46.19022" lon="6.25082">
        <ele>229</ele>
        <time>2019-07-29T08:05:08Z</time>
      </trkpt>
      <trkpt lat="46.19004" lon="6.25074">
        <ele>230</ele>
        <time>2019-07-29T08:05:12Z</time>
      </trkpt>
      <trkpt lat="46.18985" lon="6.25067">
        <ele>230</ele>
        <time>2019-07-29T08:05:16Z</time>
      </trkpt>
      <trkpt lat="46.18965" lon="6.25065">
        <ele>231</ele>
        <time>2019-07-29T08:05:20Z</time>
      </trkpt>
      <trkpt lat="46.18946" lon="6.25065">
        <ele>231</ele>
        <time>2019-07-29T08:05:24Z</time>
      </trkpt>
      <trkpt lat="46.18926" lon="6.25069">
        <ele>232</ele>
        <time>2019-07-29T08:05:28Z</time>
      </trkpt>
      <trkpt lat="46.18906" lon="6.25073">
        <ele>232</ele>
        <time>2019-07-29T08:05:32Z</time>
      </trkpt>
      <trkpt lat="46.18886" lon="6.25076">
        <ele>232</ele>
        <time>2019-07-29T08:05:36Z</time>
      </trkpt>
      <trkpt lat="46.18866" lon="6.25076">
        <ele>233</ele>
        <time>2019-07-29T08:05:40Z</time>
      </trkpt>
      <trkpt lat="46.18846" lon="6.25076">
        <ele>234</ele>
        <time>2019-07-29T08:05:44Z</time>
      </trkpt>
      <trkpt lat="46.18826" lon="6.25076">
        <ele>234</ele>
        <time>2019-07-29T08:05:48Z</time>
      </trkpt>
      <trkpt lat="46.18806" lon="6.25077">
        <ele>234</ele>
        <time>2019-07-29T08:05:52Z</time>
      </trkpt>
      <trkpt lat="46.18786" lon="6.2508">
        <ele>235</ele>
        <time>2019-07-29T08:05:56Z</time>
      </trkpt>
      <trkpt lat="46.18766" lon="6.25083">
        <ele>235</ele>
        <time>2019-07-29T08:06:00Z</time>
      </trkpt>
      <trkpt lat="46.18746" lon="6.2509">
        <ele>235</ele>
        <time>2019-07-29T08:06:04Z</time>
      </trkpt>
      <trkpt lat="46.18726" lon="6.25098">
        <ele>236</ele>
        <time>2019-07-29T08:06:08Z</time>
      </trkpt>
      <trkpt lat="46.18706" lon="6.25106">
        <ele>236</ele>
        <time>2019-07-29T08:06:12Z</time>
      </trkpt>
      <trkpt lat="46.18686" lon="6.25115">
        <ele>237</ele>
        <time>2019-07-29T08:06:16Z</time>
      </trkpt>
      <trkpt lat="46.18669" lon="6.25124">
        <ele>237</ele>
        <time>2019-07-29T08:06:20Z</time>
      </trkpt>
      <trkpt lat="46.18647" lon="6.25135">
        <ele>237</ele>
        <time>2019-07-29T08:06:24Z</time>
      </trkpt>
      <trkpt lat="46.18626" lon="6.25144">
        <ele>237</ele>
        <time>2019-07-29T08:06:28Z</time>
      </trkpt>
      <trkpt lat="46.18606" lon="6.25152">
        <ele>239</ele>
        <time>2019-07-29T08:06:32Z</time>
      </trkpt>
      <trkpt lat="46.18586" lon="6.25158">
        <ele>240</ele>
        <time>2019-07-29T08:06:36Z</time>
      </trkpt>
      <trkpt lat="46.18575" lon="6.25156">
        <ele>239</ele>
        <time>2019-07-29T08:06:40Z</time>
      </trkpt>
      <trkpt lat="46.18558" lon="6.25161">
        <ele>240</ele>
        <time>2019-07-29T08:06:44Z</time>
      </trkpt>
      <trkpt lat="46.18539" lon="6.25165">
        <ele>240</ele>
        <time>2019-07-29T08:06:48Z</time>
      </trkpt>
      <trkpt lat="46.18518" lon="6.25169">
        <ele>241</ele>
        <time>2019-07-29T08:06:52Z</time>
      </trkpt>
      <trkpt lat="46.18499" lon="6.25174">
        <ele>241</ele>
        <time>2019-07-29T08:06:56Z</time>
      </trkpt>
      <trkpt lat="46.18479" lon="6.25178">
        <ele>242</ele>
        <time>2019-07-29T08:07:00Z</time>
      </trkpt>
      <trkpt lat="46.18459" lon="6.25183">
        <ele>242</ele>
        <time>2019-07-29T08:07:04Z</time>
      </trkpt>
      <trkpt lat="46.18439" lon="6.2519">
        <ele>243</ele>
        <time>2019-07-29T08:07:08Z</time>
      </trkpt>
      <trkpt lat="46.1842" lon="6.25199">
        <ele>244</ele>
        <time>2019-07-29T08:07:12Z</time>
      </trkpt>
      <trkpt lat="46.184" lon="6.25209">
        <ele>244</ele>
        <time>2019-07-29T08:07:16Z</time>
      </trkpt>
      <trkpt lat="46.18382" lon="6.25221">
        <ele>245</ele>
        <time>2019-07-29T08:07:20Z</time>
      </trkpt>
      <trkpt lat="46.18364" lon="6.25233">
        <ele>246</ele>
        <time>2019-07-29T08:07:24Z</time>
      </trkpt>
      <trkpt lat="46.18347" lon="6.25244">
        <ele>246</ele>
        <time>2019-07-29T08:07:28Z</time>
      </trkpt>
      <trkpt lat="46.1833" lon="6.25255">
        <ele>248</ele>
        <time>2019-07-29T08:07:32Z</time>
      </trkpt>
      <trkpt lat="46.18313" lon="6.25266">
        <ele>249</ele>
        <time>2019-07-29T08:07:36Z</time>
      </trkpt>
      <trkpt lat="46.18296" lon="6.25279">
        <ele>249</ele>
        <time>2019-07-29T08:07:40Z</time>
      </trkpt>
      <trkpt lat="46.18279" lon="6.2529">
        <ele>250</ele>
        <time>2019-07-29T08:07:44Z</time>
      </trkpt>
      <trkpt lat="46.18262" lon="6.25301">
        <ele>250</ele>
        <time>2019-07-29T08:07:48Z</time>
      </trkpt>
      <trkpt lat="46.18244" lon="6.25311">
        <ele>250</ele>
        <time>2019-07-29T08:07:52Z</time>
      </trkpt>
      <trkpt lat="46.18226" lon="6.25323">
        <ele>251</ele>
        <time>2019-07-29T08:07:56Z</time>
      </trkpt>
      <trkpt lat="46.18206" lon="6.25336">
        <ele>251</ele>
        <time>2019-07-29T08:08:00Z</time>
      </trkpt>
      <trkpt lat="46.18187" lon="6.25348">
        <ele>252</ele>
        <time>2019-07-29T08:08:04Z</time>
      </trkpt>
      <trkpt lat="46.18168" lon="6.25359">
        <ele>251</ele>
        <time>2019-07-29T08:08:08Z</time>
      </trkpt>
      <trkpt lat="46.1815" lon="6.25371">
        <ele>252</ele>
        <time>2019-07-29T08:08:12Z</time>
      </trkpt>
      <trkpt lat="46.1813" lon="6.25382">
        <ele>251</ele>
        <time>2019-07-29T08:08:16Z</time>
      </trkpt>
      <trkpt lat="46.1811" lon="6.25394">
        <ele>252</ele>
        <time>2019-07-29T08:08:20Z</time>
      </trkpt>
      <trkpt lat="46.18091" lon="6.25408">
        <ele>253</ele>
        <time>2019-07-29T08:08:24Z</time>
      </trkpt>
      <trkpt lat="46.18075" lon="6.25424">
        <ele>255</ele>
        <time>2019-07-29T08:08:28Z</time>
      </trkpt>
      <trkpt lat="46.18061" lon="6.2544">
        <ele>256</ele>
        <time>2019-07-29T08:08:32Z</time>
      </trkpt>
      <trkpt lat="46.18049" lon="6.25458">
        <ele>257</ele>
        <time>2019-07-29T08:08:36Z</time>
      </trkpt>
      <trkpt lat="46.18037" lon="6.25476">
        <ele>258</ele>
        <time>2019-07-29T08:08:40Z</time>
      </trkpt>
      <trkpt lat="46.18023" lon="6.25492">
        <ele>258</ele>
        <time>2019-07-29T08:08:44Z</time>
      </trkpt>
      <trkpt lat="46.18008" lon="6.25506">
        <ele>259</ele>
        <time>2019-07-29T08:08:48Z</time>
      </trkpt>
      <trkpt lat="46.17991" lon="6.25519">
        <ele>259</ele>
        <time>2019-07-29T08:08:52Z</time>
      </trkpt>
      <trkpt lat="46.17972" lon="6.25529">
        <ele>258</ele>
        <time>2019-07-29T08:08:56Z</time>
      </trkpt>
      <trkpt lat="46.17951" lon="6.25538">
        <ele>257</ele>
        <time>2019-07-29T08:09:00Z</time>
      </trkpt>
      <trkpt lat="46.17928" lon="6.25544">
        <ele>255</ele>
        <time>2019-07-29T08:09:04Z</time>
      </trkpt>
      <trkpt lat="46.17901" lon="6.2555">
        <ele>252</ele>
        <time>2019-07-29T08:09:08Z</time>
      </trkpt>
      <trkpt lat="46.17871" lon="6.2555">
        <ele>250</ele>
        <time>2019-07-29T08:09:12Z</time>
      </trkpt>
      <trkpt lat="46.17839" lon="6.25545">
        <ele>250</ele>
        <time>2019-07-29T08:09:16Z</time>
      </trkpt>
      <trkpt lat="46.17808" lon="6.25545">
        <ele>250</ele>
        <time>2019-07-29T08:09:20Z</time>
      </trkpt>
      <trkpt lat="46.17777" lon="6.25548">
        <ele>250</ele>
        <time>2019-07-29T08:09:24Z</time>
      </trkpt>
      <trkpt lat="46.17747" lon="6.25557">
        <ele>251</ele>
        <time>2019-07-29T08:09:28Z</time>
      </trkpt>
      <trkpt lat="46.17721" lon="6.25571">
        <ele>252</ele>
        <time>2019-07-29T08:09:32Z</time>
      </trkpt>
      <trkpt lat="46.17696" lon="6.25585">
        <ele>253</ele>
        <time>2019-07-29T08:09:36Z</time>
      </trkpt>
      <trkpt lat="46.17673" lon="6.25598">
        <ele>254</ele>
        <time>2019-07-29T08:09:40Z</time>
      </trkpt>
      <trkpt lat="46.17651" lon="6.25608">
        <ele>254</ele>
        <time>2019-07-29T08:09:44Z</time>
      </trkpt>
      <trkpt lat="46.17631" lon="6.2562">
        <ele>255</ele>
        <time>2019-07-29T08:09:48Z</time>
      </trkpt>
      <trkpt lat="46.17609" lon="6.25631">
        <ele>256</ele>
        <time>2019-07-29T08:09:52Z</time>
      </trkpt>
      <trkpt lat="46.17588" lon="6.25642">
        <ele>256</ele>
        <time>2019-07-29T08:09:56Z</time>
      </trkpt>
      <trkpt lat="46.17568" lon="6.25653">
        <ele>257</ele>
        <time>2019-07-29T08:10:00Z</time>
      </trkpt>
      <trkpt lat="46.1755" lon="6.25666">
        <ele>259</ele>
        <time>2019-07-29T08:10:04Z</time>
      </trkpt>
      <trkpt lat="46.17533" lon="6.25681">
        <ele>260</ele>
        <time>2019-07-29T08:10:08Z</time>
      </trkpt>
      <trkpt lat="46.17518" lon="6.25694">
        <ele>261</ele>
        <time>2019-07-29T08:10:12Z</time>
      </trkpt>
      <trkpt lat="46.17503" lon="6.25707">
        <ele>262</ele>
        <time>2019-07-29T08:10:16Z</time>
      </trkpt>
      <trkpt lat="46.17489" lon="6.25719">
        <ele>263</ele>
        <time>2019-07-29T08:10:20Z</time>
      </trkpt>
      <trkpt lat="46.17476" lon="6.25731">
        <ele>264</ele>
        <time>2019-07-29T08:10:24Z</time>
      </trkpt>
      <trkpt lat="46.17461" lon="6.25742">
        <ele>265</ele>
        <time>2019-07-29T08:10:28Z</time>
      </trkpt>
      <trkpt lat="46.17448" lon="6.25755">
        <ele>266</ele>
        <time>2019-07-29T08:10:32Z</time>
      </trkpt>
      <trkpt lat="46.17436" lon="6.25771">
        <ele>266</ele>
        <time>2019-07-29T08:10:36Z</time>
      </trkpt>
      <trkpt lat="46.17424" lon="6.25782">
        <ele>266</ele>
        <time>2019-07-29T08:10:40Z</time>
      </trkpt>
      <trkpt lat="46.17418" lon="6.25796">
        <ele>266</ele>
        <time>2019-07-29T08:10:44Z</time>
      </trkpt>
      <trkpt lat="46.17415" lon="6.25819">
        <ele>266</ele>
        <time>2019-07-29T08:10:48Z</time>
      </trkpt>
      <trkpt lat="46.17404" lon="6.2584">
        <ele>263</ele>
        <time>2019-07-29T08:10:52Z</time>
      </trkpt>
      <trkpt lat="46.17384" lon="6.25862">
        <ele>260</ele>
        <time>2019-07-29T08:10:56Z</time>
      </trkpt>
      <trkpt lat="46.17364" lon="6.25893">
        <ele>259</ele>
        <time>2019-07-29T08:11:00Z</time>
      </trkpt>
      <trkpt lat="46.17349" lon="6.25932">
        <ele>259</ele>
        <time>2019-07-29T08:11:04Z</time>
      </trkpt>
      <trkpt lat="46.1733" lon="6.25971">
        <ele>259</ele>
        <time>2019-07-29T08:11:08Z</time>
      </trkpt>
      <trkpt lat="46.17313" lon="6.26008">
        <ele>260</ele>
        <time>2019-07-29T08:11:12Z</time>
      </trkpt>
      <trkpt lat="46.17295" lon="6.26044">
        <ele>264</ele>
        <time>2019-07-29T08:11:16Z</time>
      </trkpt>
      <trkpt lat="46.17278" lon="6.26071">
        <ele>264</ele>
        <time>2019-07-29T08:11:20Z</time>
      </trkpt>
      <trkpt lat="46.17265" lon="6.26096">
        <ele>266</ele>
        <time>2019-07-29T08:11:24Z</time>
      </trkpt>
      <trkpt lat="46.17256" lon="6.26122">
        <ele>267</ele>
        <time>2019-07-29T08:11:28Z</time>
      </trkpt>
      <trkpt lat="46.17245" lon="6.26144">
        <ele>269</ele>
        <time>2019-07-29T08:11:32Z</time>
      </trkpt>
      <trkpt lat="46.17239" lon="6.26155">
        <ele>269</ele>
        <time>2019-07-29T08:11:36Z</time>
      </trkpt>
      <trkpt lat="46.17228" lon="6.26168">
        <ele>267</ele>
        <time>2019-07-29T08:11:40Z</time>
      </trkpt>
      <trkpt lat="46.17219" lon="6.26187">
        <ele>267</ele>
        <time>2019-07-29T08:11:44Z</time>
      </trkpt>
      <trkpt lat="46.1721" lon="6.26208">
        <ele>267</ele>
        <time>2019-07-29T08:11:48Z</time>
      </trkpt>
      <trkpt lat="46.17194" lon="6.26233">
        <ele>267</ele>
        <time>2019-07-29T08:11:52Z</time>
      </trkpt>
      <trkpt lat="46.17177" lon="6.2626">
        <ele>265</ele>
        <time>2019-07-29T08:11:56Z</time>
      </trkpt>
      <trkpt lat="46.17158" lon="6.26288">
        <ele>265</ele>
        <time>2019-07-29T08:12:00Z</time>
      </trkpt>
      <trkpt lat="46.17139" lon="6.26318">
        <ele>264</ele>
        <time>2019-07-29T08:12:04Z</time>
      </trkpt>
      <trkpt lat="46.1712" lon="6.2635">
        <ele>264</ele>
        <time>2019-07-29T08:12:08Z</time>
      </trkpt>
      <trkpt lat="46.17102" lon="6.2638">
        <ele>267</ele>
        <time>2019-07-29T08:12:12Z</time>
      </trkpt>
      <trkpt lat="46.17093" lon="6.26393">
        <ele>266</ele>
        <time>2019-07-29T08:12:16Z</time>
      </trkpt>
      <trkpt lat="46.17087" lon="6.26405">
        <ele>263</ele>
        <time>2019-07-29T08:12:20Z</time>
      </trkpt>
      <trkpt lat="46.17072" lon="6.26429">
        <ele>261</ele>
        <time>2019-07-29T08:12:24Z</time>
      </trkpt>
      <trkpt lat="46.17052" lon="6.26459">
        <ele>258</ele>
        <time>2019-07-29T08:12:28Z</time>
      </trkpt>
      <trkpt lat="46.17031" lon="6.26494">
        <ele>254</ele>
        <time>2019-07-29T08:12:32Z</time>
      </trkpt>
      <trkpt lat="46.17006" lon="6.26535">
        <ele>250</ele>
        <time>2019-07-29T08:12:36Z</time>
      </trkpt>
      <trkpt lat="46.16979" lon="6.26578">
        <ele>251</ele>
        <time>2019-07-29T08:12:40Z</time>
      </trkpt>
      <trkpt lat="46.16954" lon="6.26618">
        <ele>251</ele>
        <time>2019-07-29T08:12:44Z</time>
      </trkpt>
      <trkpt lat="46.16932" lon="6.26656">
        <ele>252</ele>
        <time>2019-07-29T08:12:48Z</time>
      </trkpt>
      <trkpt lat="46.16913" lon="6.26696">
        <ele>251</ele>
        <time>2019-07-29T08:12:52Z</time>
      </trkpt>
      <trkpt lat="46.16907" lon="6.26741">
        <ele>250</ele>
        <time>2019-07-29T08:12:56Z</time>
      </trkpt>
      <trkpt lat="46.16904" lon="6.26785">
        <ele>250</ele>
        <time>2019-07-29T08:13:00Z</time>
      </trkpt>
      <trkpt lat="46.16894" lon="6.26827">
        <ele>249</ele>
        <time>2019-07-29T08:13:04Z</time>
      </trkpt>
      <trkpt lat="46.1687" lon="6.26864">
        <ele>246</ele>
        <time>2019-07-29T08:13:08Z</time>
      </trkpt>
      <trkpt lat="46.1684" lon="6.26894">
        <ele>242</ele>
        <time>2019-07-29T08:13:12Z</time>
      </trkpt>
      <trkpt lat="46.16803" lon="6.26915">
        <ele>239</ele>
        <time>2019-07-29T08:13:16Z</time>
      </trkpt>
      <trkpt lat="46.16768" lon="6.26944">
        <ele>236</ele>
        <time>2019-07-29T08:13:20Z</time>
      </trkpt>
      <trkpt lat="46.16733" lon="6.26986">
        <ele>233</ele>
        <time>2019-07-29T08:13:24Z</time>
      </trkpt>
      <trkpt lat="46.16726" lon="6.27039">
        <ele>226</ele>
        <time>2019-07-29T08:13:28Z</time>
      </trkpt>
      <trkpt lat="46.16751" lon="6.27078">
        <ele>224</ele>
        <time>2019-07-29T08:13:32Z</time>
      </trkpt>
      <trkpt lat="46.1678" lon="6.2711">
        <ele>227</ele>
        <time>2019-07-29T08:13:36Z</time>
      </trkpt>
      <trkpt lat="46.16805" lon="6.27117">
        <ele>229</ele>
        <time>2019-07-29T08:13:40Z</time>
      </trkpt>
      <trkpt lat="46.16813" lon="6.27124">
        <ele>229</ele>
        <time>2019-07-29T08:13:52Z</time>
      </trkpt>
      <trkpt lat="46.16821" lon="6.27132">
        <ele>227</ele>
        <time>2019-07-29T08:13:56Z</time>
      </trkpt>
      <trkpt lat="46.16839" lon="6.27142">
        <ele>227</ele>
        <time>2019-07-29T08:14:00Z</time>
      </trkpt>
      <trkpt lat="46.16851" lon="6.27167">
        <ele>226</ele>
        <time>2019-07-29T08:14:04Z</time>
      </trkpt>
      <trkpt lat="46.16849" lon="6.27203">
        <ele>227</ele>
        <time>2019-07-29T08:14:08Z</time>
      </trkpt>
      <trkpt lat="46.16844" lon="6.27239">
        <ele>228</ele>
        <time>2019-07-29T08:14:12Z</time>
      </trkpt>
      <trkpt lat="46.16839" lon="6.27275">
        <ele>228</ele>
        <time>2019-07-29T08:14:16Z</time>
      </trkpt>
      <trkpt lat="46.16833" lon="6.27311">
        <ele>229</ele>
        <time>2019-07-29T08:14:20Z</time>
      </trkpt>
      <trkpt lat="46.1682" lon="6.27342">
        <ele>230</ele>
        <time>2019-07-29T08:14:24Z</time>
      </trkpt>
      <trkpt lat="46.16802" lon="6.2736">
        <ele>232</ele>
        <time>2019-07-29T08:14:28Z</time>
      </trkpt>
      <trkpt lat="46.16782" lon="6.27368">
        <ele>232</ele>
        <time>2019-07-29T08:14:32Z</time>
      </trkpt>
      <trkpt lat="46.16762" lon="6.27365">
        <ele>233</ele>
        <time>2019-07-29T08:14:36Z</time>
      </trkpt>
      <trkpt lat="46.16743" lon="6.27362">
        <ele>234</ele>
        <time>2019-07-29T08:14:40Z</time>
      </trkpt>
      <trkpt lat="46.16723" lon="6.27358">
        <ele>235</ele>
        <time>2019-07-29T08:14:44Z</time>
      </trkpt>
      <trkpt lat="46.16704" lon="6.27353">
        <ele>236</ele>
        <time>2019-07-29T08:14:48Z</time>
      </trkpt>
      <trkpt lat="46.16683" lon="6.2735">
        <ele>237</ele>
        <time>2019-07-29T08:14:52Z</time>
      </trkpt>
      <trkpt lat="46.16663" lon="6.27346">
        <ele>237</ele>
        <time>2019-07-29T08:14:56Z</time>
      </trkpt>
      <trkpt lat="46.16642" lon="6.27344">
        <ele>238</ele>
        <time>2019-07-29T08:15:00Z</time>
      </trkpt>
      <trkpt lat="46.16624" lon="6.27333">
        <ele>240</ele>
        <time>2019-07-29T08:15:04Z</time>
      </trkpt>
      <trkpt lat="46.16607" lon="6.27318">
        <ele>240</ele>
        <time>2019-07-29T08:15:08Z</time>
      </trkpt>
      <trkpt lat="46.16592" lon="6.27301">
        <ele>240</ele>
        <time>2019-07-29T08:15:12Z</time>
      </trkpt>
      <trkpt lat="46.16577" lon="6.27284">
        <ele>242</ele>
        <time>2019-07-29T08:15:16Z</time>
      </trkpt>
      <trkpt lat="46.16561" lon="6.27272">
        <ele>242</ele>
        <time>2019-07-29T08:15:20Z</time>
      </trkpt>
      <trkpt lat="46.16543" lon="6.27264">
        <ele>243</ele>
        <time>2019-07-29T08:15:24Z</time>
      </trkpt>
      <trkpt lat="46.16526" lon="6.27256">
        <ele>243</ele>
        <time>2019-07-29T08:15:28Z</time>
      </trkpt>
      <trkpt lat="46.16507" lon="6.27251">
        <ele>243</ele>
        <time>2019-07-29T08:15:32Z</time>
      </trkpt>
      <trkpt lat="46.16489" lon="6.27242">
        <ele>245</ele>
        <time>2019-07-29T08:15:36Z</time>
      </trkpt>
      <trkpt lat="46.16471" lon="6.27235">
        <ele>245</ele>
        <time>2019-07-29T08:15:40Z</time>
      </trkpt>
      <trkpt lat="46.16453" lon="6.27229">
        <ele>247</ele>
        <time>2019-07-29T08:15:44Z</time>
      </trkpt>
      <trkpt lat="46.16436" lon="6.27224">
        <ele>247</ele>
        <time>2019-07-29T08:15:48Z</time>
      </trkpt>
      <trkpt lat="46.16419" lon="6.27222">
        <ele>248</ele>
        <time>2019-07-29T08:15:52Z</time>
      </trkpt>
      <trkpt lat="46.16402" lon="6.27225">
        <ele>249</ele>
        <time>2019-07-29T08:15:56Z</time>
      </trkpt>
      <trkpt lat="46.16386" lon="6.27232">
        <ele>249</ele>
        <time>2019-07-29T08:16:00Z</time>
      </trkpt>
      <trkpt lat="46.16372" lon="6.27245">
        <ele>250</ele>
        <time>2019-07-29T08:16:04Z</time>
      </trkpt>
      <trkpt lat="46.16358" lon="6.27261">
        <ele>251</ele>
        <time>2019-07-29T08:16:08Z</time>
      </trkpt>
      <trkpt lat="46.16347" lon="6.27281">
        <ele>250</ele>
        <time>2019-07-29T08:16:12Z</time>
      </trkpt>
      <trkpt lat="46.16338" lon="6.27305">
        <ele>251</ele>
        <time>2019-07-29T08:16:16Z</time>
      </trkpt>
      <trkpt lat="46.16329" lon="6.2733">
        <ele>250</ele>
        <time>2019-07-29T08:16:20Z</time>
      </trkpt>
      <trkpt lat="46.1632" lon="6.2736">
        <ele>250</ele>
        <time>2019-07-29T08:16:24Z</time>
      </trkpt>
      <trkpt lat="46.16307" lon="6.2739">
        <ele>250</ele>
        <time>2019-07-29T08:16:28Z</time>
      </trkpt>
      <trkpt lat="46.16294" lon="6.27422">
        <ele>249</ele>
        <time>2019-07-29T08:16:32Z</time>
      </trkpt>
      <trkpt lat="46.16284" lon="6.27455">
        <ele>249</ele>
        <time>2019-07-29T08:16:36Z</time>
      </trkpt>
      <trkpt lat="46.16271" lon="6.27487">
        <ele>249</ele>
        <time>2019-07-29T08:16:40Z</time>
      </trkpt>
      <trkpt lat="46.16257" lon="6.2752">
        <ele>249</ele>
        <time>2019-07-29T08:16:44Z</time>
      </trkpt>
      <trkpt lat="46.16247" lon="6.27552">
        <ele>249</ele>
        <time>2019-07-29T08:16:48Z</time>
      </trkpt>
      <trkpt lat="46.16233" lon="6.27581">
        <ele>249</ele>
        <time>2019-07-29T08:16:52Z</time>
      </trkpt>
      <trkpt lat="46.16212" lon="6.27606">
        <ele>249</ele>
        <time>2019-07-29T08:16:56Z</time>
      </trkpt>
      <trkpt lat="46.16206" lon="6.27643">
        <ele>248</ele>
        <time>2019-07-29T08:17:00Z</time>
      </trkpt>
      <trkpt lat="46.16195" lon="6.27678">
        <ele>249</ele>
        <time>2019-07-29T08:17:04Z</time>
      </trkpt>
      <trkpt lat="46.16182" lon="6.27713">
        <ele>248</ele>
        <time>2019-07-29T08:17:08Z</time>
      </trkpt>
      <trkpt lat="46.16168" lon="6.27748">
        <ele>248</ele>
        <time>2019-07-29T08:17:12Z</time>
      </trkpt>
      <trkpt lat="46.16155" lon="6.27783">
        <ele>248</ele>
        <time>2019-07-29T08:17:16Z</time>
      </trkpt>
      <trkpt lat="46.16141" lon="6.27819">
        <ele>248</ele>
        <time>2019-07-29T08:17:20Z</time>
      </trkpt>
      <trkpt lat="46.16127" lon="6.27854">
        <ele>248</ele>
        <time>2019-07-29T08:17:24Z</time>
      </trkpt>
      <trkpt lat="46.16113" lon="6.27891">
        <ele>246</ele>
        <time>2019-07-29T08:17:28Z</time>
      </trkpt>
      <trkpt lat="46.16099" lon="6.27927">
        <ele>247</ele>
        <time>2019-07-29T08:17:32Z</time>
      </trkpt>
      <trkpt lat="46.16085" lon="6.27963">
        <ele>246</ele>
        <time>2019-07-29T08:17:36Z</time>
      </trkpt>
      <trkpt lat="46.16071" lon="6.28">
        <ele>246</ele>
        <time>2019-07-29T08:17:40Z</time>
      </trkpt>
      <trkpt lat="46.16057" lon="6.28036">
        <ele>246</ele>
        <time>2019-07-29T08:17:44Z</time>
      </trkpt>
      <trkpt lat="46.16043" lon="6.28073">
        <ele>245</ele>
        <time>2019-07-29T08:17:48Z</time>
      </trkpt>
      <trkpt lat="46.1603" lon="6.28109">
        <ele>246</ele>
        <time>2019-07-29T08:17:52Z</time>
      </trkpt>
      <trkpt lat="46.16016" lon="6.28145">
        <ele>246</ele>
        <time>2019-07-29T08:17:56Z</time>
      </trkpt>
      <trkpt lat="46.16002" lon="6.28181">
        <ele>246</ele>
        <time>2019-07-29T08:18:00Z</time>
      </trkpt>
      <trkpt lat="46.15987" lon="6.28216">
        <ele>246</ele>
        <time>2019-07-29T08:18:04Z</time>
      </trkpt>
      <trkpt lat="46.15971" lon="6.28251">
        <ele>245</ele>
        <time>2019-07-29T08:18:08Z</time>
      </trkpt>
      <trkpt lat="46.15956" lon="6.28284">
        <ele>245</ele>
        <time>2019-07-29T08:18:12Z</time>
      </trkpt>
      <trkpt lat="46.15937" lon="6.28317">
        <ele>245</ele>
        <time>2019-07-29T08:18:16Z</time>
      </trkpt>
      <trkpt lat="46.15918" lon="6.2835">
        <ele>245</ele>
        <time>2019-07-29T08:18:20Z</time>
      </trkpt>
      <trkpt lat="46.15901" lon="6.28383">
        <ele>244</ele>
        <time>2019-07-29T08:18:24Z</time>
      </trkpt>
      <trkpt lat="46.15886" lon="6.2842">
        <ele>241</ele>
        <time>2019-07-29T08:18:28Z</time>
      </trkpt>
      <trkpt lat="46.15872" lon="6.28463">
        <ele>241</ele>
        <time>2019-07-29T08:18:32Z</time>
      </trkpt>
      <trkpt lat="46.15862" lon="6.28508">
        <ele>239</ele>
        <time>2019-07-29T08:18:36Z</time>
      </trkpt>
      <trkpt lat="46.15852" lon="6.28553">
        <ele>239</ele>
        <time>2019-07-29T08:18:40Z</time>
      </trkpt>
      <trkpt lat="46.15841" lon="6.28598">
        <ele>237</ele>
        <time>2019-07-29T08:18:44Z</time>
      </trkpt>
      <trkpt lat="46.1583" lon="6.28647">
        <ele>236</ele>
        <time>2019-07-29T08:18:48Z</time>
      </trkpt>
      <trkpt lat="46.15819" lon="6.28696">
        <ele>237</ele>
        <time>2019-07-29T08:18:52Z</time>
      </trkpt>
      <trkpt lat="46.15808" lon="6.28744">
        <ele>238</ele>
        <time>2019-07-29T08:18:56Z</time>
      </trkpt>
      <trkpt lat="46.15796" lon="6.28791">
        <ele>238</ele>
        <time>2019-07-29T08:19:00Z</time>
      </trkpt>
      <trkpt lat="46.15785" lon="6.28837">
        <ele>238</ele>
        <time>2019-07-29T08:19:04Z</time>
      </trkpt>
      <trkpt lat="46.15774" lon="6.28882">
        <ele>238</ele>
        <time>2019-07-29T08:19:08Z</time>
      </trkpt>
      <trkpt lat="46.15762" lon="6.28925">
        <ele>238</ele>
        <time>2019-07-29T08:19:12Z</time>
      </trkpt>
      <trkpt lat="46.15754" lon="6.28968">
        <ele>238</ele>
        <time>2019-07-29T08:19:16Z</time>
      </trkpt>
      <trkpt lat="46.15747" lon="6.29009">
        <ele>239</ele>
        <time>2019-07-29T08:19:20Z</time>
      </trkpt>
      <trkpt lat="46.15738" lon="6.29048">
        <ele>239</ele>
        <time>2019-07-29T08:19:24Z</time>
      </trkpt>
      <trkpt lat="46.1573" lon="6.29088">
        <ele>240</ele>
        <time>2019-07-29T08:19:28Z</time>
      </trkpt>
      <trkpt lat="46.15722" lon="6.29126">
        <ele>240</ele>
        <time>2019-07-29T08:19:32Z</time>
      </trkpt>
      <trkpt lat="46.15714" lon="6.29165">
        <ele>240</ele>
        <time>2019-07-29T08:19:36Z</time>
      </trkpt>
      <trkpt lat="46.15706" lon="6.29204">
        <ele>240</ele>
        <time>2019-07-29T08:19:40Z</time>
      </trkpt>
      <trkpt lat="46.15697" lon="6.29242">
        <ele>240</ele>
        <time>2019-07-29T08:19:44Z</time>
      </trkpt>
      <trkpt lat="46.15689" lon="6.29281">
        <ele>239</ele>
        <time>2019-07-29T08:19:48Z</time>
      </trkpt>
      <trkpt lat="46.15682" lon="6.29321">
        <ele>240</ele>
        <time>2019-07-29T08:19:52Z</time>
      </trkpt>
      <trkpt lat="46.15673" lon="6.29359">
        <ele>241</ele>
        <time>2019-07-29T08:19:56Z</time>
      </trkpt>
      <trkpt lat="46.15664" lon="6.29398">
        <ele>241</ele>
        <time>2019-07-29T08:20:00Z</time>
      </trkpt>
      <trkpt lat="46.15656" lon="6.29437">
        <ele>240</ele>
        <time>2019-07-29T08:20:04Z</time>
      </trkpt>
      <trkpt lat="46.15647" lon="6.29477">
        <ele>240</ele>
        <time>2019-07-29T08:20:08Z</time>
      </trkpt>
      <trkpt lat="46.15638" lon="6.29516">
        <ele>240</ele>
        <time>2019-07-29T08:20:12Z</time>
      </trkpt>
      <trkpt lat="46.1563" lon="6.29558">
        <ele>240</ele>
        <time>2019-07-29T08:20:16Z</time>
      </trkpt>
      <trkpt lat="46.15622" lon="6.29597">
        <ele>241</ele>
        <time>2019-07-29T08:20:20Z</time>
      </trkpt>
      <trkpt lat="46.15616" lon="6.29629">
        <ele>243</ele>
        <time>2019-07-29T08:20:24Z</time>
      </trkpt>
      <trkpt lat="46.15612" lon="6.29649">
        <ele>241</ele>
        <time>2019-07-29T08:20:28Z</time>
      </trkpt>
      <trkpt lat="46.15608" lon="6.29677">
        <ele>241</ele>
        <time>2019-07-29T08:20:32Z</time>
      </trkpt>
      <trkpt lat="46.15599" lon="6.29712">
        <ele>241</ele>
        <time>2019-07-29T08:20:36Z</time>
      </trkpt>
      <trkpt lat="46.15592" lon="6.29749">
        <ele>241</ele>
        <time>2019-07-29T08:20:40Z</time>
      </trkpt>
      <trkpt lat="46.15586" lon="6.29789">
        <ele>242</ele>
        <time>2019-07-29T08:20:44Z</time>
      </trkpt>
      <trkpt lat="46.15586" lon="6.29822">
        <ele>242</ele>
        <time>2019-07-29T08:20:48Z</time>
      </trkpt>
      <trkpt lat="46.1558" lon="6.29846">
        <ele>240</ele>
        <time>2019-07-29T08:20:52Z</time>
      </trkpt>
      <trkpt lat="46.15565" lon="6.29871">
        <ele>238</ele>
        <time>2019-07-29T08:20:56Z</time>
      </trkpt>
      <trkpt lat="46.15555" lon="6.29907">
        <ele>238</ele>
        <time>2019-07-29T08:21:00Z</time>
      </trkpt>
      <trkpt lat="46.15546" lon="6.29947">
        <ele>239</ele>
        <time>2019-07-29T08:21:04Z</time>
      </trkpt>
      <trkpt lat="46.15537" lon="6.29988">
        <ele>240</ele>
        <time>2019-07-29T08:21:08Z</time>
      </trkpt>
      <trkpt lat="46.15528" lon="6.30029">
        <ele>239</ele>
        <time>2019-07-29T08:21:12Z</time>
      </trkpt>
      <trkpt lat="46.15519" lon="6.3007">
        <ele>240</ele>
        <time>2019-07-29T08:21:16Z</time>
      </trkpt>
      <trkpt lat="46.15511" lon="6.3011">
        <ele>240</ele>
        <time>2019-07-29T08:21:20Z</time>
      </trkpt>
      <trkpt lat="46.15502" lon="6.30151">
        <ele>241</ele>
        <time>2019-07-29T08:21:24Z</time>
      </trkpt>
      <trkpt lat="46.15495" lon="6.3019">
        <ele>242</ele>
        <time>2019-07-29T08:21:28Z</time>
      </trkpt>
      <trkpt lat="46.15487" lon="6.30231">
        <ele>242</ele>
        <time>2019-07-29T08:21:32Z</time>
      </trkpt>
      <trkpt lat="46.15478" lon="6.3027">
        <ele>241</ele>
        <time>2019-07-29T08:21:36Z</time>
      </trkpt>
      <trkpt lat="46.15469" lon="6.30311">
        <ele>242</ele>
        <time>2019-07-29T08:21:40Z</time>
      </trkpt>
      <trkpt lat="46.15459" lon="6.30351">
        <ele>243</ele>
        <time>2019-07-29T08:21:44Z</time>
      </trkpt>
      <trkpt lat="46.15449" lon="6.30389">
        <ele>243</ele>
        <time>2019-07-29T08:21:48Z</time>
      </trkpt>
      <trkpt lat="46.1544" lon="6.30428">
        <ele>243</ele>
        <time>2019-07-29T08:21:52Z</time>
      </trkpt>
      <trkpt lat="46.15433" lon="6.30469">
        <ele>244</ele>
        <time>2019-07-29T08:21:56Z</time>
      </trkpt>
      <trkpt lat="46.15428" lon="6.3051">
        <ele>244</ele>
        <time>2019-07-29T08:22:00Z</time>
      </trkpt>
      <trkpt lat="46.15421" lon="6.30548">
        <ele>245</ele>
        <time>2019-07-29T08:22:04Z</time>
      </trkpt>
      <trkpt lat="46.15411" lon="6.30587">
        <ele>244</ele>
        <time>2019-07-29T08:22:08Z</time>
      </trkpt>
      <trkpt lat="46.154" lon="6.30626">
        <ele>243</ele>
        <time>2019-07-29T08:22:12Z</time>
      </trkpt>
      <trkpt lat="46.15388" lon="6.30663">
        <ele>243</ele>
        <time>2019-07-29T08:22:16Z</time>
      </trkpt>
      <trkpt lat="46.15367" lon="6.30693">
        <ele>244</ele>
        <time>2019-07-29T08:22:20Z</time>
      </trkpt>
      <trkpt lat="46.1535" lon="6.30713">
        <ele>242</ele>
        <time>2019-07-29T08:22:24Z</time>
      </trkpt>
      <trkpt lat="46.15334" lon="6.30739">
        <ele>242</ele>
        <time>2019-07-29T08:22:28Z</time>
      </trkpt>
      <trkpt lat="46.15316" lon="6.30774">
        <ele>242</ele>
        <time>2019-07-29T08:22:32Z</time>
      </trkpt>
      <trkpt lat="46.153" lon="6.30813">
        <ele>242</ele>
        <time>2019-07-29T08:22:36Z</time>
      </trkpt>
      <trkpt lat="46.15291" lon="6.30858">
        <ele>242</ele>
        <time>2019-07-29T08:22:40Z</time>
      </trkpt>
      <trkpt lat="46.15284" lon="6.30903">
        <ele>242</ele>
        <time>2019-07-29T08:22:44Z</time>
      </trkpt>
      <trkpt lat="46.15272" lon="6.30946">
        <ele>241</ele>
        <time>2019-07-29T08:22:48Z</time>
      </trkpt>
      <trkpt lat="46.15256" lon="6.30985">
        <ele>242</ele>
        <time>2019-07-29T08:22:52Z</time>
      </trkpt>
      <trkpt lat="46.15237" lon="6.31023">
        <ele>242</ele>
        <time>2019-07-29T08:22:56Z</time>
      </trkpt>
      <trkpt lat="46.15216" lon="6.3106">
        <ele>241</ele>
        <time>2019-07-29T08:23:00Z</time>
      </trkpt>
      <trkpt lat="46.15197" lon="6.31099">
        <ele>241</ele>
        <time>2019-07-29T08:23:04Z</time>
      </trkpt>
      <trkpt lat="46.15176" lon="6.31136">
        <ele>239</ele>
        <time>2019-07-29T08:23:08Z</time>
      </trkpt>
      <trkpt lat="46.15155" lon="6.31175">
        <ele>239</ele>
        <time>2019-07-29T08:23:12Z</time>
      </trkpt>
      <trkpt lat="46.15135" lon="6.31215">
        <ele>238</ele>
        <time>2019-07-29T08:23:16Z</time>
      </trkpt>
      <trkpt lat="46.15113" lon="6.31256">
        <ele>239</ele>
        <time>2019-07-29T08:23:20Z</time>
      </trkpt>
      <trkpt lat="46.15093" lon="6.31295">
        <ele>239</ele>
        <time>2019-07-29T08:23:24Z</time>
      </trkpt>
      <trkpt lat="46.15074" lon="6.31332">
        <ele>240</ele>
        <time>2019-07-29T08:23:28Z</time>
      </trkpt>
      <trkpt lat="46.15056" lon="6.31366">
        <ele>241</ele>
        <time>2019-07-29T08:23:32Z</time>
      </trkpt>
      <trkpt lat="46.15039" lon="6.31399">
        <ele>242</ele>
        <time>2019-07-29T08:23:36Z</time>
      </trkpt>
      <trkpt lat="46.15023" lon="6.31432">
        <ele>242</ele>
        <time>2019-07-29T08:23:40Z</time>
      </trkpt>
      <trkpt lat="46.15007" lon="6.31463">
        <ele>242</ele>
        <time>2019-07-29T08:23:44Z</time>
      </trkpt>
      <trkpt lat="46.14988" lon="6.31493">
        <ele>241</ele>
        <time>2019-07-29T08:23:48Z</time>
      </trkpt>
      <trkpt lat="46.14967" lon="6.3152">
        <ele>242</ele>
        <time>2019-07-29T08:23:52Z</time>
      </trkpt>
      <trkpt lat="46.14943" lon="6.31543">
        <ele>241</ele>
        <time>2019-07-29T08:23:56Z</time>
      </trkpt>
      <trkpt lat="46.14921" lon="6.31571">
        <ele>241</ele>
        <time>2019-07-29T08:24:00Z</time>
      </trkpt>
      <trkpt lat="46.14903" lon="6.31604">
        <ele>242</ele>
        <time>2019-07-29T08:24:04Z</time>
      </trkpt>
      <trkpt lat="46.14889" lon="6.3164">
        <ele>242</ele>
        <time>2019-07-29T08:24:08Z</time>
      </trkpt>
      <trkpt lat="46.14874" lon="6.31675">
        <ele>242</ele>
        <time>2019-07-29T08:24:12Z</time>
      </trkpt>
      <trkpt lat="46.1486" lon="6.3171">
        <ele>243</ele>
        <time>2019-07-29T08:24:16Z</time>
      </trkpt>
      <trkpt lat="46.14845" lon="6.31746">
        <ele>241</ele>
        <time>2019-07-29T08:24:20Z</time>
      </trkpt>
      <trkpt lat="46.14831" lon="6.31783">
        <ele>241</ele>
        <time>2019-07-29T08:24:24Z</time>
      </trkpt>
      <trkpt lat="46.1482" lon="6.31821">
        <ele>240</ele>
        <time>2019-07-29T08:24:28Z</time>
      </trkpt>
      <trkpt lat="46.14812" lon="6.31866">
        <ele>239</ele>
        <time>2019-07-29T08:24:32Z</time>
      </trkpt>
      <trkpt lat="46.148" lon="6.31907">
        <ele>241</ele>
        <time>2019-07-29T08:24:36Z</time>
      </trkpt>
      <trkpt lat="46.14784" lon="6.31945">
        <ele>242</ele>
        <time>2019-07-29T08:24:40Z</time>
      </trkpt>
      <trkpt lat="46.14769" lon="6.31976">
        <ele>244</ele>
        <time>2019-07-29T08:24:44Z</time>
      </trkpt>
      <trkpt lat="46.1476" lon="6.31995">
        <ele>244</ele>
        <time>2019-07-29T08:24:48Z</time>
      </trkpt>
      <trkpt lat="46.14756" lon="6.32004">
        <ele>243</ele>
        <time>2019-07-29T08:24:52Z</time>
      </trkpt>
      <trkpt lat="46.14748" lon="6.32025">
        <ele>241</ele>
        <time>2019-07-29T08:24:56Z</time>
      </trkpt>
      <trkpt lat="46.14733" lon="6.32056">
        <ele>238</ele>
        <time>2019-07-29T08:25:00Z</time>
      </trkpt>
      <trkpt lat="46.14716" lon="6.32096">
        <ele>236</ele>
        <time>2019-07-29T08:25:04Z</time>
      </trkpt>
      <trkpt lat="46.14695" lon="6.32141">
        <ele>234</ele>
        <time>2019-07-29T08:25:08Z</time>
      </trkpt>
      <trkpt lat="46.14673" lon="6.32186">
        <ele>235</ele>
        <time>2019-07-29T08:25:12Z</time>
      </trkpt>
      <trkpt lat="46.14645" lon="6.32228">
        <ele>234</ele>
        <time>2019-07-29T08:25:16Z</time>
      </trkpt>
      <trkpt lat="46.14616" lon="6.32266">
        <ele>234</ele>
        <time>2019-07-29T08:25:20Z</time>
      </trkpt>
      <trkpt lat="46.14587" lon="6.32302">
        <ele>234</ele>
        <time>2019-07-29T08:25:24Z</time>
      </trkpt>
      <trkpt lat="46.1456" lon="6.32338">
        <ele>235</ele>
        <time>2019-07-29T08:25:28Z</time>
      </trkpt>
      <trkpt lat="46.14534" lon="6.32374">
        <ele>235</ele>
        <time>2019-07-29T08:25:32Z</time>
      </trkpt>
      <trkpt lat="46.14508" lon="6.3241">
        <ele>234</ele>
        <time>2019-07-29T08:25:36Z</time>
      </trkpt>
      <trkpt lat="46.14482" lon="6.32445">
        <ele>234</ele>
        <time>2019-07-29T08:25:40Z</time>
      </trkpt>
      <trkpt lat="46.14457" lon="6.32479">
        <ele>234</ele>
        <time>2019-07-29T08:25:44Z</time>
      </trkpt>
      <trkpt lat="46.14432" lon="6.32512">
        <ele>234</ele>
        <time>2019-07-29T08:25:48Z</time>
      </trkpt>
      <trkpt lat="46.14402" lon="6.32532">
        <ele>234</ele>
        <time>2019-07-29T08:25:52Z</time>
      </trkpt>
      <trkpt lat="46.14383" lon="6.32566">
        <ele>235</ele>
        <time>2019-07-29T08:25:56Z</time>
      </trkpt>
      <trkpt lat="46.1437" lon="6.32607">
        <ele>234</ele>
        <time>2019-07-29T08:26:00Z</time>
      </trkpt>
      <trkpt lat="46.14351" lon="6.32643">
        <ele>234</ele>
        <time>2019-07-29T08:26:04Z</time>
      </trkpt>
      <trkpt lat="46.14331" lon="6.32679">
        <ele>233</ele>
        <time>2019-07-29T08:26:08Z</time>
      </trkpt>
      <trkpt lat="46.1431" lon="6.32713">
        <ele>232</ele>
        <time>2019-07-29T08:26:12Z</time>
      </trkpt>
      <trkpt lat="46.14285" lon="6.32742">
        <ele>231</ele>
        <time>2019-07-29T08:26:16Z</time>
      </trkpt>
      <trkpt lat="46.14258" lon="6.32769">
        <ele>230</ele>
        <time>2019-07-29T08:26:20Z</time>
      </trkpt>
      <trkpt lat="46.14231" lon="6.32796">
        <ele>230</ele>
        <time>2019-07-29T08:26:24Z</time>
      </trkpt>
      <trkpt lat="46.14201" lon="6.32824">
        <ele>229</ele>
        <time>2019-07-29T08:26:28Z</time>
      </trkpt>
      <trkpt lat="46.14172" lon="6.32853">
        <ele>229</ele>
        <time>2019-07-29T08:26:32Z</time>
      </trkpt>
      <trkpt lat="46.14142" lon="6.32882">
        <ele>229</ele>
        <time>2019-07-29T08:26:36Z</time>
      </trkpt>
      <trkpt lat="46.14113" lon="6.32911">
        <ele>228</ele>
        <time>2019-07-29T08:26:40Z</time>
      </trkpt>
      <trkpt lat="46.14083" lon="6.32939">
        <ele>228</ele>
        <time>2019-07-29T08:26:44Z</time>
      </trkpt>
      <trkpt lat="46.14055" lon="6.32966">
        <ele>228</ele>
        <time>2019-07-29T08:26:48Z</time>
      </trkpt>
      <trkpt lat="46.14028" lon="6.32993">
        <ele>228</ele>
        <time>2019-07-29T08:26:52Z</time>
      </trkpt>
      <trkpt lat="46.14002" lon="6.33019">
        <ele>228</ele>
        <time>2019-07-29T08:26:56Z</time>
      </trkpt>
      <trkpt lat="46.13975" lon="6.33045">
        <ele>227</ele>
        <time>2019-07-29T08:27:00Z</time>
      </trkpt>
      <trkpt lat="46.13949" lon="6.33071">
        <ele>228</ele>
        <time>2019-07-29T08:27:04Z</time>
      </trkpt>
      <trkpt lat="46.13923" lon="6.33096">
        <ele>228</ele>
        <time>2019-07-29T08:27:08Z</time>
      </trkpt>
      <trkpt lat="46.13897" lon="6.33121">
        <ele>228</ele>
        <time>2019-07-29T08:27:12Z</time>
      </trkpt>
      <trkpt lat="46.1387" lon="6.33146">
        <ele>228</ele>
        <time>2019-07-29T08:27:16Z</time>
      </trkpt>
      <trkpt lat="46.13844" lon="6.33172">
        <ele>227</ele>
        <time>2019-07-29T08:27:20Z</time>
      </trkpt>
      <trkpt lat="46.13817" lon="6.33198">
        <ele>228</ele>
        <time>2019-07-29T08:27:24Z</time>
      </trkpt>
      <trkpt lat="46.13791" lon="6.33223">
        <ele>228</ele>
        <time>2019-07-29T08:27:28Z</time>
      </trkpt>
      <trkpt lat="46.13765" lon="6.33248">
        <ele>228</ele>
        <time>2019-07-29T08:27:32Z</time>
      </trkpt>
      <trkpt lat="46.13738" lon="6.33275">
        <ele>226</ele>
        <time>2019-07-29T08:27:36Z</time>
      </trkpt>
      <trkpt lat="46.13712" lon="6.33302">
        <ele>227</ele>
        <time>2019-07-29T08:27:40Z</time>
      </trkpt>
      <trkpt lat="46.13684" lon="6.33328">
        <ele>228</ele>
        <time>2019-07-29T08:27:44Z</time>
      </trkpt>
      <trkpt lat="46.13657" lon="6.33354">
        <ele>228</ele>
        <time>2019-07-29T08:27:48Z</time>
      </trkpt>
      <trkpt lat="46.13629" lon="6.3338">
        <ele>227</ele>
        <time>2019-07-29T08:27:52Z</time>
      </trkpt>
      <trkpt lat="46.13599" lon="6.33405">
        <ele>226</ele>
        <time>2019-07-29T08:27:56Z</time>
      </trkpt>
      <trkpt lat="46.1357" lon="6.3343">
        <ele>226</ele>
        <time>2019-07-29T08:28:00Z</time>
      </trkpt>
      <trkpt lat="46.13542" lon="6.33457">
        <ele>226</ele>
        <time>2019-07-29T08:28:04Z</time>
      </trkpt>
      <trkpt lat="46.13514" lon="6.33483">
        <ele>226</ele>
        <time>2019-07-29T08:28:08Z</time>
      </trkpt>
      <trkpt lat="46.13487" lon="6.3351">
        <ele>226</ele>
        <time>2019-07-29T08:28:12Z</time>
      </trkpt>
      <trkpt lat="46.1346" lon="6.33538">
        <ele>225</ele>
        <time>2019-07-29T08:28:16Z</time>
      </trkpt>
      <trkpt lat="46.13435" lon="6.33566">
        <ele>225</ele>
        <time>2019-07-29T08:28:20Z</time>
      </trkpt>
      <trkpt lat="46.13409" lon="6.33592">
        <ele>225</ele>
        <time>2019-07-29T08:28:24Z</time>
      </trkpt>
      <trkpt lat="46.13383" lon="6.33618">
        <ele>225</ele>
        <time>2019-07-29T08:28:28Z</time>
      </trkpt>
      <trkpt lat="46.13358" lon="6.33645">
        <ele>226</ele>
        <time>2019-07-29T08:28:32Z</time>
      </trkpt>
      <trkpt lat="46.13331" lon="6.33668">
        <ele>227</ele>
        <time>2019-07-29T08:28:36Z</time>
      </trkpt>
      <trkpt lat="46.13305" lon="6.33689">
        <ele>227</ele>
        <time>2019-07-29T08:28:40Z</time>
      </trkpt>
      <trkpt lat="46.13279" lon="6.33707">
        <ele>227</ele>
        <time>2019-07-29T08:28:44Z</time>
      </trkpt>
      <trkpt lat="46.13251" lon="6.33726">
        <ele>226</ele>
        <time>2019-07-29T08:28:48Z</time>
      </trkpt>
      <trkpt lat="46.13223" lon="6.33745">
        <ele>226</ele>
        <time>2019-07-29T08:28:52Z</time>
      </trkpt>
      <trkpt lat="46.13196" lon="6.33764">
        <ele>226</ele>
        <time>2019-07-29T08:28:56Z</time>
      </trkpt>
      <trkpt lat="46.13168" lon="6.33781">
        <ele>226</ele>
        <time>2019-07-29T08:29:00Z</time>
      </trkpt>
      <trkpt lat="46.13138" lon="6.33792">
        <ele>224</ele>
        <time>2019-07-29T08:29:04Z</time>
      </trkpt>
      <trkpt lat="46.13108" lon="6.33799">
        <ele>224</ele>
        <time>2019-07-29T08:29:08Z</time>
      </trkpt>
      <trkpt lat="46.13077" lon="6.33809">
        <ele>223</ele>
        <time>2019-07-29T08:29:12Z</time>
      </trkpt>
      <trkpt lat="46.13048" lon="6.33824">
        <ele>223</ele>
        <time>2019-07-29T08:29:16Z</time>
      </trkpt>
      <trkpt lat="46.1302" lon="6.33846">
        <ele>223</ele>
        <time>2019-07-29T08:29:20Z</time>
      </trkpt>
      <trkpt lat="46.12992" lon="6.33865">
        <ele>222</ele>
        <time>2019-07-29T08:29:24Z</time>
      </trkpt>
      <trkpt lat="46.12962" lon="6.33877">
        <ele>222</ele>
        <time>2019-07-29T08:29:28Z</time>
      </trkpt>
      <trkpt lat="46.12932" lon="6.33892">
        <ele>222</ele>
        <time>2019-07-29T08:29:32Z</time>
      </trkpt>
      <trkpt lat="46.12902" lon="6.33906">
        <ele>223</ele>
        <time>2019-07-29T08:29:36Z</time>
      </trkpt>
      <trkpt lat="46.12873" lon="6.33919">
        <ele>222</ele>
        <time>2019-07-29T08:29:40Z</time>
      </trkpt>
      <trkpt lat="46.12845" lon="6.33933">
        <ele>220</ele>
        <time>2019-07-29T08:29:44Z</time>
      </trkpt>
      <trkpt lat="46.12815" lon="6.33948">
        <ele>220</ele>
        <time>2019-07-29T08:29:48Z</time>
      </trkpt>
      <trkpt lat="46.12783" lon="6.3396">
        <ele>220</ele>
        <time>2019-07-29T08:29:52Z</time>
      </trkpt>
      <trkpt lat="46.1275" lon="6.33972">
        <ele>220</ele>
        <time>2019-07-29T08:29:56Z</time>
      </trkpt>
      <trkpt lat="46.1272" lon="6.33985">
        <ele>219</ele>
        <time>2019-07-29T08:30:00Z</time>
      </trkpt>
      <trkpt lat="46.12693" lon="6.33996">
        <ele>221</ele>
        <time>2019-07-29T08:30:04Z</time>
      </trkpt>
      <trkpt lat="46.12665" lon="6.34011">
        <ele>221</ele>
        <time>2019-07-29T08:30:08Z</time>
      </trkpt>
      <trkpt lat="46.12639" lon="6.34031">
        <ele>219</ele>
        <time>2019-07-29T08:30:12Z</time>
      </trkpt>
      <trkpt lat="46.12612" lon="6.3405">
        <ele>219</ele>
        <time>2019-07-29T08:30:16Z</time>
      </trkpt>
      <trkpt lat="46.12585" lon="6.3407">
        <ele>217</ele>
        <time>2019-07-29T08:30:20Z</time>
      </trkpt>
      <trkpt lat="46.12558" lon="6.34095">
        <ele>216</ele>
        <time>2019-07-29T08:30:24Z</time>
      </trkpt>
      <trkpt lat="46.12528" lon="6.34119">
        <ele>218</ele>
        <time>2019-07-29T08:30:28Z</time>
      </trkpt>
      <trkpt lat="46.12497" lon="6.34132">
        <ele>220</ele>
        <time>2019-07-29T08:30:32Z</time>
      </trkpt>
      <trkpt lat="46.12471" lon="6.34143">
        <ele>221</ele>
        <time>2019-07-29T08:30:36Z</time>
      </trkpt>
      <trkpt lat="46.12447" lon="6.34155">
        <ele>222</ele>
        <time>2019-07-29T08:30:40Z</time>
      </trkpt>
      <trkpt lat="46.12425" lon="6.34168">
        <ele>223</ele>
        <time>2019-07-29T08:30:44Z</time>
      </trkpt>
      <trkpt lat="46.12414" lon="6.3417">
        <ele>223</ele>
        <time>2019-07-29T08:30:48Z</time>
      </trkpt>
      <trkpt lat="46.12413" lon="6.34169">
        <ele>223</ele>
        <time>2019-07-29T08:30:52Z</time>
      </trkpt>
      <trkpt lat="46.12414" lon="6.34171">
        <ele>224</ele>
        <time>2019-07-29T08:31:56Z</time>
      </trkpt>
      <trkpt lat="46.12413" lon="6.34175">
        <ele>223</ele>
        <time>2019-07-29T08:32:04Z</time>
      </trkpt>
      <trkpt lat="46.12405" lon="6.3418">
        <ele>221</ele>
        <time>2019-07-29T08:32:08Z</time>
      </trkpt>
      <trkpt lat="46.12389" lon="6.34191">
        <ele>219</ele>
        <time>2019-07-29T08:32:12Z</time>
      </trkpt>
      <trkpt lat="46.12367" lon="6.34203">
        <ele>219</ele>
        <time>2019-07-29T08:32:16Z</time>
      </trkpt>
      <trkpt lat="46.12343" lon="6.34214">
        <ele>219</ele>
        <time>2019-07-29T08:32:20Z</time>
      </trkpt>
      <trkpt lat="46.12317" lon="6.34224">
        <ele>218</ele>
        <time>2019-07-29T08:32:24Z</time>
      </trkpt>
      <trkpt lat="46.12289" lon="6.34232">
        <ele>217</ele>
        <time>2019-07-29T08:32:28Z</time>
      </trkpt>
      <trkpt lat="46.12262" lon="6.34244">
        <ele>217</ele>
        <time>2019-07-29T08:32:32Z</time>
      </trkpt>
      <trkpt lat="46.12235" lon="6.34262">
        <ele>216</ele>
        <time>2019-07-29T08:32:36Z</time>
      </trkpt>
      <trkpt lat="46.12209" lon="6.34287">
        <ele>216</ele>
        <time>2019-07-29T08:32:40Z</time>
      </trkpt>
      <trkpt lat="46.12186" lon="6.34317">
        <ele>216</ele>
        <time>2019-07-29T08:32:44Z</time>
      </trkpt>
      <trkpt lat="46.12167" lon="6.34352">
        <ele>216</ele>
        <time>2019-07-29T08:32:48Z</time>
      </trkpt>
      <trkpt lat="46.12149" lon="6.34387">
        <ele>216</ele>
        <time>2019-07-29T08:32:52Z</time>
      </trkpt>
      <trkpt lat="46.1213" lon="6.34422">
        <ele>216</ele>
        <time>2019-07-29T08:32:56Z</time>
      </trkpt>
      <trkpt lat="46.12108" lon="6.34451">
        <ele>216</ele>
        <time>2019-07-29T08:33:00Z</time>
      </trkpt>
      <trkpt lat="46.12082" lon="6.34475">
        <ele>214</ele>
        <time>2019-07-29T08:33:04Z</time>
      </trkpt>
      <trkpt lat="46.12053" lon="6.34493">
        <ele>214</ele>
        <time>2019-07-29T08:33:08Z</time>
      </trkpt>
      <trkpt lat="46.12021" lon="6.34505">
        <ele>215</ele>
        <time>2019-07-29T08:33:12Z</time>
      </trkpt>
      <trkpt lat="46.1199" lon="6.34519">
        <ele>214</ele>
        <time>2019-07-29T08:33:16Z</time>
      </trkpt>
      <trkpt lat="46.1196" lon="6.3454">
        <ele>212</ele>
        <time>2019-07-29T08:33:20Z</time>
      </trkpt>
      <trkpt lat="46.11932" lon="6.34565">
        <ele>213</ele>
        <time>2019-07-29T08:33:24Z</time>
      </trkpt>
      <trkpt lat="46.11906" lon="6.34593">
        <ele>211</ele>
        <time>2019-07-29T08:33:28Z</time>
      </trkpt>
      <trkpt lat="46.11882" lon="6.34623">
        <ele>210</ele>
        <time>2019-07-29T08:33:32Z</time>
      </trkpt>
      <trkpt lat="46.11855" lon="6.34653">
        <ele>210</ele>
        <time>2019-07-29T08:33:36Z</time>
      </trkpt>
      <trkpt lat="46.11825" lon="6.34679">
        <ele>210</ele>
        <time>2019-07-29T08:33:40Z</time>
      </trkpt>
      <trkpt lat="46.11793" lon="6.34698">
        <ele>210</ele>
        <time>2019-07-29T08:33:44Z</time>
      </trkpt>
      <trkpt lat="46.1176" lon="6.34715">
        <ele>209</ele>
        <time>2019-07-29T08:33:48Z</time>
      </trkpt>
      <trkpt lat="46.11728" lon="6.34733">
        <ele>209</ele>
        <time>2019-07-29T08:33:52Z</time>
      </trkpt>
      <trkpt lat="46.11697" lon="6.3475">
        <ele>210</ele>
        <time>2019-07-29T08:33:56Z</time>
      </trkpt>
      <trkpt lat="46.11671" lon="6.34776">
        <ele>210</ele>
        <time>2019-07-29T08:34:00Z</time>
      </trkpt>
      <trkpt lat="46.11649" lon="6.34802">
        <ele>212</ele>
        <time>2019-07-29T08:34:04Z</time>
      </trkpt>
      <trkpt lat="46.11629" lon="6.3482">
        <ele>212</ele>
        <time>2019-07-29T08:34:08Z</time>
      </trkpt>
      <trkpt lat="46.11619" lon="6.34829">
        <ele>213</ele>
        <time>2019-07-29T08:34:12Z</time>
      </trkpt>
      <trkpt lat="46.11615" lon="6.34846">
        <ele>214</ele>
        <time>2019-07-29T08:34:16Z</time>
      </trkpt>
      <trkpt lat="46.11603" lon="6.34864">
        <ele>214</ele>
        <time>2019-07-29T08:34:20Z</time>
      </trkpt>
      <trkpt lat="46.11593" lon="6.34884">
        <ele>215</ele>
        <time>2019-07-29T08:34:24Z</time>
      </trkpt>
      <trkpt lat="46.11583" lon="6.34905">
        <ele>215</ele>
        <time>2019-07-29T08:34:28Z</time>
      </trkpt>
      <trkpt lat="46.11572" lon="6.34929">
        <ele>216</ele>
        <time>2019-07-29T08:34:32Z</time>
      </trkpt>
      <trkpt lat="46.11561" lon="6.34953">
        <ele>217</ele>
        <time>2019-07-29T08:34:36Z</time>
      </trkpt>
      <trkpt lat="46.11549" lon="6.34977">
        <ele>217</ele>
        <time>2019-07-29T08:34:40Z</time>
      </trkpt>
      <trkpt lat="46.1154" lon="6.35">
        <ele>219</ele>
        <time>2019-07-29T08:34:44Z</time>
      </trkpt>
      <trkpt lat="46.11527" lon="6.35019">
        <ele>220</ele>
        <time>2019-07-29T08:34:48Z</time>
      </trkpt>
      <trkpt lat="46.1151" lon="6.35032">
        <ele>220</ele>
        <time>2019-07-29T08:34:52Z</time>
      </trkpt>
      <trkpt lat="46.11492" lon="6.35043">
        <ele>221</ele>
        <time>2019-07-29T08:34:56Z</time>
      </trkpt>
      <trkpt lat="46.11474" lon="6.35055">
        <ele>221</ele>
        <time>2019-07-29T08:35:00Z</time>
      </trkpt>
      <trkpt lat="46.11457" lon="6.35069">
        <ele>222</ele>
        <time>2019-07-29T08:35:04Z</time>
      </trkpt>
      <trkpt lat="46.1144" lon="6.35083">
        <ele>222</ele>
        <time>2019-07-29T08:35:08Z</time>
      </trkpt>
      <trkpt lat="46.11427" lon="6.35102">
        <ele>222</ele>
        <time>2019-07-29T08:35:12Z</time>
      </trkpt>
      <trkpt lat="46.11416" lon="6.35127">
        <ele>223</ele>
        <time>2019-07-29T08:35:16Z</time>
      </trkpt>
      <trkpt lat="46.11412" lon="6.35154">
        <ele>225</ele>
        <time>2019-07-29T08:35:20Z</time>
      </trkpt>
      <trkpt lat="46.11411" lon="6.35177">
        <ele>227</ele>
        <time>2019-07-29T08:35:24Z</time>
      </trkpt>
      <trkpt lat="46.11411" lon="6.35197">
        <ele>227</ele>
        <time>2019-07-29T08:35:28Z</time>
      </trkpt>
      <trkpt lat="46.11404" lon="6.35214">
        <ele>228</ele>
        <time>2019-07-29T08:35:32Z</time>
      </trkpt>
      <trkpt lat="46.11391" lon="6.3522">
        <ele>229</ele>
        <time>2019-07-29T08:35:36Z</time>
      </trkpt>
      <trkpt lat="46.11376" lon="6.35223">
        <ele>230</ele>
        <time>2019-07-29T08:35:40Z</time>
      </trkpt>
      <trkpt lat="46.11361" lon="6.35227">
        <ele>230</ele>
        <time>2019-07-29T08:35:44Z</time>
      </trkpt>
      <trkpt lat="46.11344" lon="6.35236">
        <ele>230</ele>
        <time>2019-07-29T08:35:48Z</time>
      </trkpt>
      <trkpt lat="46.11329" lon="6.35247">
        <ele>231</ele>
        <time>2019-07-29T08:35:52Z</time>
      </trkpt>
      <trkpt lat="46.11315" lon="6.35261">
        <ele>232</ele>
        <time>2019-07-29T08:35:56Z</time>
      </trkpt>
      <trkpt lat="46.11301" lon="6.35277">
        <ele>232</ele>
        <time>2019-07-29T08:36:00Z</time>
      </trkpt>
      <trkpt lat="46.11287" lon="6.35294">
        <ele>233</ele>
        <time>2019-07-29T08:36:04Z</time>
      </trkpt>
      <trkpt lat="46.11273" lon="6.3531">
        <ele>233</ele>
        <time>2019-07-29T08:36:08Z</time>
      </trkpt>
      <trkpt lat="46.11258" lon="6.35328">
        <ele>233</ele>
        <time>2019-07-29T08:36:12Z</time>
      </trkpt>
      <trkpt lat="46.11243" lon="6.35345">
        <ele>234</ele>
        <time>2019-07-29T08:36:16Z</time>
      </trkpt>
      <trkpt lat="46.11228" lon="6.35362">
        <ele>234</ele>
        <time>2019-07-29T08:36:20Z</time>
      </trkpt>
      <trkpt lat="46.11213" lon="6.3538">
        <ele>235</ele>
        <time>2019-07-29T08:36:24Z</time>
      </trkpt>
      <trkpt lat="46.112" lon="6.35396">
        <ele>236</ele>
        <time>2019-07-29T08:36:28Z</time>
      </trkpt>
      <trkpt lat="46.11185" lon="6.35412">
        <ele>237</ele>
        <time>2019-07-29T08:36:32Z</time>
      </trkpt>
      <trkpt lat="46.11171" lon="6.35426">
        <ele>238</ele>
        <time>2019-07-29T08:36:36Z</time>
      </trkpt>
      <trkpt lat="46.11156" lon="6.35445">
        <ele>238</ele>
        <time>2019-07-29T08:36:40Z</time>
      </trkpt>
      <trkpt lat="46.1114" lon="6.35464">
        <ele>239</ele>
        <time>2019-07-29T08:36:44Z</time>
      </trkpt>
      <trkpt lat="46.11126" lon="6.35481">
        <ele>240</ele>
        <time>2019-07-29T08:36:48Z</time>
      </trkpt>
      <trkpt lat="46.11116" lon="6.35501">
        <ele>241</ele>
        <time>2019-07-29T08:36:52Z</time>
      </trkpt>
      <trkpt lat="46.11106" lon="6.35521">
        <ele>242</ele>
        <time>2019-07-29T08:36:56Z</time>
      </trkpt>
      <trkpt lat="46.11098" lon="6.35537">
        <ele>243</ele>
        <time>2019-07-29T08:37:00Z</time>
      </trkpt>
      <trkpt lat="46.11087" lon="6.35557">
        <ele>244</ele>
        <time>2019-07-29T08:37:04Z</time>
      </trkpt>
      <trkpt lat="46.11074" lon="6.35577">
        <ele>244</ele>
        <time>2019-07-29T08:37:08Z</time>
      </trkpt>
      <trkpt lat="46.11062" lon="6.35595">
        <ele>245</ele>
        <time>2019-07-29T08:37:12Z</time>
      </trkpt>
      <trkpt lat="46.1105" lon="6.35613">
        <ele>245</ele>
        <time>2019-07-29T08:37:16Z</time>
      </trkpt>
      <trkpt lat="46.11038" lon="6.3563">
        <ele>246</ele>
        <time>2019-07-29T08:37:20Z</time>
      </trkpt>
      <trkpt lat="46.11026" lon="6.35646">
        <ele>248</ele>
        <time>2019-07-29T08:37:24Z</time>
      </trkpt>
      <trkpt lat="46.11017" lon="6.35662">
        <ele>248</ele>
        <time>2019-07-29T08:37:28Z</time>
      </trkpt>
      <trkpt lat="46.11007" lon="6.35678">
        <ele>250</ele>
        <time>2019-07-29T08:37:32Z</time>
      </trkpt>
      <trkpt lat="46.10997" lon="6.35692">
        <ele>250</ele>
        <time>2019-07-29T08:37:36Z</time>
      </trkpt>
      <trkpt lat="46.10984" lon="6.35702">
        <ele>250</ele>
        <time>2019-07-29T08:37:40Z</time>
      </trkpt>
      <trkpt lat="46.10969" lon="6.3571">
        <ele>251</ele>
        <time>2019-07-29T08:37:44Z</time>
      </trkpt>
      <trkpt lat="46.10954" lon="6.35713">
        <ele>251</ele>
        <time>2019-07-29T08:37:48Z</time>
      </trkpt>
      <trkpt lat="46.10935" lon="6.35716">
        <ele>252</ele>
        <time>2019-07-29T08:37:52Z</time>
      </trkpt>
      <trkpt lat="46.10917" lon="6.35719">
        <ele>254</ele>
        <time>2019-07-29T08:37:56Z</time>
      </trkpt>
      <trkpt lat="46.10898" lon="6.35725">
        <ele>254</ele>
        <time>2019-07-29T08:38:00Z</time>
      </trkpt>
      <trkpt lat="46.10884" lon="6.35733">
        <ele>255</ele>
        <time>2019-07-29T08:38:04Z</time>
      </trkpt>
      <trkpt lat="46.1087" lon="6.35744">
        <ele>256</ele>
        <time>2019-07-29T08:38:08Z</time>
      </trkpt>
      <trkpt lat="46.10857" lon="6.35755">
        <ele>257</ele>
        <time>2019-07-29T08:38:12Z</time>
      </trkpt>
      <trkpt lat="46.10845" lon="6.35766">
        <ele>259</ele>
        <time>2019-07-29T08:38:16Z</time>
      </trkpt>
      <trkpt lat="46.10833" lon="6.35775">
        <ele>260</ele>
        <time>2019-07-29T08:38:20Z</time>
      </trkpt>
      <trkpt lat="46.10823" lon="6.35782">
        <ele>262</ele>
        <time>2019-07-29T08:38:24Z</time>
      </trkpt>
      <trkpt lat="46.10812" lon="6.3579">
        <ele>263</ele>
        <time>2019-07-29T08:38:28Z</time>
      </trkpt>
      <trkpt lat="46.10805" lon="6.35796">
        <ele>264</ele>
        <time>2019-07-29T08:38:32Z</time>
      </trkpt>
      <trkpt lat="46.108" lon="6.35805">
        <ele>266</ele>
        <time>2019-07-29T08:38:36Z</time>
      </trkpt>
      <trkpt lat="46.10797" lon="6.35817">
        <ele>267</ele>
        <time>2019-07-29T08:38:40Z</time>
      </trkpt>
      <trkpt lat="46.10793" lon="6.35829">
        <ele>268</ele>
        <time>2019-07-29T08:38:44Z</time>
      </trkpt>
      <trkpt lat="46.10789" lon="6.35842">
        <ele>268</ele>
        <time>2019-07-29T08:38:48Z</time>
      </trkpt>
      <trkpt lat="46.10783" lon="6.35855">
        <ele>268</ele>
        <time>2019-07-29T08:38:52Z</time>
      </trkpt>
      <trkpt lat="46.10775" lon="6.35872">
        <ele>267</ele>
        <time>2019-07-29T08:38:56Z</time>
      </trkpt>
      <trkpt lat="46.10764" lon="6.35895">
        <ele>266</ele>
        <time>2019-07-29T08:39:00Z</time>
      </trkpt>
      <trkpt lat="46.10752" lon="6.35922">
        <ele>266</ele>
        <time>2019-07-29T08:39:04Z</time>
      </trkpt>
      <trkpt lat="46.10734" lon="6.35937">
        <ele>265</ele>
        <time>2019-07-29T08:39:08Z</time>
      </trkpt>
      <trkpt lat="46.10708" lon="6.35943">
        <ele>265</ele>
        <time>2019-07-29T08:39:12Z</time>
      </trkpt>
      <trkpt lat="46.10684" lon="6.35957">
        <ele>267</ele>
        <time>2019-07-29T08:39:16Z</time>
      </trkpt>
      <trkpt lat="46.10664" lon="6.35977">
        <ele>268</ele>
        <time>2019-07-29T08:39:20Z</time>
      </trkpt>
      <trkpt lat="46.10651" lon="6.36">
        <ele>269</ele>
        <time>2019-07-29T08:39:24Z</time>
      </trkpt>
      <trkpt lat="46.10639" lon="6.36022">
        <ele>270</ele>
        <time>2019-07-29T08:39:28Z</time>
      </trkpt>
      <trkpt lat="46.10627" lon="6.36041">
        <ele>271</ele>
        <time>2019-07-29T08:39:32Z</time>
      </trkpt>
      <trkpt lat="46.10606" lon="6.36051">
        <ele>271</ele>
        <time>2019-07-29T08:39:36Z</time>
      </trkpt>
      <trkpt lat="46.10591" lon="6.36063">
        <ele>271</ele>
        <time>2019-07-29T08:39:40Z</time>
      </trkpt>
      <trkpt lat="46.10578" lon="6.36084">
        <ele>272</ele>
        <time>2019-07-29T08:39:44Z</time>
      </trkpt>
      <trkpt lat="46.10565" lon="6.36106">
        <ele>272</ele>
        <time>2019-07-29T08:39:48Z</time>
      </trkpt>
      <trkpt lat="46.10549" lon="6.36123">
        <ele>273</ele>
        <time>2019-07-29T08:39:52Z</time>
      </trkpt>
      <trkpt lat="46.10533" lon="6.36138">
        <ele>273</ele>
        <time>2019-07-29T08:39:56Z</time>
      </trkpt>
      <trkpt lat="46.10516" lon="6.36153">
        <ele>273</ele>
        <time>2019-07-29T08:40:00Z</time>
      </trkpt>
      <trkpt lat="46.105" lon="6.3617">
        <ele>274</ele>
        <time>2019-07-29T08:40:04Z</time>
      </trkpt>
      <trkpt lat="46.10482" lon="6.36188">
        <ele>275</ele>
        <time>2019-07-29T08:40:08Z</time>
      </trkpt>
      <trkpt lat="46.10464" lon="6.36202">
        <ele>275</ele>
        <time>2019-07-29T08:40:12Z</time>
      </trkpt>
      <trkpt lat="46.10445" lon="6.36215">
        <ele>276</ele>
        <time>2019-07-29T08:40:16Z</time>
      </trkpt>
      <trkpt lat="46.1043" lon="6.36234">
        <ele>276</ele>
        <time>2019-07-29T08:40:20Z</time>
      </trkpt>
      <trkpt lat="46.10419" lon="6.36258">
        <ele>276</ele>
        <time>2019-07-29T08:40:24Z</time>
      </trkpt>
      <trkpt lat="46.10409" lon="6.36285">
        <ele>276</ele>
        <time>2019-07-29T08:40:28Z</time>
      </trkpt>
      <trkpt lat="46.10393" lon="6.36305">
        <ele>277</ele>
        <time>2019-07-29T08:40:32Z</time>
      </trkpt>
      <trkpt lat="46.10375" lon="6.36319">
        <ele>278</ele>
        <time>2019-07-29T08:40:36Z</time>
      </trkpt>
      <trkpt lat="46.10353" lon="6.36321">
        <ele>278</ele>
        <time>2019-07-29T08:40:40Z</time>
      </trkpt>
      <trkpt lat="46.10331" lon="6.36319">
        <ele>277</ele>
        <time>2019-07-29T08:40:44Z</time>
      </trkpt>
      <trkpt lat="46.1031" lon="6.36333">
        <ele>278</ele>
        <time>2019-07-29T08:40:48Z</time>
      </trkpt>
      <trkpt lat="46.10292" lon="6.36355">
        <ele>277</ele>
        <time>2019-07-29T08:40:52Z</time>
      </trkpt>
      <trkpt lat="46.10269" lon="6.36365">
        <ele>277</ele>
        <time>2019-07-29T08:40:56Z</time>
      </trkpt>
      <trkpt lat="46.10244" lon="6.36371">
        <ele>278</ele>
        <time>2019-07-29T08:41:00Z</time>
      </trkpt>
      <trkpt lat="46.10224" lon="6.36384">
        <ele>278</ele>
        <time>2019-07-29T08:41:04Z</time>
      </trkpt>
      <trkpt lat="46.10202" lon="6.364">
        <ele>277</ele>
        <time>2019-07-29T08:41:08Z</time>
      </trkpt>
      <trkpt lat="46.1018" lon="6.36421">
        <ele>277</ele>
        <time>2019-07-29T08:41:12Z</time>
      </trkpt>
      <trkpt lat="46.10161" lon="6.36445">
        <ele>276</ele>
        <time>2019-07-29T08:41:16Z</time>
      </trkpt>
      <trkpt lat="46.10147" lon="6.36478">
        <ele>276</ele>
        <time>2019-07-29T08:41:20Z</time>
      </trkpt>
      <trkpt lat="46.10138" lon="6.36517">
        <ele>274</ele>
        <time>2019-07-29T08:41:24Z</time>
      </trkpt>
      <trkpt lat="46.10118" lon="6.36547">
        <ele>273</ele>
        <time>2019-07-29T08:41:28Z</time>
      </trkpt>
      <trkpt lat="46.10093" lon="6.36576">
        <ele>272</ele>
        <time>2019-07-29T08:41:32Z</time>
      </trkpt>
      <trkpt lat="46.10064" lon="6.366">
        <ele>273</ele>
        <time>2019-07-29T08:41:36Z</time>
      </trkpt>
      <trkpt lat="46.10033" lon="6.36608">
        <ele>273</ele>
        <time>2019-07-29T08:41:40Z</time>
      </trkpt>
      <trkpt lat="46.10007" lon="6.36621">
        <ele>273</ele>
        <time>2019-07-29T08:41:44Z</time>
      </trkpt>
      <trkpt lat="46.09988" lon="6.36649">
        <ele>276</ele>
        <time>2019-07-29T08:41:48Z</time>
      </trkpt>
      <trkpt lat="46.09975" lon="6.36676">
        <ele>277</ele>
        <time>2019-07-29T08:41:52Z</time>
      </trkpt>
      <trkpt lat="46.09964" lon="6.36699">
        <ele>278</ele>
        <time>2019-07-29T08:41:56Z</time>
      </trkpt>
      <trkpt lat="46.0995" lon="6.3672">
        <ele>274</ele>
        <time>2019-07-29T08:42:00Z</time>
      </trkpt>
      <trkpt lat="46.09932" lon="6.36745">
        <ele>273</ele>
        <time>2019-07-29T08:42:04Z</time>
      </trkpt>
      <trkpt lat="46.09915" lon="6.36772">
        <ele>272</ele>
        <time>2019-07-29T08:42:08Z</time>
      </trkpt>
      <trkpt lat="46.09887" lon="6.3678">
        <ele>267</ele>
        <time>2019-07-29T08:42:12Z</time>
      </trkpt>
      <trkpt lat="46.09854" lon="6.36781">
        <ele>268</ele>
        <time>2019-07-29T08:42:16Z</time>
      </trkpt>
      <trkpt lat="46.09823" lon="6.36796">
        <ele>271</ele>
        <time>2019-07-29T08:42:20Z</time>
      </trkpt>
      <trkpt lat="46.09798" lon="6.36821">
        <ele>273</ele>
        <time>2019-07-29T08:42:24Z</time>
      </trkpt>
      <trkpt lat="46.09777" lon="6.36837">
        <ele>275</ele>
        <time>2019-07-29T08:42:28Z</time>
      </trkpt>
      <trkpt lat="46.09759" lon="6.36849">
        <ele>275</ele>
        <time>2019-07-29T08:42:32Z</time>
      </trkpt>
      <trkpt lat="46.09741" lon="6.36865">
        <ele>275</ele>
        <time>2019-07-29T08:42:36Z</time>
      </trkpt>
      <trkpt lat="46.09729" lon="6.36888">
        <ele>274</ele>
        <time>2019-07-29T08:42:40Z</time>
      </trkpt>
      <trkpt lat="46.09719" lon="6.36918">
        <ele>275</ele>
        <time>2019-07-29T08:42:44Z</time>
      </trkpt>
      <trkpt lat="46.09709" lon="6.36949">
        <ele>276</ele>
        <time>2019-07-29T08:42:48Z</time>
      </trkpt>
      <trkpt lat="46.097" lon="6.36976">
        <ele>277</ele>
        <time>2019-07-29T08:42:52Z</time>
      </trkpt>
      <trkpt lat="46.09689" lon="6.37002">
        <ele>279</ele>
        <time>2019-07-29T08:42:56Z</time>
      </trkpt>
      <trkpt lat="46.0968" lon="6.37025">
        <ele>280</ele>
        <time>2019-07-29T08:43:00Z</time>
      </trkpt>
      <trkpt lat="46.09672" lon="6.37043">
        <ele>282</ele>
        <time>2019-07-29T08:43:04Z</time>
      </trkpt>
      <trkpt lat="46.09665" lon="6.37059">
        <ele>283</ele>
        <time>2019-07-29T08:43:08Z</time>
      </trkpt>
      <trkpt lat="46.09658" lon="6.37076">
        <ele>284</ele>
        <time>2019-07-29T08:43:12Z</time>
      </trkpt>
      <trkpt lat="46.09651" lon="6.37092">
        <ele>285</ele>
        <time>2019-07-29T08:43:16Z</time>
      </trkpt>
      <trkpt lat="46.09645" lon="6.37106">
        <ele>287</ele>
        <time>2019-07-29T08:43:20Z</time>
      </trkpt>
      <trkpt lat="46.0964" lon="6.3712">
        <ele>288</ele>
        <time>2019-07-29T08:43:24Z</time>
      </trkpt>
      <trkpt lat="46.09633" lon="6.37137">
        <ele>289</ele>
        <time>2019-07-29T08:43:28Z</time>
      </trkpt>
      <trkpt lat="46.09627" lon="6.37152">
        <ele>290</ele>
        <time>2019-07-29T08:43:32Z</time>
      </trkpt>
      <trkpt lat="46.09619" lon="6.37167">
        <ele>291</ele>
        <time>2019-07-29T08:43:36Z</time>
      </trkpt>
      <trkpt lat="46.09613" lon="6.3718">
        <ele>291</ele>
        <time>2019-07-29T08:43:40Z</time>
      </trkpt>
      <trkpt lat="46.09606" lon="6.3719">
        <ele>290</ele>
        <time>2019-07-29T08:43:44Z</time>
      </trkpt>
      <trkpt lat="46.09594" lon="6.372">
        <ele>289</ele>
        <time>2019-07-29T08:43:48Z</time>
      </trkpt>
      <trkpt lat="46.09579" lon="6.37211">
        <ele>287</ele>
        <time>2019-07-29T08:43:52Z</time>
      </trkpt>
      <trkpt lat="46.0956" lon="6.37222">
        <ele>286</ele>
        <time>2019-07-29T08:43:56Z</time>
      </trkpt>
      <trkpt lat="46.09537" lon="6.37238">
        <ele>284</ele>
        <time>2019-07-29T08:44:00Z</time>
      </trkpt>
      <trkpt lat="46.09514" lon="6.3726">
        <ele>283</ele>
        <time>2019-07-29T08:44:04Z</time>
      </trkpt>
      <trkpt lat="46.09489" lon="6.37287">
        <ele>280</ele>
        <time>2019-07-29T08:44:08Z</time>
      </trkpt>
      <trkpt lat="46.09464" lon="6.37314">
        <ele>279</ele>
        <time>2019-07-29T08:44:12Z</time>
      </trkpt>
      <trkpt lat="46.0944" lon="6.37344">
        <ele>279</ele>
        <time>2019-07-29T08:44:16Z</time>
      </trkpt>
      <trkpt lat="46.09416" lon="6.37374">
        <ele>278</ele>
        <time>2019-07-29T08:44:20Z</time>
      </trkpt>
      <trkpt lat="46.09394" lon="6.37409">
        <ele>274</ele>
        <time>2019-07-29T08:44:24Z</time>
      </trkpt>
      <trkpt lat="46.09375" lon="6.37454">
        <ele>272</ele>
        <time>2019-07-29T08:44:28Z</time>
      </trkpt>
      <trkpt lat="46.09357" lon="6.37501">
        <ele>272</ele>
        <time>2019-07-29T08:44:32Z</time>
      </trkpt>
      <trkpt lat="46.09333" lon="6.37545">
        <ele>270</ele>
        <time>2019-07-29T08:44:36Z</time>
      </trkpt>
      <trkpt lat="46.09309" lon="6.37582">
        <ele>269</ele>
        <time>2019-07-29T08:44:40Z</time>
      </trkpt>
      <trkpt lat="46.09281" lon="6.37616">
        <ele>267</ele>
        <time>2019-07-29T08:44:44Z</time>
      </trkpt>
      <trkpt lat="46.09256" lon="6.37653">
        <ele>266</ele>
        <time>2019-07-29T08:44:48Z</time>
      </trkpt>
      <trkpt lat="46.09233" lon="6.37696">
        <ele>265</ele>
        <time>2019-07-29T08:44:52Z</time>
      </trkpt>
      <trkpt lat="46.0921" lon="6.37741">
        <ele>262</ele>
        <time>2019-07-29T08:44:56Z</time>
      </trkpt>
      <trkpt lat="46.09188" lon="6.37786">
        <ele>261</ele>
        <time>2019-07-29T08:45:00Z</time>
      </trkpt>
      <trkpt lat="46.09165" lon="6.3783">
        <ele>260</ele>
        <time>2019-07-29T08:45:04Z</time>
      </trkpt>
      <trkpt lat="46.09141" lon="6.37872">
        <ele>258</ele>
        <time>2019-07-29T08:45:08Z</time>
      </trkpt>
      <trkpt lat="46.09115" lon="6.37914">
        <ele>257</ele>
        <time>2019-07-29T08:45:12Z</time>
      </trkpt>
      <trkpt lat="46.09088" lon="6.3796">
        <ele>256</ele>
        <time>2019-07-29T08:45:16Z</time>
      </trkpt>
      <trkpt lat="46.09061" lon="6.38006">
        <ele>254</ele>
        <time>2019-07-29T08:45:20Z</time>
      </trkpt>
      <trkpt lat="46.09035" lon="6.38051">
        <ele>252</ele>
        <time>2019-07-29T08:45:24Z</time>
      </trkpt>
      <trkpt lat="46.09013" lon="6.38102">
        <ele>250</ele>
        <time>2019-07-29T08:45:28Z</time>
      </trkpt>
      <trkpt lat="46.09001" lon="6.3816">
        <ele>248</ele>
        <time>2019-07-29T08:45:32Z</time>
      </trkpt>
      <trkpt lat="46.0899" lon="6.38217">
        <ele>247</ele>
        <time>2019-07-29T08:45:36Z</time>
      </trkpt>
      <trkpt lat="46.08964" lon="6.38265">
        <ele>246</ele>
        <time>2019-07-29T08:45:40Z</time>
      </trkpt>
      <trkpt lat="46.08933" lon="6.38306">
        <ele>244</ele>
        <time>2019-07-29T08:45:44Z</time>
      </trkpt>
      <trkpt lat="46.0891" lon="6.38354">
        <ele>242</ele>
        <time>2019-07-29T08:45:48Z</time>
      </trkpt>
      <trkpt lat="46.08894" lon="6.38411">
        <ele>240</ele>
        <time>2019-07-29T08:45:52Z</time>
      </trkpt>
      <trkpt lat="46.0888" lon="6.38468">
        <ele>238</ele>
        <time>2019-07-29T08:45:56Z</time>
      </trkpt>
      <trkpt lat="46.08869" lon="6.38526">
        <ele>237</ele>
        <time>2019-07-29T08:46:00Z</time>
      </trkpt>
      <trkpt lat="46.08861" lon="6.38586">
        <ele>234</ele>
        <time>2019-07-29T08:46:04Z</time>
      </trkpt>
      <trkpt lat="46.08849" lon="6.38644">
        <ele>232</ele>
        <time>2019-07-29T08:46:08Z</time>
      </trkpt>
      <trkpt lat="46.08828" lon="6.38698">
        <ele>230</ele>
        <time>2019-07-29T08:46:12Z</time>
      </trkpt>
      <trkpt lat="46.08805" lon="6.38751">
        <ele>228</ele>
        <time>2019-07-29T08:46:16Z</time>
      </trkpt>
      <trkpt lat="46.08779" lon="6.38799">
        <ele>225</ele>
        <time>2019-07-29T08:46:20Z</time>
      </trkpt>
      <trkpt lat="46.08751" lon="6.38848">
        <ele>224</ele>
        <time>2019-07-29T08:46:24Z</time>
      </trkpt>
      <trkpt lat="46.08733" lon="6.38907">
        <ele>226</ele>
        <time>2019-07-29T08:46:28Z</time>
      </trkpt>
      <trkpt lat="46.08734" lon="6.38968">
        <ele>226</ele>
        <time>2019-07-29T08:46:32Z</time>
      </trkpt>
      <trkpt lat="46.08745" lon="6.39018">
        <ele>224</ele>
        <time>2019-07-29T08:46:36Z</time>
      </trkpt>
      <trkpt lat="46.0873" lon="6.39057">
        <ele>224</ele>
        <time>2019-07-29T08:46:40Z</time>
      </trkpt>
      <trkpt lat="46.08703" lon="6.39054">
        <ele>225</ele>
        <time>2019-07-29T08:46:44Z</time>
      </trkpt>
      <trkpt lat="46.08699" lon="6.39087">
        <ele>224</ele>
        <time>2019-07-29T08:46:48Z</time>
      </trkpt>
      <trkpt lat="46.08702" lon="6.39125">
        <ele>224</ele>
        <time>2019-07-29T08:46:52Z</time>
      </trkpt>
      <trkpt lat="46.08701" lon="6.39168">
        <ele>224</ele>
        <time>2019-07-29T08:46:56Z</time>
      </trkpt>
      <trkpt lat="46.087" lon="6.39211">
        <ele>225</ele>
        <time>2019-07-29T08:47:00Z</time>
      </trkpt>
      <trkpt lat="46.08698" lon="6.39256">
        <ele>224</ele>
        <time>2019-07-29T08:47:04Z</time>
      </trkpt>
      <trkpt lat="46.08692" lon="6.39299">
        <ele>225</ele>
        <time>2019-07-29T08:47:08Z</time>
      </trkpt>
      <trkpt lat="46.08684" lon="6.39339">
        <ele>225</ele>
        <time>2019-07-29T08:47:12Z</time>
      </trkpt>
      <trkpt lat="46.08676" lon="6.3938">
        <ele>226</ele>
        <time>2019-07-29T08:47:16Z</time>
      </trkpt>
      <trkpt lat="46.08668" lon="6.3942">
        <ele>225</ele>
        <time>2019-07-29T08:47:20Z</time>
      </trkpt>
      <trkpt lat="46.08661" lon="6.39462">
        <ele>223</ele>
        <time>2019-07-29T08:47:24Z</time>
      </trkpt>
      <trkpt lat="46.08657" lon="6.39506">
        <ele>221</ele>
        <time>2019-07-29T08:47:28Z</time>
      </trkpt>
      <trkpt lat="46.08659" lon="6.39554">
        <ele>220</ele>
        <time>2019-07-29T08:47:32Z</time>
      </trkpt>
      <trkpt lat="46.08665" lon="6.39605">
        <ele>218</ele>
        <time>2019-07-29T08:47:36Z</time>
      </trkpt>
      <trkpt lat="46.08671" lon="6.39657">
        <ele>217</ele>
        <time>2019-07-29T08:47:40Z</time>
      </trkpt>
      <trkpt lat="46.08677" lon="6.39711">
        <ele>215</ele>
        <time>2019-07-29T08:47:44Z</time>
      </trkpt>
      <trkpt lat="46.08679" lon="6.39765">
        <ele>213</ele>
        <time>2019-07-29T08:47:48Z</time>
      </trkpt>
      <trkpt lat="46.08675" lon="6.3982">
        <ele>211</ele>
        <time>2019-07-29T08:47:52Z</time>
      </trkpt>
      <trkpt lat="46.08672" lon="6.39876">
        <ele>210</ele>
        <time>2019-07-29T08:47:56Z</time>
      </trkpt>
      <trkpt lat="46.08663" lon="6.39929">
        <ele>210</ele>
        <time>2019-07-29T08:48:00Z</time>
      </trkpt>
      <trkpt lat="46.08645" lon="6.39975">
        <ele>210</ele>
        <time>2019-07-29T08:48:04Z</time>
      </trkpt>
      <trkpt lat="46.08623" lon="6.40013">
        <ele>211</ele>
        <time>2019-07-29T08:48:08Z</time>
      </trkpt>
      <trkpt lat="46.08598" lon="6.40043">
        <ele>212</ele>
        <time>2019-07-29T08:48:12Z</time>
      </trkpt>
      <trkpt lat="46.08572" lon="6.40068">
        <ele>212</ele>
        <time>2019-07-29T08:48:16Z</time>
      </trkpt>
      <trkpt lat="46.08546" lon="6.40092">
        <ele>212</ele>
        <time>2019-07-29T08:48:20Z</time>
      </trkpt>
      <trkpt lat="46.08518" lon="6.40118">
        <ele>212</ele>
        <time>2019-07-29T08:48:24Z</time>
      </trkpt>
      <trkpt lat="46.08491" lon="6.40142">
        <ele>211</ele>
        <time>2019-07-29T08:48:28Z</time>
      </trkpt>
      <trkpt lat="46.08464" lon="6.40166">
        <ele>212</ele>
        <time>2019-07-29T08:48:32Z</time>
      </trkpt>
      <trkpt lat="46.08438" lon="6.40189">
        <ele>214</ele>
        <time>2019-07-29T08:48:36Z</time>
      </trkpt>
      <trkpt lat="46.08415" lon="6.40209">
        <ele>215</ele>
        <time>2019-07-29T08:48:40Z</time>
      </trkpt>
      <trkpt lat="46.08402" lon="6.4022">
        <ele>216</ele>
        <time>2019-07-29T08:48:44Z</time>
      </trkpt>
      <trkpt lat="46.08401" lon="6.40222">
        <ele>214</ele>
        <time>2019-07-29T08:48:52Z</time>
      </trkpt>
      <trkpt lat="46.08393" lon="6.40229">
        <ele>213</ele>
        <time>2019-07-29T08:48:56Z</time>
      </trkpt>
      <trkpt lat="46.08374" lon="6.40246">
        <ele>213</ele>
        <time>2019-07-29T08:49:00Z</time>
      </trkpt>
      <trkpt lat="46.08351" lon="6.40265">
        <ele>214</ele>
        <time>2019-07-29T08:49:04Z</time>
      </trkpt>
      <trkpt lat="46.0833" lon="6.40285">
        <ele>213</ele>
        <time>2019-07-29T08:49:08Z</time>
      </trkpt>
      <trkpt lat="46.08308" lon="6.40305">
        <ele>213</ele>
        <time>2019-07-29T08:49:12Z</time>
      </trkpt>
      <trkpt lat="46.08284" lon="6.40326">
        <ele>213</ele>
        <time>2019-07-29T08:49:16Z</time>
      </trkpt>
      <trkpt lat="46.0826" lon="6.40346">
        <ele>212</ele>
        <time>2019-07-29T08:49:20Z</time>
      </trkpt>
      <trkpt lat="46.08237" lon="6.40367">
        <ele>213</ele>
        <time>2019-07-29T08:49:24Z</time>
      </trkpt>
      <trkpt lat="46.08213" lon="6.40388">
        <ele>214</ele>
        <time>2019-07-29T08:49:28Z</time>
      </trkpt>
      <trkpt lat="46.08191" lon="6.40387">
        <ele>215</ele>
        <time>2019-07-29T08:49:32Z</time>
      </trkpt>
      <trkpt lat="46.08171" lon="6.40362">
        <ele>215</ele>
        <time>2019-07-29T08:49:36Z</time>
      </trkpt>
      <trkpt lat="46.08153" lon="6.40338">
        <ele>215</ele>
        <time>2019-07-29T08:49:40Z</time>
      </trkpt>
      <trkpt lat="46.08133" lon="6.40313">
        <ele>215</ele>
        <time>2019-07-29T08:49:44Z</time>
      </trkpt>
      <trkpt lat="46.08113" lon="6.4029">
        <ele>215</ele>
        <time>2019-07-29T08:49:48Z</time>
      </trkpt>
      <trkpt lat="46.08094" lon="6.40267">
        <ele>216</ele>
        <time>2019-07-29T08:49:52Z</time>
      </trkpt>
      <trkpt lat="46.08073" lon="6.40247">
        <ele>216</ele>
        <time>2019-07-29T08:49:56Z</time>
      </trkpt>
      <trkpt lat="46.08051" lon="6.40227">
        <ele>215</ele>
        <time>2019-07-29T08:50:00Z</time>
      </trkpt>
      <trkpt lat="46.0803" lon="6.40205">
        <ele>215</ele>
        <time>2019-07-29T08:50:04Z</time>
      </trkpt>
      <trkpt lat="46.08009" lon="6.40187">
        <ele>213</ele>
        <time>2019-07-29T08:50:08Z</time>
      </trkpt>
      <trkpt lat="46.07982" lon="6.40183">
        <ele>214</ele>
        <time>2019-07-29T08:50:12Z</time>
      </trkpt>
      <trkpt lat="46.07953" lon="6.40183">
        <ele>214</ele>
        <time>2019-07-29T08:50:16Z</time>
      </trkpt>
      <trkpt lat="46.07926" lon="6.40183">
        <ele>216</ele>
        <time>2019-07-29T08:50:20Z</time>
      </trkpt>
      <trkpt lat="46.07906" lon="6.40182">
        <ele>215</ele>
        <time>2019-07-29T08:50:24Z</time>
      </trkpt>
      <trkpt lat="46.07884" lon="6.40183">
        <ele>216</ele>
        <time>2019-07-29T08:50:28Z</time>
      </trkpt>
      <trkpt lat="46.07862" lon="6.40184">
        <ele>216</ele>
        <time>2019-07-29T08:50:32Z</time>
      </trkpt>
      <trkpt lat="46.07836" lon="6.40186">
        <ele>215</ele>
        <time>2019-07-29T08:50:36Z</time>
      </trkpt>
      <trkpt lat="46.0781" lon="6.40184">
        <ele>215</ele>
        <time>2019-07-29T08:50:40Z</time>
      </trkpt>
      <trkpt lat="46.07785" lon="6.40182">
        <ele>215</ele>
        <time>2019-07-29T08:50:44Z</time>
      </trkpt>
      <trkpt lat="46.07761" lon="6.4018">
        <ele>214</ele>
        <time>2019-07-29T08:50:48Z</time>
      </trkpt>
      <trkpt lat="46.07737" lon="6.40181">
        <ele>214</ele>
        <time>2019-07-29T08:50:52Z</time>
      </trkpt>
      <trkpt lat="46.07709" lon="6.40182">
        <ele>214</ele>
        <time>2019-07-29T08:50:56Z</time>
      </trkpt>
      <trkpt lat="46.07681" lon="6.4018">
        <ele>215</ele>
        <time>2019-07-29T08:51:00Z</time>
      </trkpt>
      <trkpt lat="46.07653" lon="6.40179">
        <ele>215</ele>
        <time>2019-07-29T08:51:04Z</time>
      </trkpt>
      <trkpt lat="46.07627" lon="6.40181">
        <ele>214</ele>
        <time>2019-07-29T08:51:08Z</time>
      </trkpt>
      <trkpt lat="46.076" lon="6.40187">
        <ele>215</ele>
        <time>2019-07-29T08:51:12Z</time>
      </trkpt>
      <trkpt lat="46.07572" lon="6.40198">
        <ele>214</ele>
        <time>2019-07-29T08:51:16Z</time>
      </trkpt>
      <trkpt lat="46.07544" lon="6.40209">
        <ele>214</ele>
        <time>2019-07-29T08:51:20Z</time>
      </trkpt>
      <trkpt lat="46.07517" lon="6.40224">
        <ele>215</ele>
        <time>2019-07-29T08:51:24Z</time>
      </trkpt>
      <trkpt lat="46.07491" lon="6.40241">
        <ele>216</ele>
        <time>2019-07-29T08:51:28Z</time>
      </trkpt>
      <trkpt lat="46.07465" lon="6.40261">
        <ele>215</ele>
        <time>2019-07-29T08:51:32Z</time>
      </trkpt>
      <trkpt lat="46.07443" lon="6.40279">
        <ele>217</ele>
        <time>2019-07-29T08:51:36Z</time>
      </trkpt>
      <trkpt lat="46.07419" lon="6.40281">
        <ele>216</ele>
        <time>2019-07-29T08:51:40Z</time>
      </trkpt>
      <trkpt lat="46.07403" lon="6.40304">
        <ele>215</ele>
        <time>2019-07-29T08:51:44Z</time>
      </trkpt>
      <trkpt lat="46.07393" lon="6.4034">
        <ele>215</ele>
        <time>2019-07-29T08:51:48Z</time>
      </trkpt>
      <trkpt lat="46.07378" lon="6.40374">
        <ele>216</ele>
        <time>2019-07-29T08:51:52Z</time>
      </trkpt>
      <trkpt lat="46.07362" lon="6.40405">
        <ele>217</ele>
        <time>2019-07-29T08:51:56Z</time>
      </trkpt>
      <trkpt lat="46.07353" lon="6.4042">
        <ele>217</ele>
        <time>2019-07-29T08:52:00Z</time>
      </trkpt>
      <trkpt lat="46.07346" lon="6.40433">
        <ele>217</ele>
        <time>2019-07-29T08:52:04Z</time>
      </trkpt>
      <trkpt lat="46.0734" lon="6.40448">
        <ele>217</ele>
        <time>2019-07-29T08:52:08Z</time>
      </trkpt>
      <trkpt lat="46.07333" lon="6.40456">
        <ele>217</ele>
        <time>2019-07-29T08:52:40Z</time>
      </trkpt>
      <trkpt lat="46.0733" lon="6.40466">
        <ele>216</ele>
        <time>2019-07-29T08:52:44Z</time>
      </trkpt>
      <trkpt lat="46.07323" lon="6.40483">
        <ele>215</ele>
        <time>2019-07-29T08:52:48Z</time>
      </trkpt>
      <trkpt lat="46.07317" lon="6.40505">
        <ele>216</ele>
        <time>2019-07-29T08:52:52Z</time>
      </trkpt>
      <trkpt lat="46.07309" lon="6.4053">
        <ele>215</ele>
        <time>2019-07-29T08:52:56Z</time>
      </trkpt>
      <trkpt lat="46.07299" lon="6.40555">
        <ele>215</ele>
        <time>2019-07-29T08:53:00Z</time>
      </trkpt>
      <trkpt lat="46.07289" lon="6.40587">
        <ele>217</ele>
        <time>2019-07-29T08:53:04Z</time>
      </trkpt>
      <trkpt lat="46.07278" lon="6.40615">
        <ele>217</ele>
        <time>2019-07-29T08:53:08Z</time>
      </trkpt>
      <trkpt lat="46.07276" lon="6.40635">
        <ele>216</ele>
        <time>2019-07-29T08:53:12Z</time>
      </trkpt>
      <trkpt lat="46.07278" lon="6.40657">
        <ele>216</ele>
        <time>2019-07-29T08:53:16Z</time>
      </trkpt>
      <trkpt lat="46.07278" lon="6.40685">
        <ele>217</ele>
        <time>2019-07-29T08:53:20Z</time>
      </trkpt>
      <trkpt lat="46.0728" lon="6.40705">
        <ele>216</ele>
        <time>2019-07-29T08:53:24Z</time>
      </trkpt>
      <trkpt lat="46.0728" lon="6.4072">
        <ele>216</ele>
        <time>2019-07-29T08:53:28Z</time>
      </trkpt>
      <trkpt lat="46.07289" lon="6.40743">
        <ele>216</ele>
        <time>2019-07-29T08:53:32Z</time>
      </trkpt>
      <trkpt lat="46.07298" lon="6.40761">
        <ele>216</ele>
        <time>2019-07-29T08:53:36Z</time>
      </trkpt>
      <trkpt lat="46.07304" lon="6.40778">
        <ele>216</ele>
        <time>2019-07-29T08:53:40Z</time>
      </trkpt>
      <trkpt lat="46.07305" lon="6.40776">
        <ele>216</ele>
        <time>2019-07-29T08:53:44Z</time>
      </trkpt>
      <trkpt lat="46.07297" lon="6.40759">
        <ele>215</ele>
        <time>2019-07-29T08:53:48Z</time>
      </trkpt>
      <trkpt lat="46.07288" lon="6.40735">
        <ele>215</ele>
        <time>2019-07-29T08:53:52Z</time>
      </trkpt>
      <trkpt lat="46.07276" lon="6.40718">
        <ele>216</ele>
        <time>2019-07-29T08:53:56Z</time>
      </trkpt>
      <trkpt lat="46.07258" lon="6.40719">
        <ele>216</ele>
        <time>2019-07-29T08:54:00Z</time>
      </trkpt>
      <trkpt lat="46.07239" lon="6.4072">
        <ele>217</ele>
        <time>2019-07-29T08:54:04Z</time>
      </trkpt>
      <trkpt lat="46.07226" lon="6.40709">
        <ele>217</ele>
        <time>2019-07-29T08:54:08Z</time>
      </trkpt>
      <trkpt lat="46.07225" lon="6.40693">
        <ele>216</ele>
        <time>2019-07-29T08:54:12Z</time>
      </trkpt>
      <trkpt lat="46.07223" lon="6.40674">
        <ele>217</ele>
        <time>2019-07-29T08:54:16Z</time>
      </trkpt>
      <trkpt lat="46.07222" lon="6.40652">
        <ele>217</ele>
        <time>2019-07-29T08:54:20Z</time>
      </trkpt>
      <trkpt lat="46.07222" lon="6.40638">
        <ele>217</ele>
        <time>2019-07-29T08:54:24Z</time>
      </trkpt>
      <trkpt lat="46.07213" lon="6.40631">
        <ele>217</ele>
        <time>2019-07-29T08:54:28Z</time>
      </trkpt>
      <trkpt lat="46.07195" lon="6.40633">
        <ele>216</ele>
        <time>2019-07-29T08:54:32Z</time>
      </trkpt>
      <trkpt lat="46.07173" lon="6.40634">
        <ele>216</ele>
        <time>2019-07-29T08:54:36Z</time>
      </trkpt>
      <trkpt lat="46.0715" lon="6.40636">
        <ele>217</ele>
        <time>2019-07-29T08:54:40Z</time>
      </trkpt>
      <trkpt lat="46.07125" lon="6.40638">
        <ele>218</ele>
        <time>2019-07-29T08:54:44Z</time>
      </trkpt>
      <trkpt lat="46.07103" lon="6.40639">
        <ele>217</ele>
        <time>2019-07-29T08:54:48Z</time>
      </trkpt>
      <trkpt lat="46.07081" lon="6.4064">
        <ele>215</ele>
        <time>2019-07-29T08:54:52Z</time>
      </trkpt>
      <trkpt lat="46.07057" lon="6.40639">
        <ele>216</ele>
        <time>2019-07-29T08:54:56Z</time>
      </trkpt>
      <trkpt lat="46.07032" lon="6.40639">
        <ele>216</ele>
        <time>2019-07-29T08:55:00Z</time>
      </trkpt>
      <trkpt lat="46.07006" lon="6.40639">
        <ele>217</ele>
        <time>2019-07-29T08:55:04Z</time>
      </trkpt>
      <trkpt lat="46.06981" lon="6.40639">
        <ele>217</ele>
        <time>2019-07-29T08:55:08Z</time>
      </trkpt>
      <trkpt lat="46.06966" lon="6.4064">
        <ele>218</ele>
        <time>2019-07-29T08:55:12Z</time>
      </trkpt>
      <trkpt lat="46.06953" lon="6.40641">
        <ele>218</ele>
        <time>2019-07-29T08:55:16Z</time>
      </trkpt>
      <trkpt lat="46.06959" lon="6.40643">
        <ele>217</ele>
        <time>2019-07-29T08:55:20Z</time>
      </trkpt>
      <trkpt lat="46.06976" lon="6.40643">
        <ele>217</ele>
        <time>2019-07-29T08:55:24Z</time>
      </trkpt>
      <trkpt lat="46.06997" lon="6.40642">
        <ele>216</ele>
        <time>2019-07-29T08:55:28Z</time>
      </trkpt>
      <trkpt lat="46.0702" lon="6.40642">
        <ele>217</ele>
        <time>2019-07-29T08:55:32Z</time>
      </trkpt>
      <trkpt lat="46.07044" lon="6.40643">
        <ele>218</ele>
        <time>2019-07-29T08:55:36Z</time>
      </trkpt>
      <trkpt lat="46.07064" lon="6.40646">
        <ele>217</ele>
        <time>2019-07-29T08:55:40Z</time>
      </trkpt>
      <trkpt lat="46.07063" lon="6.40672">
        <ele>216</ele>
        <time>2019-07-29T08:55:44Z</time>
      </trkpt>
      <trkpt lat="46.0706" lon="6.40706">
        <ele>215</ele>
        <time>2019-07-29T08:55:48Z</time>
      </trkpt>
      <trkpt lat="46.07056" lon="6.40743">
        <ele>216</ele>
        <time>2019-07-29T08:55:52Z</time>
      </trkpt>
      <trkpt lat="46.0705" lon="6.40776">
        <ele>216</ele>
        <time>2019-07-29T08:55:56Z</time>
      </trkpt>
      <trkpt lat="46.07037" lon="6.40801">
        <ele>216</ele>
        <time>2019-07-29T08:56:00Z</time>
      </trkpt>
      <trkpt lat="46.0702" lon="6.40823">
        <ele>217</ele>
        <time>2019-07-29T08:56:04Z</time>
      </trkpt>
      <trkpt lat="46.07003" lon="6.40832">
        <ele>216</ele>
        <time>2019-07-29T08:56:08Z</time>
      </trkpt>
      <trkpt lat="46.06989" lon="6.40823">
        <ele>216</ele>
        <time>2019-07-29T08:56:12Z</time>
      </trkpt>
      <trkpt lat="46.06978" lon="6.40819">
        <ele>216</ele>
        <time>2019-07-29T08:56:16Z</time>
      </trkpt>
      <trkpt lat="46.06962" lon="6.40813">
        <ele>216</ele>
        <time>2019-07-29T08:56:20Z</time>
      </trkpt>
      <trkpt lat="46.06944" lon="6.40821">
        <ele>217</ele>
        <time>2019-07-29T08:56:24Z</time>
      </trkpt>
      <trkpt lat="46.06937" lon="6.40845">
        <ele>218</ele>
        <time>2019-07-29T08:56:28Z</time>
      </trkpt>
      <trkpt lat="46.06932" lon="6.40867">
        <ele>217</ele>
        <time>2019-07-29T08:56:32Z</time>
      </trkpt>
      <trkpt lat="46.06929" lon="6.40881">
        <ele>217</ele>
        <time>2019-07-29T08:56:36Z</time>
      </trkpt>
      <trkpt lat="46.06925" lon="6.40903">
        <ele>216</ele>
        <time>2019-07-29T08:56:40Z</time>
      </trkpt>
      <trkpt lat="46.06921" lon="6.40926">
        <ele>217</ele>
        <time>2019-07-29T08:56:44Z</time>
      </trkpt>
      <trkpt lat="46.06917" lon="6.40949">
        <ele>216</ele>
        <time>2019-07-29T08:56:48Z</time>
      </trkpt>
      <trkpt lat="46.06913" lon="6.40974">
        <ele>216</ele>
        <time>2019-07-29T08:56:52Z</time>
      </trkpt>
      <trkpt lat="46.0691" lon="6.41001">
        <ele>216</ele>
        <time>2019-07-29T08:56:56Z</time>
      </trkpt>
      <trkpt lat="46.06907" lon="6.41027">
        <ele>216</ele>
        <time>2019-07-29T08:57:00Z</time>
      </trkpt>
      <trkpt lat="46.06905" lon="6.41056">
        <ele>216</ele>
        <time>2019-07-29T08:57:04Z</time>
      </trkpt>
      <trkpt lat="46.06903" lon="6.41086">
        <ele>216</ele>
        <time>2019-07-29T08:57:08Z</time>
      </trkpt>
      <trkpt lat="46.06901" lon="6.41116">
        <ele>217</ele>
        <time>2019-07-29T08:57:12Z</time>
      </trkpt>
      <trkpt lat="46.06898" lon="6.41148">
        <ele>216</ele>
        <time>2019-07-29T08:57:16Z</time>
      </trkpt>
      <trkpt lat="46.06895" lon="6.41179">
        <ele>217</ele>
        <time>2019-07-29T08:57:20Z</time>
      </trkpt>
      <trkpt lat="46.06893" lon="6.41206">
        <ele>217</ele>
        <time>2019-07-29T08:57:24Z</time>
      </trkpt>
      <trkpt lat="46.06892" lon="6.41227">
        <ele>218</ele>
        <time>2019-07-29T08:57:28Z</time>
      </trkpt>
      <trkpt lat="46.06892" lon="6.41232">
        <ele>218</ele>
        <time>2019-07-29T08:57:32Z</time>
      </trkpt>
      <trkpt lat="46.06898" lon="6.41239">
        <ele>217</ele>
        <time>2019-07-29T08:57:36Z</time>
      </trkpt>
      <trkpt lat="46.06913" lon="6.41239">
        <ele>216</ele>
        <time>2019-07-29T08:57:40Z</time>
      </trkpt>
      <trkpt lat="46.06934" lon="6.4124">
        <ele>216</ele>
        <time>2019-07-29T08:57:44Z</time>
      </trkpt>
      <trkpt lat="46.06956" lon="6.41242">
        <ele>216</ele>
        <time>2019-07-29T08:57:48Z</time>
      </trkpt>
      <trkpt lat="46.06979" lon="6.41243">
        <ele>216</ele>
        <time>2019-07-29T08:57:52Z</time>
      </trkpt>
      <trkpt lat="46.06995" lon="6.41264">
        <ele>216</ele>
        <time>2019-07-29T08:57:56Z</time>
      </trkpt>
      <trkpt lat="46.06995" lon="6.413">
        <ele>215</ele>
        <time>2019-07-29T08:58:00Z</time>
      </trkpt>
      <trkpt lat="46.06993" lon="6.41338">
        <ele>215</ele>
        <time>2019-07-29T08:58:04Z</time>
      </trkpt>
      <trkpt lat="46.0699" lon="6.41379">
        <ele>214</ele>
        <time>2019-07-29T08:58:08Z</time>
      </trkpt>
      <trkpt lat="46.06986" lon="6.41418">
        <ele>214</ele>
        <time>2019-07-29T08:58:12Z</time>
      </trkpt>
      <trkpt lat="46.06983" lon="6.41458">
        <ele>214</ele>
        <time>2019-07-29T08:58:16Z</time>
      </trkpt>
      <trkpt lat="46.0698" lon="6.41497">
        <ele>215</ele>
        <time>2019-07-29T08:58:20Z</time>
      </trkpt>
      <trkpt lat="46.06975" lon="6.41535">
        <ele>216</ele>
        <time>2019-07-29T08:58:24Z</time>
      </trkpt>
      <trkpt lat="46.06974" lon="6.41573">
        <ele>215</ele>
        <time>2019-07-29T08:58:28Z</time>
      </trkpt>
      <trkpt lat="46.0697" lon="6.41612">
        <ele>216</ele>
        <time>2019-07-29T08:58:32Z</time>
      </trkpt>
      <trkpt lat="46.06968" lon="6.41648">
        <ele>216</ele>
        <time>2019-07-29T08:58:36Z</time>
      </trkpt>
      <trkpt lat="46.06965" lon="6.41685">
        <ele>216</ele>
        <time>2019-07-29T08:58:40Z</time>
      </trkpt>
      <trkpt lat="46.06964" lon="6.41724">
        <ele>216</ele>
        <time>2019-07-29T08:58:44Z</time>
      </trkpt>
      <trkpt lat="46.06962" lon="6.4176">
        <ele>216</ele>
        <time>2019-07-29T08:58:48Z</time>
      </trkpt>
      <trkpt lat="46.06959" lon="6.41797">
        <ele>216</ele>
        <time>2019-07-29T08:58:52Z</time>
      </trkpt>
      <trkpt lat="46.06956" lon="6.41835">
        <ele>216</ele>
        <time>2019-07-29T08:58:56Z</time>
      </trkpt>
      <trkpt lat="46.06951" lon="6.41873">
        <ele>216</ele>
        <time>2019-07-29T08:59:00Z</time>
      </trkpt>
      <trkpt lat="46.06947" lon="6.41911">
        <ele>217</ele>
        <time>2019-07-29T08:59:04Z</time>
      </trkpt>
      <trkpt lat="46.06947" lon="6.41948">
        <ele>217</ele>
        <time>2019-07-29T08:59:08Z</time>
      </trkpt>
      <trkpt lat="46.06953" lon="6.41973">
        <ele>218</ele>
        <time>2019-07-29T08:59:12Z</time>
      </trkpt>
      <trkpt lat="46.06962" lon="6.4199">
        <ele>217</ele>
        <time>2019-07-29T08:59:16Z</time>
      </trkpt>
      <trkpt lat="46.06979" lon="6.42003">
        <ele>217</ele>
        <time>2019-07-29T08:59:20Z</time>
      </trkpt>
      <trkpt lat="46.06996" lon="6.42009">
        <ele>217</ele>
        <time>2019-07-29T08:59:24Z</time>
      </trkpt>
      <trkpt lat="46.07011" lon="6.42011">
        <ele>217</ele>
        <time>2019-07-29T08:59:28Z</time>
      </trkpt>
      <trkpt lat="46.07031" lon="6.42014">
        <ele>218</ele>
        <time>2019-07-29T08:59:32Z</time>
      </trkpt>
      <trkpt lat="46.07041" lon="6.42015">
        <ele>218</ele>
        <time>2019-07-29T08:59:36Z</time>
      </trkpt>
      <trkpt lat="46.07045" lon="6.42009">
        <ele>217</ele>
        <time>2019-07-29T08:59:40Z</time>
      </trkpt>
      <trkpt lat="46.07029" lon="6.42006">
        <ele>216</ele>
        <time>2019-07-29T08:59:44Z</time>
      </trkpt>
      <trkpt lat="46.07007" lon="6.42003">
        <ele>216</ele>
        <time>2019-07-29T08:59:48Z</time>
      </trkpt>
      <trkpt lat="46.06985" lon="6.42001">
        <ele>217</ele>
        <time>2019-07-29T08:59:52Z</time>
      </trkpt>
      <trkpt lat="46.06973" lon="6.41993">
        <ele>218</ele>
        <time>2019-07-29T08:59:56Z</time>
      </trkpt>
      <trkpt lat="46.0697" lon="6.4199">
        <ele>218</ele>
        <time>2019-07-29T09:00:00Z</time>
      </trkpt>
      <trkpt lat="46.06962" lon="6.41998">
        <ele>217</ele>
        <time>2019-07-29T09:00:04Z</time>
      </trkpt>
      <trkpt lat="46.06956" lon="6.4201">
        <ele>218</ele>
        <time>2019-07-29T09:00:08Z</time>
      </trkpt>
      <trkpt lat="46.06947" lon="6.42025">
        <ele>216</ele>
        <time>2019-07-29T09:00:12Z</time>
      </trkpt>
      <trkpt lat="46.06942" lon="6.42052">
        <ele>217</ele>
        <time>2019-07-29T09:00:16Z</time>
      </trkpt>
      <trkpt lat="46.06938" lon="6.42083">
        <ele>217</ele>
        <time>2019-07-29T09:00:20Z</time>
      </trkpt>
      <trkpt lat="46.06934" lon="6.42117">
        <ele>216</ele>
        <time>2019-07-29T09:00:24Z</time>
      </trkpt>
      <trkpt lat="46.06929" lon="6.42148">
        <ele>217</ele>
        <time>2019-07-29T09:00:28Z</time>
      </trkpt>
      <trkpt lat="46.06919" lon="6.4217">
        <ele>219</ele>
        <time>2019-07-29T09:00:32Z</time>
      </trkpt>
      <trkpt lat="46.0691" lon="6.42184">
        <ele>219</ele>
        <time>2019-07-29T09:00:36Z</time>
      </trkpt>
      <trkpt lat="46.069" lon="6.42199">
        <ele>219</ele>
        <time>2019-07-29T09:00:40Z</time>
      </trkpt>
      <trkpt lat="46.06884" lon="6.42214">
        <ele>220</ele>
        <time>2019-07-29T09:00:44Z</time>
      </trkpt>
      <trkpt lat="46.06867" lon="6.42227">
        <ele>221</ele>
        <time>2019-07-29T09:00:48Z</time>
      </trkpt>
      <trkpt lat="46.06849" lon="6.42238">
        <ele>221</ele>
        <time>2019-07-29T09:00:52Z</time>
      </trkpt>
      <trkpt lat="46.06832" lon="6.42248">
        <ele>222</ele>
        <time>2019-07-29T09:00:56Z</time>
      </trkpt>
      <trkpt lat="46.06813" lon="6.4226">
        <ele>223</ele>
        <time>2019-07-29T09:01:00Z</time>
      </trkpt>
      <trkpt lat="46.06797" lon="6.42271">
        <ele>223</ele>
        <time>2019-07-29T09:01:04Z</time>
      </trkpt>
      <trkpt lat="46.06776" lon="6.42284">
        <ele>224</ele>
        <time>2019-07-29T09:01:08Z</time>
      </trkpt>
      <trkpt lat="46.06754" lon="6.42295">
        <ele>223</ele>
        <time>2019-07-29T09:01:12Z</time>
      </trkpt>
      <trkpt lat="46.06732" lon="6.42308">
        <ele>222</ele>
        <time>2019-07-29T09:01:16Z</time>
      </trkpt>
      <trkpt lat="46.06708" lon="6.42322">
        <ele>220</ele>
        <time>2019-07-29T09:01:20Z</time>
      </trkpt>
      <trkpt lat="46.06682" lon="6.42339">
        <ele>219</ele>
        <time>2019-07-29T09:01:24Z</time>
      </trkpt>
      <trkpt lat="46.06655" lon="6.42363">
        <ele>217</ele>
        <time>2019-07-29T09:01:28Z</time>
      </trkpt>
      <trkpt lat="46.06633" lon="6.42397">
        <ele>216</ele>
        <time>2019-07-29T09:01:32Z</time>
      </trkpt>
      <trkpt lat="46.06623" lon="6.42439">
        <ele>216</ele>
        <time>2019-07-29T09:01:36Z</time>
      </trkpt>
      <trkpt lat="46.06623" lon="6.42483">
        <ele>216</ele>
        <time>2019-07-29T09:01:40Z</time>
      </trkpt>
      <trkpt lat="46.06632" lon="6.42523">
        <ele>217</ele>
        <time>2019-07-29T09:01:44Z</time>
      </trkpt>
      <trkpt lat="46.06641" lon="6.42563">
        <ele>217</ele>
        <time>2019-07-29T09:01:48Z</time>
      </trkpt>
      <trkpt lat="46.06647" lon="6.426">
        <ele>217</ele>
        <time>2019-07-29T09:01:52Z</time>
      </trkpt>
      <trkpt lat="46.0665" lon="6.4264">
        <ele>217</ele>
        <time>2019-07-29T09:01:56Z</time>
      </trkpt>
      <trkpt lat="46.06651" lon="6.4268">
        <ele>218</ele>
        <time>2019-07-29T09:02:00Z</time>
      </trkpt>
      <trkpt lat="46.06651" lon="6.42721">
        <ele>217</ele>
        <time>2019-07-29T09:02:04Z</time>
      </trkpt>
      <trkpt lat="46.06652" lon="6.42762">
        <ele>217</ele>
        <time>2019-07-29T09:02:08Z</time>
      </trkpt>
      <trkpt lat="46.06649" lon="6.42802">
        <ele>218</ele>
        <time>2019-07-29T09:02:12Z</time>
      </trkpt>
      <trkpt lat="46.06644" lon="6.42841">
        <ele>218</ele>
        <time>2019-07-29T09:02:16Z</time>
      </trkpt>
      <trkpt lat="46.06644" lon="6.42878">
        <ele>217</ele>
        <time>2019-07-29T09:02:20Z</time>
      </trkpt>
      <trkpt lat="46.06648" lon="6.42915">
        <ele>218</ele>
        <time>2019-07-29T09:02:24Z</time>
      </trkpt>
      <trkpt lat="46.06652" lon="6.42951">
        <ele>218</ele>
        <time>2019-07-29T09:02:28Z</time>
      </trkpt>
      <trkpt lat="46.06656" lon="6.42989">
        <ele>219</ele>
        <time>2019-07-29T09:02:32Z</time>
      </trkpt>
      <trkpt lat="46.06657" lon="6.43028">
        <ele>217</ele>
        <time>2019-07-29T09:02:36Z</time>
      </trkpt>
      <trkpt lat="46.06655" lon="6.43066">
        <ele>218</ele>
        <time>2019-07-29T09:02:40Z</time>
      </trkpt>
      <trkpt lat="46.06649" lon="6.43104">
        <ele>218</ele>
        <time>2019-07-29T09:02:44Z</time>
      </trkpt>
      <trkpt lat="46.06644" lon="6.43142">
        <ele>219</ele>
        <time>2019-07-29T09:02:48Z</time>
      </trkpt>
      <trkpt lat="46.06638" lon="6.4318">
        <ele>219</ele>
        <time>2019-07-29T09:02:52Z</time>
      </trkpt>
      <trkpt lat="46.06632" lon="6.43217">
        <ele>218</ele>
        <time>2019-07-29T09:02:56Z</time>
      </trkpt>
      <trkpt lat="46.06624" lon="6.43255">
        <ele>219</ele>
        <time>2019-07-29T09:03:00Z</time>
      </trkpt>
      <trkpt lat="46.06614" lon="6.4329">
        <ele>219</ele>
        <time>2019-07-29T09:03:04Z</time>
      </trkpt>
      <trkpt lat="46.06604" lon="6.43325">
        <ele>219</ele>
        <time>2019-07-29T09:03:08Z</time>
      </trkpt>
      <trkpt lat="46.06594" lon="6.4336">
        <ele>219</ele>
        <time>2019-07-29T09:03:12Z</time>
      </trkpt>
      <trkpt lat="46.06582" lon="6.43395">
        <ele>219</ele>
        <time>2019-07-29T09:03:16Z</time>
      </trkpt>
      <trkpt lat="46.06569" lon="6.43429">
        <ele>219</ele>
        <time>2019-07-29T09:03:20Z</time>
      </trkpt>
      <trkpt lat="46.06557" lon="6.43463">
        <ele>219</ele>
        <time>2019-07-29T09:03:24Z</time>
      </trkpt>
      <trkpt lat="46.06548" lon="6.43498">
        <ele>220</ele>
        <time>2019-07-29T09:03:28Z</time>
      </trkpt>
      <trkpt lat="46.06542" lon="6.43534">
        <ele>221</ele>
        <time>2019-07-29T09:03:32Z</time>
      </trkpt>
      <trkpt lat="46.06541" lon="6.4357">
        <ele>221</ele>
        <time>2019-07-29T09:03:36Z</time>
      </trkpt>
      <trkpt lat="46.06541" lon="6.43606">
        <ele>221</ele>
        <time>2019-07-29T09:03:40Z</time>
      </trkpt>
      <trkpt lat="46.0654" lon="6.43641">
        <ele>222</ele>
        <time>2019-07-29T09:03:44Z</time>
      </trkpt>
      <trkpt lat="46.06534" lon="6.43674">
        <ele>222</ele>
        <time>2019-07-29T09:03:48Z</time>
      </trkpt>
      <trkpt lat="46.06515" lon="6.4369">
        <ele>223</ele>
        <time>2019-07-29T09:03:52Z</time>
      </trkpt>
      <trkpt lat="46.06495" lon="6.43695">
        <ele>224</ele>
        <time>2019-07-29T09:03:56Z</time>
      </trkpt>
      <trkpt lat="46.06475" lon="6.43706">
        <ele>225</ele>
        <time>2019-07-29T09:04:00Z</time>
      </trkpt>
      <trkpt lat="46.06459" lon="6.43726">
        <ele>225</ele>
        <time>2019-07-29T09:04:04Z</time>
      </trkpt>
      <trkpt lat="46.06449" lon="6.43753">
        <ele>225</ele>
        <time>2019-07-29T09:04:08Z</time>
      </trkpt>
      <trkpt lat="46.06441" lon="6.43783">
        <ele>225</ele>
        <time>2019-07-29T09:04:12Z</time>
      </trkpt>
      <trkpt lat="46.06432" lon="6.43811">
        <ele>226</ele>
        <time>2019-07-29T09:04:16Z</time>
      </trkpt>
      <trkpt lat="46.06422" lon="6.43839">
        <ele>227</ele>
        <time>2019-07-29T09:04:20Z</time>
      </trkpt>
      <trkpt lat="46.06412" lon="6.43868">
        <ele>227</ele>
        <time>2019-07-29T09:04:24Z</time>
      </trkpt>
      <trkpt lat="46.06402" lon="6.43897">
        <ele>227</ele>
        <time>2019-07-29T09:04:28Z</time>
      </trkpt>
      <trkpt lat="46.06396" lon="6.43928">
        <ele>228</ele>
        <time>2019-07-29T09:04:32Z</time>
      </trkpt>
      <trkpt lat="46.06392" lon="6.43959">
        <ele>228</ele>
        <time>2019-07-29T09:04:36Z</time>
      </trkpt>
      <trkpt lat="46.06389" lon="6.4399">
        <ele>229</ele>
        <time>2019-07-29T09:04:40Z</time>
      </trkpt>
      <trkpt lat="46.06389" lon="6.44021">
        <ele>229</ele>
        <time>2019-07-29T09:04:44Z</time>
      </trkpt>
      <trkpt lat="46.06387" lon="6.44051">
        <ele>230</ele>
        <time>2019-07-29T09:04:48Z</time>
      </trkpt>
      <trkpt lat="46.06386" lon="6.44079">
        <ele>230</ele>
        <time>2019-07-29T09:04:52Z</time>
      </trkpt>
      <trkpt lat="46.06385" lon="6.4411">
        <ele>229</ele>
        <time>2019-07-29T09:04:56Z</time>
      </trkpt>
      <trkpt lat="46.06384" lon="6.4414">
        <ele>230</ele>
        <time>2019-07-29T09:05:00Z</time>
      </trkpt>
      <trkpt lat="46.0638" lon="6.44168">
        <ele>231</ele>
        <time>2019-07-29T09:05:04Z</time>
      </trkpt>
      <trkpt lat="46.06378" lon="6.44192">
        <ele>232</ele>
        <time>2019-07-29T09:05:08Z</time>
      </trkpt>
      <trkpt lat="46.06377" lon="6.44204">
        <ele>234</ele>
        <time>2019-07-29T09:05:12Z</time>
      </trkpt>
      <trkpt lat="46.06364" lon="6.442">
        <ele>233</ele>
        <time>2019-07-29T09:05:16Z</time>
      </trkpt>
      <trkpt lat="46.06357" lon="6.44197">
        <ele>234</ele>
        <time>2019-07-29T09:05:20Z</time>
      </trkpt>
      <trkpt lat="46.06337" lon="6.44188">
        <ele>234</ele>
        <time>2019-07-29T09:05:24Z</time>
      </trkpt>
      <trkpt lat="46.06319" lon="6.4418">
        <ele>235</ele>
        <time>2019-07-29T09:05:28Z</time>
      </trkpt>
      <trkpt lat="46.06303" lon="6.4417">
        <ele>235</ele>
        <time>2019-07-29T09:05:32Z</time>
      </trkpt>
      <trkpt lat="46.06284" lon="6.44166">
        <ele>236</ele>
        <time>2019-07-29T09:05:36Z</time>
      </trkpt>
      <trkpt lat="46.06271" lon="6.44177">
        <ele>237</ele>
        <time>2019-07-29T09:05:40Z</time>
      </trkpt>
      <trkpt lat="46.0626" lon="6.44196">
        <ele>237</ele>
        <time>2019-07-29T09:05:44Z</time>
      </trkpt>
      <trkpt lat="46.06248" lon="6.44211">
        <ele>238</ele>
        <time>2019-07-29T09:05:48Z</time>
      </trkpt>
      <trkpt lat="46.06234" lon="6.44218">
        <ele>240</ele>
        <time>2019-07-29T09:05:52Z</time>
      </trkpt>
      <trkpt lat="46.06221" lon="6.44222">
        <ele>240</ele>
        <time>2019-07-29T09:05:56Z</time>
      </trkpt>
      <trkpt lat="46.06207" lon="6.44228">
        <ele>242</ele>
        <time>2019-07-29T09:06:00Z</time>
      </trkpt>
      <trkpt lat="46.06191" lon="6.44231">
        <ele>242</ele>
        <time>2019-07-29T09:06:04Z</time>
      </trkpt>
      <trkpt lat="46.06176" lon="6.44227">
        <ele>243</ele>
        <time>2019-07-29T09:06:08Z</time>
      </trkpt>
      <trkpt lat="46.0616" lon="6.44222">
        <ele>244</ele>
        <time>2019-07-29T09:06:12Z</time>
      </trkpt>
      <trkpt lat="46.06145" lon="6.44213">
        <ele>245</ele>
        <time>2019-07-29T09:06:16Z</time>
      </trkpt>
      <trkpt lat="46.06131" lon="6.44205">
        <ele>246</ele>
        <time>2019-07-29T09:06:20Z</time>
      </trkpt>
      <trkpt lat="46.06113" lon="6.44197">
        <ele>246</ele>
        <time>2019-07-29T09:06:24Z</time>
      </trkpt>
      <trkpt lat="46.06098" lon="6.44189">
        <ele>246</ele>
        <time>2019-07-29T09:06:28Z</time>
      </trkpt>
      <trkpt lat="46.06083" lon="6.44181">
        <ele>247</ele>
        <time>2019-07-29T09:06:32Z</time>
      </trkpt>
      <trkpt lat="46.06068" lon="6.44173">
        <ele>248</ele>
        <time>2019-07-29T09:06:36Z</time>
      </trkpt>
      <trkpt lat="46.06053" lon="6.4416">
        <ele>249</ele>
        <time>2019-07-29T09:06:40Z</time>
      </trkpt>
      <trkpt lat="46.06046" lon="6.44146">
        <ele>250</ele>
        <time>2019-07-29T09:06:44Z</time>
      </trkpt>
      <trkpt lat="46.06046" lon="6.44134">
        <ele>253</ele>
        <time>2019-07-29T09:06:48Z</time>
      </trkpt>
      <trkpt lat="46.06047" lon="6.44121">
        <ele>254</ele>
        <time>2019-07-29T09:06:52Z</time>
      </trkpt>
      <trkpt lat="46.06049" lon="6.44106">
        <ele>255</ele>
        <time>2019-07-29T09:06:56Z</time>
      </trkpt>
      <trkpt lat="46.06052" lon="6.44091">
        <ele>256</ele>
        <time>2019-07-29T09:07:00Z</time>
      </trkpt>
      <trkpt lat="46.06054" lon="6.44077">
        <ele>258</ele>
        <time>2019-07-29T09:07:04Z</time>
      </trkpt>
      <trkpt lat="46.06051" lon="6.44061">
        <ele>260</ele>
        <time>2019-07-29T09:07:08Z</time>
      </trkpt>
      <trkpt lat="46.0605" lon="6.44046">
        <ele>261</ele>
        <time>2019-07-29T09:07:12Z</time>
      </trkpt>
      <trkpt lat="46.06051" lon="6.44032">
        <ele>262</ele>
        <time>2019-07-29T09:07:16Z</time>
      </trkpt>
      <trkpt lat="46.06053" lon="6.44018">
        <ele>263</ele>
        <time>2019-07-29T09:07:20Z</time>
      </trkpt>
      <trkpt lat="46.06054" lon="6.44004">
        <ele>264</ele>
        <time>2019-07-29T09:07:24Z</time>
      </trkpt>
      <trkpt lat="46.06054" lon="6.43989">
        <ele>265</ele>
        <time>2019-07-29T09:07:28Z</time>
      </trkpt>
      <trkpt lat="46.06055" lon="6.43975">
        <ele>266</ele>
        <time>2019-07-29T09:07:32Z</time>
      </trkpt>
      <trkpt lat="46.06056" lon="6.43961">
        <ele>267</ele>
        <time>2019-07-29T09:07:36Z</time>
      </trkpt>
      <trkpt lat="46.06056" lon="6.43949">
        <ele>268</ele>
        <time>2019-07-29T09:07:40Z</time>
      </trkpt>
      <trkpt lat="46.06056" lon="6.43937">
        <ele>269</ele>
        <time>2019-07-29T09:07:44Z</time>
      </trkpt>
      <trkpt lat="46.06059" lon="6.43924">
        <ele>270</ele>
        <time>2019-07-29T09:07:48Z</time>
      </trkpt>
      <trkpt lat="46.06059" lon="6.43914">
        <ele>271</ele>
        <time>2019-07-29T09:07:52Z</time>
      </trkpt>
      <trkpt lat="46.06059" lon="6.43901">
        <ele>272</ele>
        <time>2019-07-29T09:07:56Z</time>
      </trkpt>
      <trkpt lat="46.06064" lon="6.43894">
        <ele>272</ele>
        <time>2019-07-29T09:08:00Z</time>
      </trkpt>
      <trkpt lat="46.06062" lon="6.43879">
        <ele>274</ele>
        <time>2019-07-29T09:08:04Z</time>
      </trkpt>
      <trkpt lat="46.06062" lon="6.43869">
        <ele>275</ele>
        <time>2019-07-29T09:08:08Z</time>
      </trkpt>
      <trkpt lat="46.06058" lon="6.43859">
        <ele>277</ele>
        <time>2019-07-29T09:08:12Z</time>
      </trkpt>
      <trkpt lat="46.06061" lon="6.43846">
        <ele>277</ele>
        <time>2019-07-29T09:08:16Z</time>
      </trkpt>
      <trkpt lat="46.06052" lon="6.43829">
        <ele>279</ele>
        <time>2019-07-29T09:08:20Z</time>
      </trkpt>
      <trkpt lat="46.06044" lon="6.4382">
        <ele>280</ele>
        <time>2019-07-29T09:08:24Z</time>
      </trkpt>
      <trkpt lat="46.06036" lon="6.43807">
        <ele>281</ele>
        <time>2019-07-29T09:08:28Z</time>
      </trkpt>
      <trkpt lat="46.06038" lon="6.43794">
        <ele>281</ele>
        <time>2019-07-29T09:08:32Z</time>
      </trkpt>
      <trkpt lat="46.06035" lon="6.43779">
        <ele>283</ele>
        <time>2019-07-29T09:08:36Z</time>
      </trkpt>
      <trkpt lat="46.06029" lon="6.43763">
        <ele>284</ele>
        <time>2019-07-29T09:08:40Z</time>
      </trkpt>
      <trkpt lat="46.06028" lon="6.43752">
        <ele>285</ele>
        <time>2019-07-29T09:08:44Z</time>
      </trkpt>
      <trkpt lat="46.06029" lon="6.43741">
        <ele>286</ele>
        <time>2019-07-29T09:08:48Z</time>
      </trkpt>
      <trkpt lat="46.06024" lon="6.43725">
        <ele>288</ele>
        <time>2019-07-29T09:08:52Z</time>
      </trkpt>
      <trkpt lat="46.06024" lon="6.43711">
        <ele>289</ele>
        <time>2019-07-29T09:08:56Z</time>
      </trkpt>
      <trkpt lat="46.06023" lon="6.43697">
        <ele>289</ele>
        <time>2019-07-29T09:09:00Z</time>
      </trkpt>
      <trkpt lat="46.06025" lon="6.43683">
        <ele>291</ele>
        <time>2019-07-29T09:09:04Z</time>
      </trkpt>
      <trkpt lat="46.06025" lon="6.43669">
        <ele>292</ele>
        <time>2019-07-29T09:09:08Z</time>
      </trkpt>
      <trkpt lat="46.06027" lon="6.43658">
        <ele>293</ele>
        <time>2019-07-29T09:09:12Z</time>
      </trkpt>
      <trkpt lat="46.0604" lon="6.43648">
        <ele>293</ele>
        <time>2019-07-29T09:09:16Z</time>
      </trkpt>
      <trkpt lat="46.06044" lon="6.43636">
        <ele>295</ele>
        <time>2019-07-29T09:09:20Z</time>
      </trkpt>
      <trkpt lat="46.06041" lon="6.43622">
        <ele>296</ele>
        <time>2019-07-29T09:09:24Z</time>
      </trkpt>
      <trkpt lat="46.06035" lon="6.43612">
        <ele>296</ele>
        <time>2019-07-29T09:09:28Z</time>
      </trkpt>
      <trkpt lat="46.06025" lon="6.43609">
        <ele>297</ele>
        <time>2019-07-29T09:09:32Z</time>
      </trkpt>
      <trkpt lat="46.06015" lon="6.4361">
        <ele>298</ele>
        <time>2019-07-29T09:09:36Z</time>
      </trkpt>
      <trkpt lat="46.06005" lon="6.43617">
        <ele>299</ele>
        <time>2019-07-29T09:09:40Z</time>
      </trkpt>
      <trkpt lat="46.05999" lon="6.43626">
        <ele>299</ele>
        <time>2019-07-29T09:09:44Z</time>
      </trkpt>
      <trkpt lat="46.05993" lon="6.43633">
        <ele>300</ele>
        <time>2019-07-29T09:09:48Z</time>
      </trkpt>
      <trkpt lat="46.05986" lon="6.43644">
        <ele>301</ele>
        <time>2019-07-29T09:09:52Z</time>
      </trkpt>
      <trkpt lat="46.05982" lon="6.43656">
        <ele>302</ele>
        <time>2019-07-29T09:09:56Z</time>
      </trkpt>
      <trkpt lat="46.05976" lon="6.43667">
        <ele>304</ele>
        <time>2019-07-29T09:10:00Z</time>
      </trkpt>
      <trkpt lat="46.05973" lon="6.43678">
        <ele>305</ele>
        <time>2019-07-29T09:10:04Z</time>
      </trkpt>
      <trkpt lat="46.05968" lon="6.43688">
        <ele>305</ele>
        <time>2019-07-29T09:10:08Z</time>
      </trkpt>
      <trkpt lat="46.05965" lon="6.43699">
        <ele>307</ele>
        <time>2019-07-29T09:10:12Z</time>
      </trkpt>
      <trkpt lat="46.05964" lon="6.43708">
        <ele>308</ele>
        <time>2019-07-29T09:10:16Z</time>
      </trkpt>
      <trkpt lat="46.05959" lon="6.4372">
        <ele>309</ele>
        <time>2019-07-29T09:10:20Z</time>
      </trkpt>
      <trkpt lat="46.05958" lon="6.43733">
        <ele>309</ele>
        <time>2019-07-29T09:10:24Z</time>
      </trkpt>
      <trkpt lat="46.05954" lon="6.43744">
        <ele>311</ele>
        <time>2019-07-29T09:10:28Z</time>
      </trkpt>
      <trkpt lat="46.05947" lon="6.43754">
        <ele>312</ele>
        <time>2019-07-29T09:10:32Z</time>
      </trkpt>
      <trkpt lat="46.0594" lon="6.43762">
        <ele>312</ele>
        <time>2019-07-29T09:10:36Z</time>
      </trkpt>
      <trkpt lat="46.05934" lon="6.43773">
        <ele>314</ele>
        <time>2019-07-29T09:10:40Z</time>
      </trkpt>
      <trkpt lat="46.05928" lon="6.43786">
        <ele>315</ele>
        <time>2019-07-29T09:10:44Z</time>
      </trkpt>
      <trkpt lat="46.05925" lon="6.43798">
        <ele>316</ele>
        <time>2019-07-29T09:10:48Z</time>
      </trkpt>
      <trkpt lat="46.05922" lon="6.4381">
        <ele>317</ele>
        <time>2019-07-29T09:10:52Z</time>
      </trkpt>
      <trkpt lat="46.0592" lon="6.43824">
        <ele>318</ele>
        <time>2019-07-29T09:10:56Z</time>
      </trkpt>
      <trkpt lat="46.05914" lon="6.43836">
        <ele>319</ele>
        <time>2019-07-29T09:11:00Z</time>
      </trkpt>
      <trkpt lat="46.05908" lon="6.43848">
        <ele>319</ele>
        <time>2019-07-29T09:11:04Z</time>
      </trkpt>
      <trkpt lat="46.05901" lon="6.43861">
        <ele>321</ele>
        <time>2019-07-29T09:11:08Z</time>
      </trkpt>
      <trkpt lat="46.05894" lon="6.43872">
        <ele>322</ele>
        <time>2019-07-29T09:11:12Z</time>
      </trkpt>
      <trkpt lat="46.05883" lon="6.43881">
        <ele>323</ele>
        <time>2019-07-29T09:11:16Z</time>
      </trkpt>
      <trkpt lat="46.05876" lon="6.43892">
        <ele>324</ele>
        <time>2019-07-29T09:11:20Z</time>
      </trkpt>
      <trkpt lat="46.05869" lon="6.43903">
        <ele>325</ele>
        <time>2019-07-29T09:11:24Z</time>
      </trkpt>
      <trkpt lat="46.05864" lon="6.43914">
        <ele>326</ele>
        <time>2019-07-29T09:11:28Z</time>
      </trkpt>
      <trkpt lat="46.05859" lon="6.43923">
        <ele>328</ele>
        <time>2019-07-29T09:11:32Z</time>
      </trkpt>
      <trkpt lat="46.05854" lon="6.43933">
        <ele>328</ele>
        <time>2019-07-29T09:11:36Z</time>
      </trkpt>
      <trkpt lat="46.05848" lon="6.43946">
        <ele>329</ele>
        <time>2019-07-29T09:11:40Z</time>
      </trkpt>
      <trkpt lat="46.0584" lon="6.43955">
        <ele>330</ele>
        <time>2019-07-29T09:11:44Z</time>
      </trkpt>
      <trkpt lat="46.05832" lon="6.43958">
        <ele>331</ele>
        <time>2019-07-29T09:11:48Z</time>
      </trkpt>
      <trkpt lat="46.05828" lon="6.43964">
        <ele>332</ele>
        <time>2019-07-29T09:11:52Z</time>
      </trkpt>
      <trkpt lat="46.05822" lon="6.43971">
        <ele>333</ele>
        <time>2019-07-29T09:11:56Z</time>
      </trkpt>
      <trkpt lat="46.05818" lon="6.43981">
        <ele>334</ele>
        <time>2019-07-29T09:12:00Z</time>
      </trkpt>
      <trkpt lat="46.05819" lon="6.43992">
        <ele>335</ele>
        <time>2019-07-29T09:12:04Z</time>
      </trkpt>
      <trkpt lat="46.05819" lon="6.44004">
        <ele>336</ele>
        <time>2019-07-29T09:12:08Z</time>
      </trkpt>
      <trkpt lat="46.05815" lon="6.44015">
        <ele>336</ele>
        <time>2019-07-29T09:12:12Z</time>
      </trkpt>
      <trkpt lat="46.05812" lon="6.44025">
        <ele>337</ele>
        <time>2019-07-29T09:12:16Z</time>
      </trkpt>
      <trkpt lat="46.05812" lon="6.44038">
        <ele>339</ele>
        <time>2019-07-29T09:12:20Z</time>
      </trkpt>
      <trkpt lat="46.05816" lon="6.44048">
        <ele>340</ele>
        <time>2019-07-29T09:12:24Z</time>
      </trkpt>
      <trkpt lat="46.05809" lon="6.44065">
        <ele>341</ele>
        <time>2019-07-29T09:12:28Z</time>
      </trkpt>
      <trkpt lat="46.05803" lon="6.44079">
        <ele>342</ele>
        <time>2019-07-29T09:12:32Z</time>
      </trkpt>
      <trkpt lat="46.05799" lon="6.44091">
        <ele>343</ele>
        <time>2019-07-29T09:12:36Z</time>
      </trkpt>
      <trkpt lat="46.05797" lon="6.44104">
        <ele>344</ele>
        <time>2019-07-29T09:12:40Z</time>
      </trkpt>
      <trkpt lat="46.05795" lon="6.44118">
        <ele>344</ele>
        <time>2019-07-29T09:12:44Z</time>
      </trkpt>
      <trkpt lat="46.05789" lon="6.44132">
        <ele>346</ele>
        <time>2019-07-29T09:12:48Z</time>
      </trkpt>
      <trkpt lat="46.05785" lon="6.44146">
        <ele>347</ele>
        <time>2019-07-29T09:12:52Z</time>
      </trkpt>
      <trkpt lat="46.05792" lon="6.4416">
        <ele>348</ele>
        <time>2019-07-29T09:12:56Z</time>
      </trkpt>
      <trkpt lat="46.05795" lon="6.44174">
        <ele>349</ele>
        <time>2019-07-29T09:13:00Z</time>
      </trkpt>
      <trkpt lat="46.05795" lon="6.44187">
        <ele>350</ele>
        <time>2019-07-29T09:13:04Z</time>
      </trkpt>
      <trkpt lat="46.05795" lon="6.442">
        <ele>351</ele>
        <time>2019-07-29T09:13:08Z</time>
      </trkpt>
      <trkpt lat="46.05793" lon="6.44212">
        <ele>352</ele>
        <time>2019-07-29T09:13:12Z</time>
      </trkpt>
      <trkpt lat="46.05792" lon="6.44224">
        <ele>353</ele>
        <time>2019-07-29T09:13:16Z</time>
      </trkpt>
      <trkpt lat="46.05795" lon="6.44238">
        <ele>355</ele>
        <time>2019-07-29T09:13:20Z</time>
      </trkpt>
      <trkpt lat="46.05799" lon="6.4425">
        <ele>355</ele>
        <time>2019-07-29T09:13:24Z</time>
      </trkpt>
      <trkpt lat="46.05804" lon="6.44262">
        <ele>356</ele>
        <time>2019-07-29T09:13:28Z</time>
      </trkpt>
      <trkpt lat="46.05809" lon="6.44273">
        <ele>356</ele>
        <time>2019-07-29T09:13:32Z</time>
      </trkpt>
      <trkpt lat="46.05815" lon="6.44285">
        <ele>358</ele>
        <time>2019-07-29T09:13:36Z</time>
      </trkpt>
      <trkpt lat="46.05819" lon="6.44294">
        <ele>359</ele>
        <time>2019-07-29T09:13:40Z</time>
      </trkpt>
      <trkpt lat="46.0582" lon="6.44306">
        <ele>360</ele>
        <time>2019-07-29T09:13:44Z</time>
      </trkpt>
      <trkpt lat="46.05827" lon="6.44318">
        <ele>361</ele>
        <time>2019-07-29T09:13:48Z</time>
      </trkpt>
      <trkpt lat="46.05834" lon="6.4433">
        <ele>362</ele>
        <time>2019-07-29T09:13:52Z</time>
      </trkpt>
      <trkpt lat="46.05844" lon="6.44342">
        <ele>363</ele>
        <time>2019-07-29T09:13:56Z</time>
      </trkpt>
      <trkpt lat="46.05848" lon="6.44354">
        <ele>364</ele>
        <time>2019-07-29T09:14:00Z</time>
      </trkpt>
      <trkpt lat="46.05846" lon="6.44367">
        <ele>365</ele>
        <time>2019-07-29T09:14:04Z</time>
      </trkpt>
      <trkpt lat="46.05845" lon="6.44379">
        <ele>365</ele>
        <time>2019-07-29T09:14:08Z</time>
      </trkpt>
      <trkpt lat="46.05842" lon="6.44393">
        <ele>367</ele>
        <time>2019-07-29T09:14:12Z</time>
      </trkpt>
      <trkpt lat="46.05843" lon="6.44404">
        <ele>368</ele>
        <time>2019-07-29T09:14:16Z</time>
      </trkpt>
      <trkpt lat="46.05846" lon="6.44415">
        <ele>369</ele>
        <time>2019-07-29T09:14:20Z</time>
      </trkpt>
      <trkpt lat="46.05848" lon="6.44426">
        <ele>370</ele>
        <time>2019-07-29T09:14:24Z</time>
      </trkpt>
      <trkpt lat="46.05848" lon="6.44437">
        <ele>371</ele>
        <time>2019-07-29T09:14:28Z</time>
      </trkpt>
      <trkpt lat="46.05845" lon="6.44451">
        <ele>372</ele>
        <time>2019-07-29T09:14:32Z</time>
      </trkpt>
      <trkpt lat="46.0585" lon="6.44467">
        <ele>372</ele>
        <time>2019-07-29T09:14:36Z</time>
      </trkpt>
      <trkpt lat="46.05854" lon="6.4448">
        <ele>373</ele>
        <time>2019-07-29T09:14:40Z</time>
      </trkpt>
      <trkpt lat="46.05852" lon="6.44496">
        <ele>375</ele>
        <time>2019-07-29T09:14:44Z</time>
      </trkpt>
      <trkpt lat="46.05854" lon="6.44508">
        <ele>376</ele>
        <time>2019-07-29T09:14:48Z</time>
      </trkpt>
      <trkpt lat="46.05854" lon="6.44522">
        <ele>376</ele>
        <time>2019-07-29T09:14:52Z</time>
      </trkpt>
      <trkpt lat="46.05851" lon="6.44535">
        <ele>378</ele>
        <time>2019-07-29T09:14:56Z</time>
      </trkpt>
      <trkpt lat="46.05846" lon="6.44548">
        <ele>379</ele>
        <time>2019-07-29T09:15:00Z</time>
      </trkpt>
      <trkpt lat="46.0584" lon="6.44561">
        <ele>379</ele>
        <time>2019-07-29T09:15:04Z</time>
      </trkpt>
      <trkpt lat="46.05838" lon="6.44574">
        <ele>380</ele>
        <time>2019-07-29T09:15:08Z</time>
      </trkpt>
      <trkpt lat="46.05836" lon="6.44586">
        <ele>382</ele>
        <time>2019-07-29T09:15:12Z</time>
      </trkpt>
      <trkpt lat="46.05841" lon="6.44598">
        <ele>383</ele>
        <time>2019-07-29T09:15:16Z</time>
      </trkpt>
      <trkpt lat="46.05845" lon="6.44608">
        <ele>383</ele>
        <time>2019-07-29T09:15:20Z</time>
      </trkpt>
      <trkpt lat="46.05848" lon="6.44619">
        <ele>384</ele>
        <time>2019-07-29T09:15:24Z</time>
      </trkpt>
      <trkpt lat="46.05855" lon="6.4463">
        <ele>385</ele>
        <time>2019-07-29T09:15:28Z</time>
      </trkpt>
      <trkpt lat="46.05863" lon="6.44639">
        <ele>387</ele>
        <time>2019-07-29T09:15:32Z</time>
      </trkpt>
      <trkpt lat="46.05869" lon="6.4465">
        <ele>388</ele>
        <time>2019-07-29T09:15:36Z</time>
      </trkpt>
      <trkpt lat="46.05865" lon="6.4466">
        <ele>389</ele>
        <time>2019-07-29T09:15:40Z</time>
      </trkpt>
      <trkpt lat="46.05869" lon="6.44669">
        <ele>389</ele>
        <time>2019-07-29T09:15:44Z</time>
      </trkpt>
      <trkpt lat="46.05864" lon="6.44685">
        <ele>390</ele>
        <time>2019-07-29T09:15:48Z</time>
      </trkpt>
      <trkpt lat="46.05873" lon="6.44698">
        <ele>391</ele>
        <time>2019-07-29T09:15:52Z</time>
      </trkpt>
      <trkpt lat="46.05879" lon="6.44709">
        <ele>392</ele>
        <time>2019-07-29T09:15:56Z</time>
      </trkpt>
      <trkpt lat="46.05888" lon="6.44719">
        <ele>393</ele>
        <time>2019-07-29T09:16:00Z</time>
      </trkpt>
      <trkpt lat="46.059" lon="6.4473">
        <ele>394</ele>
        <time>2019-07-29T09:16:04Z</time>
      </trkpt>
      <trkpt lat="46.05898" lon="6.44743">
        <ele>394</ele>
        <time>2019-07-29T09:16:08Z</time>
      </trkpt>
      <trkpt lat="46.05897" lon="6.44741">
        <ele>394</ele>
        <time>2019-07-29T09:16:12Z</time>
      </trkpt>
      <trkpt lat="46.05893" lon="6.44728">
        <ele>394</ele>
        <time>2019-07-29T09:16:16Z</time>
      </trkpt>
      <trkpt lat="46.05888" lon="6.44722">
        <ele>393</ele>
        <time>2019-07-29T09:16:20Z</time>
      </trkpt>
      <trkpt lat="46.05887" lon="6.44729">
        <ele>393</ele>
        <time>2019-07-29T09:17:04Z</time>
      </trkpt>
      <trkpt lat="46.05893" lon="6.44735">
        <ele>394</ele>
        <time>2019-07-29T09:17:08Z</time>
      </trkpt>
      <trkpt lat="46.05896" lon="6.44747">
        <ele>395</ele>
        <time>2019-07-29T09:17:12Z</time>
      </trkpt>
      <trkpt lat="46.05899" lon="6.44761">
        <ele>396</ele>
        <time>2019-07-29T09:17:16Z</time>
      </trkpt>
      <trkpt lat="46.05903" lon="6.44774">
        <ele>397</ele>
        <time>2019-07-29T09:17:20Z</time>
      </trkpt>
      <trkpt lat="46.05906" lon="6.44788">
        <ele>398</ele>
        <time>2019-07-29T09:17:24Z</time>
      </trkpt>
      <trkpt lat="46.05903" lon="6.44803">
        <ele>399</ele>
        <time>2019-07-29T09:17:28Z</time>
      </trkpt>
      <trkpt lat="46.05899" lon="6.44816">
        <ele>400</ele>
        <time>2019-07-29T09:17:32Z</time>
      </trkpt>
      <trkpt lat="46.05893" lon="6.44826">
        <ele>401</ele>
        <time>2019-07-29T09:17:36Z</time>
      </trkpt>
      <trkpt lat="46.05885" lon="6.44836">
        <ele>402</ele>
        <time>2019-07-29T09:17:40Z</time>
      </trkpt>
      <trkpt lat="46.05881" lon="6.44848">
        <ele>403</ele>
        <time>2019-07-29T09:17:44Z</time>
      </trkpt>
      <trkpt lat="46.05874" lon="6.44861">
        <ele>404</ele>
        <time>2019-07-29T09:17:48Z</time>
      </trkpt>
      <trkpt lat="46.05867" lon="6.4487">
        <ele>405</ele>
        <time>2019-07-29T09:17:52Z</time>
      </trkpt>
      <trkpt lat="46.05857" lon="6.44874">
        <ele>406</ele>
        <time>2019-07-29T09:17:56Z</time>
      </trkpt>
      <trkpt lat="46.05848" lon="6.44872">
        <ele>407</ele>
        <time>2019-07-29T09:18:00Z</time>
      </trkpt>
      <trkpt lat="46.05844" lon="6.44872">
        <ele>408</ele>
        <time>2019-07-29T09:18:04Z</time>
      </trkpt>
      <trkpt lat="46.05837" lon="6.44874">
        <ele>409</ele>
        <time>2019-07-29T09:18:08Z</time>
      </trkpt>
      <trkpt lat="46.05827" lon="6.44877">
        <ele>410</ele>
        <time>2019-07-29T09:18:12Z</time>
      </trkpt>
      <trkpt lat="46.05817" lon="6.4488">
        <ele>411</ele>
        <time>2019-07-29T09:18:16Z</time>
      </trkpt>
      <trkpt lat="46.05808" lon="6.44883">
        <ele>412</ele>
        <time>2019-07-29T09:18:20Z</time>
      </trkpt>
      <trkpt lat="46.05796" lon="6.44887">
        <ele>413</ele>
        <time>2019-07-29T09:18:24Z</time>
      </trkpt>
      <trkpt lat="46.05785" lon="6.44891">
        <ele>414</ele>
        <time>2019-07-29T09:18:28Z</time>
      </trkpt>
      <trkpt lat="46.05774" lon="6.44893">
        <ele>414</ele>
        <time>2019-07-29T09:18:32Z</time>
      </trkpt>
      <trkpt lat="46.05765" lon="6.44895">
        <ele>416</ele>
        <time>2019-07-29T09:18:36Z</time>
      </trkpt>
      <trkpt lat="46.05756" lon="6.44896">
        <ele>417</ele>
        <time>2019-07-29T09:18:40Z</time>
      </trkpt>
      <trkpt lat="46.05745" lon="6.44896">
        <ele>418</ele>
        <time>2019-07-29T09:18:44Z</time>
      </trkpt>
      <trkpt lat="46.05737" lon="6.449">
        <ele>419</ele>
        <time>2019-07-29T09:18:48Z</time>
      </trkpt>
      <trkpt lat="46.05731" lon="6.44907">
        <ele>419</ele>
        <time>2019-07-29T09:18:52Z</time>
      </trkpt>
      <trkpt lat="46.05725" lon="6.44922">
        <ele>420</ele>
        <time>2019-07-29T09:18:56Z</time>
      </trkpt>
      <trkpt lat="46.05722" lon="6.44935">
        <ele>422</ele>
        <time>2019-07-29T09:19:00Z</time>
      </trkpt>
      <trkpt lat="46.05716" lon="6.44944">
        <ele>422</ele>
        <time>2019-07-29T09:19:04Z</time>
      </trkpt>
      <trkpt lat="46.05708" lon="6.44948">
        <ele>423</ele>
        <time>2019-07-29T09:19:08Z</time>
      </trkpt>
      <trkpt lat="46.05702" lon="6.44948">
        <ele>424</ele>
        <time>2019-07-29T09:19:12Z</time>
      </trkpt>
      <trkpt lat="46.05694" lon="6.44952">
        <ele>424</ele>
        <time>2019-07-29T09:19:16Z</time>
      </trkpt>
      <trkpt lat="46.05683" lon="6.4496">
        <ele>426</ele>
        <time>2019-07-29T09:19:20Z</time>
      </trkpt>
      <trkpt lat="46.05673" lon="6.44969">
        <ele>426</ele>
        <time>2019-07-29T09:19:24Z</time>
      </trkpt>
      <trkpt lat="46.05666" lon="6.44979">
        <ele>427</ele>
        <time>2019-07-29T09:19:28Z</time>
      </trkpt>
      <trkpt lat="46.05659" lon="6.44989">
        <ele>428</ele>
        <time>2019-07-29T09:19:32Z</time>
      </trkpt>
      <trkpt lat="46.05652" lon="6.44997">
        <ele>429</ele>
        <time>2019-07-29T09:19:36Z</time>
      </trkpt>
      <trkpt lat="46.05647" lon="6.45007">
        <ele>430</ele>
        <time>2019-07-29T09:19:40Z</time>
      </trkpt>
      <trkpt lat="46.05642" lon="6.4502">
        <ele>431</ele>
        <time>2019-07-29T09:19:44Z</time>
      </trkpt>
      <trkpt lat="46.05637" lon="6.45031">
        <ele>432</ele>
        <time>2019-07-29T09:19:48Z</time>
      </trkpt>
      <trkpt lat="46.05636" lon="6.45046">
        <ele>433</ele>
        <time>2019-07-29T09:19:52Z</time>
      </trkpt>
      <trkpt lat="46.05634" lon="6.45059">
        <ele>433</ele>
        <time>2019-07-29T09:19:56Z</time>
      </trkpt>
      <trkpt lat="46.05638" lon="6.45074">
        <ele>434</ele>
        <time>2019-07-29T09:20:00Z</time>
      </trkpt>
      <trkpt lat="46.05639" lon="6.45088">
        <ele>435</ele>
        <time>2019-07-29T09:20:04Z</time>
      </trkpt>
      <trkpt lat="46.05635" lon="6.45102">
        <ele>435</ele>
        <time>2019-07-29T09:20:08Z</time>
      </trkpt>
      <trkpt lat="46.0563" lon="6.45115">
        <ele>436</ele>
        <time>2019-07-29T09:20:12Z</time>
      </trkpt>
      <trkpt lat="46.05634" lon="6.45129">
        <ele>437</ele>
        <time>2019-07-29T09:20:16Z</time>
      </trkpt>
      <trkpt lat="46.05629" lon="6.45143">
        <ele>438</ele>
        <time>2019-07-29T09:20:20Z</time>
      </trkpt>
      <trkpt lat="46.05621" lon="6.45156">
        <ele>439</ele>
        <time>2019-07-29T09:20:24Z</time>
      </trkpt>
      <trkpt lat="46.05615" lon="6.45168">
        <ele>440</ele>
        <time>2019-07-29T09:20:28Z</time>
      </trkpt>
      <trkpt lat="46.05609" lon="6.45181">
        <ele>441</ele>
        <time>2019-07-29T09:20:32Z</time>
      </trkpt>
      <trkpt lat="46.056" lon="6.45192">
        <ele>442</ele>
        <time>2019-07-29T09:20:36Z</time>
      </trkpt>
      <trkpt lat="46.05592" lon="6.45202">
        <ele>443</ele>
        <time>2019-07-29T09:20:40Z</time>
      </trkpt>
      <trkpt lat="46.05589" lon="6.45212">
        <ele>444</ele>
        <time>2019-07-29T09:20:44Z</time>
      </trkpt>
      <trkpt lat="46.05611" lon="6.45239">
        <ele>444</ele>
        <time>2019-07-29T09:20:48Z</time>
      </trkpt>
      <trkpt lat="46.05619" lon="6.45251">
        <ele>444</ele>
        <time>2019-07-29T09:20:52Z</time>
      </trkpt>
      <trkpt lat="46.0563" lon="6.45267">
        <ele>446</ele>
        <time>2019-07-29T09:20:56Z</time>
      </trkpt>
      <trkpt lat="46.05634" lon="6.45283">
        <ele>446</ele>
        <time>2019-07-29T09:21:00Z</time>
      </trkpt>
      <trkpt lat="46.05632" lon="6.45297">
        <ele>447</ele>
        <time>2019-07-29T09:21:04Z</time>
      </trkpt>
      <trkpt lat="46.05623" lon="6.45307">
        <ele>447</ele>
        <time>2019-07-29T09:21:08Z</time>
      </trkpt>
      <trkpt lat="46.05616" lon="6.45319">
        <ele>448</ele>
        <time>2019-07-29T09:21:12Z</time>
      </trkpt>
      <trkpt lat="46.05606" lon="6.45331">
        <ele>449</ele>
        <time>2019-07-29T09:21:16Z</time>
      </trkpt>
      <trkpt lat="46.05606" lon="6.45348">
        <ele>450</ele>
        <time>2019-07-29T09:21:20Z</time>
      </trkpt>
      <trkpt lat="46.05597" lon="6.45359">
        <ele>451</ele>
        <time>2019-07-29T09:21:24Z</time>
      </trkpt>
      <trkpt lat="46.05583" lon="6.45367">
        <ele>452</ele>
        <time>2019-07-29T09:21:28Z</time>
      </trkpt>
      <trkpt lat="46.0557" lon="6.45375">
        <ele>452</ele>
        <time>2019-07-29T09:21:32Z</time>
      </trkpt>
      <trkpt lat="46.05557" lon="6.45383">
        <ele>453</ele>
        <time>2019-07-29T09:21:36Z</time>
      </trkpt>
      <trkpt lat="46.05547" lon="6.45393">
        <ele>453</ele>
        <time>2019-07-29T09:21:40Z</time>
      </trkpt>
      <trkpt lat="46.05554" lon="6.45411">
        <ele>454</ele>
        <time>2019-07-29T09:21:44Z</time>
      </trkpt>
      <trkpt lat="46.05548" lon="6.45422">
        <ele>455</ele>
        <time>2019-07-29T09:21:48Z</time>
      </trkpt>
      <trkpt lat="46.05548" lon="6.45434">
        <ele>456</ele>
        <time>2019-07-29T09:21:52Z</time>
      </trkpt>
      <trkpt lat="46.05537" lon="6.4544">
        <ele>457</ele>
        <time>2019-07-29T09:21:56Z</time>
      </trkpt>
      <trkpt lat="46.0553" lon="6.45446">
        <ele>457</ele>
        <time>2019-07-29T09:22:00Z</time>
      </trkpt>
      <trkpt lat="46.05521" lon="6.45449">
        <ele>458</ele>
        <time>2019-07-29T09:22:04Z</time>
      </trkpt>
      <trkpt lat="46.0552" lon="6.45455">
        <ele>459</ele>
        <time>2019-07-29T09:22:08Z</time>
      </trkpt>
      <trkpt lat="46.05518" lon="6.45462">
        <ele>460</ele>
        <time>2019-07-29T09:22:12Z</time>
      </trkpt>
      <trkpt lat="46.05509" lon="6.45466">
        <ele>460</ele>
        <time>2019-07-29T09:22:16Z</time>
      </trkpt>
      <trkpt lat="46.05502" lon="6.4547">
        <ele>461</ele>
        <time>2019-07-29T09:22:20Z</time>
      </trkpt>
      <trkpt lat="46.05485" lon="6.4547">
        <ele>462</ele>
        <time>2019-07-29T09:22:24Z</time>
      </trkpt>
      <trkpt lat="46.0548" lon="6.45475">
        <ele>463</ele>
        <time>2019-07-29T09:22:28Z</time>
      </trkpt>
      <trkpt lat="46.05474" lon="6.45477">
        <ele>464</ele>
        <time>2019-07-29T09:22:32Z</time>
      </trkpt>
      <trkpt lat="46.05466" lon="6.45475">
        <ele>466</ele>
        <time>2019-07-29T09:22:40Z</time>
      </trkpt>
      <trkpt lat="46.05457" lon="6.45475">
        <ele>466</ele>
        <time>2019-07-29T09:22:44Z</time>
      </trkpt>
      <trkpt lat="46.05447" lon="6.45481">
        <ele>466</ele>
        <time>2019-07-29T09:22:48Z</time>
      </trkpt>
      <trkpt lat="46.05436" lon="6.45496">
        <ele>467</ele>
        <time>2019-07-29T09:22:52Z</time>
      </trkpt>
      <trkpt lat="46.05426" lon="6.4551">
        <ele>467</ele>
        <time>2019-07-29T09:22:56Z</time>
      </trkpt>
      <trkpt lat="46.05418" lon="6.45523">
        <ele>469</ele>
        <time>2019-07-29T09:23:00Z</time>
      </trkpt>
      <trkpt lat="46.05406" lon="6.45532">
        <ele>469</ele>
        <time>2019-07-29T09:23:04Z</time>
      </trkpt>
      <trkpt lat="46.05393" lon="6.45534">
        <ele>470</ele>
        <time>2019-07-29T09:23:08Z</time>
      </trkpt>
      <trkpt lat="46.0538" lon="6.45532">
        <ele>471</ele>
        <time>2019-07-29T09:23:12Z</time>
      </trkpt>
      <trkpt lat="46.05369" lon="6.45532">
        <ele>472</ele>
        <time>2019-07-29T09:23:16Z</time>
      </trkpt>
      <trkpt lat="46.05359" lon="6.45532">
        <ele>474</ele>
        <time>2019-07-29T09:23:20Z</time>
      </trkpt>
      <trkpt lat="46.05354" lon="6.45534">
        <ele>475</ele>
        <time>2019-07-29T09:23:24Z</time>
      </trkpt>
      <trkpt lat="46.05347" lon="6.45533">
        <ele>476</ele>
        <time>2019-07-29T09:23:28Z</time>
      </trkpt>
      <trkpt lat="46.0534" lon="6.4553">
        <ele>476</ele>
        <time>2019-07-29T09:23:32Z</time>
      </trkpt>
      <trkpt lat="46.05328" lon="6.45526">
        <ele>478</ele>
        <time>2019-07-29T09:23:36Z</time>
      </trkpt>
      <trkpt lat="46.0532" lon="6.45524">
        <ele>479</ele>
        <time>2019-07-29T09:23:40Z</time>
      </trkpt>
      <trkpt lat="46.05312" lon="6.45521">
        <ele>480</ele>
        <time>2019-07-29T09:23:44Z</time>
      </trkpt>
      <trkpt lat="46.05306" lon="6.45517">
        <ele>480</ele>
        <time>2019-07-29T09:23:48Z</time>
      </trkpt>
      <trkpt lat="46.05301" lon="6.45512">
        <ele>481</ele>
        <time>2019-07-29T09:23:52Z</time>
      </trkpt>
      <trkpt lat="46.05295" lon="6.45506">
        <ele>482</ele>
        <time>2019-07-29T09:23:56Z</time>
      </trkpt>
      <trkpt lat="46.05284" lon="6.45494">
        <ele>484</ele>
        <time>2019-07-29T09:24:00Z</time>
      </trkpt>
      <trkpt lat="46.05276" lon="6.45481">
        <ele>484</ele>
        <time>2019-07-29T09:24:04Z</time>
      </trkpt>
      <trkpt lat="46.05267" lon="6.45471">
        <ele>486</ele>
        <time>2019-07-29T09:24:08Z</time>
      </trkpt>
      <trkpt lat="46.05263" lon="6.45467">
        <ele>487</ele>
        <time>2019-07-29T09:24:12Z</time>
      </trkpt>
      <trkpt lat="46.05251" lon="6.45468">
        <ele>487</ele>
        <time>2019-07-29T09:24:16Z</time>
      </trkpt>
      <trkpt lat="46.05245" lon="6.45478">
        <ele>488</ele>
        <time>2019-07-29T09:24:20Z</time>
      </trkpt>
      <trkpt lat="46.05248" lon="6.45492">
        <ele>488</ele>
        <time>2019-07-29T09:24:24Z</time>
      </trkpt>
      <trkpt lat="46.0525" lon="6.45502">
        <ele>489</ele>
        <time>2019-07-29T09:24:28Z</time>
      </trkpt>
      <trkpt lat="46.05257" lon="6.45508">
        <ele>490</ele>
        <time>2019-07-29T09:24:32Z</time>
      </trkpt>
      <trkpt lat="46.0526" lon="6.45515">
        <ele>491</ele>
        <time>2019-07-29T09:24:36Z</time>
      </trkpt>
      <trkpt lat="46.05277" lon="6.45519">
        <ele>492</ele>
        <time>2019-07-29T09:24:40Z</time>
      </trkpt>
      <trkpt lat="46.05295" lon="6.45524">
        <ele>492</ele>
        <time>2019-07-29T09:24:44Z</time>
      </trkpt>
      <trkpt lat="46.05312" lon="6.45528">
        <ele>494</ele>
        <time>2019-07-29T09:24:48Z</time>
      </trkpt>
      <trkpt lat="46.05328" lon="6.45538">
        <ele>495</ele>
        <time>2019-07-29T09:24:52Z</time>
      </trkpt>
      <trkpt lat="46.05344" lon="6.45545">
        <ele>496</ele>
        <time>2019-07-29T09:24:56Z</time>
      </trkpt>
      <trkpt lat="46.05346" lon="6.45553">
        <ele>497</ele>
        <time>2019-07-29T09:25:00Z</time>
      </trkpt>
      <trkpt lat="46.0535" lon="6.4556">
        <ele>497</ele>
        <time>2019-07-29T09:25:04Z</time>
      </trkpt>
      <trkpt lat="46.05354" lon="6.45566">
        <ele>499</ele>
        <time>2019-07-29T09:25:08Z</time>
      </trkpt>
      <trkpt lat="46.05343" lon="6.45574">
        <ele>499</ele>
        <time>2019-07-29T09:25:12Z</time>
      </trkpt>
      <trkpt lat="46.05332" lon="6.45581">
        <ele>500</ele>
        <time>2019-07-29T09:25:16Z</time>
      </trkpt>
      <trkpt lat="46.05337" lon="6.45589">
        <ele>501</ele>
        <time>2019-07-29T09:25:20Z</time>
      </trkpt>
      <trkpt lat="46.05343" lon="6.45594">
        <ele>502</ele>
        <time>2019-07-29T09:25:24Z</time>
      </trkpt>
      <trkpt lat="46.05349" lon="6.45597">
        <ele>504</ele>
        <time>2019-07-29T09:25:28Z</time>
      </trkpt>
      <trkpt lat="46.05358" lon="6.45597">
        <ele>505</ele>
        <time>2019-07-29T09:25:32Z</time>
      </trkpt>
      <trkpt lat="46.05365" lon="6.45597">
        <ele>505</ele>
        <time>2019-07-29T09:25:36Z</time>
      </trkpt>
      <trkpt lat="46.05373" lon="6.456">
        <ele>506</ele>
        <time>2019-07-29T09:25:40Z</time>
      </trkpt>
      <trkpt lat="46.05377" lon="6.45612">
        <ele>507</ele>
        <time>2019-07-29T09:25:44Z</time>
      </trkpt>
      <trkpt lat="46.05378" lon="6.45623">
        <ele>508</ele>
        <time>2019-07-29T09:25:48Z</time>
      </trkpt>
      <trkpt lat="46.05374" lon="6.45627">
        <ele>509</ele>
        <time>2019-07-29T09:25:52Z</time>
      </trkpt>
      <trkpt lat="46.05364" lon="6.45627">
        <ele>510</ele>
        <time>2019-07-29T09:25:56Z</time>
      </trkpt>
      <trkpt lat="46.05361" lon="6.45625">
        <ele>511</ele>
        <time>2019-07-29T09:26:00Z</time>
      </trkpt>
      <trkpt lat="46.05355" lon="6.45623">
        <ele>512</ele>
        <time>2019-07-29T09:26:04Z</time>
      </trkpt>
      <trkpt lat="46.0535" lon="6.45624">
        <ele>513</ele>
        <time>2019-07-29T09:26:08Z</time>
      </trkpt>
      <trkpt lat="46.05344" lon="6.45626">
        <ele>513</ele>
        <time>2019-07-29T09:26:12Z</time>
      </trkpt>
      <trkpt lat="46.05337" lon="6.45624">
        <ele>514</ele>
        <time>2019-07-29T09:26:16Z</time>
      </trkpt>
      <trkpt lat="46.05335" lon="6.45623">
        <ele>515</ele>
        <time>2019-07-29T09:26:20Z</time>
      </trkpt>
      <trkpt lat="46.05331" lon="6.45621">
        <ele>516</ele>
        <time>2019-07-29T09:26:24Z</time>
      </trkpt>
      <trkpt lat="46.05329" lon="6.4562">
        <ele>517</ele>
        <time>2019-07-29T09:26:28Z</time>
      </trkpt>
      <trkpt lat="46.0532" lon="6.45617">
        <ele>518</ele>
        <time>2019-07-29T09:26:32Z</time>
      </trkpt>
      <trkpt lat="46.05317" lon="6.45618">
        <ele>518</ele>
        <time>2019-07-29T09:26:36Z</time>
      </trkpt>
      <trkpt lat="46.05309" lon="6.45616">
        <ele>520</ele>
        <time>2019-07-29T09:26:40Z</time>
      </trkpt>
      <trkpt lat="46.05303" lon="6.45613">
        <ele>521</ele>
        <time>2019-07-29T09:26:44Z</time>
      </trkpt>
      <trkpt lat="46.05279" lon="6.456">
        <ele>522</ele>
        <time>2019-07-29T09:26:48Z</time>
      </trkpt>
      <trkpt lat="46.05255" lon="6.45589">
        <ele>523</ele>
        <time>2019-07-29T09:26:52Z</time>
      </trkpt>
      <trkpt lat="46.05244" lon="6.45574">
        <ele>525</ele>
        <time>2019-07-29T09:26:56Z</time>
      </trkpt>
      <trkpt lat="46.05238" lon="6.45562">
        <ele>525</ele>
        <time>2019-07-29T09:27:00Z</time>
      </trkpt>
      <trkpt lat="46.0523" lon="6.45553">
        <ele>526</ele>
        <time>2019-07-29T09:27:04Z</time>
      </trkpt>
      <trkpt lat="46.05228" lon="6.45548">
        <ele>527</ele>
        <time>2019-07-29T09:27:08Z</time>
      </trkpt>
      <trkpt lat="46.05217" lon="6.45549">
        <ele>527</ele>
        <time>2019-07-29T09:27:12Z</time>
      </trkpt>
      <trkpt lat="46.0521" lon="6.45546">
        <ele>528</ele>
        <time>2019-07-29T09:27:16Z</time>
      </trkpt>
      <trkpt lat="46.05206" lon="6.45543">
        <ele>529</ele>
        <time>2019-07-29T09:27:20Z</time>
      </trkpt>
      <trkpt lat="46.05199" lon="6.45537">
        <ele>530</ele>
        <time>2019-07-29T09:27:24Z</time>
      </trkpt>
      <trkpt lat="46.05195" lon="6.45532">
        <ele>531</ele>
        <time>2019-07-29T09:27:28Z</time>
      </trkpt>
      <trkpt lat="46.05179" lon="6.45521">
        <ele>532</ele>
        <time>2019-07-29T09:27:32Z</time>
      </trkpt>
      <trkpt lat="46.05173" lon="6.45509">
        <ele>533</ele>
        <time>2019-07-29T09:27:36Z</time>
      </trkpt>
      <trkpt lat="46.05166" lon="6.45498">
        <ele>535</ele>
        <time>2019-07-29T09:27:40Z</time>
      </trkpt>
      <trkpt lat="46.05157" lon="6.45493">
        <ele>535</ele>
        <time>2019-07-29T09:27:44Z</time>
      </trkpt>
      <trkpt lat="46.05153" lon="6.45491">
        <ele>535</ele>
        <time>2019-07-29T09:27:48Z</time>
      </trkpt>
      <trkpt lat="46.05152" lon="6.45491">
        <ele>536</ele>
        <time>2019-07-29T09:27:52Z</time>
      </trkpt>
      <trkpt lat="46.05149" lon="6.45494">
        <ele>537</ele>
        <time>2019-07-29T09:27:56Z</time>
      </trkpt>
      <trkpt lat="46.05141" lon="6.45494">
        <ele>538</ele>
        <time>2019-07-29T09:28:00Z</time>
      </trkpt>
      <trkpt lat="46.05129" lon="6.45488">
        <ele>540</ele>
        <time>2019-07-29T09:28:04Z</time>
      </trkpt>
      <trkpt lat="46.05125" lon="6.45479">
        <ele>540</ele>
        <time>2019-07-29T09:28:08Z</time>
      </trkpt>
      <trkpt lat="46.05123" lon="6.45474">
        <ele>541</ele>
        <time>2019-07-29T09:28:12Z</time>
      </trkpt>
      <trkpt lat="46.05122" lon="6.45477">
        <ele>542</ele>
        <time>2019-07-29T09:28:16Z</time>
      </trkpt>
      <trkpt lat="46.05119" lon="6.45485">
        <ele>542</ele>
        <time>2019-07-29T09:28:20Z</time>
      </trkpt>
      <trkpt lat="46.05116" lon="6.45491">
        <ele>544</ele>
        <time>2019-07-29T09:28:24Z</time>
      </trkpt>
      <trkpt lat="46.05116" lon="6.45498">
        <ele>545</ele>
        <time>2019-07-29T09:28:28Z</time>
      </trkpt>
      <trkpt lat="46.05119" lon="6.45505">
        <ele>546</ele>
        <time>2019-07-29T09:28:32Z</time>
      </trkpt>
      <trkpt lat="46.0511" lon="6.45515">
        <ele>547</ele>
        <time>2019-07-29T09:28:36Z</time>
      </trkpt>
      <trkpt lat="46.05103" lon="6.45525">
        <ele>548</ele>
        <time>2019-07-29T09:28:40Z</time>
      </trkpt>
      <trkpt lat="46.05097" lon="6.45538">
        <ele>549</ele>
        <time>2019-07-29T09:28:44Z</time>
      </trkpt>
      <trkpt lat="46.05088" lon="6.4555">
        <ele>549</ele>
        <time>2019-07-29T09:28:48Z</time>
      </trkpt>
      <trkpt lat="46.05081" lon="6.45564">
        <ele>550</ele>
        <time>2019-07-29T09:28:52Z</time>
      </trkpt>
      <trkpt lat="46.0508" lon="6.45577">
        <ele>551</ele>
        <time>2019-07-29T09:28:56Z</time>
      </trkpt>
      <trkpt lat="46.05079" lon="6.45588">
        <ele>552</ele>
        <time>2019-07-29T09:29:00Z</time>
      </trkpt>
      <trkpt lat="46.05081" lon="6.456">
        <ele>553</ele>
        <time>2019-07-29T09:29:04Z</time>
      </trkpt>
      <trkpt lat="46.05082" lon="6.45612">
        <ele>554</ele>
        <time>2019-07-29T09:29:08Z</time>
      </trkpt>
      <trkpt lat="46.05085" lon="6.45626">
        <ele>555</ele>
        <time>2019-07-29T09:29:12Z</time>
      </trkpt>
      <trkpt lat="46.05088" lon="6.45638">
        <ele>556</ele>
        <time>2019-07-29T09:29:16Z</time>
      </trkpt>
      <trkpt lat="46.05092" lon="6.45652">
        <ele>556</ele>
        <time>2019-07-29T09:29:20Z</time>
      </trkpt>
      <trkpt lat="46.05093" lon="6.45667">
        <ele>558</ele>
        <time>2019-07-29T09:29:24Z</time>
      </trkpt>
      <trkpt lat="46.05092" lon="6.4568">
        <ele>559</ele>
        <time>2019-07-29T09:29:28Z</time>
      </trkpt>
      <trkpt lat="46.05093" lon="6.45695">
        <ele>559</ele>
        <time>2019-07-29T09:29:32Z</time>
      </trkpt>
      <trkpt lat="46.05093" lon="6.45707">
        <ele>560</ele>
        <time>2019-07-29T09:29:36Z</time>
      </trkpt>
      <trkpt lat="46.05094" lon="6.45721">
        <ele>561</ele>
        <time>2019-07-29T09:29:40Z</time>
      </trkpt>
      <trkpt lat="46.05089" lon="6.45735">
        <ele>562</ele>
        <time>2019-07-29T09:29:44Z</time>
      </trkpt>
      <trkpt lat="46.05084" lon="6.45747">
        <ele>562</ele>
        <time>2019-07-29T09:29:48Z</time>
      </trkpt>
      <trkpt lat="46.05078" lon="6.45759">
        <ele>563</ele>
        <time>2019-07-29T09:29:52Z</time>
      </trkpt>
      <trkpt lat="46.05071" lon="6.45769">
        <ele>564</ele>
        <time>2019-07-29T09:29:56Z</time>
      </trkpt>
      <trkpt lat="46.05063" lon="6.45779">
        <ele>565</ele>
        <time>2019-07-29T09:30:00Z</time>
      </trkpt>
      <trkpt lat="46.05058" lon="6.4579">
        <ele>566</ele>
        <time>2019-07-29T09:30:04Z</time>
      </trkpt>
      <trkpt lat="46.05055" lon="6.45802">
        <ele>567</ele>
        <time>2019-07-29T09:30:08Z</time>
      </trkpt>
      <trkpt lat="46.05055" lon="6.45814">
        <ele>568</ele>
        <time>2019-07-29T09:30:12Z</time>
      </trkpt>
      <trkpt lat="46.05067" lon="6.45825">
        <ele>569</ele>
        <time>2019-07-29T09:30:16Z</time>
      </trkpt>
      <trkpt lat="46.05075" lon="6.45824">
        <ele>569</ele>
        <time>2019-07-29T09:30:20Z</time>
      </trkpt>
      <trkpt lat="46.05082" lon="6.45816">
        <ele>570</ele>
        <time>2019-07-29T09:30:24Z</time>
      </trkpt>
      <trkpt lat="46.05079" lon="6.45806">
        <ele>571</ele>
        <time>2019-07-29T09:30:28Z</time>
      </trkpt>
      <trkpt lat="46.05075" lon="6.45792">
        <ele>572</ele>
        <time>2019-07-29T09:30:32Z</time>
      </trkpt>
      <trkpt lat="46.05075" lon="6.45778">
        <ele>573</ele>
        <time>2019-07-29T09:30:36Z</time>
      </trkpt>
      <trkpt lat="46.05081" lon="6.45765">
        <ele>573</ele>
        <time>2019-07-29T09:30:40Z</time>
      </trkpt>
      <trkpt lat="46.05087" lon="6.45754">
        <ele>574</ele>
        <time>2019-07-29T09:30:44Z</time>
      </trkpt>
      <trkpt lat="46.05091" lon="6.45744">
        <ele>575</ele>
        <time>2019-07-29T09:30:48Z</time>
      </trkpt>
      <trkpt lat="46.05098" lon="6.45737">
        <ele>576</ele>
        <time>2019-07-29T09:30:52Z</time>
      </trkpt>
      <trkpt lat="46.05102" lon="6.45728">
        <ele>577</ele>
        <time>2019-07-29T09:30:56Z</time>
      </trkpt>
      <trkpt lat="46.05103" lon="6.4572">
        <ele>577</ele>
        <time>2019-07-29T09:31:00Z</time>
      </trkpt>
      <trkpt lat="46.05102" lon="6.4571">
        <ele>579</ele>
        <time>2019-07-29T09:31:04Z</time>
      </trkpt>
      <trkpt lat="46.051" lon="6.45701">
        <ele>580</ele>
        <time>2019-07-29T09:31:08Z</time>
      </trkpt>
      <trkpt lat="46.05096" lon="6.45689">
        <ele>580</ele>
        <time>2019-07-29T09:31:12Z</time>
      </trkpt>
      <trkpt lat="46.0509" lon="6.45674">
        <ele>582</ele>
        <time>2019-07-29T09:31:16Z</time>
      </trkpt>
      <trkpt lat="46.05085" lon="6.45661">
        <ele>582</ele>
        <time>2019-07-29T09:31:20Z</time>
      </trkpt>
      <trkpt lat="46.05087" lon="6.45647">
        <ele>584</ele>
        <time>2019-07-29T09:31:24Z</time>
      </trkpt>
      <trkpt lat="46.05088" lon="6.45634">
        <ele>584</ele>
        <time>2019-07-29T09:31:28Z</time>
      </trkpt>
      <trkpt lat="46.05086" lon="6.4562">
        <ele>585</ele>
        <time>2019-07-29T09:31:32Z</time>
      </trkpt>
      <trkpt lat="46.05087" lon="6.45607">
        <ele>586</ele>
        <time>2019-07-29T09:31:36Z</time>
      </trkpt>
      <trkpt lat="46.05087" lon="6.45596">
        <ele>587</ele>
        <time>2019-07-29T09:31:40Z</time>
      </trkpt>
      <trkpt lat="46.05097" lon="6.45594">
        <ele>588</ele>
        <time>2019-07-29T09:31:44Z</time>
      </trkpt>
      <trkpt lat="46.05108" lon="6.45602">
        <ele>589</ele>
        <time>2019-07-29T09:31:48Z</time>
      </trkpt>
      <trkpt lat="46.05111" lon="6.45615">
        <ele>590</ele>
        <time>2019-07-29T09:31:52Z</time>
      </trkpt>
      <trkpt lat="46.05112" lon="6.45626">
        <ele>591</ele>
        <time>2019-07-29T09:31:56Z</time>
      </trkpt>
      <trkpt lat="46.05112" lon="6.45637">
        <ele>592</ele>
        <time>2019-07-29T09:32:00Z</time>
      </trkpt>
      <trkpt lat="46.05111" lon="6.45648">
        <ele>593</ele>
        <time>2019-07-29T09:32:04Z</time>
      </trkpt>
      <trkpt lat="46.05115" lon="6.4566">
        <ele>593</ele>
        <time>2019-07-29T09:32:08Z</time>
      </trkpt>
      <trkpt lat="46.0512" lon="6.45671">
        <ele>594</ele>
        <time>2019-07-29T09:32:12Z</time>
      </trkpt>
      <trkpt lat="46.05125" lon="6.45681">
        <ele>595</ele>
        <time>2019-07-29T09:32:16Z</time>
      </trkpt>
      <trkpt lat="46.05129" lon="6.45692">
        <ele>597</ele>
        <time>2019-07-29T09:32:20Z</time>
      </trkpt>
      <trkpt lat="46.05131" lon="6.45704">
        <ele>597</ele>
        <time>2019-07-29T09:32:24Z</time>
      </trkpt>
      <trkpt lat="46.05132" lon="6.45715">
        <ele>598</ele>
        <time>2019-07-29T09:32:28Z</time>
      </trkpt>
      <trkpt lat="46.05128" lon="6.45724">
        <ele>599</ele>
        <time>2019-07-29T09:32:32Z</time>
      </trkpt>
      <trkpt lat="46.05126" lon="6.45736">
        <ele>601</ele>
        <time>2019-07-29T09:32:36Z</time>
      </trkpt>
      <trkpt lat="46.05125" lon="6.45749">
        <ele>601</ele>
        <time>2019-07-29T09:32:40Z</time>
      </trkpt>
      <trkpt lat="46.05121" lon="6.4576">
        <ele>602</ele>
        <time>2019-07-29T09:32:44Z</time>
      </trkpt>
      <trkpt lat="46.05116" lon="6.45769">
        <ele>603</ele>
        <time>2019-07-29T09:32:48Z</time>
      </trkpt>
      <trkpt lat="46.05116" lon="6.45782">
        <ele>604</ele>
        <time>2019-07-29T09:32:52Z</time>
      </trkpt>
      <trkpt lat="46.05118" lon="6.45795">
        <ele>605</ele>
        <time>2019-07-29T09:32:56Z</time>
      </trkpt>
      <trkpt lat="46.0512" lon="6.45807">
        <ele>605</ele>
        <time>2019-07-29T09:33:00Z</time>
      </trkpt>
      <trkpt lat="46.0512" lon="6.45818">
        <ele>607</ele>
        <time>2019-07-29T09:33:04Z</time>
      </trkpt>
      <trkpt lat="46.05125" lon="6.4583">
        <ele>607</ele>
        <time>2019-07-29T09:33:08Z</time>
      </trkpt>
      <trkpt lat="46.0513" lon="6.4584">
        <ele>608</ele>
        <time>2019-07-29T09:33:12Z</time>
      </trkpt>
      <trkpt lat="46.05129" lon="6.4585">
        <ele>609</ele>
        <time>2019-07-29T09:33:16Z</time>
      </trkpt>
      <trkpt lat="46.05123" lon="6.45862">
        <ele>610</ele>
        <time>2019-07-29T09:33:20Z</time>
      </trkpt>
      <trkpt lat="46.05117" lon="6.45871">
        <ele>612</ele>
        <time>2019-07-29T09:33:24Z</time>
      </trkpt>
      <trkpt lat="46.05123" lon="6.45882">
        <ele>612</ele>
        <time>2019-07-29T09:33:28Z</time>
      </trkpt>
      <trkpt lat="46.05122" lon="6.4589">
        <ele>613</ele>
        <time>2019-07-29T09:33:32Z</time>
      </trkpt>
      <trkpt lat="46.05123" lon="6.45902">
        <ele>614</ele>
        <time>2019-07-29T09:33:36Z</time>
      </trkpt>
      <trkpt lat="46.05122" lon="6.45913">
        <ele>615</ele>
        <time>2019-07-29T09:33:40Z</time>
      </trkpt>
      <trkpt lat="46.05122" lon="6.45925">
        <ele>616</ele>
        <time>2019-07-29T09:33:44Z</time>
      </trkpt>
      <trkpt lat="46.05122" lon="6.4594">
        <ele>616</ele>
        <time>2019-07-29T09:33:48Z</time>
      </trkpt>
      <trkpt lat="46.05122" lon="6.45953">
        <ele>617</ele>
        <time>2019-07-29T09:33:52Z</time>
      </trkpt>
      <trkpt lat="46.05122" lon="6.45967">
        <ele>618</ele>
        <time>2019-07-29T09:33:56Z</time>
      </trkpt>
      <trkpt lat="46.0512" lon="6.4598">
        <ele>619</ele>
        <time>2019-07-29T09:34:00Z</time>
      </trkpt>
      <trkpt lat="46.05117" lon="6.45992">
        <ele>620</ele>
        <time>2019-07-29T09:34:04Z</time>
      </trkpt>
      <trkpt lat="46.05116" lon="6.46005">
        <ele>621</ele>
        <time>2019-07-29T09:34:08Z</time>
      </trkpt>
      <trkpt lat="46.05111" lon="6.46016">
        <ele>622</ele>
        <time>2019-07-29T09:34:12Z</time>
      </trkpt>
      <trkpt lat="46.05108" lon="6.46028">
        <ele>623</ele>
        <time>2019-07-29T09:34:16Z</time>
      </trkpt>
      <trkpt lat="46.05104" lon="6.4604">
        <ele>624</ele>
        <time>2019-07-29T09:34:20Z</time>
      </trkpt>
      <trkpt lat="46.05101" lon="6.46051">
        <ele>625</ele>
        <time>2019-07-29T09:34:24Z</time>
      </trkpt>
      <trkpt lat="46.05096" lon="6.4606">
        <ele>625</ele>
        <time>2019-07-29T09:34:28Z</time>
      </trkpt>
      <trkpt lat="46.05094" lon="6.4607">
        <ele>627</ele>
        <time>2019-07-29T09:34:32Z</time>
      </trkpt>
      <trkpt lat="46.05096" lon="6.46078">
        <ele>628</ele>
        <time>2019-07-29T09:34:36Z</time>
      </trkpt>
      <trkpt lat="46.05097" lon="6.46085">
        <ele>628</ele>
        <time>2019-07-29T09:34:40Z</time>
      </trkpt>
      <trkpt lat="46.05086" lon="6.46091">
        <ele>629</ele>
        <time>2019-07-29T09:34:44Z</time>
      </trkpt>
      <trkpt lat="46.05079" lon="6.46097">
        <ele>630</ele>
        <time>2019-07-29T09:34:48Z</time>
      </trkpt>
      <trkpt lat="46.05073" lon="6.46101">
        <ele>631</ele>
        <time>2019-07-29T09:34:52Z</time>
      </trkpt>
      <trkpt lat="46.05067" lon="6.46106">
        <ele>632</ele>
        <time>2019-07-29T09:34:56Z</time>
      </trkpt>
      <trkpt lat="46.05062" lon="6.46112">
        <ele>633</ele>
        <time>2019-07-29T09:35:00Z</time>
      </trkpt>
      <trkpt lat="46.05054" lon="6.46122">
        <ele>634</ele>
        <time>2019-07-29T09:35:04Z</time>
      </trkpt>
      <trkpt lat="46.05048" lon="6.46129">
        <ele>634</ele>
        <time>2019-07-29T09:35:08Z</time>
      </trkpt>
      <trkpt lat="46.05039" lon="6.46138">
        <ele>636</ele>
        <time>2019-07-29T09:35:12Z</time>
      </trkpt>
      <trkpt lat="46.05035" lon="6.46151">
        <ele>636</ele>
        <time>2019-07-29T09:35:16Z</time>
      </trkpt>
      <trkpt lat="46.05029" lon="6.46164">
        <ele>637</ele>
        <time>2019-07-29T09:35:20Z</time>
      </trkpt>
      <trkpt lat="46.05022" lon="6.46174">
        <ele>638</ele>
        <time>2019-07-29T09:35:24Z</time>
      </trkpt>
      <trkpt lat="46.05019" lon="6.46188">
        <ele>639</ele>
        <time>2019-07-29T09:35:28Z</time>
      </trkpt>
      <trkpt lat="46.0502" lon="6.46201">
        <ele>641</ele>
        <time>2019-07-29T09:35:32Z</time>
      </trkpt>
      <trkpt lat="46.05024" lon="6.46215">
        <ele>641</ele>
        <time>2019-07-29T09:35:36Z</time>
      </trkpt>
      <trkpt lat="46.0503" lon="6.46228">
        <ele>642</ele>
        <time>2019-07-29T09:35:40Z</time>
      </trkpt>
      <trkpt lat="46.05034" lon="6.46238">
        <ele>643</ele>
        <time>2019-07-29T09:35:44Z</time>
      </trkpt>
      <trkpt lat="46.05038" lon="6.46247">
        <ele>644</ele>
        <time>2019-07-29T09:35:48Z</time>
      </trkpt>
      <trkpt lat="46.05037" lon="6.4626">
        <ele>645</ele>
        <time>2019-07-29T09:35:52Z</time>
      </trkpt>
      <trkpt lat="46.05032" lon="6.46269">
        <ele>646</ele>
        <time>2019-07-29T09:35:56Z</time>
      </trkpt>
      <trkpt lat="46.05029" lon="6.46281">
        <ele>646</ele>
        <time>2019-07-29T09:36:00Z</time>
      </trkpt>
      <trkpt lat="46.05024" lon="6.46292">
        <ele>648</ele>
        <time>2019-07-29T09:36:04Z</time>
      </trkpt>
      <trkpt lat="46.05023" lon="6.46306">
        <ele>648</ele>
        <time>2019-07-29T09:36:08Z</time>
      </trkpt>
      <trkpt lat="46.05019" lon="6.46316">
        <ele>649</ele>
        <time>2019-07-29T09:36:12Z</time>
      </trkpt>
      <trkpt lat="46.05016" lon="6.46323">
        <ele>650</ele>
        <time>2019-07-29T09:36:16Z</time>
      </trkpt>
      <trkpt lat="46.05014" lon="6.46335">
        <ele>651</ele>
        <time>2019-07-29T09:36:20Z</time>
      </trkpt>
      <trkpt lat="46.05014" lon="6.46342">
        <ele>652</ele>
        <time>2019-07-29T09:36:24Z</time>
      </trkpt>
      <trkpt lat="46.05012" lon="6.4635">
        <ele>653</ele>
        <time>2019-07-29T09:36:28Z</time>
      </trkpt>
      <trkpt lat="46.05009" lon="6.46353">
        <ele>654</ele>
        <time>2019-07-29T09:36:32Z</time>
      </trkpt>
      <trkpt lat="46.05006" lon="6.4636">
        <ele>655</ele>
        <time>2019-07-29T09:36:36Z</time>
      </trkpt>
      <trkpt lat="46.04995" lon="6.46365">
        <ele>656</ele>
        <time>2019-07-29T09:36:40Z</time>
      </trkpt>
      <trkpt lat="46.0499" lon="6.46372">
        <ele>657</ele>
        <time>2019-07-29T09:36:44Z</time>
      </trkpt>
      <trkpt lat="46.04976" lon="6.4638">
        <ele>658</ele>
        <time>2019-07-29T09:36:48Z</time>
      </trkpt>
      <trkpt lat="46.04968" lon="6.46392">
        <ele>659</ele>
        <time>2019-07-29T09:36:52Z</time>
      </trkpt>
      <trkpt lat="46.04962" lon="6.46408">
        <ele>660</ele>
        <time>2019-07-29T09:36:56Z</time>
      </trkpt>
      <trkpt lat="46.04958" lon="6.4642">
        <ele>661</ele>
        <time>2019-07-29T09:37:00Z</time>
      </trkpt>
      <trkpt lat="46.04954" lon="6.46432">
        <ele>662</ele>
        <time>2019-07-29T09:37:04Z</time>
      </trkpt>
      <trkpt lat="46.0495" lon="6.46445">
        <ele>663</ele>
        <time>2019-07-29T09:37:08Z</time>
      </trkpt>
      <trkpt lat="46.04944" lon="6.46455">
        <ele>663</ele>
        <time>2019-07-29T09:37:12Z</time>
      </trkpt>
      <trkpt lat="46.0494" lon="6.46466">
        <ele>665</ele>
        <time>2019-07-29T09:37:16Z</time>
      </trkpt>
      <trkpt lat="46.04941" lon="6.4648">
        <ele>666</ele>
        <time>2019-07-29T09:37:20Z</time>
      </trkpt>
      <trkpt lat="46.04945" lon="6.46493">
        <ele>666</ele>
        <time>2019-07-29T09:37:24Z</time>
      </trkpt>
      <trkpt lat="46.0495" lon="6.46504">
        <ele>667</ele>
        <time>2019-07-29T09:37:28Z</time>
      </trkpt>
      <trkpt lat="46.04958" lon="6.46513">
        <ele>668</ele>
        <time>2019-07-29T09:37:32Z</time>
      </trkpt>
      <trkpt lat="46.04965" lon="6.46523">
        <ele>669</ele>
        <time>2019-07-29T09:37:36Z</time>
      </trkpt>
      <trkpt lat="46.04969" lon="6.46533">
        <ele>670</ele>
        <time>2019-07-29T09:37:40Z</time>
      </trkpt>
      <trkpt lat="46.04972" lon="6.46544">
        <ele>671</ele>
        <time>2019-07-29T09:37:44Z</time>
      </trkpt>
      <trkpt lat="46.04975" lon="6.46556">
        <ele>672</ele>
        <time>2019-07-29T09:37:48Z</time>
      </trkpt>
      <trkpt lat="46.04978" lon="6.46568">
        <ele>673</ele>
        <time>2019-07-29T09:37:52Z</time>
      </trkpt>
      <trkpt lat="46.04982" lon="6.4658">
        <ele>674</ele>
        <time>2019-07-29T09:37:56Z</time>
      </trkpt>
      <trkpt lat="46.04982" lon="6.46591">
        <ele>675</ele>
        <time>2019-07-29T09:38:00Z</time>
      </trkpt>
      <trkpt lat="46.0498" lon="6.46603">
        <ele>676</ele>
        <time>2019-07-29T09:38:04Z</time>
      </trkpt>
      <trkpt lat="46.04978" lon="6.46617">
        <ele>676</ele>
        <time>2019-07-29T09:38:08Z</time>
      </trkpt>
      <trkpt lat="46.04975" lon="6.46631">
        <ele>678</ele>
        <time>2019-07-29T09:38:12Z</time>
      </trkpt>
      <trkpt lat="46.04974" lon="6.46645">
        <ele>679</ele>
        <time>2019-07-29T09:38:16Z</time>
      </trkpt>
      <trkpt lat="46.04972" lon="6.46656">
        <ele>680</ele>
        <time>2019-07-29T09:38:20Z</time>
      </trkpt>
      <trkpt lat="46.0497" lon="6.46667">
        <ele>680</ele>
        <time>2019-07-29T09:38:24Z</time>
      </trkpt>
      <trkpt lat="46.04969" lon="6.46681">
        <ele>681</ele>
        <time>2019-07-29T09:38:28Z</time>
      </trkpt>
      <trkpt lat="46.04968" lon="6.46693">
        <ele>682</ele>
        <time>2019-07-29T09:38:32Z</time>
      </trkpt>
      <trkpt lat="46.04962" lon="6.46704">
        <ele>683</ele>
        <time>2019-07-29T09:38:36Z</time>
      </trkpt>
      <trkpt lat="46.04958" lon="6.46717">
        <ele>683</ele>
        <time>2019-07-29T09:38:40Z</time>
      </trkpt>
      <trkpt lat="46.04953" lon="6.4673">
        <ele>684</ele>
        <time>2019-07-29T09:38:44Z</time>
      </trkpt>
      <trkpt lat="46.04947" lon="6.46741">
        <ele>685</ele>
        <time>2019-07-29T09:38:48Z</time>
      </trkpt>
      <trkpt lat="46.04943" lon="6.46753">
        <ele>686</ele>
        <time>2019-07-29T09:38:52Z</time>
      </trkpt>
      <trkpt lat="46.04943" lon="6.46769">
        <ele>686</ele>
        <time>2019-07-29T09:38:56Z</time>
      </trkpt>
      <trkpt lat="46.04941" lon="6.46784">
        <ele>687</ele>
        <time>2019-07-29T09:39:00Z</time>
      </trkpt>
      <trkpt lat="46.04946" lon="6.46802">
        <ele>687</ele>
        <time>2019-07-29T09:39:04Z</time>
      </trkpt>
      <trkpt lat="46.04949" lon="6.46818">
        <ele>688</ele>
        <time>2019-07-29T09:39:08Z</time>
      </trkpt>
      <trkpt lat="46.04953" lon="6.46835">
        <ele>689</ele>
        <time>2019-07-29T09:39:12Z</time>
      </trkpt>
      <trkpt lat="46.04957" lon="6.46852">
        <ele>689</ele>
        <time>2019-07-29T09:39:16Z</time>
      </trkpt>
      <trkpt lat="46.0496" lon="6.46868">
        <ele>690</ele>
        <time>2019-07-29T09:39:20Z</time>
      </trkpt>
      <trkpt lat="46.04963" lon="6.46883">
        <ele>691</ele>
        <time>2019-07-29T09:39:24Z</time>
      </trkpt>
      <trkpt lat="46.04964" lon="6.46897">
        <ele>692</ele>
        <time>2019-07-29T09:39:28Z</time>
      </trkpt>
      <trkpt lat="46.04962" lon="6.46912">
        <ele>693</ele>
        <time>2019-07-29T09:39:32Z</time>
      </trkpt>
      <trkpt lat="46.0496" lon="6.46929">
        <ele>693</ele>
        <time>2019-07-29T09:39:36Z</time>
      </trkpt>
      <trkpt lat="46.04958" lon="6.46943">
        <ele>694</ele>
        <time>2019-07-29T09:39:40Z</time>
      </trkpt>
      <trkpt lat="46.04963" lon="6.46957">
        <ele>695</ele>
        <time>2019-07-29T09:39:44Z</time>
      </trkpt>
      <trkpt lat="46.04961" lon="6.46974">
        <ele>695</ele>
        <time>2019-07-29T09:39:48Z</time>
      </trkpt>
      <trkpt lat="46.04959" lon="6.46993">
        <ele>696</ele>
        <time>2019-07-29T09:39:52Z</time>
      </trkpt>
      <trkpt lat="46.0496" lon="6.47013">
        <ele>696</ele>
        <time>2019-07-29T09:39:56Z</time>
      </trkpt>
      <trkpt lat="46.04956" lon="6.4703">
        <ele>698</ele>
        <time>2019-07-29T09:40:00Z</time>
      </trkpt>
      <trkpt lat="46.04949" lon="6.47045">
        <ele>698</ele>
        <time>2019-07-29T09:40:04Z</time>
      </trkpt>
      <trkpt lat="46.04939" lon="6.47059">
        <ele>698</ele>
        <time>2019-07-29T09:40:08Z</time>
      </trkpt>
      <trkpt lat="46.04934" lon="6.47078">
        <ele>699</ele>
        <time>2019-07-29T09:40:12Z</time>
      </trkpt>
      <trkpt lat="46.04938" lon="6.47098">
        <ele>699</ele>
        <time>2019-07-29T09:40:16Z</time>
      </trkpt>
      <trkpt lat="46.04943" lon="6.4712">
        <ele>700</ele>
        <time>2019-07-29T09:40:20Z</time>
      </trkpt>
      <trkpt lat="46.04945" lon="6.4714">
        <ele>701</ele>
        <time>2019-07-29T09:40:24Z</time>
      </trkpt>
      <trkpt lat="46.04949" lon="6.47159">
        <ele>701</ele>
        <time>2019-07-29T09:40:28Z</time>
      </trkpt>
      <trkpt lat="46.04954" lon="6.47179">
        <ele>702</ele>
        <time>2019-07-29T09:40:32Z</time>
      </trkpt>
      <trkpt lat="46.04959" lon="6.47198">
        <ele>703</ele>
        <time>2019-07-29T09:40:36Z</time>
      </trkpt>
      <trkpt lat="46.04965" lon="6.47217">
        <ele>703</ele>
        <time>2019-07-29T09:40:40Z</time>
      </trkpt>
      <trkpt lat="46.04969" lon="6.47234">
        <ele>704</ele>
        <time>2019-07-29T09:40:44Z</time>
      </trkpt>
      <trkpt lat="46.04974" lon="6.47252">
        <ele>705</ele>
        <time>2019-07-29T09:40:48Z</time>
      </trkpt>
      <trkpt lat="46.04969" lon="6.47268">
        <ele>704</ele>
        <time>2019-07-29T09:40:52Z</time>
      </trkpt>
      <trkpt lat="46.04962" lon="6.47287">
        <ele>706</ele>
        <time>2019-07-29T09:40:56Z</time>
      </trkpt>
      <trkpt lat="46.04963" lon="6.47309">
        <ele>706</ele>
        <time>2019-07-29T09:41:00Z</time>
      </trkpt>
      <trkpt lat="46.04964" lon="6.4733">
        <ele>707</ele>
        <time>2019-07-29T09:41:04Z</time>
      </trkpt>
      <trkpt lat="46.04969" lon="6.47347">
        <ele>707</ele>
        <time>2019-07-29T09:41:08Z</time>
      </trkpt>
      <trkpt lat="46.04978" lon="6.47369">
        <ele>707</ele>
        <time>2019-07-29T09:41:12Z</time>
      </trkpt>
      <trkpt lat="46.04987" lon="6.47388">
        <ele>708</ele>
        <time>2019-07-29T09:41:16Z</time>
      </trkpt>
      <trkpt lat="46.04995" lon="6.47409">
        <ele>709</ele>
        <time>2019-07-29T09:41:20Z</time>
      </trkpt>
      <trkpt lat="46.05003" lon="6.47428">
        <ele>710</ele>
        <time>2019-07-29T09:41:24Z</time>
      </trkpt>
      <trkpt lat="46.05011" lon="6.47449">
        <ele>710</ele>
        <time>2019-07-29T09:41:28Z</time>
      </trkpt>
      <trkpt lat="46.05017" lon="6.47469">
        <ele>711</ele>
        <time>2019-07-29T09:41:32Z</time>
      </trkpt>
      <trkpt lat="46.05023" lon="6.47489">
        <ele>710</ele>
        <time>2019-07-29T09:41:36Z</time>
      </trkpt>
      <trkpt lat="46.05028" lon="6.47511">
        <ele>710</ele>
        <time>2019-07-29T09:41:40Z</time>
      </trkpt>
      <trkpt lat="46.0503" lon="6.47533">
        <ele>711</ele>
        <time>2019-07-29T09:41:44Z</time>
      </trkpt>
      <trkpt lat="46.05033" lon="6.47556">
        <ele>711</ele>
        <time>2019-07-29T09:41:48Z</time>
      </trkpt>
      <trkpt lat="46.05035" lon="6.47583">
        <ele>709</ele>
        <time>2019-07-29T09:41:52Z</time>
      </trkpt>
      <trkpt lat="46.05034" lon="6.47611">
        <ele>709</ele>
        <time>2019-07-29T09:41:56Z</time>
      </trkpt>
      <trkpt lat="46.05035" lon="6.47641">
        <ele>709</ele>
        <time>2019-07-29T09:42:00Z</time>
      </trkpt>
      <trkpt lat="46.05034" lon="6.47666">
        <ele>709</ele>
        <time>2019-07-29T09:42:04Z</time>
      </trkpt>
      <trkpt lat="46.05035" lon="6.47689">
        <ele>711</ele>
        <time>2019-07-29T09:42:08Z</time>
      </trkpt>
      <trkpt lat="46.05036" lon="6.47708">
        <ele>712</ele>
        <time>2019-07-29T09:42:12Z</time>
      </trkpt>
      <trkpt lat="46.05037" lon="6.47726">
        <ele>713</ele>
        <time>2019-07-29T09:42:16Z</time>
      </trkpt>
      <trkpt lat="46.05042" lon="6.47742">
        <ele>713</ele>
        <time>2019-07-29T09:42:20Z</time>
      </trkpt>
      <trkpt lat="46.0504" lon="6.47761">
        <ele>716</ele>
        <time>2019-07-29T09:42:24Z</time>
      </trkpt>
      <trkpt lat="46.05033" lon="6.47776">
        <ele>716</ele>
        <time>2019-07-29T09:42:28Z</time>
      </trkpt>
      <trkpt lat="46.05028" lon="6.47791">
        <ele>717</ele>
        <time>2019-07-29T09:42:32Z</time>
      </trkpt>
      <trkpt lat="46.0502" lon="6.47806">
        <ele>719</ele>
        <time>2019-07-29T09:42:36Z</time>
      </trkpt>
      <trkpt lat="46.0501" lon="6.47817">
        <ele>719</ele>
        <time>2019-07-29T09:42:40Z</time>
      </trkpt>
      <trkpt lat="46.05001" lon="6.47826">
        <ele>720</ele>
        <time>2019-07-29T09:42:44Z</time>
      </trkpt>
      <trkpt lat="46.04994" lon="6.4783">
        <ele>721</ele>
        <time>2019-07-29T09:42:48Z</time>
      </trkpt>
      <trkpt lat="46.04985" lon="6.47828">
        <ele>720</ele>
        <time>2019-07-29T09:42:52Z</time>
      </trkpt>
      <trkpt lat="46.04976" lon="6.47823">
        <ele>720</ele>
        <time>2019-07-29T09:42:56Z</time>
      </trkpt>
      <trkpt lat="46.04974" lon="6.4782">
        <ele>720</ele>
        <time>2019-07-29T09:43:04Z</time>
      </trkpt>
      <trkpt lat="46.04978" lon="6.47822">
        <ele>721</ele>
        <time>2019-07-29T09:43:08Z</time>
      </trkpt>
      <trkpt lat="46.04979" lon="6.47823">
        <ele>720</ele>
        <time>2019-07-29T09:45:48Z</time>
      </trkpt>
      <trkpt lat="46.04974" lon="6.47824">
        <ele>720</ele>
        <time>2019-07-29T09:45:56Z</time>
      </trkpt>
      <trkpt lat="46.04967" lon="6.47819">
        <ele>720</ele>
        <time>2019-07-29T09:46:00Z</time>
      </trkpt>
      <trkpt lat="46.0496" lon="6.47805">
        <ele>720</ele>
        <time>2019-07-29T09:46:04Z</time>
      </trkpt>
      <trkpt lat="46.04953" lon="6.47788">
        <ele>720</ele>
        <time>2019-07-29T09:46:08Z</time>
      </trkpt>
      <trkpt lat="46.04946" lon="6.47769">
        <ele>722</ele>
        <time>2019-07-29T09:46:12Z</time>
      </trkpt>
      <trkpt lat="46.04941" lon="6.47751">
        <ele>722</ele>
        <time>2019-07-29T09:46:16Z</time>
      </trkpt>
      <trkpt lat="46.04938" lon="6.47731">
        <ele>723</ele>
        <time>2019-07-29T09:46:20Z</time>
      </trkpt>
      <trkpt lat="46.04935" lon="6.47709">
        <ele>723</ele>
        <time>2019-07-29T09:46:24Z</time>
      </trkpt>
      <trkpt lat="46.04932" lon="6.47685">
        <ele>722</ele>
        <time>2019-07-29T09:46:28Z</time>
      </trkpt>
      <trkpt lat="46.04928" lon="6.47657">
        <ele>722</ele>
        <time>2019-07-29T09:46:32Z</time>
      </trkpt>
      <trkpt lat="46.04923" lon="6.47626">
        <ele>720</ele>
        <time>2019-07-29T09:46:36Z</time>
      </trkpt>
      <trkpt lat="46.04916" lon="6.47596">
        <ele>721</ele>
        <time>2019-07-29T09:46:40Z</time>
      </trkpt>
      <trkpt lat="46.04907" lon="6.47573">
        <ele>720</ele>
        <time>2019-07-29T09:46:44Z</time>
      </trkpt>
      <trkpt lat="46.04887" lon="6.47563">
        <ele>719</ele>
        <time>2019-07-29T09:46:48Z</time>
      </trkpt>
      <trkpt lat="46.04864" lon="6.4756">
        <ele>718</ele>
        <time>2019-07-29T09:46:52Z</time>
      </trkpt>
      <trkpt lat="46.04847" lon="6.47543">
        <ele>718</ele>
        <time>2019-07-29T09:46:56Z</time>
      </trkpt>
      <trkpt lat="46.0484" lon="6.47518">
        <ele>719</ele>
        <time>2019-07-29T09:47:00Z</time>
      </trkpt>
      <trkpt lat="46.04836" lon="6.4749">
        <ele>720</ele>
        <time>2019-07-29T09:47:04Z</time>
      </trkpt>
      <trkpt lat="46.04834" lon="6.47461">
        <ele>720</ele>
        <time>2019-07-29T09:47:08Z</time>
      </trkpt>
      <trkpt lat="46.04833" lon="6.47432">
        <ele>719</ele>
        <time>2019-07-29T09:47:12Z</time>
      </trkpt>
      <trkpt lat="46.04833" lon="6.47403">
        <ele>720</ele>
        <time>2019-07-29T09:47:16Z</time>
      </trkpt>
      <trkpt lat="46.04833" lon="6.47372">
        <ele>719</ele>
        <time>2019-07-29T09:47:20Z</time>
      </trkpt>
      <trkpt lat="46.04834" lon="6.47339">
        <ele>719</ele>
        <time>2019-07-29T09:47:24Z</time>
      </trkpt>
      <trkpt lat="46.04835" lon="6.47305">
        <ele>719</ele>
        <time>2019-07-29T09:47:28Z</time>
      </trkpt>
      <trkpt lat="46.04836" lon="6.47271">
        <ele>720</ele>
        <time>2019-07-29T09:47:32Z</time>
      </trkpt>
      <trkpt lat="46.04835" lon="6.47238">
        <ele>720</ele>
        <time>2019-07-29T09:47:36Z</time>
      </trkpt>
      <trkpt lat="46.04836" lon="6.47208">
        <ele>720</ele>
        <time>2019-07-29T09:47:40Z</time>
      </trkpt>
      <trkpt lat="46.04838" lon="6.4718">
        <ele>721</ele>
        <time>2019-07-29T09:47:44Z</time>
      </trkpt>
      <trkpt lat="46.04837" lon="6.4715">
        <ele>720</ele>
        <time>2019-07-29T09:47:48Z</time>
      </trkpt>
      <trkpt lat="46.04839" lon="6.47108">
        <ele>717</ele>
        <time>2019-07-29T09:47:52Z</time>
      </trkpt>
      <trkpt lat="46.04837" lon="6.47062">
        <ele>716</ele>
        <time>2019-07-29T09:47:56Z</time>
      </trkpt>
      <trkpt lat="46.04835" lon="6.47018">
        <ele>716</ele>
        <time>2019-07-29T09:48:00Z</time>
      </trkpt>
      <trkpt lat="46.04833" lon="6.46975">
        <ele>716</ele>
        <time>2019-07-29T09:48:04Z</time>
      </trkpt>
      <trkpt lat="46.04832" lon="6.46933">
        <ele>716</ele>
        <time>2019-07-29T09:48:08Z</time>
      </trkpt>
      <trkpt lat="46.04833" lon="6.46891">
        <ele>716</ele>
        <time>2019-07-29T09:48:12Z</time>
      </trkpt>
      <trkpt lat="46.04833" lon="6.4685">
        <ele>716</ele>
        <time>2019-07-29T09:48:16Z</time>
      </trkpt>
      <trkpt lat="46.04834" lon="6.46809">
        <ele>715</ele>
        <time>2019-07-29T09:48:20Z</time>
      </trkpt>
      <trkpt lat="46.04832" lon="6.46767">
        <ele>714</ele>
        <time>2019-07-29T09:48:24Z</time>
      </trkpt>
      <trkpt lat="46.04816" lon="6.46732">
        <ele>713</ele>
        <time>2019-07-29T09:48:28Z</time>
      </trkpt>
      <trkpt lat="46.04812" lon="6.46688">
        <ele>711</ele>
        <time>2019-07-29T09:48:32Z</time>
      </trkpt>
      <trkpt lat="46.04809" lon="6.46645">
        <ele>709</ele>
        <time>2019-07-29T09:48:36Z</time>
      </trkpt>
      <trkpt lat="46.04807" lon="6.46616">
        <ele>711</ele>
        <time>2019-07-29T09:48:40Z</time>
      </trkpt>
      <trkpt lat="46.04806" lon="6.46594">
        <ele>712</ele>
        <time>2019-07-29T09:48:44Z</time>
      </trkpt>
      <trkpt lat="46.04805" lon="6.46584">
        <ele>712</ele>
        <time>2019-07-29T09:48:48Z</time>
      </trkpt>
      <trkpt lat="46.04808" lon="6.46571">
        <ele>712</ele>
        <time>2019-07-29T09:48:52Z</time>
      </trkpt>
      <trkpt lat="46.04804" lon="6.46561">
        <ele>712</ele>
        <time>2019-07-29T09:49:44Z</time>
      </trkpt>
      <trkpt lat="46.04804" lon="6.46552">
        <ele>712</ele>
        <time>2019-07-29T09:49:48Z</time>
      </trkpt>
      <trkpt lat="46.04798" lon="6.46536">
        <ele>712</ele>
        <time>2019-07-29T09:49:52Z</time>
      </trkpt>
      <trkpt lat="46.04785" lon="6.46526">
        <ele>712</ele>
        <time>2019-07-29T09:49:56Z</time>
      </trkpt>
      <trkpt lat="46.0477" lon="6.46521">
        <ele>711</ele>
        <time>2019-07-29T09:50:00Z</time>
      </trkpt>
      <trkpt lat="46.04752" lon="6.46514">
        <ele>712</ele>
        <time>2019-07-29T09:50:04Z</time>
      </trkpt>
      <trkpt lat="46.04733" lon="6.46511">
        <ele>712</ele>
        <time>2019-07-29T09:50:08Z</time>
      </trkpt>
      <trkpt lat="46.04715" lon="6.46501">
        <ele>713</ele>
        <time>2019-07-29T09:50:12Z</time>
      </trkpt>
      <trkpt lat="46.04717" lon="6.46476">
        <ele>713</ele>
        <time>2019-07-29T09:50:16Z</time>
      </trkpt>
      <trkpt lat="46.04723" lon="6.46461">
        <ele>714</ele>
        <time>2019-07-29T09:50:20Z</time>
      </trkpt>
      <trkpt lat="46.04733" lon="6.46445">
        <ele>715</ele>
        <time>2019-07-29T09:50:24Z</time>
      </trkpt>
      <trkpt lat="46.04745" lon="6.46432">
        <ele>717</ele>
        <time>2019-07-29T09:50:28Z</time>
      </trkpt>
      <trkpt lat="46.04764" lon="6.46416">
        <ele>717</ele>
        <time>2019-07-29T09:50:32Z</time>
      </trkpt>
      <trkpt lat="46.04773" lon="6.46396">
        <ele>718</ele>
        <time>2019-07-29T09:50:36Z</time>
      </trkpt>
      <trkpt lat="46.04782" lon="6.46375">
        <ele>719</ele>
        <time>2019-07-29T09:50:40Z</time>
      </trkpt>
      <trkpt lat="46.04792" lon="6.46357">
        <ele>720</ele>
        <time>2019-07-29T09:50:44Z</time>
      </trkpt>
      <trkpt lat="46.04799" lon="6.46334">
        <ele>720</ele>
        <time>2019-07-29T09:50:48Z</time>
      </trkpt>
      <trkpt lat="46.04801" lon="6.46313">
        <ele>721</ele>
        <time>2019-07-29T09:50:52Z</time>
      </trkpt>
      <trkpt lat="46.04805" lon="6.46294">
        <ele>722</ele>
        <time>2019-07-29T09:50:56Z</time>
      </trkpt>
      <trkpt lat="46.04806" lon="6.46276">
        <ele>724</ele>
        <time>2019-07-29T09:51:00Z</time>
      </trkpt>
      <trkpt lat="46.04805" lon="6.46257">
        <ele>724</ele>
        <time>2019-07-29T09:51:04Z</time>
      </trkpt>
      <trkpt lat="46.04803" lon="6.46239">
        <ele>726</ele>
        <time>2019-07-29T09:51:08Z</time>
      </trkpt>
      <trkpt lat="46.04798" lon="6.46223">
        <ele>726</ele>
        <time>2019-07-29T09:51:12Z</time>
      </trkpt>
      <trkpt lat="46.04797" lon="6.462">
        <ele>727</ele>
        <time>2019-07-29T09:51:16Z</time>
      </trkpt>
      <trkpt lat="46.04797" lon="6.46178">
        <ele>728</ele>
        <time>2019-07-29T09:51:20Z</time>
      </trkpt>
      <trkpt lat="46.04794" lon="6.46157">
        <ele>729</ele>
        <time>2019-07-29T09:51:24Z</time>
      </trkpt>
      <trkpt lat="46.04791" lon="6.4614">
        <ele>730</ele>
        <time>2019-07-29T09:51:28Z</time>
      </trkpt>
      <trkpt lat="46.04786" lon="6.46121">
        <ele>730</ele>
        <time>2019-07-29T09:51:32Z</time>
      </trkpt>
      <trkpt lat="46.04779" lon="6.46102">
        <ele>730</ele>
        <time>2019-07-29T09:51:36Z</time>
      </trkpt>
      <trkpt lat="46.04773" lon="6.4608">
        <ele>730</ele>
        <time>2019-07-29T09:51:40Z</time>
      </trkpt>
      <trkpt lat="46.04763" lon="6.46063">
        <ele>730</ele>
        <time>2019-07-29T09:51:44Z</time>
      </trkpt>
      <trkpt lat="46.04757" lon="6.46043">
        <ele>731</ele>
        <time>2019-07-29T09:51:48Z</time>
      </trkpt>
      <trkpt lat="46.0475" lon="6.4602">
        <ele>731</ele>
        <time>2019-07-29T09:51:52Z</time>
      </trkpt>
      <trkpt lat="46.04741" lon="6.45996">
        <ele>729</ele>
        <time>2019-07-29T09:51:56Z</time>
      </trkpt>
      <trkpt lat="46.04732" lon="6.45966">
        <ele>728</ele>
        <time>2019-07-29T09:52:00Z</time>
      </trkpt>
      <trkpt lat="46.0472" lon="6.45935">
        <ele>727</ele>
        <time>2019-07-29T09:52:04Z</time>
      </trkpt>
      <trkpt lat="46.04701" lon="6.45914">
        <ele>726</ele>
        <time>2019-07-29T09:52:08Z</time>
      </trkpt>
      <trkpt lat="46.04679" lon="6.45896">
        <ele>725</ele>
        <time>2019-07-29T09:52:12Z</time>
      </trkpt>
      <trkpt lat="46.04656" lon="6.45879">
        <ele>725</ele>
        <time>2019-07-29T09:52:16Z</time>
      </trkpt>
      <trkpt lat="46.04632" lon="6.45874">
        <ele>724</ele>
        <time>2019-07-29T09:52:20Z</time>
      </trkpt>
      <trkpt lat="46.04615" lon="6.45873">
        <ele>723</ele>
        <time>2019-07-29T09:52:24Z</time>
      </trkpt>
      <trkpt lat="46.04599" lon="6.45843">
        <ele>723</ele>
        <time>2019-07-29T09:52:28Z</time>
      </trkpt>
      <trkpt lat="46.04584" lon="6.45801">
        <ele>722</ele>
        <time>2019-07-29T09:52:32Z</time>
      </trkpt>
      <trkpt lat="46.04566" lon="6.45764">
        <ele>721</ele>
        <time>2019-07-29T09:52:36Z</time>
      </trkpt>
      <trkpt lat="46.04568" lon="6.45724">
        <ele>720</ele>
        <time>2019-07-29T09:52:40Z</time>
      </trkpt>
      <trkpt lat="46.04583" lon="6.45693">
        <ele>721</ele>
        <time>2019-07-29T09:52:44Z</time>
      </trkpt>
      <trkpt lat="46.04599" lon="6.45666">
        <ele>720</ele>
        <time>2019-07-29T09:52:48Z</time>
      </trkpt>
      <trkpt lat="46.04612" lon="6.45654">
        <ele>721</ele>
        <time>2019-07-29T09:52:52Z</time>
      </trkpt>
      <trkpt lat="46.04631" lon="6.45637">
        <ele>721</ele>
        <time>2019-07-29T09:52:56Z</time>
      </trkpt>
      <trkpt lat="46.04634" lon="6.45618">
        <ele>722</ele>
        <time>2019-07-29T09:53:00Z</time>
      </trkpt>
      <trkpt lat="46.04633" lon="6.45605">
        <ele>722</ele>
        <time>2019-07-29T09:53:04Z</time>
      </trkpt>
      <trkpt lat="46.04631" lon="6.4558">
        <ele>722</ele>
        <time>2019-07-29T09:53:08Z</time>
      </trkpt>
      <trkpt lat="46.0463" lon="6.45567">
        <ele>722</ele>
        <time>2019-07-29T09:53:12Z</time>
      </trkpt>
      <trkpt lat="46.04627" lon="6.45551">
        <ele>723</ele>
        <time>2019-07-29T09:53:16Z</time>
      </trkpt>
      <trkpt lat="46.04628" lon="6.4553">
        <ele>723</ele>
        <time>2019-07-29T09:53:20Z</time>
      </trkpt>
      <trkpt lat="46.04627" lon="6.45506">
        <ele>724</ele>
        <time>2019-07-29T09:53:24Z</time>
      </trkpt>
      <trkpt lat="46.04628" lon="6.4548">
        <ele>725</ele>
        <time>2019-07-29T09:53:28Z</time>
      </trkpt>
      <trkpt lat="46.0463" lon="6.45455">
        <ele>725</ele>
        <time>2019-07-29T09:53:32Z</time>
      </trkpt>
      <trkpt lat="46.04628" lon="6.45432">
        <ele>726</ele>
        <time>2019-07-29T09:53:36Z</time>
      </trkpt>
      <trkpt lat="46.04624" lon="6.4541">
        <ele>726</ele>
        <time>2019-07-29T09:53:40Z</time>
      </trkpt>
      <trkpt lat="46.04623" lon="6.45386">
        <ele>727</ele>
        <time>2019-07-29T09:53:44Z</time>
      </trkpt>
      <trkpt lat="46.04625" lon="6.45363">
        <ele>728</ele>
        <time>2019-07-29T09:53:48Z</time>
      </trkpt>
      <trkpt lat="46.04629" lon="6.45349">
        <ele>728</ele>
        <time>2019-07-29T09:53:52Z</time>
      </trkpt>
      <trkpt lat="46.04636" lon="6.45333">
        <ele>729</ele>
        <time>2019-07-29T09:53:56Z</time>
      </trkpt>
      <trkpt lat="46.04643" lon="6.45315">
        <ele>730</ele>
        <time>2019-07-29T09:54:00Z</time>
      </trkpt>
      <trkpt lat="46.04647" lon="6.45288">
        <ele>730</ele>
        <time>2019-07-29T09:54:04Z</time>
      </trkpt>
      <trkpt lat="46.04656" lon="6.45259">
        <ele>731</ele>
        <time>2019-07-29T09:54:08Z</time>
      </trkpt>
      <trkpt lat="46.04663" lon="6.45226">
        <ele>732</ele>
        <time>2019-07-29T09:54:12Z</time>
      </trkpt>
      <trkpt lat="46.04669" lon="6.45196">
        <ele>732</ele>
        <time>2019-07-29T09:54:16Z</time>
      </trkpt>
      <trkpt lat="46.04677" lon="6.45171">
        <ele>733</ele>
        <time>2019-07-29T09:54:20Z</time>
      </trkpt>
      <trkpt lat="46.04684" lon="6.45147">
        <ele>734</ele>
        <time>2019-07-29T09:54:24Z</time>
      </trkpt>
      <trkpt lat="46.04689" lon="6.45122">
        <ele>734</ele>
        <time>2019-07-29T09:54:28Z</time>
      </trkpt>
      <trkpt lat="46.04696" lon="6.45096">
        <ele>734</ele>
        <time>2019-07-29T09:54:32Z</time>
      </trkpt>
      <trkpt lat="46.04701" lon="6.45071">
        <ele>736</ele>
        <time>2019-07-29T09:54:36Z</time>
      </trkpt>
      <trkpt lat="46.04704" lon="6.45046">
        <ele>736</ele>
        <time>2019-07-29T09:54:40Z</time>
      </trkpt>
      <trkpt lat="46.04706" lon="6.45021">
        <ele>737</ele>
        <time>2019-07-29T09:54:44Z</time>
      </trkpt>
      <trkpt lat="46.04712" lon="6.44996">
        <ele>738</ele>
        <time>2019-07-29T09:54:48Z</time>
      </trkpt>
      <trkpt lat="46.04719" lon="6.44974">
        <ele>738</ele>
        <time>2019-07-29T09:54:52Z</time>
      </trkpt>
      <trkpt lat="46.04724" lon="6.4495">
        <ele>739</ele>
        <time>2019-07-29T09:54:56Z</time>
      </trkpt>
      <trkpt lat="46.04728" lon="6.44926">
        <ele>740</ele>
        <time>2019-07-29T09:55:00Z</time>
      </trkpt>
      <trkpt lat="46.04734" lon="6.44903">
        <ele>741</ele>
        <time>2019-07-29T09:55:04Z</time>
      </trkpt>
      <trkpt lat="46.04743" lon="6.44883">
        <ele>742</ele>
        <time>2019-07-29T09:55:08Z</time>
      </trkpt>
      <trkpt lat="46.04751" lon="6.44868">
        <ele>743</ele>
        <time>2019-07-29T09:55:12Z</time>
      </trkpt>
      <trkpt lat="46.04756" lon="6.4486">
        <ele>743</ele>
        <time>2019-07-29T09:55:16Z</time>
      </trkpt>
      <trkpt lat="46.04759" lon="6.44857">
        <ele>743</ele>
        <time>2019-07-29T09:55:44Z</time>
      </trkpt>
      <trkpt lat="46.04763" lon="6.44851">
        <ele>743</ele>
        <time>2019-07-29T09:55:48Z</time>
      </trkpt>
      <trkpt lat="46.04768" lon="6.44846">
        <ele>743</ele>
        <time>2019-07-29T09:55:52Z</time>
      </trkpt>
      <trkpt lat="46.04772" lon="6.44844">
        <ele>744</ele>
        <time>2019-07-29T09:55:56Z</time>
      </trkpt>
      <trkpt lat="46.04776" lon="6.44844">
        <ele>744</ele>
        <time>2019-07-29T09:56:32Z</time>
      </trkpt>
      <trkpt lat="46.04776" lon="6.44846">
        <ele>744</ele>
        <time>2019-07-29T09:57:04Z</time>
      </trkpt>
      <trkpt lat="46.04778" lon="6.44839">
        <ele>744</ele>
        <time>2019-07-29T09:57:08Z</time>
      </trkpt>
      <trkpt lat="46.0478" lon="6.44833">
        <ele>744</ele>
        <time>2019-07-29T09:57:12Z</time>
      </trkpt>
      <trkpt lat="46.04782" lon="6.44828">
        <ele>745</ele>
        <time>2019-07-29T09:57:24Z</time>
      </trkpt>
      <trkpt lat="46.04783" lon="6.44823">
        <ele>746</ele>
        <time>2019-07-29T09:57:28Z</time>
      </trkpt>
      <trkpt lat="46.04782" lon="6.44813">
        <ele>747</ele>
        <time>2019-07-29T09:57:32Z</time>
      </trkpt>
      <trkpt lat="46.04781" lon="6.448">
        <ele>747</ele>
        <time>2019-07-29T09:57:36Z</time>
      </trkpt>
      <trkpt lat="46.04783" lon="6.44782">
        <ele>748</ele>
        <time>2019-07-29T09:57:40Z</time>
      </trkpt>
      <trkpt lat="46.04783" lon="6.44761">
        <ele>748</ele>
        <time>2019-07-29T09:57:44Z</time>
      </trkpt>
      <trkpt lat="46.04784" lon="6.44743">
        <ele>749</ele>
        <time>2019-07-29T09:57:48Z</time>
      </trkpt>
      <trkpt lat="46.04788" lon="6.44729">
        <ele>751</ele>
        <time>2019-07-29T09:57:52Z</time>
      </trkpt>
      <trkpt lat="46.04791" lon="6.44719">
        <ele>751</ele>
        <time>2019-07-29T09:57:56Z</time>
      </trkpt>
      <trkpt lat="46.04786" lon="6.4471">
        <ele>753</ele>
        <time>2019-07-29T09:58:00Z</time>
      </trkpt>
      <trkpt lat="46.04778" lon="6.447">
        <ele>755</ele>
        <time>2019-07-29T09:58:04Z</time>
      </trkpt>
      <trkpt lat="46.0477" lon="6.44694">
        <ele>756</ele>
        <time>2019-07-29T09:58:08Z</time>
      </trkpt>
      <trkpt lat="46.04767" lon="6.44689">
        <ele>757</ele>
        <time>2019-07-29T09:58:12Z</time>
      </trkpt>
      <trkpt lat="46.04768" lon="6.44678">
        <ele>759</ele>
        <time>2019-07-29T09:58:16Z</time>
      </trkpt>
      <trkpt lat="46.04761" lon="6.44674">
        <ele>760</ele>
        <time>2019-07-29T09:58:20Z</time>
      </trkpt>
      <trkpt lat="46.04752" lon="6.44675">
        <ele>762</ele>
        <time>2019-07-29T09:58:24Z</time>
      </trkpt>
      <trkpt lat="46.04747" lon="6.44674">
        <ele>762</ele>
        <time>2019-07-29T09:58:36Z</time>
      </trkpt>
      <trkpt lat="46.04744" lon="6.44672">
        <ele>763</ele>
        <time>2019-07-29T09:58:56Z</time>
      </trkpt>
      <trkpt lat="46.04747" lon="6.44671">
        <ele>762</ele>
        <time>2019-07-29T09:59:12Z</time>
      </trkpt>
      <trkpt lat="46.04752" lon="6.44669">
        <ele>761</ele>
        <time>2019-07-29T09:59:16Z</time>
      </trkpt>
      <trkpt lat="46.04759" lon="6.44671">
        <ele>759</ele>
        <time>2019-07-29T09:59:20Z</time>
      </trkpt>
      <trkpt lat="46.04765" lon="6.44675">
        <ele>757</ele>
        <time>2019-07-29T09:59:24Z</time>
      </trkpt>
      <trkpt lat="46.04765" lon="6.4469">
        <ele>756</ele>
        <time>2019-07-29T09:59:28Z</time>
      </trkpt>
      <trkpt lat="46.04775" lon="6.447">
        <ele>755</ele>
        <time>2019-07-29T09:59:32Z</time>
      </trkpt>
      <trkpt lat="46.04785" lon="6.44709">
        <ele>752</ele>
        <time>2019-07-29T09:59:36Z</time>
      </trkpt>
      <trkpt lat="46.04783" lon="6.4473">
        <ele>748</ele>
        <time>2019-07-29T09:59:40Z</time>
      </trkpt>
      <trkpt lat="46.04781" lon="6.44758">
        <ele>747</ele>
        <time>2019-07-29T09:59:44Z</time>
      </trkpt>
      <trkpt lat="46.04781" lon="6.44784">
        <ele>747</ele>
        <time>2019-07-29T09:59:48Z</time>
      </trkpt>
      <trkpt lat="46.0478" lon="6.44805">
        <ele>747</ele>
        <time>2019-07-29T09:59:52Z</time>
      </trkpt>
      <trkpt lat="46.04781" lon="6.44822">
        <ele>746</ele>
        <time>2019-07-29T09:59:56Z</time>
      </trkpt>
      <trkpt lat="46.04786" lon="6.44829">
        <ele>746</ele>
        <time>2019-07-29T10:00:12Z</time>
      </trkpt>
      <trkpt lat="46.04787" lon="6.44831">
        <ele>746</ele>
        <time>2019-07-29T10:00:20Z</time>
      </trkpt>
      <trkpt lat="46.04789" lon="6.44833">
        <ele>746</ele>
        <time>2019-07-29T10:00:24Z</time>
      </trkpt>
      <trkpt lat="46.04793" lon="6.44832">
        <ele>746</ele>
        <time>2019-07-29T10:00:28Z</time>
      </trkpt>
      <trkpt lat="46.04797" lon="6.44829">
        <ele>746</ele>
        <time>2019-07-29T10:00:32Z</time>
      </trkpt>
      <trkpt lat="46.04799" lon="6.44825">
        <ele>746</ele>
        <time>2019-07-29T10:00:36Z</time>
      </trkpt>
      <trkpt lat="46.048" lon="6.44822">
        <ele>746</ele>
        <time>2019-07-29T10:00:40Z</time>
      </trkpt>
      <trkpt lat="46.048" lon="6.44818">
        <ele>746</ele>
        <time>2019-07-29T10:00:44Z</time>
      </trkpt>
      <trkpt lat="46.04801" lon="6.44808">
        <ele>746</ele>
        <time>2019-07-29T10:00:48Z</time>
      </trkpt>
      <trkpt lat="46.04802" lon="6.44801">
        <ele>746</ele>
        <time>2019-07-29T10:00:52Z</time>
      </trkpt>
      <trkpt lat="46.04801" lon="6.44795">
        <ele>747</ele>
        <time>2019-07-29T10:00:56Z</time>
      </trkpt>
      <trkpt lat="46.048" lon="6.44792">
        <ele>746</ele>
        <time>2019-07-29T10:01:08Z</time>
      </trkpt>
      <trkpt lat="46.04798" lon="6.4479">
        <ele>747</ele>
        <time>2019-07-29T10:01:12Z</time>
      </trkpt>
      <trkpt lat="46.04797" lon="6.44788">
        <ele>746</ele>
        <time>2019-07-29T10:01:16Z</time>
      </trkpt>
      <trkpt lat="46.04799" lon="6.44782">
        <ele>747</ele>
        <time>2019-07-29T10:01:24Z</time>
      </trkpt>
      <trkpt lat="46.04802" lon="6.44781">
        <ele>747</ele>
        <time>2019-07-29T10:01:28Z</time>
      </trkpt>
      <trkpt lat="46.04804" lon="6.44778">
        <ele>747</ele>
        <time>2019-07-29T10:01:32Z</time>
      </trkpt>
      <trkpt lat="46.04807" lon="6.4477">
        <ele>747</ele>
        <time>2019-07-29T10:01:36Z</time>
      </trkpt>
      <trkpt lat="46.04809" lon="6.44756">
        <ele>746</ele>
        <time>2019-07-29T10:01:40Z</time>
      </trkpt>
      <trkpt lat="46.04811" lon="6.44739">
        <ele>747</ele>
        <time>2019-07-29T10:01:44Z</time>
      </trkpt>
      <trkpt lat="46.04813" lon="6.44724">
        <ele>747</ele>
        <time>2019-07-29T10:01:48Z</time>
      </trkpt>
      <trkpt lat="46.04812" lon="6.44707">
        <ele>747</ele>
        <time>2019-07-29T10:01:52Z</time>
      </trkpt>
      <trkpt lat="46.04809" lon="6.44687">
        <ele>747</ele>
        <time>2019-07-29T10:01:56Z</time>
      </trkpt>
      <trkpt lat="46.04798" lon="6.4467">
        <ele>747</ele>
        <time>2019-07-29T10:02:00Z</time>
      </trkpt>
      <trkpt lat="46.04782" lon="6.44657">
        <ele>747</ele>
        <time>2019-07-29T10:02:04Z</time>
      </trkpt>
      <trkpt lat="46.04764" lon="6.44651">
        <ele>746</ele>
        <time>2019-07-29T10:02:08Z</time>
      </trkpt>
      <trkpt lat="46.04747" lon="6.44641">
        <ele>746</ele>
        <time>2019-07-29T10:02:12Z</time>
      </trkpt>
      <trkpt lat="46.04733" lon="6.44625">
        <ele>746</ele>
        <time>2019-07-29T10:02:16Z</time>
      </trkpt>
      <trkpt lat="46.04718" lon="6.44612">
        <ele>746</ele>
        <time>2019-07-29T10:02:20Z</time>
      </trkpt>
      <trkpt lat="46.04711" lon="6.44585">
        <ele>747</ele>
        <time>2019-07-29T10:02:24Z</time>
      </trkpt>
      <trkpt lat="46.04723" lon="6.44567">
        <ele>748</ele>
        <time>2019-07-29T10:02:28Z</time>
      </trkpt>
      <trkpt lat="46.04734" lon="6.44563">
        <ele>749</ele>
        <time>2019-07-29T10:02:32Z</time>
      </trkpt>
      <trkpt lat="46.04745" lon="6.44561">
        <ele>750</ele>
        <time>2019-07-29T10:02:36Z</time>
      </trkpt>
      <trkpt lat="46.04757" lon="6.44557">
        <ele>751</ele>
        <time>2019-07-29T10:02:40Z</time>
      </trkpt>
      <trkpt lat="46.04767" lon="6.44556">
        <ele>752</ele>
        <time>2019-07-29T10:02:44Z</time>
      </trkpt>
      <trkpt lat="46.04779" lon="6.44559">
        <ele>752</ele>
        <time>2019-07-29T10:02:48Z</time>
      </trkpt>
      <trkpt lat="46.04791" lon="6.44562">
        <ele>753</ele>
        <time>2019-07-29T10:02:52Z</time>
      </trkpt>
      <trkpt lat="46.04806" lon="6.4456">
        <ele>754</ele>
        <time>2019-07-29T10:02:56Z</time>
      </trkpt>
      <trkpt lat="46.0482" lon="6.44559">
        <ele>754</ele>
        <time>2019-07-29T10:03:00Z</time>
      </trkpt>
      <trkpt lat="46.04834" lon="6.44559">
        <ele>756</ele>
        <time>2019-07-29T10:03:04Z</time>
      </trkpt>
      <trkpt lat="46.04848" lon="6.44556">
        <ele>755</ele>
        <time>2019-07-29T10:03:08Z</time>
      </trkpt>
      <trkpt lat="46.04858" lon="6.44551">
        <ele>755</ele>
        <time>2019-07-29T10:03:12Z</time>
      </trkpt>
      <trkpt lat="46.04866" lon="6.44557">
        <ele>754</ele>
        <time>2019-07-29T10:03:16Z</time>
      </trkpt>
      <trkpt lat="46.04879" lon="6.44563">
        <ele>752</ele>
        <time>2019-07-29T10:03:20Z</time>
      </trkpt>
      <trkpt lat="46.04893" lon="6.44566">
        <ele>752</ele>
        <time>2019-07-29T10:03:24Z</time>
      </trkpt>
      <trkpt lat="46.04907" lon="6.44565">
        <ele>751</ele>
        <time>2019-07-29T10:03:28Z</time>
      </trkpt>
      <trkpt lat="46.04914" lon="6.44561">
        <ele>751</ele>
        <time>2019-07-29T10:03:52Z</time>
      </trkpt>
      <trkpt lat="46.04922" lon="6.44559">
        <ele>749</ele>
        <time>2019-07-29T10:03:56Z</time>
      </trkpt>
      <trkpt lat="46.0494" lon="6.44562">
        <ele>747</ele>
        <time>2019-07-29T10:04:00Z</time>
      </trkpt>
      <trkpt lat="46.04964" lon="6.44573">
        <ele>742</ele>
        <time>2019-07-29T10:04:04Z</time>
      </trkpt>
      <trkpt lat="46.04988" lon="6.44591">
        <ele>741</ele>
        <time>2019-07-29T10:04:08Z</time>
      </trkpt>
      <trkpt lat="46.05014" lon="6.44607">
        <ele>740</ele>
        <time>2019-07-29T10:04:12Z</time>
      </trkpt>
      <trkpt lat="46.05032" lon="6.44636">
        <ele>735</ele>
        <time>2019-07-29T10:04:16Z</time>
      </trkpt>
      <trkpt lat="46.05042" lon="6.44675">
        <ele>733</ele>
        <time>2019-07-29T10:04:20Z</time>
      </trkpt>
      <trkpt lat="46.05066" lon="6.44701">
        <ele>728</ele>
        <time>2019-07-29T10:04:24Z</time>
      </trkpt>
      <trkpt lat="46.05092" lon="6.44735">
        <ele>723</ele>
        <time>2019-07-29T10:04:28Z</time>
      </trkpt>
      <trkpt lat="46.05116" lon="6.44781">
        <ele>719</ele>
        <time>2019-07-29T10:04:32Z</time>
      </trkpt>
      <trkpt lat="46.05143" lon="6.44827">
        <ele>713</ele>
        <time>2019-07-29T10:04:36Z</time>
      </trkpt>
      <trkpt lat="46.05178" lon="6.44862">
        <ele>711</ele>
        <time>2019-07-29T10:04:40Z</time>
      </trkpt>
      <trkpt lat="46.05201" lon="6.44904">
        <ele>707</ele>
        <time>2019-07-29T10:04:44Z</time>
      </trkpt>
      <trkpt lat="46.05208" lon="6.44949">
        <ele>705</ele>
        <time>2019-07-29T10:04:48Z</time>
      </trkpt>
      <trkpt lat="46.05225" lon="6.44977">
        <ele>701</ele>
        <time>2019-07-29T10:04:52Z</time>
      </trkpt>
      <trkpt lat="46.05252" lon="6.45003">
        <ele>697</ele>
        <time>2019-07-29T10:04:56Z</time>
      </trkpt>
      <trkpt lat="46.05278" lon="6.45037">
        <ele>693</ele>
        <time>2019-07-29T10:05:00Z</time>
      </trkpt>
      <trkpt lat="46.05305" lon="6.45074">
        <ele>688</ele>
        <time>2019-07-29T10:05:04Z</time>
      </trkpt>
      <trkpt lat="46.05331" lon="6.45114">
        <ele>682</ele>
        <time>2019-07-29T10:05:08Z</time>
      </trkpt>
      <trkpt lat="46.05345" lon="6.4516">
        <ele>682</ele>
        <time>2019-07-29T10:05:12Z</time>
      </trkpt>
      <trkpt lat="46.0537" lon="6.45183">
        <ele>678</ele>
        <time>2019-07-29T10:05:16Z</time>
      </trkpt>
      <trkpt lat="46.05396" lon="6.45182">
        <ele>675</ele>
        <time>2019-07-29T10:05:20Z</time>
      </trkpt>
      <trkpt lat="46.05422" lon="6.45167">
        <ele>673</ele>
        <time>2019-07-29T10:05:24Z</time>
      </trkpt>
      <trkpt lat="46.05445" lon="6.45154">
        <ele>671</ele>
        <time>2019-07-29T10:05:28Z</time>
      </trkpt>
      <trkpt lat="46.05466" lon="6.45163">
        <ele>671</ele>
        <time>2019-07-29T10:05:32Z</time>
      </trkpt>
      <trkpt lat="46.05472" lon="6.45168">
        <ele>672</ele>
        <time>2019-07-29T10:05:40Z</time>
      </trkpt>
      <trkpt lat="46.05476" lon="6.45164">
        <ele>671</ele>
        <time>2019-07-29T10:05:44Z</time>
      </trkpt>
      <trkpt lat="46.05486" lon="6.45152">
        <ele>668</ele>
        <time>2019-07-29T10:05:48Z</time>
      </trkpt>
      <trkpt lat="46.05497" lon="6.45132">
        <ele>666</ele>
        <time>2019-07-29T10:05:52Z</time>
      </trkpt>
      <trkpt lat="46.05504" lon="6.45102">
        <ele>663</ele>
        <time>2019-07-29T10:05:56Z</time>
      </trkpt>
      <trkpt lat="46.05515" lon="6.45069">
        <ele>659</ele>
        <time>2019-07-29T10:06:00Z</time>
      </trkpt>
      <trkpt lat="46.05529" lon="6.45034">
        <ele>654</ele>
        <time>2019-07-29T10:06:04Z</time>
      </trkpt>
      <trkpt lat="46.05536" lon="6.45005">
        <ele>654</ele>
        <time>2019-07-29T10:06:08Z</time>
      </trkpt>
      <trkpt lat="46.05541" lon="6.44978">
        <ele>652</ele>
        <time>2019-07-29T10:06:12Z</time>
      </trkpt>
      <trkpt lat="46.05549" lon="6.44946">
        <ele>649</ele>
        <time>2019-07-29T10:06:16Z</time>
      </trkpt>
      <trkpt lat="46.05552" lon="6.44919">
        <ele>647</ele>
        <time>2019-07-29T10:06:20Z</time>
      </trkpt>
      <trkpt lat="46.0555" lon="6.44886">
        <ele>644</ele>
        <time>2019-07-29T10:06:24Z</time>
      </trkpt>
      <trkpt lat="46.0555" lon="6.44847">
        <ele>640</ele>
        <time>2019-07-29T10:06:28Z</time>
      </trkpt>
      <trkpt lat="46.05559" lon="6.44812">
        <ele>635</ele>
        <time>2019-07-29T10:06:32Z</time>
      </trkpt>
      <trkpt lat="46.05572" lon="6.44784">
        <ele>633</ele>
        <time>2019-07-29T10:06:36Z</time>
      </trkpt>
      <trkpt lat="46.05584" lon="6.44756">
        <ele>631</ele>
        <time>2019-07-29T10:06:40Z</time>
      </trkpt>
      <trkpt lat="46.05592" lon="6.44729">
        <ele>629</ele>
        <time>2019-07-29T10:06:44Z</time>
      </trkpt>
      <trkpt lat="46.056" lon="6.44695">
        <ele>626</ele>
        <time>2019-07-29T10:06:48Z</time>
      </trkpt>
      <trkpt lat="46.05602" lon="6.44649">
        <ele>620</ele>
        <time>2019-07-29T10:06:52Z</time>
      </trkpt>
      <trkpt lat="46.05602" lon="6.44596">
        <ele>614</ele>
        <time>2019-07-29T10:06:56Z</time>
      </trkpt>
      <trkpt lat="46.05598" lon="6.44541">
        <ele>609</ele>
        <time>2019-07-29T10:07:00Z</time>
      </trkpt>
      <trkpt lat="46.05595" lon="6.44491">
        <ele>606</ele>
        <time>2019-07-29T10:07:04Z</time>
      </trkpt>
      <trkpt lat="46.05587" lon="6.44438">
        <ele>601</ele>
        <time>2019-07-29T10:07:08Z</time>
      </trkpt>
      <trkpt lat="46.05582" lon="6.44378">
        <ele>596</ele>
        <time>2019-07-29T10:07:12Z</time>
      </trkpt>
      <trkpt lat="46.05581" lon="6.4432">
        <ele>592</ele>
        <time>2019-07-29T10:07:16Z</time>
      </trkpt>
      <trkpt lat="46.05574" lon="6.44268">
        <ele>588</ele>
        <time>2019-07-29T10:07:20Z</time>
      </trkpt>
      <trkpt lat="46.05567" lon="6.44213">
        <ele>582</ele>
        <time>2019-07-29T10:07:24Z</time>
      </trkpt>
      <trkpt lat="46.05566" lon="6.44147">
        <ele>573</ele>
        <time>2019-07-29T10:07:28Z</time>
      </trkpt>
      <trkpt lat="46.05563" lon="6.44089">
        <ele>572</ele>
        <time>2019-07-29T10:07:32Z</time>
      </trkpt>
      <trkpt lat="46.0556" lon="6.44044">
        <ele>570</ele>
        <time>2019-07-29T10:07:36Z</time>
      </trkpt>
      <trkpt lat="46.0556" lon="6.43993">
        <ele>563</ele>
        <time>2019-07-29T10:07:40Z</time>
      </trkpt>
      <trkpt lat="46.0555" lon="6.43948">
        <ele>560</ele>
        <time>2019-07-29T10:07:44Z</time>
      </trkpt>
      <trkpt lat="46.05542" lon="6.43923">
        <ele>560</ele>
        <time>2019-07-29T10:07:48Z</time>
      </trkpt>
      <trkpt lat="46.05525" lon="6.439">
        <ele>556</ele>
        <time>2019-07-29T10:07:52Z</time>
      </trkpt>
      <trkpt lat="46.05497" lon="6.43872">
        <ele>551</ele>
        <time>2019-07-29T10:07:56Z</time>
      </trkpt>
      <trkpt lat="46.0551" lon="6.43817">
        <ele>549</ele>
        <time>2019-07-29T10:08:00Z</time>
      </trkpt>
      <trkpt lat="46.05537" lon="6.43778">
        <ele>544</ele>
        <time>2019-07-29T10:08:04Z</time>
      </trkpt>
      <trkpt lat="46.05554" lon="6.43743">
        <ele>542</ele>
        <time>2019-07-29T10:08:08Z</time>
      </trkpt>
      <trkpt lat="46.05571" lon="6.43701">
        <ele>538</ele>
        <time>2019-07-29T10:08:12Z</time>
      </trkpt>
      <trkpt lat="46.05587" lon="6.43655">
        <ele>534</ele>
        <time>2019-07-29T10:08:16Z</time>
      </trkpt>
      <trkpt lat="46.05603" lon="6.43625">
        <ele>532</ele>
        <time>2019-07-29T10:08:20Z</time>
      </trkpt>
      <trkpt lat="46.05606" lon="6.43595">
        <ele>529</ele>
        <time>2019-07-29T10:08:24Z</time>
      </trkpt>
      <trkpt lat="46.05599" lon="6.43565">
        <ele>527</ele>
        <time>2019-07-29T10:08:28Z</time>
      </trkpt>
      <trkpt lat="46.05599" lon="6.43529">
        <ele>523</ele>
        <time>2019-07-29T10:08:32Z</time>
      </trkpt>
      <trkpt lat="46.05617" lon="6.43512">
        <ele>519</ele>
        <time>2019-07-29T10:08:36Z</time>
      </trkpt>
      <trkpt lat="46.05641" lon="6.43487">
        <ele>516</ele>
        <time>2019-07-29T10:08:40Z</time>
      </trkpt>
      <trkpt lat="46.05657" lon="6.4344">
        <ele>511</ele>
        <time>2019-07-29T10:08:44Z</time>
      </trkpt>
      <trkpt lat="46.05667" lon="6.43404">
        <ele>511</ele>
        <time>2019-07-29T10:08:48Z</time>
      </trkpt>
      <trkpt lat="46.05673" lon="6.43382">
        <ele>510</ele>
        <time>2019-07-29T10:08:52Z</time>
      </trkpt>
      <trkpt lat="46.0568" lon="6.43361">
        <ele>510</ele>
        <time>2019-07-29T10:08:56Z</time>
      </trkpt>
      <trkpt lat="46.05674" lon="6.43352">
        <ele>511</ele>
        <time>2019-07-29T10:09:12Z</time>
      </trkpt>
      <trkpt lat="46.05671" lon="6.43351">
        <ele>511</ele>
        <time>2019-07-29T10:09:16Z</time>
      </trkpt>
      <trkpt lat="46.05669" lon="6.43349">
        <ele>512</ele>
        <time>2019-07-29T10:09:20Z</time>
      </trkpt>
      <trkpt lat="46.0567" lon="6.4335">
        <ele>511</ele>
        <time>2019-07-29T10:09:24Z</time>
      </trkpt>
      <trkpt lat="46.05676" lon="6.43353">
        <ele>510</ele>
        <time>2019-07-29T10:09:28Z</time>
      </trkpt>
      <trkpt lat="46.05679" lon="6.43361">
        <ele>510</ele>
        <time>2019-07-29T10:09:32Z</time>
      </trkpt>
      <trkpt lat="46.0568" lon="6.43353">
        <ele>510</ele>
        <time>2019-07-29T10:09:36Z</time>
      </trkpt>
      <trkpt lat="46.0567" lon="6.43348">
        <ele>510</ele>
        <time>2019-07-29T10:09:40Z</time>
      </trkpt>
      <trkpt lat="46.05662" lon="6.43348">
        <ele>511</ele>
        <time>2019-07-29T10:09:44Z</time>
      </trkpt>
      <trkpt lat="46.05652" lon="6.43349">
        <ele>513</ele>
        <time>2019-07-29T10:09:48Z</time>
      </trkpt>
      <trkpt lat="46.05645" lon="6.43349">
        <ele>514</ele>
        <time>2019-07-29T10:09:52Z</time>
      </trkpt>
      <trkpt lat="46.05637" lon="6.43347">
        <ele>515</ele>
        <time>2019-07-29T10:09:56Z</time>
      </trkpt>
      <trkpt lat="46.05627" lon="6.43338">
        <ele>516</ele>
        <time>2019-07-29T10:10:00Z</time>
      </trkpt>
      <trkpt lat="46.05622" lon="6.43333">
        <ele>517</ele>
        <time>2019-07-29T10:10:04Z</time>
      </trkpt>
      <trkpt lat="46.05619" lon="6.43328">
        <ele>518</ele>
        <time>2019-07-29T10:10:08Z</time>
      </trkpt>
      <trkpt lat="46.05618" lon="6.43314">
        <ele>519</ele>
        <time>2019-07-29T10:10:12Z</time>
      </trkpt>
      <trkpt lat="46.05618" lon="6.43301">
        <ele>520</ele>
        <time>2019-07-29T10:10:16Z</time>
      </trkpt>
      <trkpt lat="46.05624" lon="6.43289">
        <ele>521</ele>
        <time>2019-07-29T10:10:20Z</time>
      </trkpt>
      <trkpt lat="46.05625" lon="6.43275">
        <ele>522</ele>
        <time>2019-07-29T10:10:24Z</time>
      </trkpt>
      <trkpt lat="46.05627" lon="6.43263">
        <ele>523</ele>
        <time>2019-07-29T10:10:28Z</time>
      </trkpt>
      <trkpt lat="46.05632" lon="6.43251">
        <ele>523</ele>
        <time>2019-07-29T10:10:32Z</time>
      </trkpt>
      <trkpt lat="46.05637" lon="6.43241">
        <ele>525</ele>
        <time>2019-07-29T10:10:36Z</time>
      </trkpt>
      <trkpt lat="46.05638" lon="6.43229">
        <ele>526</ele>
        <time>2019-07-29T10:10:40Z</time>
      </trkpt>
      <trkpt lat="46.05635" lon="6.43217">
        <ele>527</ele>
        <time>2019-07-29T10:10:44Z</time>
      </trkpt>
      <trkpt lat="46.0563" lon="6.43208">
        <ele>528</ele>
        <time>2019-07-29T10:10:48Z</time>
      </trkpt>
      <trkpt lat="46.05628" lon="6.43198">
        <ele>529</ele>
        <time>2019-07-29T10:10:52Z</time>
      </trkpt>
      <trkpt lat="46.05632" lon="6.43188">
        <ele>530</ele>
        <time>2019-07-29T10:10:56Z</time>
      </trkpt>
      <trkpt lat="46.05636" lon="6.4318">
        <ele>531</ele>
        <time>2019-07-29T10:11:00Z</time>
      </trkpt>
      <trkpt lat="46.05635" lon="6.4317">
        <ele>532</ele>
        <time>2019-07-29T10:11:04Z</time>
      </trkpt>
      <trkpt lat="46.05637" lon="6.43156">
        <ele>533</ele>
        <time>2019-07-29T10:11:08Z</time>
      </trkpt>
      <trkpt lat="46.05636" lon="6.43148">
        <ele>534</ele>
        <time>2019-07-29T10:11:12Z</time>
      </trkpt>
      <trkpt lat="46.05638" lon="6.43136">
        <ele>535</ele>
        <time>2019-07-29T10:11:16Z</time>
      </trkpt>
      <trkpt lat="46.05636" lon="6.43123">
        <ele>537</ele>
        <time>2019-07-29T10:11:20Z</time>
      </trkpt>
      <trkpt lat="46.05638" lon="6.43112">
        <ele>538</ele>
        <time>2019-07-29T10:11:24Z</time>
      </trkpt>
      <trkpt lat="46.05642" lon="6.43108">
        <ele>539</ele>
        <time>2019-07-29T10:11:28Z</time>
      </trkpt>
      <trkpt lat="46.05651" lon="6.43107">
        <ele>539</ele>
        <time>2019-07-29T10:11:32Z</time>
      </trkpt>
      <trkpt lat="46.05658" lon="6.43106">
        <ele>540</ele>
        <time>2019-07-29T10:11:36Z</time>
      </trkpt>
      <trkpt lat="46.05667" lon="6.43104">
        <ele>541</ele>
        <time>2019-07-29T10:11:40Z</time>
      </trkpt>
      <trkpt lat="46.05682" lon="6.43098">
        <ele>541</ele>
        <time>2019-07-29T10:11:44Z</time>
      </trkpt>
      <trkpt lat="46.05685" lon="6.43084">
        <ele>542</ele>
        <time>2019-07-29T10:11:48Z</time>
      </trkpt>
      <trkpt lat="46.05684" lon="6.43074">
        <ele>544</ele>
        <time>2019-07-29T10:11:52Z</time>
      </trkpt>
      <trkpt lat="46.05685" lon="6.43061">
        <ele>545</ele>
        <time>2019-07-29T10:11:56Z</time>
      </trkpt>
      <trkpt lat="46.05685" lon="6.43051">
        <ele>545</ele>
        <time>2019-07-29T10:12:00Z</time>
      </trkpt>
      <trkpt lat="46.05686" lon="6.43041">
        <ele>546</ele>
        <time>2019-07-29T10:12:04Z</time>
      </trkpt>
      <trkpt lat="46.05685" lon="6.43031">
        <ele>548</ele>
        <time>2019-07-29T10:12:08Z</time>
      </trkpt>
      <trkpt lat="46.05684" lon="6.43023">
        <ele>549</ele>
        <time>2019-07-29T10:12:12Z</time>
      </trkpt>
      <trkpt lat="46.0568" lon="6.43013">
        <ele>550</ele>
        <time>2019-07-29T10:12:16Z</time>
      </trkpt>
      <trkpt lat="46.05678" lon="6.43002">
        <ele>551</ele>
        <time>2019-07-29T10:12:20Z</time>
      </trkpt>
      <trkpt lat="46.05677" lon="6.4299">
        <ele>552</ele>
        <time>2019-07-29T10:12:24Z</time>
      </trkpt>
      <trkpt lat="46.05676" lon="6.42976">
        <ele>553</ele>
        <time>2019-07-29T10:12:28Z</time>
      </trkpt>
      <trkpt lat="46.05673" lon="6.42964">
        <ele>554</ele>
        <time>2019-07-29T10:12:32Z</time>
      </trkpt>
      <trkpt lat="46.05672" lon="6.42957">
        <ele>554</ele>
        <time>2019-07-29T10:12:36Z</time>
      </trkpt>
      <trkpt lat="46.05674" lon="6.42944">
        <ele>556</ele>
        <time>2019-07-29T10:12:40Z</time>
      </trkpt>
      <trkpt lat="46.05677" lon="6.42927">
        <ele>557</ele>
        <time>2019-07-29T10:12:44Z</time>
      </trkpt>
      <trkpt lat="46.05681" lon="6.4291">
        <ele>558</ele>
        <time>2019-07-29T10:12:48Z</time>
      </trkpt>
      <trkpt lat="46.05678" lon="6.42897">
        <ele>559</ele>
        <time>2019-07-29T10:12:52Z</time>
      </trkpt>
      <trkpt lat="46.05678" lon="6.42885">
        <ele>560</ele>
        <time>2019-07-29T10:12:56Z</time>
      </trkpt>
      <trkpt lat="46.05681" lon="6.42873">
        <ele>560</ele>
        <time>2019-07-29T10:13:00Z</time>
      </trkpt>
      <trkpt lat="46.05681" lon="6.42856">
        <ele>561</ele>
        <time>2019-07-29T10:13:04Z</time>
      </trkpt>
      <trkpt lat="46.05684" lon="6.42843">
        <ele>563</ele>
        <time>2019-07-29T10:13:08Z</time>
      </trkpt>
      <trkpt lat="46.05688" lon="6.42831">
        <ele>564</ele>
        <time>2019-07-29T10:13:12Z</time>
      </trkpt>
      <trkpt lat="46.05692" lon="6.4282">
        <ele>564</ele>
        <time>2019-07-29T10:13:16Z</time>
      </trkpt>
      <trkpt lat="46.05695" lon="6.42807">
        <ele>565</ele>
        <time>2019-07-29T10:13:20Z</time>
      </trkpt>
      <trkpt lat="46.05697" lon="6.42794">
        <ele>565</ele>
        <time>2019-07-29T10:13:24Z</time>
      </trkpt>
      <trkpt lat="46.05695" lon="6.42782">
        <ele>567</ele>
        <time>2019-07-29T10:13:28Z</time>
      </trkpt>
      <trkpt lat="46.0569" lon="6.42778">
        <ele>568</ele>
        <time>2019-07-29T10:13:32Z</time>
      </trkpt>
      <trkpt lat="46.05684" lon="6.42778">
        <ele>569</ele>
        <time>2019-07-29T10:13:36Z</time>
      </trkpt>
      <trkpt lat="46.0568" lon="6.4278">
        <ele>570</ele>
        <time>2019-07-29T10:13:40Z</time>
      </trkpt>
      <trkpt lat="46.05674" lon="6.42789">
        <ele>570</ele>
        <time>2019-07-29T10:13:44Z</time>
      </trkpt>
      <trkpt lat="46.05668" lon="6.42797">
        <ele>572</ele>
        <time>2019-07-29T10:13:48Z</time>
      </trkpt>
      <trkpt lat="46.05662" lon="6.42798">
        <ele>573</ele>
        <time>2019-07-29T10:13:52Z</time>
      </trkpt>
      <trkpt lat="46.05659" lon="6.42794">
        <ele>573</ele>
        <time>2019-07-29T10:13:56Z</time>
      </trkpt>
      <trkpt lat="46.05659" lon="6.42785">
        <ele>574</ele>
        <time>2019-07-29T10:14:00Z</time>
      </trkpt>
      <trkpt lat="46.0566" lon="6.42775">
        <ele>576</ele>
        <time>2019-07-29T10:14:04Z</time>
      </trkpt>
      <trkpt lat="46.05661" lon="6.42765">
        <ele>576</ele>
        <time>2019-07-29T10:14:08Z</time>
      </trkpt>
      <trkpt lat="46.0566" lon="6.42756">
        <ele>578</ele>
        <time>2019-07-29T10:14:12Z</time>
      </trkpt>
      <trkpt lat="46.05659" lon="6.42744">
        <ele>579</ele>
        <time>2019-07-29T10:14:16Z</time>
      </trkpt>
      <trkpt lat="46.05658" lon="6.42734">
        <ele>580</ele>
        <time>2019-07-29T10:14:20Z</time>
      </trkpt>
      <trkpt lat="46.0566" lon="6.4272">
        <ele>580</ele>
        <time>2019-07-29T10:14:24Z</time>
      </trkpt>
      <trkpt lat="46.05665" lon="6.42706">
        <ele>581</ele>
        <time>2019-07-29T10:14:28Z</time>
      </trkpt>
      <trkpt lat="46.05668" lon="6.42693">
        <ele>581</ele>
        <time>2019-07-29T10:14:32Z</time>
      </trkpt>
      <trkpt lat="46.0567" lon="6.42682">
        <ele>583</ele>
        <time>2019-07-29T10:14:36Z</time>
      </trkpt>
      <trkpt lat="46.05671" lon="6.42668">
        <ele>584</ele>
        <time>2019-07-29T10:14:40Z</time>
      </trkpt>
      <trkpt lat="46.05671" lon="6.42656">
        <ele>584</ele>
        <time>2019-07-29T10:14:44Z</time>
      </trkpt>
      <trkpt lat="46.05671" lon="6.42643">
        <ele>586</ele>
        <time>2019-07-29T10:14:48Z</time>
      </trkpt>
      <trkpt lat="46.0567" lon="6.4263">
        <ele>587</ele>
        <time>2019-07-29T10:14:52Z</time>
      </trkpt>
      <trkpt lat="46.05669" lon="6.42619">
        <ele>587</ele>
        <time>2019-07-29T10:14:56Z</time>
      </trkpt>
      <trkpt lat="46.05668" lon="6.42606">
        <ele>588</ele>
        <time>2019-07-29T10:15:00Z</time>
      </trkpt>
      <trkpt lat="46.05669" lon="6.42594">
        <ele>589</ele>
        <time>2019-07-29T10:15:04Z</time>
      </trkpt>
      <trkpt lat="46.05671" lon="6.42584">
        <ele>591</ele>
        <time>2019-07-29T10:15:08Z</time>
      </trkpt>
      <trkpt lat="46.05676" lon="6.42577">
        <ele>591</ele>
        <time>2019-07-29T10:15:12Z</time>
      </trkpt>
      <trkpt lat="46.05682" lon="6.42575">
        <ele>592</ele>
        <time>2019-07-29T10:15:16Z</time>
      </trkpt>
      <trkpt lat="46.05689" lon="6.42575">
        <ele>593</ele>
        <time>2019-07-29T10:15:20Z</time>
      </trkpt>
      <trkpt lat="46.057" lon="6.42579">
        <ele>594</ele>
        <time>2019-07-29T10:15:24Z</time>
      </trkpt>
      <trkpt lat="46.05709" lon="6.42578">
        <ele>594</ele>
        <time>2019-07-29T10:15:28Z</time>
      </trkpt>
      <trkpt lat="46.05718" lon="6.42572">
        <ele>595</ele>
        <time>2019-07-29T10:15:32Z</time>
      </trkpt>
      <trkpt lat="46.05727" lon="6.42563">
        <ele>594</ele>
        <time>2019-07-29T10:15:36Z</time>
      </trkpt>
      <trkpt lat="46.05736" lon="6.42551">
        <ele>595</ele>
        <time>2019-07-29T10:15:40Z</time>
      </trkpt>
      <trkpt lat="46.05744" lon="6.42536">
        <ele>596</ele>
        <time>2019-07-29T10:15:44Z</time>
      </trkpt>
      <trkpt lat="46.05747" lon="6.42522">
        <ele>598</ele>
        <time>2019-07-29T10:15:48Z</time>
      </trkpt>
      <trkpt lat="46.05745" lon="6.42511">
        <ele>598</ele>
        <time>2019-07-29T10:15:52Z</time>
      </trkpt>
      <trkpt lat="46.05737" lon="6.42505">
        <ele>599</ele>
        <time>2019-07-29T10:15:56Z</time>
      </trkpt>
      <trkpt lat="46.05728" lon="6.42499">
        <ele>600</ele>
        <time>2019-07-29T10:16:00Z</time>
      </trkpt>
      <trkpt lat="46.05721" lon="6.42489">
        <ele>602</ele>
        <time>2019-07-29T10:16:04Z</time>
      </trkpt>
      <trkpt lat="46.05716" lon="6.42479">
        <ele>602</ele>
        <time>2019-07-29T10:16:08Z</time>
      </trkpt>
      <trkpt lat="46.05707" lon="6.42468">
        <ele>604</ele>
        <time>2019-07-29T10:16:12Z</time>
      </trkpt>
      <trkpt lat="46.057" lon="6.42462">
        <ele>605</ele>
        <time>2019-07-29T10:16:16Z</time>
      </trkpt>
      <trkpt lat="46.05694" lon="6.42458">
        <ele>605</ele>
        <time>2019-07-29T10:16:20Z</time>
      </trkpt>
      <trkpt lat="46.05686" lon="6.42451">
        <ele>606</ele>
        <time>2019-07-29T10:16:24Z</time>
      </trkpt>
      <trkpt lat="46.05676" lon="6.42448">
        <ele>607</ele>
        <time>2019-07-29T10:16:28Z</time>
      </trkpt>
      <trkpt lat="46.05669" lon="6.42443">
        <ele>608</ele>
        <time>2019-07-29T10:16:32Z</time>
      </trkpt>
      <trkpt lat="46.05662" lon="6.42439">
        <ele>609</ele>
        <time>2019-07-29T10:16:36Z</time>
      </trkpt>
      <trkpt lat="46.05654" lon="6.42433">
        <ele>610</ele>
        <time>2019-07-29T10:16:40Z</time>
      </trkpt>
      <trkpt lat="46.05647" lon="6.42427">
        <ele>612</ele>
        <time>2019-07-29T10:16:44Z</time>
      </trkpt>
      <trkpt lat="46.05645" lon="6.42417">
        <ele>613</ele>
        <time>2019-07-29T10:16:48Z</time>
      </trkpt>
      <trkpt lat="46.05647" lon="6.42408">
        <ele>615</ele>
        <time>2019-07-29T10:16:52Z</time>
      </trkpt>
      <trkpt lat="46.0565" lon="6.42398">
        <ele>615</ele>
        <time>2019-07-29T10:16:56Z</time>
      </trkpt>
      <trkpt lat="46.05655" lon="6.42389">
        <ele>616</ele>
        <time>2019-07-29T10:17:00Z</time>
      </trkpt>
      <trkpt lat="46.05659" lon="6.42377">
        <ele>617</ele>
        <time>2019-07-29T10:17:04Z</time>
      </trkpt>
      <trkpt lat="46.0566" lon="6.42365">
        <ele>618</ele>
        <time>2019-07-29T10:17:08Z</time>
      </trkpt>
      <trkpt lat="46.0566" lon="6.42352">
        <ele>619</ele>
        <time>2019-07-29T10:17:12Z</time>
      </trkpt>
      <trkpt lat="46.05662" lon="6.42344">
        <ele>620</ele>
        <time>2019-07-29T10:17:16Z</time>
      </trkpt>
      <trkpt lat="46.05661" lon="6.42333">
        <ele>621</ele>
        <time>2019-07-29T10:17:20Z</time>
      </trkpt>
      <trkpt lat="46.0566" lon="6.42322">
        <ele>621</ele>
        <time>2019-07-29T10:17:24Z</time>
      </trkpt>
      <trkpt lat="46.05658" lon="6.42307">
        <ele>622</ele>
        <time>2019-07-29T10:17:28Z</time>
      </trkpt>
      <trkpt lat="46.05656" lon="6.42296">
        <ele>623</ele>
        <time>2019-07-29T10:17:32Z</time>
      </trkpt>
      <trkpt lat="46.05655" lon="6.42287">
        <ele>624</ele>
        <time>2019-07-29T10:17:36Z</time>
      </trkpt>
      <trkpt lat="46.05654" lon="6.42277">
        <ele>625</ele>
        <time>2019-07-29T10:17:40Z</time>
      </trkpt>
      <trkpt lat="46.05651" lon="6.42261">
        <ele>626</ele>
        <time>2019-07-29T10:17:44Z</time>
      </trkpt>
      <trkpt lat="46.0565" lon="6.42246">
        <ele>627</ele>
        <time>2019-07-29T10:17:48Z</time>
      </trkpt>
      <trkpt lat="46.05649" lon="6.42234">
        <ele>627</ele>
        <time>2019-07-29T10:17:52Z</time>
      </trkpt>
      <trkpt lat="46.05646" lon="6.42221">
        <ele>629</ele>
        <time>2019-07-29T10:17:56Z</time>
      </trkpt>
      <trkpt lat="46.05639" lon="6.42212">
        <ele>630</ele>
        <time>2019-07-29T10:18:00Z</time>
      </trkpt>
      <trkpt lat="46.05631" lon="6.42211">
        <ele>630</ele>
        <time>2019-07-29T10:18:04Z</time>
      </trkpt>
      <trkpt lat="46.05624" lon="6.42216">
        <ele>631</ele>
        <time>2019-07-29T10:18:08Z</time>
      </trkpt>
      <trkpt lat="46.05617" lon="6.42222">
        <ele>632</ele>
        <time>2019-07-29T10:18:12Z</time>
      </trkpt>
      <trkpt lat="46.05612" lon="6.42227">
        <ele>633</ele>
        <time>2019-07-29T10:18:16Z</time>
      </trkpt>
      <trkpt lat="46.05607" lon="6.42232">
        <ele>634</ele>
        <time>2019-07-29T10:18:20Z</time>
      </trkpt>
      <trkpt lat="46.05602" lon="6.42236">
        <ele>636</ele>
        <time>2019-07-29T10:18:28Z</time>
      </trkpt>
      <trkpt lat="46.05594" lon="6.42239">
        <ele>637</ele>
        <time>2019-07-29T10:18:32Z</time>
      </trkpt>
      <trkpt lat="46.05584" lon="6.42242">
        <ele>638</ele>
        <time>2019-07-29T10:18:36Z</time>
      </trkpt>
      <trkpt lat="46.05574" lon="6.42242">
        <ele>639</ele>
        <time>2019-07-29T10:18:40Z</time>
      </trkpt>
      <trkpt lat="46.05564" lon="6.4225">
        <ele>639</ele>
        <time>2019-07-29T10:18:44Z</time>
      </trkpt>
      <trkpt lat="46.05554" lon="6.42257">
        <ele>641</ele>
        <time>2019-07-29T10:18:48Z</time>
      </trkpt>
      <trkpt lat="46.05547" lon="6.42263">
        <ele>642</ele>
        <time>2019-07-29T10:18:52Z</time>
      </trkpt>
      <trkpt lat="46.05541" lon="6.4227">
        <ele>642</ele>
        <time>2019-07-29T10:18:56Z</time>
      </trkpt>
      <trkpt lat="46.05535" lon="6.42279">
        <ele>643</ele>
        <time>2019-07-29T10:19:00Z</time>
      </trkpt>
      <trkpt lat="46.05528" lon="6.4229">
        <ele>644</ele>
        <time>2019-07-29T10:19:04Z</time>
      </trkpt>
      <trkpt lat="46.05524" lon="6.42301">
        <ele>645</ele>
        <time>2019-07-29T10:19:08Z</time>
      </trkpt>
      <trkpt lat="46.05519" lon="6.4231">
        <ele>646</ele>
        <time>2019-07-29T10:19:12Z</time>
      </trkpt>
      <trkpt lat="46.05512" lon="6.42316">
        <ele>647</ele>
        <time>2019-07-29T10:19:16Z</time>
      </trkpt>
      <trkpt lat="46.05506" lon="6.42317">
        <ele>648</ele>
        <time>2019-07-29T10:19:20Z</time>
      </trkpt>
      <trkpt lat="46.05507" lon="6.4231">
        <ele>649</ele>
        <time>2019-07-29T10:19:24Z</time>
      </trkpt>
      <trkpt lat="46.05507" lon="6.42298">
        <ele>650</ele>
        <time>2019-07-29T10:19:28Z</time>
      </trkpt>
      <trkpt lat="46.05507" lon="6.42285">
        <ele>651</ele>
        <time>2019-07-29T10:19:32Z</time>
      </trkpt>
      <trkpt lat="46.05505" lon="6.42272">
        <ele>651</ele>
        <time>2019-07-29T10:19:36Z</time>
      </trkpt>
      <trkpt lat="46.05503" lon="6.42259">
        <ele>653</ele>
        <time>2019-07-29T10:19:40Z</time>
      </trkpt>
      <trkpt lat="46.05501" lon="6.4225">
        <ele>654</ele>
        <time>2019-07-29T10:19:44Z</time>
      </trkpt>
      <trkpt lat="46.05498" lon="6.42241">
        <ele>654</ele>
        <time>2019-07-29T10:19:48Z</time>
      </trkpt>
      <trkpt lat="46.05497" lon="6.42228">
        <ele>655</ele>
        <time>2019-07-29T10:19:52Z</time>
      </trkpt>
      <trkpt lat="46.05495" lon="6.42217">
        <ele>656</ele>
        <time>2019-07-29T10:19:56Z</time>
      </trkpt>
      <trkpt lat="46.05493" lon="6.42207">
        <ele>658</ele>
        <time>2019-07-29T10:20:00Z</time>
      </trkpt>
      <trkpt lat="46.05493" lon="6.42195">
        <ele>658</ele>
        <time>2019-07-29T10:20:04Z</time>
      </trkpt>
      <trkpt lat="46.05491" lon="6.42183">
        <ele>659</ele>
        <time>2019-07-29T10:20:08Z</time>
      </trkpt>
      <trkpt lat="46.0549" lon="6.42169">
        <ele>660</ele>
        <time>2019-07-29T10:20:12Z</time>
      </trkpt>
      <trkpt lat="46.0549" lon="6.42158">
        <ele>661</ele>
        <time>2019-07-29T10:20:16Z</time>
      </trkpt>
      <trkpt lat="46.05492" lon="6.42144">
        <ele>662</ele>
        <time>2019-07-29T10:20:20Z</time>
      </trkpt>
      <trkpt lat="46.05491" lon="6.42133">
        <ele>663</ele>
        <time>2019-07-29T10:20:24Z</time>
      </trkpt>
      <trkpt lat="46.05487" lon="6.42123">
        <ele>664</ele>
        <time>2019-07-29T10:20:28Z</time>
      </trkpt>
      <trkpt lat="46.05483" lon="6.42112">
        <ele>665</ele>
        <time>2019-07-29T10:20:32Z</time>
      </trkpt>
      <trkpt lat="46.0548" lon="6.42102">
        <ele>666</ele>
        <time>2019-07-29T10:20:36Z</time>
      </trkpt>
      <trkpt lat="46.05479" lon="6.42091">
        <ele>667</ele>
        <time>2019-07-29T10:20:40Z</time>
      </trkpt>
      <trkpt lat="46.05478" lon="6.42076">
        <ele>668</ele>
        <time>2019-07-29T10:20:44Z</time>
      </trkpt>
      <trkpt lat="46.05478" lon="6.42062">
        <ele>668</ele>
        <time>2019-07-29T10:20:48Z</time>
      </trkpt>
      <trkpt lat="46.05477" lon="6.42049">
        <ele>669</ele>
        <time>2019-07-29T10:20:52Z</time>
      </trkpt>
      <trkpt lat="46.05476" lon="6.42036">
        <ele>670</ele>
        <time>2019-07-29T10:20:56Z</time>
      </trkpt>
      <trkpt lat="46.05478" lon="6.42024">
        <ele>671</ele>
        <time>2019-07-29T10:21:00Z</time>
      </trkpt>
      <trkpt lat="46.05481" lon="6.42011">
        <ele>671</ele>
        <time>2019-07-29T10:21:04Z</time>
      </trkpt>
      <trkpt lat="46.05485" lon="6.42">
        <ele>673</ele>
        <time>2019-07-29T10:21:08Z</time>
      </trkpt>
      <trkpt lat="46.05486" lon="6.41988">
        <ele>673</ele>
        <time>2019-07-29T10:21:12Z</time>
      </trkpt>
      <trkpt lat="46.05488" lon="6.41976">
        <ele>675</ele>
        <time>2019-07-29T10:21:16Z</time>
      </trkpt>
      <trkpt lat="46.05487" lon="6.41964">
        <ele>675</ele>
        <time>2019-07-29T10:21:20Z</time>
      </trkpt>
      <trkpt lat="46.05484" lon="6.41953">
        <ele>677</ele>
        <time>2019-07-29T10:21:24Z</time>
      </trkpt>
      <trkpt lat="46.05479" lon="6.41945">
        <ele>678</ele>
        <time>2019-07-29T10:21:28Z</time>
      </trkpt>
      <trkpt lat="46.05472" lon="6.41943">
        <ele>678</ele>
        <time>2019-07-29T10:21:32Z</time>
      </trkpt>
      <trkpt lat="46.05464" lon="6.41946">
        <ele>679</ele>
        <time>2019-07-29T10:21:36Z</time>
      </trkpt>
      <trkpt lat="46.05457" lon="6.41951">
        <ele>680</ele>
        <time>2019-07-29T10:21:40Z</time>
      </trkpt>
      <trkpt lat="46.05449" lon="6.41955">
        <ele>681</ele>
        <time>2019-07-29T10:21:44Z</time>
      </trkpt>
      <trkpt lat="46.05442" lon="6.41957">
        <ele>681</ele>
        <time>2019-07-29T10:21:48Z</time>
      </trkpt>
      <trkpt lat="46.05434" lon="6.4196">
        <ele>683</ele>
        <time>2019-07-29T10:21:52Z</time>
      </trkpt>
      <trkpt lat="46.05425" lon="6.41961">
        <ele>683</ele>
        <time>2019-07-29T10:21:56Z</time>
      </trkpt>
      <trkpt lat="46.05417" lon="6.41965">
        <ele>684</ele>
        <time>2019-07-29T10:22:00Z</time>
      </trkpt>
      <trkpt lat="46.05411" lon="6.41973">
        <ele>686</ele>
        <time>2019-07-29T10:22:04Z</time>
      </trkpt>
      <trkpt lat="46.05408" lon="6.41983">
        <ele>686</ele>
        <time>2019-07-29T10:22:08Z</time>
      </trkpt>
      <trkpt lat="46.05404" lon="6.41993">
        <ele>687</ele>
        <time>2019-07-29T10:22:12Z</time>
      </trkpt>
      <trkpt lat="46.05402" lon="6.42003">
        <ele>688</ele>
        <time>2019-07-29T10:22:16Z</time>
      </trkpt>
      <trkpt lat="46.05401" lon="6.42015">
        <ele>689</ele>
        <time>2019-07-29T10:22:20Z</time>
      </trkpt>
      <trkpt lat="46.054" lon="6.42025">
        <ele>690</ele>
        <time>2019-07-29T10:22:24Z</time>
      </trkpt>
      <trkpt lat="46.05398" lon="6.42034">
        <ele>690</ele>
        <time>2019-07-29T10:22:28Z</time>
      </trkpt>
      <trkpt lat="46.05394" lon="6.42043">
        <ele>692</ele>
        <time>2019-07-29T10:22:32Z</time>
      </trkpt>
      <trkpt lat="46.05392" lon="6.42052">
        <ele>692</ele>
        <time>2019-07-29T10:22:36Z</time>
      </trkpt>
      <trkpt lat="46.05389" lon="6.4206">
        <ele>693</ele>
        <time>2019-07-29T10:22:40Z</time>
      </trkpt>
      <trkpt lat="46.0538" lon="6.42068">
        <ele>694</ele>
        <time>2019-07-29T10:22:44Z</time>
      </trkpt>
      <trkpt lat="46.05371" lon="6.4207">
        <ele>696</ele>
        <time>2019-07-29T10:22:48Z</time>
      </trkpt>
      <trkpt lat="46.05368" lon="6.42068">
        <ele>696</ele>
        <time>2019-07-29T10:22:52Z</time>
      </trkpt>
      <trkpt lat="46.05365" lon="6.42062">
        <ele>698</ele>
        <time>2019-07-29T10:22:56Z</time>
      </trkpt>
      <trkpt lat="46.05362" lon="6.42054">
        <ele>698</ele>
        <time>2019-07-29T10:23:00Z</time>
      </trkpt>
      <trkpt lat="46.05361" lon="6.42044">
        <ele>699</ele>
        <time>2019-07-29T10:23:04Z</time>
      </trkpt>
      <trkpt lat="46.05359" lon="6.42035">
        <ele>700</ele>
        <time>2019-07-29T10:23:08Z</time>
      </trkpt>
      <trkpt lat="46.05356" lon="6.42023">
        <ele>701</ele>
        <time>2019-07-29T10:23:12Z</time>
      </trkpt>
      <trkpt lat="46.05356" lon="6.42013">
        <ele>701</ele>
        <time>2019-07-29T10:23:16Z</time>
      </trkpt>
      <trkpt lat="46.05354" lon="6.42005">
        <ele>703</ele>
        <time>2019-07-29T10:23:20Z</time>
      </trkpt>
      <trkpt lat="46.05353" lon="6.41993">
        <ele>703</ele>
        <time>2019-07-29T10:23:24Z</time>
      </trkpt>
      <trkpt lat="46.05353" lon="6.41982">
        <ele>704</ele>
        <time>2019-07-29T10:23:28Z</time>
      </trkpt>
      <trkpt lat="46.05355" lon="6.41971">
        <ele>705</ele>
        <time>2019-07-29T10:23:32Z</time>
      </trkpt>
      <trkpt lat="46.05351" lon="6.41952">
        <ele>706</ele>
        <time>2019-07-29T10:23:36Z</time>
      </trkpt>
      <trkpt lat="46.05352" lon="6.41936">
        <ele>707</ele>
        <time>2019-07-29T10:23:40Z</time>
      </trkpt>
      <trkpt lat="46.05355" lon="6.4192">
        <ele>708</ele>
        <time>2019-07-29T10:23:44Z</time>
      </trkpt>
      <trkpt lat="46.05356" lon="6.41909">
        <ele>709</ele>
        <time>2019-07-29T10:23:48Z</time>
      </trkpt>
      <trkpt lat="46.05357" lon="6.419">
        <ele>710</ele>
        <time>2019-07-29T10:23:52Z</time>
      </trkpt>
      <trkpt lat="46.05358" lon="6.41889">
        <ele>711</ele>
        <time>2019-07-29T10:24:00Z</time>
      </trkpt>
      <trkpt lat="46.05356" lon="6.41883">
        <ele>713</ele>
        <time>2019-07-29T10:24:04Z</time>
      </trkpt>
      <trkpt lat="46.05353" lon="6.41872">
        <ele>713</ele>
        <time>2019-07-29T10:24:08Z</time>
      </trkpt>
      <trkpt lat="46.05351" lon="6.41863">
        <ele>714</ele>
        <time>2019-07-29T10:24:12Z</time>
      </trkpt>
      <trkpt lat="46.05351" lon="6.41849">
        <ele>715</ele>
        <time>2019-07-29T10:24:16Z</time>
      </trkpt>
      <trkpt lat="46.0535" lon="6.41836">
        <ele>716</ele>
        <time>2019-07-29T10:24:20Z</time>
      </trkpt>
      <trkpt lat="46.05348" lon="6.41824">
        <ele>717</ele>
        <time>2019-07-29T10:24:24Z</time>
      </trkpt>
      <trkpt lat="46.05346" lon="6.41814">
        <ele>718</ele>
        <time>2019-07-29T10:24:28Z</time>
      </trkpt>
      <trkpt lat="46.05343" lon="6.41805">
        <ele>719</ele>
        <time>2019-07-29T10:24:32Z</time>
      </trkpt>
      <trkpt lat="46.05343" lon="6.41793">
        <ele>720</ele>
        <time>2019-07-29T10:24:36Z</time>
      </trkpt>
      <trkpt lat="46.05342" lon="6.41779">
        <ele>720</ele>
        <time>2019-07-29T10:24:40Z</time>
      </trkpt>
      <trkpt lat="46.05346" lon="6.41765">
        <ele>721</ele>
        <time>2019-07-29T10:24:44Z</time>
      </trkpt>
      <trkpt lat="46.05346" lon="6.41751">
        <ele>722</ele>
        <time>2019-07-29T10:24:48Z</time>
      </trkpt>
      <trkpt lat="46.05356" lon="6.41733">
        <ele>723</ele>
        <time>2019-07-29T10:24:52Z</time>
      </trkpt>
      <trkpt lat="46.05359" lon="6.41724">
        <ele>724</ele>
        <time>2019-07-29T10:24:56Z</time>
      </trkpt>
      <trkpt lat="46.05362" lon="6.41713">
        <ele>725</ele>
        <time>2019-07-29T10:25:00Z</time>
      </trkpt>
      <trkpt lat="46.05366" lon="6.41706">
        <ele>726</ele>
        <time>2019-07-29T10:25:04Z</time>
      </trkpt>
      <trkpt lat="46.05373" lon="6.417">
        <ele>727</ele>
        <time>2019-07-29T10:25:08Z</time>
      </trkpt>
      <trkpt lat="46.05382" lon="6.41692">
        <ele>727</ele>
        <time>2019-07-29T10:25:12Z</time>
      </trkpt>
      <trkpt lat="46.05393" lon="6.41686">
        <ele>728</ele>
        <time>2019-07-29T10:25:16Z</time>
      </trkpt>
      <trkpt lat="46.05402" lon="6.41682">
        <ele>729</ele>
        <time>2019-07-29T10:25:20Z</time>
      </trkpt>
      <trkpt lat="46.0541" lon="6.41678">
        <ele>730</ele>
        <time>2019-07-29T10:25:24Z</time>
      </trkpt>
      <trkpt lat="46.05418" lon="6.41675">
        <ele>731</ele>
        <time>2019-07-29T10:25:28Z</time>
      </trkpt>
      <trkpt lat="46.05426" lon="6.41671">
        <ele>732</ele>
        <time>2019-07-29T10:25:32Z</time>
      </trkpt>
      <trkpt lat="46.05433" lon="6.41668">
        <ele>733</ele>
        <time>2019-07-29T10:25:36Z</time>
      </trkpt>
      <trkpt lat="46.05441" lon="6.41664">
        <ele>734</ele>
        <time>2019-07-29T10:25:40Z</time>
      </trkpt>
      <trkpt lat="46.05448" lon="6.41658">
        <ele>735</ele>
        <time>2019-07-29T10:25:44Z</time>
      </trkpt>
      <trkpt lat="46.05454" lon="6.4165">
        <ele>736</ele>
        <time>2019-07-29T10:25:48Z</time>
      </trkpt>
      <trkpt lat="46.05459" lon="6.41641">
        <ele>736</ele>
        <time>2019-07-29T10:25:52Z</time>
      </trkpt>
      <trkpt lat="46.05464" lon="6.41631">
        <ele>737</ele>
        <time>2019-07-29T10:25:56Z</time>
      </trkpt>
      <trkpt lat="46.05468" lon="6.41621">
        <ele>738</ele>
        <time>2019-07-29T10:26:00Z</time>
      </trkpt>
      <trkpt lat="46.05469" lon="6.41608">
        <ele>739</ele>
        <time>2019-07-29T10:26:04Z</time>
      </trkpt>
      <trkpt lat="46.05469" lon="6.41596">
        <ele>740</ele>
        <time>2019-07-29T10:26:08Z</time>
      </trkpt>
      <trkpt lat="46.05469" lon="6.41585">
        <ele>741</ele>
        <time>2019-07-29T10:26:12Z</time>
      </trkpt>
      <trkpt lat="46.05469" lon="6.41574">
        <ele>741</ele>
        <time>2019-07-29T10:26:16Z</time>
      </trkpt>
      <trkpt lat="46.05468" lon="6.41563">
        <ele>742</ele>
        <time>2019-07-29T10:26:20Z</time>
      </trkpt>
      <trkpt lat="46.05467" lon="6.41551">
        <ele>743</ele>
        <time>2019-07-29T10:26:24Z</time>
      </trkpt>
      <trkpt lat="46.05463" lon="6.41541">
        <ele>744</ele>
        <time>2019-07-29T10:26:28Z</time>
      </trkpt>
      <trkpt lat="46.05459" lon="6.41531">
        <ele>745</ele>
        <time>2019-07-29T10:26:32Z</time>
      </trkpt>
      <trkpt lat="46.05453" lon="6.41523">
        <ele>746</ele>
        <time>2019-07-29T10:26:36Z</time>
      </trkpt>
      <trkpt lat="46.05447" lon="6.41516">
        <ele>747</ele>
        <time>2019-07-29T10:26:40Z</time>
      </trkpt>
      <trkpt lat="46.0544" lon="6.41512">
        <ele>748</ele>
        <time>2019-07-29T10:26:44Z</time>
      </trkpt>
      <trkpt lat="46.05432" lon="6.41509">
        <ele>749</ele>
        <time>2019-07-29T10:26:48Z</time>
      </trkpt>
      <trkpt lat="46.05424" lon="6.41508">
        <ele>750</ele>
        <time>2019-07-29T10:26:52Z</time>
      </trkpt>
      <trkpt lat="46.05416" lon="6.41506">
        <ele>751</ele>
        <time>2019-07-29T10:26:56Z</time>
      </trkpt>
      <trkpt lat="46.05408" lon="6.41502">
        <ele>752</ele>
        <time>2019-07-29T10:27:00Z</time>
      </trkpt>
      <trkpt lat="46.05401" lon="6.41496">
        <ele>753</ele>
        <time>2019-07-29T10:27:04Z</time>
      </trkpt>
      <trkpt lat="46.05395" lon="6.4149">
        <ele>754</ele>
        <time>2019-07-29T10:27:08Z</time>
      </trkpt>
      <trkpt lat="46.05388" lon="6.41484">
        <ele>755</ele>
        <time>2019-07-29T10:27:12Z</time>
      </trkpt>
      <trkpt lat="46.05381" lon="6.41478">
        <ele>756</ele>
        <time>2019-07-29T10:27:16Z</time>
      </trkpt>
      <trkpt lat="46.05373" lon="6.41476">
        <ele>756</ele>
        <time>2019-07-29T10:27:20Z</time>
      </trkpt>
      <trkpt lat="46.05365" lon="6.41474">
        <ele>758</ele>
        <time>2019-07-29T10:27:24Z</time>
      </trkpt>
      <trkpt lat="46.05357" lon="6.41474">
        <ele>758</ele>
        <time>2019-07-29T10:27:28Z</time>
      </trkpt>
      <trkpt lat="46.0535" lon="6.41477">
        <ele>759</ele>
        <time>2019-07-29T10:27:32Z</time>
      </trkpt>
      <trkpt lat="46.05343" lon="6.41484">
        <ele>759</ele>
        <time>2019-07-29T10:27:36Z</time>
      </trkpt>
      <trkpt lat="46.05337" lon="6.41492">
        <ele>760</ele>
        <time>2019-07-29T10:27:40Z</time>
      </trkpt>
      <trkpt lat="46.05332" lon="6.41501">
        <ele>761</ele>
        <time>2019-07-29T10:27:44Z</time>
      </trkpt>
      <trkpt lat="46.05327" lon="6.41509">
        <ele>762</ele>
        <time>2019-07-29T10:27:48Z</time>
      </trkpt>
      <trkpt lat="46.05323" lon="6.41518">
        <ele>763</ele>
        <time>2019-07-29T10:27:52Z</time>
      </trkpt>
      <trkpt lat="46.0532" lon="6.41527">
        <ele>764</ele>
        <time>2019-07-29T10:27:56Z</time>
      </trkpt>
      <trkpt lat="46.05316" lon="6.41537">
        <ele>765</ele>
        <time>2019-07-29T10:28:00Z</time>
      </trkpt>
      <trkpt lat="46.05311" lon="6.41541">
        <ele>766</ele>
        <time>2019-07-29T10:28:04Z</time>
      </trkpt>
      <trkpt lat="46.05305" lon="6.41547">
        <ele>767</ele>
        <time>2019-07-29T10:28:08Z</time>
      </trkpt>
      <trkpt lat="46.053" lon="6.41551">
        <ele>768</ele>
        <time>2019-07-29T10:28:12Z</time>
      </trkpt>
      <trkpt lat="46.0529" lon="6.41553">
        <ele>769</ele>
        <time>2019-07-29T10:28:16Z</time>
      </trkpt>
      <trkpt lat="46.05283" lon="6.41553">
        <ele>769</ele>
        <time>2019-07-29T10:28:20Z</time>
      </trkpt>
      <trkpt lat="46.05276" lon="6.41554">
        <ele>771</ele>
        <time>2019-07-29T10:28:24Z</time>
      </trkpt>
      <trkpt lat="46.05271" lon="6.41556">
        <ele>771</ele>
        <time>2019-07-29T10:28:28Z</time>
      </trkpt>
      <trkpt lat="46.05264" lon="6.41558">
        <ele>772</ele>
        <time>2019-07-29T10:28:32Z</time>
      </trkpt>
      <trkpt lat="46.05259" lon="6.41563">
        <ele>773</ele>
        <time>2019-07-29T10:28:36Z</time>
      </trkpt>
      <trkpt lat="46.05254" lon="6.41569">
        <ele>773</ele>
        <time>2019-07-29T10:28:40Z</time>
      </trkpt>
      <trkpt lat="46.05248" lon="6.41577">
        <ele>774</ele>
        <time>2019-07-29T10:28:44Z</time>
      </trkpt>
      <trkpt lat="46.0524" lon="6.41587">
        <ele>775</ele>
        <time>2019-07-29T10:28:48Z</time>
      </trkpt>
      <trkpt lat="46.05236" lon="6.41592">
        <ele>776</ele>
        <time>2019-07-29T10:28:52Z</time>
      </trkpt>
      <trkpt lat="46.05225" lon="6.41595">
        <ele>777</ele>
        <time>2019-07-29T10:28:56Z</time>
      </trkpt>
      <trkpt lat="46.05215" lon="6.41596">
        <ele>778</ele>
        <time>2019-07-29T10:29:00Z</time>
      </trkpt>
      <trkpt lat="46.05214" lon="6.41592">
        <ele>779</ele>
        <time>2019-07-29T10:29:04Z</time>
      </trkpt>
      <trkpt lat="46.05216" lon="6.41587">
        <ele>781</ele>
        <time>2019-07-29T10:29:12Z</time>
      </trkpt>
      <trkpt lat="46.05218" lon="6.4158">
        <ele>781</ele>
        <time>2019-07-29T10:29:16Z</time>
      </trkpt>
      <trkpt lat="46.05216" lon="6.41572">
        <ele>782</ele>
        <time>2019-07-29T10:29:20Z</time>
      </trkpt>
      <trkpt lat="46.05213" lon="6.41558">
        <ele>783</ele>
        <time>2019-07-29T10:29:24Z</time>
      </trkpt>
      <trkpt lat="46.05212" lon="6.41546">
        <ele>784</ele>
        <time>2019-07-29T10:29:28Z</time>
      </trkpt>
      <trkpt lat="46.05212" lon="6.41535">
        <ele>785</ele>
        <time>2019-07-29T10:29:32Z</time>
      </trkpt>
      <trkpt lat="46.05211" lon="6.41523">
        <ele>786</ele>
        <time>2019-07-29T10:29:36Z</time>
      </trkpt>
      <trkpt lat="46.05213" lon="6.41509">
        <ele>786</ele>
        <time>2019-07-29T10:29:40Z</time>
      </trkpt>
      <trkpt lat="46.05217" lon="6.41498">
        <ele>787</ele>
        <time>2019-07-29T10:29:44Z</time>
      </trkpt>
      <trkpt lat="46.05219" lon="6.41487">
        <ele>789</ele>
        <time>2019-07-29T10:29:48Z</time>
      </trkpt>
      <trkpt lat="46.05218" lon="6.41476">
        <ele>789</ele>
        <time>2019-07-29T10:29:52Z</time>
      </trkpt>
      <trkpt lat="46.05215" lon="6.41466">
        <ele>790</ele>
        <time>2019-07-29T10:29:56Z</time>
      </trkpt>
      <trkpt lat="46.05214" lon="6.41456">
        <ele>791</ele>
        <time>2019-07-29T10:30:00Z</time>
      </trkpt>
      <trkpt lat="46.05208" lon="6.41443">
        <ele>792</ele>
        <time>2019-07-29T10:30:04Z</time>
      </trkpt>
      <trkpt lat="46.05207" lon="6.41429">
        <ele>793</ele>
        <time>2019-07-29T10:30:08Z</time>
      </trkpt>
      <trkpt lat="46.05203" lon="6.41415">
        <ele>794</ele>
        <time>2019-07-29T10:30:12Z</time>
      </trkpt>
      <trkpt lat="46.05203" lon="6.41402">
        <ele>794</ele>
        <time>2019-07-29T10:30:16Z</time>
      </trkpt>
      <trkpt lat="46.05199" lon="6.41392">
        <ele>795</ele>
        <time>2019-07-29T10:30:20Z</time>
      </trkpt>
      <trkpt lat="46.05193" lon="6.41385">
        <ele>796</ele>
        <time>2019-07-29T10:30:24Z</time>
      </trkpt>
      <trkpt lat="46.05187" lon="6.41377">
        <ele>797</ele>
        <time>2019-07-29T10:30:28Z</time>
      </trkpt>
      <trkpt lat="46.05182" lon="6.41372">
        <ele>798</ele>
        <time>2019-07-29T10:30:32Z</time>
      </trkpt>
      <trkpt lat="46.05176" lon="6.41361">
        <ele>799</ele>
        <time>2019-07-29T10:30:36Z</time>
      </trkpt>
      <trkpt lat="46.05171" lon="6.41357">
        <ele>799</ele>
        <time>2019-07-29T10:30:40Z</time>
      </trkpt>
      <trkpt lat="46.05168" lon="6.41346">
        <ele>800</ele>
        <time>2019-07-29T10:30:44Z</time>
      </trkpt>
      <trkpt lat="46.05166" lon="6.41337">
        <ele>801</ele>
        <time>2019-07-29T10:30:48Z</time>
      </trkpt>
      <trkpt lat="46.05164" lon="6.41327">
        <ele>802</ele>
        <time>2019-07-29T10:30:52Z</time>
      </trkpt>
      <trkpt lat="46.05162" lon="6.41319">
        <ele>803</ele>
        <time>2019-07-29T10:30:56Z</time>
      </trkpt>
      <trkpt lat="46.0516" lon="6.41311">
        <ele>804</ele>
        <time>2019-07-29T10:31:00Z</time>
      </trkpt>
      <trkpt lat="46.05161" lon="6.41287">
        <ele>805</ele>
        <time>2019-07-29T10:31:04Z</time>
      </trkpt>
      <trkpt lat="46.0516" lon="6.41272">
        <ele>806</ele>
        <time>2019-07-29T10:31:08Z</time>
      </trkpt>
      <trkpt lat="46.05162" lon="6.41259">
        <ele>807</ele>
        <time>2019-07-29T10:31:12Z</time>
      </trkpt>
      <trkpt lat="46.05162" lon="6.41246">
        <ele>807</ele>
        <time>2019-07-29T10:31:16Z</time>
      </trkpt>
      <trkpt lat="46.05162" lon="6.41233">
        <ele>808</ele>
        <time>2019-07-29T10:31:20Z</time>
      </trkpt>
      <trkpt lat="46.05164" lon="6.41221">
        <ele>809</ele>
        <time>2019-07-29T10:31:24Z</time>
      </trkpt>
      <trkpt lat="46.05167" lon="6.4121">
        <ele>810</ele>
        <time>2019-07-29T10:31:28Z</time>
      </trkpt>
      <trkpt lat="46.05172" lon="6.41201">
        <ele>811</ele>
        <time>2019-07-29T10:31:32Z</time>
      </trkpt>
      <trkpt lat="46.05176" lon="6.41191">
        <ele>812</ele>
        <time>2019-07-29T10:31:36Z</time>
      </trkpt>
      <trkpt lat="46.0518" lon="6.41181">
        <ele>813</ele>
        <time>2019-07-29T10:31:40Z</time>
      </trkpt>
      <trkpt lat="46.05184" lon="6.41172">
        <ele>813</ele>
        <time>2019-07-29T10:31:44Z</time>
      </trkpt>
      <trkpt lat="46.05188" lon="6.41162">
        <ele>815</ele>
        <time>2019-07-29T10:31:48Z</time>
      </trkpt>
      <trkpt lat="46.05194" lon="6.41154">
        <ele>816</ele>
        <time>2019-07-29T10:31:52Z</time>
      </trkpt>
      <trkpt lat="46.052" lon="6.41147">
        <ele>817</ele>
        <time>2019-07-29T10:31:56Z</time>
      </trkpt>
      <trkpt lat="46.05207" lon="6.41142">
        <ele>818</ele>
        <time>2019-07-29T10:32:00Z</time>
      </trkpt>
      <trkpt lat="46.05214" lon="6.41137">
        <ele>818</ele>
        <time>2019-07-29T10:32:04Z</time>
      </trkpt>
      <trkpt lat="46.05221" lon="6.41131">
        <ele>820</ele>
        <time>2019-07-29T10:32:08Z</time>
      </trkpt>
      <trkpt lat="46.05228" lon="6.41123">
        <ele>821</ele>
        <time>2019-07-29T10:32:12Z</time>
      </trkpt>
      <trkpt lat="46.05235" lon="6.41117">
        <ele>821</ele>
        <time>2019-07-29T10:32:16Z</time>
      </trkpt>
      <trkpt lat="46.05242" lon="6.41115">
        <ele>822</ele>
        <time>2019-07-29T10:32:20Z</time>
      </trkpt>
      <trkpt lat="46.0525" lon="6.4111">
        <ele>823</ele>
        <time>2019-07-29T10:32:24Z</time>
      </trkpt>
      <trkpt lat="46.05256" lon="6.41103">
        <ele>823</ele>
        <time>2019-07-29T10:32:28Z</time>
      </trkpt>
      <trkpt lat="46.05261" lon="6.41095">
        <ele>825</ele>
        <time>2019-07-29T10:32:32Z</time>
      </trkpt>
      <trkpt lat="46.05265" lon="6.41085">
        <ele>826</ele>
        <time>2019-07-29T10:32:36Z</time>
      </trkpt>
      <trkpt lat="46.05269" lon="6.41074">
        <ele>826</ele>
        <time>2019-07-29T10:32:40Z</time>
      </trkpt>
      <trkpt lat="46.05273" lon="6.41065">
        <ele>828</ele>
        <time>2019-07-29T10:32:44Z</time>
      </trkpt>
      <trkpt lat="46.05279" lon="6.41058">
        <ele>828</ele>
        <time>2019-07-29T10:32:48Z</time>
      </trkpt>
      <trkpt lat="46.05285" lon="6.4105">
        <ele>830</ele>
        <time>2019-07-29T10:32:52Z</time>
      </trkpt>
      <trkpt lat="46.05291" lon="6.41044">
        <ele>830</ele>
        <time>2019-07-29T10:32:56Z</time>
      </trkpt>
      <trkpt lat="46.05296" lon="6.41036">
        <ele>832</ele>
        <time>2019-07-29T10:33:00Z</time>
      </trkpt>
      <trkpt lat="46.05301" lon="6.41026">
        <ele>832</ele>
        <time>2019-07-29T10:33:04Z</time>
      </trkpt>
      <trkpt lat="46.05304" lon="6.41016">
        <ele>833</ele>
        <time>2019-07-29T10:33:08Z</time>
      </trkpt>
      <trkpt lat="46.05308" lon="6.41006">
        <ele>833</ele>
        <time>2019-07-29T10:33:12Z</time>
      </trkpt>
      <trkpt lat="46.05311" lon="6.40996">
        <ele>834</ele>
        <time>2019-07-29T10:33:16Z</time>
      </trkpt>
      <trkpt lat="46.05315" lon="6.40987">
        <ele>835</ele>
        <time>2019-07-29T10:33:20Z</time>
      </trkpt>
      <trkpt lat="46.05317" lon="6.40976">
        <ele>836</ele>
        <time>2019-07-29T10:33:24Z</time>
      </trkpt>
      <trkpt lat="46.05319" lon="6.40964">
        <ele>837</ele>
        <time>2019-07-29T10:33:28Z</time>
      </trkpt>
      <trkpt lat="46.05318" lon="6.40953">
        <ele>838</ele>
        <time>2019-07-29T10:33:32Z</time>
      </trkpt>
      <trkpt lat="46.05316" lon="6.40942">
        <ele>839</ele>
        <time>2019-07-29T10:33:36Z</time>
      </trkpt>
      <trkpt lat="46.05312" lon="6.40931">
        <ele>840</ele>
        <time>2019-07-29T10:33:40Z</time>
      </trkpt>
      <trkpt lat="46.05306" lon="6.40922">
        <ele>840</ele>
        <time>2019-07-29T10:33:44Z</time>
      </trkpt>
      <trkpt lat="46.05299" lon="6.40913">
        <ele>841</ele>
        <time>2019-07-29T10:33:48Z</time>
      </trkpt>
      <trkpt lat="46.05292" lon="6.40904">
        <ele>841</ele>
        <time>2019-07-29T10:33:52Z</time>
      </trkpt>
      <trkpt lat="46.05286" lon="6.40895">
        <ele>841</ele>
        <time>2019-07-29T10:33:56Z</time>
      </trkpt>
      <trkpt lat="46.05279" lon="6.40888">
        <ele>842</ele>
        <time>2019-07-29T10:34:00Z</time>
      </trkpt>
      <trkpt lat="46.05271" lon="6.40882">
        <ele>843</ele>
        <time>2019-07-29T10:34:04Z</time>
      </trkpt>
      <trkpt lat="46.05263" lon="6.40878">
        <ele>844</ele>
        <time>2019-07-29T10:34:08Z</time>
      </trkpt>
      <trkpt lat="46.05254" lon="6.40877">
        <ele>846</ele>
        <time>2019-07-29T10:34:12Z</time>
      </trkpt>
      <trkpt lat="46.05246" lon="6.40879">
        <ele>846</ele>
        <time>2019-07-29T10:34:16Z</time>
      </trkpt>
      <trkpt lat="46.05238" lon="6.40883">
        <ele>847</ele>
        <time>2019-07-29T10:34:20Z</time>
      </trkpt>
      <trkpt lat="46.0523" lon="6.40888">
        <ele>848</ele>
        <time>2019-07-29T10:34:24Z</time>
      </trkpt>
      <trkpt lat="46.05223" lon="6.40891">
        <ele>848</ele>
        <time>2019-07-29T10:34:28Z</time>
      </trkpt>
      <trkpt lat="46.05216" lon="6.40891">
        <ele>849</ele>
        <time>2019-07-29T10:34:32Z</time>
      </trkpt>
      <trkpt lat="46.05208" lon="6.40896">
        <ele>850</ele>
        <time>2019-07-29T10:34:36Z</time>
      </trkpt>
      <trkpt lat="46.05201" lon="6.40901">
        <ele>850</ele>
        <time>2019-07-29T10:34:40Z</time>
      </trkpt>
      <trkpt lat="46.05192" lon="6.40907">
        <ele>851</ele>
        <time>2019-07-29T10:34:44Z</time>
      </trkpt>
      <trkpt lat="46.05182" lon="6.40911">
        <ele>851</ele>
        <time>2019-07-29T10:34:48Z</time>
      </trkpt>
      <trkpt lat="46.05173" lon="6.40914">
        <ele>852</ele>
        <time>2019-07-29T10:34:52Z</time>
      </trkpt>
      <trkpt lat="46.05164" lon="6.40915">
        <ele>853</ele>
        <time>2019-07-29T10:34:56Z</time>
      </trkpt>
      <trkpt lat="46.05156" lon="6.40914">
        <ele>853</ele>
        <time>2019-07-29T10:35:00Z</time>
      </trkpt>
      <trkpt lat="46.05147" lon="6.40911">
        <ele>855</ele>
        <time>2019-07-29T10:35:04Z</time>
      </trkpt>
      <trkpt lat="46.05139" lon="6.40907">
        <ele>856</ele>
        <time>2019-07-29T10:35:08Z</time>
      </trkpt>
      <trkpt lat="46.05132" lon="6.40903">
        <ele>857</ele>
        <time>2019-07-29T10:35:12Z</time>
      </trkpt>
      <trkpt lat="46.05125" lon="6.40898">
        <ele>857</ele>
        <time>2019-07-29T10:35:16Z</time>
      </trkpt>
      <trkpt lat="46.05121" lon="6.40889">
        <ele>859</ele>
        <time>2019-07-29T10:35:20Z</time>
      </trkpt>
      <trkpt lat="46.0512" lon="6.40879">
        <ele>860</ele>
        <time>2019-07-29T10:35:24Z</time>
      </trkpt>
      <trkpt lat="46.05123" lon="6.40868">
        <ele>861</ele>
        <time>2019-07-29T10:35:28Z</time>
      </trkpt>
      <trkpt lat="46.0513" lon="6.4086">
        <ele>861</ele>
        <time>2019-07-29T10:35:32Z</time>
      </trkpt>
      <trkpt lat="46.05138" lon="6.40857">
        <ele>861</ele>
        <time>2019-07-29T10:35:36Z</time>
      </trkpt>
      <trkpt lat="46.05146" lon="6.40858">
        <ele>863</ele>
        <time>2019-07-29T10:35:40Z</time>
      </trkpt>
      <trkpt lat="46.05154" lon="6.4086">
        <ele>863</ele>
        <time>2019-07-29T10:35:44Z</time>
      </trkpt>
      <trkpt lat="46.05163" lon="6.40859">
        <ele>864</ele>
        <time>2019-07-29T10:35:48Z</time>
      </trkpt>
      <trkpt lat="46.05172" lon="6.40856">
        <ele>864</ele>
        <time>2019-07-29T10:35:52Z</time>
      </trkpt>
      <trkpt lat="46.05179" lon="6.40847">
        <ele>865</ele>
        <time>2019-07-29T10:35:56Z</time>
      </trkpt>
      <trkpt lat="46.05185" lon="6.40836">
        <ele>865</ele>
        <time>2019-07-29T10:36:00Z</time>
      </trkpt>
      <trkpt lat="46.05191" lon="6.40825">
        <ele>866</ele>
        <time>2019-07-29T10:36:04Z</time>
      </trkpt>
      <trkpt lat="46.05197" lon="6.40812">
        <ele>867</ele>
        <time>2019-07-29T10:36:08Z</time>
      </trkpt>
      <trkpt lat="46.05204" lon="6.40798">
        <ele>867</ele>
        <time>2019-07-29T10:36:12Z</time>
      </trkpt>
      <trkpt lat="46.05211" lon="6.40784">
        <ele>868</ele>
        <time>2019-07-29T10:36:16Z</time>
      </trkpt>
      <trkpt lat="46.05216" lon="6.4077">
        <ele>867</ele>
        <time>2019-07-29T10:36:20Z</time>
      </trkpt>
      <trkpt lat="46.05222" lon="6.40757">
        <ele>867</ele>
        <time>2019-07-29T10:36:24Z</time>
      </trkpt>
      <trkpt lat="46.05229" lon="6.40742">
        <ele>867</ele>
        <time>2019-07-29T10:36:28Z</time>
      </trkpt>
      <trkpt lat="46.05235" lon="6.40728">
        <ele>867</ele>
        <time>2019-07-29T10:36:32Z</time>
      </trkpt>
      <trkpt lat="46.05242" lon="6.40713">
        <ele>866</ele>
        <time>2019-07-29T10:36:36Z</time>
      </trkpt>
      <trkpt lat="46.05247" lon="6.4069">
        <ele>865</ele>
        <time>2019-07-29T10:36:40Z</time>
      </trkpt>
      <trkpt lat="46.0525" lon="6.40663">
        <ele>864</ele>
        <time>2019-07-29T10:36:44Z</time>
      </trkpt>
      <trkpt lat="46.05252" lon="6.40634">
        <ele>865</ele>
        <time>2019-07-29T10:36:48Z</time>
      </trkpt>
      <trkpt lat="46.05254" lon="6.40606">
        <ele>864</ele>
        <time>2019-07-29T10:36:52Z</time>
      </trkpt>
      <trkpt lat="46.05255" lon="6.40577">
        <ele>863</ele>
        <time>2019-07-29T10:36:56Z</time>
      </trkpt>
      <trkpt lat="46.05256" lon="6.40541">
        <ele>861</ele>
        <time>2019-07-29T10:37:00Z</time>
      </trkpt>
      <trkpt lat="46.05258" lon="6.40501">
        <ele>857</ele>
        <time>2019-07-29T10:37:04Z</time>
      </trkpt>
      <trkpt lat="46.05263" lon="6.40461">
        <ele>855</ele>
        <time>2019-07-29T10:37:08Z</time>
      </trkpt>
      <trkpt lat="46.05256" lon="6.40428">
        <ele>854</ele>
        <time>2019-07-29T10:37:12Z</time>
      </trkpt>
      <trkpt lat="46.05235" lon="6.40398">
        <ele>851</ele>
        <time>2019-07-29T10:37:16Z</time>
      </trkpt>
      <trkpt lat="46.05226" lon="6.40361">
        <ele>853</ele>
        <time>2019-07-29T10:37:20Z</time>
      </trkpt>
      <trkpt lat="46.05221" lon="6.4033">
        <ele>854</ele>
        <time>2019-07-29T10:37:24Z</time>
      </trkpt>
      <trkpt lat="46.05206" lon="6.40304">
        <ele>853</ele>
        <time>2019-07-29T10:37:28Z</time>
      </trkpt>
      <trkpt lat="46.05188" lon="6.40275">
        <ele>853</ele>
        <time>2019-07-29T10:37:32Z</time>
      </trkpt>
      <trkpt lat="46.05164" lon="6.40251">
        <ele>852</ele>
        <time>2019-07-29T10:37:36Z</time>
      </trkpt>
      <trkpt lat="46.05143" lon="6.40253">
        <ele>849</ele>
        <time>2019-07-29T10:37:40Z</time>
      </trkpt>
      <trkpt lat="46.05112" lon="6.40253">
        <ele>847</ele>
        <time>2019-07-29T10:37:44Z</time>
      </trkpt>
      <trkpt lat="46.05081" lon="6.40246">
        <ele>848</ele>
        <time>2019-07-29T10:37:48Z</time>
      </trkpt>
      <trkpt lat="46.05053" lon="6.40245">
        <ele>851</ele>
        <time>2019-07-29T10:37:52Z</time>
      </trkpt>
      <trkpt lat="46.05033" lon="6.40243">
        <ele>852</ele>
        <time>2019-07-29T10:37:56Z</time>
      </trkpt>
      <trkpt lat="46.05013" lon="6.40239">
        <ele>853</ele>
        <time>2019-07-29T10:38:00Z</time>
      </trkpt>
      <trkpt lat="46.04998" lon="6.40229">
        <ele>854</ele>
        <time>2019-07-29T10:38:04Z</time>
      </trkpt>
      <trkpt lat="46.04988" lon="6.40208">
        <ele>854</ele>
        <time>2019-07-29T10:38:08Z</time>
      </trkpt>
      <trkpt lat="46.04983" lon="6.40186">
        <ele>855</ele>
        <time>2019-07-29T10:38:12Z</time>
      </trkpt>
      <trkpt lat="46.04975" lon="6.40165">
        <ele>856</ele>
        <time>2019-07-29T10:38:16Z</time>
      </trkpt>
      <trkpt lat="46.04967" lon="6.40142">
        <ele>856</ele>
        <time>2019-07-29T10:38:20Z</time>
      </trkpt>
      <trkpt lat="46.04959" lon="6.40119">
        <ele>856</ele>
        <time>2019-07-29T10:38:24Z</time>
      </trkpt>
      <trkpt lat="46.04949" lon="6.40095">
        <ele>856</ele>
        <time>2019-07-29T10:38:28Z</time>
      </trkpt>
      <trkpt lat="46.04941" lon="6.40072">
        <ele>856</ele>
        <time>2019-07-29T10:38:32Z</time>
      </trkpt>
      <trkpt lat="46.04933" lon="6.40049">
        <ele>856</ele>
        <time>2019-07-29T10:38:36Z</time>
      </trkpt>
      <trkpt lat="46.04928" lon="6.40027">
        <ele>856</ele>
        <time>2019-07-29T10:38:40Z</time>
      </trkpt>
      <trkpt lat="46.04921" lon="6.4001">
        <ele>856</ele>
        <time>2019-07-29T10:38:44Z</time>
      </trkpt>
      <trkpt lat="46.04913" lon="6.39998">
        <ele>854</ele>
        <time>2019-07-29T10:38:48Z</time>
      </trkpt>
      <trkpt lat="46.04903" lon="6.39991">
        <ele>853</ele>
        <time>2019-07-29T10:38:52Z</time>
      </trkpt>
      <trkpt lat="46.04894" lon="6.39986">
        <ele>852</ele>
        <time>2019-07-29T10:38:56Z</time>
      </trkpt>
      <trkpt lat="46.04885" lon="6.39985">
        <ele>851</ele>
        <time>2019-07-29T10:39:00Z</time>
      </trkpt>
      <trkpt lat="46.04877" lon="6.39987">
        <ele>851</ele>
        <time>2019-07-29T10:39:04Z</time>
      </trkpt>
      <trkpt lat="46.04868" lon="6.39984">
        <ele>850</ele>
        <time>2019-07-29T10:39:08Z</time>
      </trkpt>
      <trkpt lat="46.04858" lon="6.39984">
        <ele>848</ele>
        <time>2019-07-29T10:39:12Z</time>
      </trkpt>
      <trkpt lat="46.04847" lon="6.39979">
        <ele>848</ele>
        <time>2019-07-29T10:39:16Z</time>
      </trkpt>
      <trkpt lat="46.04837" lon="6.39972">
        <ele>847</ele>
        <time>2019-07-29T10:39:20Z</time>
      </trkpt>
      <trkpt lat="46.04824" lon="6.39964">
        <ele>845</ele>
        <time>2019-07-29T10:39:24Z</time>
      </trkpt>
      <trkpt lat="46.04813" lon="6.3996">
        <ele>845</ele>
        <time>2019-07-29T10:39:28Z</time>
      </trkpt>
      <trkpt lat="46.04801" lon="6.39957">
        <ele>844</ele>
        <time>2019-07-29T10:39:32Z</time>
      </trkpt>
      <trkpt lat="46.0479" lon="6.3995">
        <ele>843</ele>
        <time>2019-07-29T10:39:36Z</time>
      </trkpt>
      <trkpt lat="46.04781" lon="6.39939">
        <ele>842</ele>
        <time>2019-07-29T10:39:40Z</time>
      </trkpt>
      <trkpt lat="46.04773" lon="6.39924">
        <ele>841</ele>
        <time>2019-07-29T10:39:44Z</time>
      </trkpt>
      <trkpt lat="46.04767" lon="6.39913">
        <ele>840</ele>
        <time>2019-07-29T10:39:48Z</time>
      </trkpt>
      <trkpt lat="46.04757" lon="6.39902">
        <ele>840</ele>
        <time>2019-07-29T10:39:52Z</time>
      </trkpt>
      <trkpt lat="46.0475" lon="6.39891">
        <ele>839</ele>
        <time>2019-07-29T10:39:56Z</time>
      </trkpt>
      <trkpt lat="46.04749" lon="6.39875">
        <ele>839</ele>
        <time>2019-07-29T10:40:00Z</time>
      </trkpt>
      <trkpt lat="46.04753" lon="6.39861">
        <ele>838</ele>
        <time>2019-07-29T10:40:04Z</time>
      </trkpt>
      <trkpt lat="46.04758" lon="6.39848">
        <ele>836</ele>
        <time>2019-07-29T10:40:08Z</time>
      </trkpt>
      <trkpt lat="46.04764" lon="6.39835">
        <ele>835</ele>
        <time>2019-07-29T10:40:12Z</time>
      </trkpt>
      <trkpt lat="46.04768" lon="6.39822">
        <ele>833</ele>
        <time>2019-07-29T10:40:16Z</time>
      </trkpt>
      <trkpt lat="46.04768" lon="6.39808">
        <ele>832</ele>
        <time>2019-07-29T10:40:20Z</time>
      </trkpt>
      <trkpt lat="46.04772" lon="6.39788">
        <ele>830</ele>
        <time>2019-07-29T10:40:24Z</time>
      </trkpt>
      <trkpt lat="46.04776" lon="6.39771">
        <ele>829</ele>
        <time>2019-07-29T10:40:28Z</time>
      </trkpt>
      <trkpt lat="46.04782" lon="6.39755">
        <ele>828</ele>
        <time>2019-07-29T10:40:32Z</time>
      </trkpt>
      <trkpt lat="46.04788" lon="6.39734">
        <ele>827</ele>
        <time>2019-07-29T10:40:36Z</time>
      </trkpt>
      <trkpt lat="46.04798" lon="6.39713">
        <ele>827</ele>
        <time>2019-07-29T10:40:40Z</time>
      </trkpt>
      <trkpt lat="46.04806" lon="6.39696">
        <ele>827</ele>
        <time>2019-07-29T10:40:44Z</time>
      </trkpt>
      <trkpt lat="46.04815" lon="6.39679">
        <ele>827</ele>
        <time>2019-07-29T10:40:48Z</time>
      </trkpt>
      <trkpt lat="46.04821" lon="6.39659">
        <ele>827</ele>
        <time>2019-07-29T10:40:52Z</time>
      </trkpt>
      <trkpt lat="46.04828" lon="6.3964">
        <ele>828</ele>
        <time>2019-07-29T10:40:56Z</time>
      </trkpt>
      <trkpt lat="46.04836" lon="6.39619">
        <ele>828</ele>
        <time>2019-07-29T10:41:00Z</time>
      </trkpt>
      <trkpt lat="46.04841" lon="6.396">
        <ele>828</ele>
        <time>2019-07-29T10:41:04Z</time>
      </trkpt>
      <trkpt lat="46.04843" lon="6.39577">
        <ele>829</ele>
        <time>2019-07-29T10:41:08Z</time>
      </trkpt>
      <trkpt lat="46.04841" lon="6.39558">
        <ele>829</ele>
        <time>2019-07-29T10:41:12Z</time>
      </trkpt>
      <trkpt lat="46.04837" lon="6.39542">
        <ele>830</ele>
        <time>2019-07-29T10:41:16Z</time>
      </trkpt>
      <trkpt lat="46.04829" lon="6.39523">
        <ele>831</ele>
        <time>2019-07-29T10:41:20Z</time>
      </trkpt>
      <trkpt lat="46.04821" lon="6.39508">
        <ele>831</ele>
        <time>2019-07-29T10:41:24Z</time>
      </trkpt>
      <trkpt lat="46.04813" lon="6.39498">
        <ele>832</ele>
        <time>2019-07-29T10:41:28Z</time>
      </trkpt>
      <trkpt lat="46.04807" lon="6.39486">
        <ele>833</ele>
        <time>2019-07-29T10:41:32Z</time>
      </trkpt>
      <trkpt lat="46.048" lon="6.39474">
        <ele>833</ele>
        <time>2019-07-29T10:41:36Z</time>
      </trkpt>
      <trkpt lat="46.04795" lon="6.39457">
        <ele>833</ele>
        <time>2019-07-29T10:41:40Z</time>
      </trkpt>
      <trkpt lat="46.04792" lon="6.39439">
        <ele>833</ele>
        <time>2019-07-29T10:41:44Z</time>
      </trkpt>
      <trkpt lat="46.0479" lon="6.39419">
        <ele>831</ele>
        <time>2019-07-29T10:41:48Z</time>
      </trkpt>
      <trkpt lat="46.04788" lon="6.39393">
        <ele>831</ele>
        <time>2019-07-29T10:41:52Z</time>
      </trkpt>
      <trkpt lat="46.04784" lon="6.39369">
        <ele>831</ele>
        <time>2019-07-29T10:41:56Z</time>
      </trkpt>
      <trkpt lat="46.0478" lon="6.39352">
        <ele>833</ele>
        <time>2019-07-29T10:42:00Z</time>
      </trkpt>
      <trkpt lat="46.04772" lon="6.39341">
        <ele>833</ele>
        <time>2019-07-29T10:42:04Z</time>
      </trkpt>
      <trkpt lat="46.04761" lon="6.39334">
        <ele>832</ele>
        <time>2019-07-29T10:42:08Z</time>
      </trkpt>
      <trkpt lat="46.04744" lon="6.39326">
        <ele>831</ele>
        <time>2019-07-29T10:42:12Z</time>
      </trkpt>
      <trkpt lat="46.04727" lon="6.39324">
        <ele>832</ele>
        <time>2019-07-29T10:42:16Z</time>
      </trkpt>
      <trkpt lat="46.04713" lon="6.39327">
        <ele>832</ele>
        <time>2019-07-29T10:42:20Z</time>
      </trkpt>
      <trkpt lat="46.04698" lon="6.3933">
        <ele>832</ele>
        <time>2019-07-29T10:42:24Z</time>
      </trkpt>
      <trkpt lat="46.04683" lon="6.39334">
        <ele>832</ele>
        <time>2019-07-29T10:42:28Z</time>
      </trkpt>
      <trkpt lat="46.04668" lon="6.39338">
        <ele>832</ele>
        <time>2019-07-29T10:42:32Z</time>
      </trkpt>
      <trkpt lat="46.04653" lon="6.39341">
        <ele>832</ele>
        <time>2019-07-29T10:42:36Z</time>
      </trkpt>
      <trkpt lat="46.04637" lon="6.39347">
        <ele>833</ele>
        <time>2019-07-29T10:42:40Z</time>
      </trkpt>
      <trkpt lat="46.04622" lon="6.39349">
        <ele>832</ele>
        <time>2019-07-29T10:42:44Z</time>
      </trkpt>
      <trkpt lat="46.04605" lon="6.39351">
        <ele>833</ele>
        <time>2019-07-29T10:42:48Z</time>
      </trkpt>
      <trkpt lat="46.04587" lon="6.39349">
        <ele>833</ele>
        <time>2019-07-29T10:42:52Z</time>
      </trkpt>
      <trkpt lat="46.0457" lon="6.39343">
        <ele>831</ele>
        <time>2019-07-29T10:42:56Z</time>
      </trkpt>
      <trkpt lat="46.04555" lon="6.39339">
        <ele>831</ele>
        <time>2019-07-29T10:43:00Z</time>
      </trkpt>
      <trkpt lat="46.04536" lon="6.39341">
        <ele>830</ele>
        <time>2019-07-29T10:43:04Z</time>
      </trkpt>
      <trkpt lat="46.04517" lon="6.39347">
        <ele>830</ele>
        <time>2019-07-29T10:43:08Z</time>
      </trkpt>
      <trkpt lat="46.04498" lon="6.39355">
        <ele>830</ele>
        <time>2019-07-29T10:43:12Z</time>
      </trkpt>
      <trkpt lat="46.0448" lon="6.39365">
        <ele>830</ele>
        <time>2019-07-29T10:43:16Z</time>
      </trkpt>
      <trkpt lat="46.04465" lon="6.39376">
        <ele>829</ele>
        <time>2019-07-29T10:43:20Z</time>
      </trkpt>
      <trkpt lat="46.04453" lon="6.39387">
        <ele>828</ele>
        <time>2019-07-29T10:43:24Z</time>
      </trkpt>
      <trkpt lat="46.04439" lon="6.3938">
        <ele>827</ele>
        <time>2019-07-29T10:43:28Z</time>
      </trkpt>
      <trkpt lat="46.04424" lon="6.39379">
        <ele>824</ele>
        <time>2019-07-29T10:43:32Z</time>
      </trkpt>
      <trkpt lat="46.04413" lon="6.39375">
        <ele>823</ele>
        <time>2019-07-29T10:43:36Z</time>
      </trkpt>
      <trkpt lat="46.04403" lon="6.39375">
        <ele>821</ele>
        <time>2019-07-29T10:43:40Z</time>
      </trkpt>
      <trkpt lat="46.04395" lon="6.39384">
        <ele>818</ele>
        <time>2019-07-29T10:43:44Z</time>
      </trkpt>
      <trkpt lat="46.04388" lon="6.39392">
        <ele>814</ele>
        <time>2019-07-29T10:43:48Z</time>
      </trkpt>
      <trkpt lat="46.04376" lon="6.39405">
        <ele>811</ele>
        <time>2019-07-29T10:43:52Z</time>
      </trkpt>
      <trkpt lat="46.04361" lon="6.39419">
        <ele>809</ele>
        <time>2019-07-29T10:43:56Z</time>
      </trkpt>
      <trkpt lat="46.04347" lon="6.39431">
        <ele>807</ele>
        <time>2019-07-29T10:44:00Z</time>
      </trkpt>
      <trkpt lat="46.04338" lon="6.3944">
        <ele>805</ele>
        <time>2019-07-29T10:44:04Z</time>
      </trkpt>
      <trkpt lat="46.04332" lon="6.39447">
        <ele>804</ele>
        <time>2019-07-29T10:44:08Z</time>
      </trkpt>
      <trkpt lat="46.04327" lon="6.39446">
        <ele>802</ele>
        <time>2019-07-29T10:44:12Z</time>
      </trkpt>
      <trkpt lat="46.0433" lon="6.39434">
        <ele>801</ele>
        <time>2019-07-29T10:44:16Z</time>
      </trkpt>
      <trkpt lat="46.04337" lon="6.39425">
        <ele>798</ele>
        <time>2019-07-29T10:44:20Z</time>
      </trkpt>
      <trkpt lat="46.04345" lon="6.3942">
        <ele>796</ele>
        <time>2019-07-29T10:44:24Z</time>
      </trkpt>
      <trkpt lat="46.0435" lon="6.39409">
        <ele>794</ele>
        <time>2019-07-29T10:44:28Z</time>
      </trkpt>
      <trkpt lat="46.04355" lon="6.39396">
        <ele>791</ele>
        <time>2019-07-29T10:44:32Z</time>
      </trkpt>
      <trkpt lat="46.04359" lon="6.39377">
        <ele>789</ele>
        <time>2019-07-29T10:44:36Z</time>
      </trkpt>
      <trkpt lat="46.04363" lon="6.39359">
        <ele>787</ele>
        <time>2019-07-29T10:44:40Z</time>
      </trkpt>
      <trkpt lat="46.04369" lon="6.39348">
        <ele>786</ele>
        <time>2019-07-29T10:44:44Z</time>
      </trkpt>
      <trkpt lat="46.04373" lon="6.39335">
        <ele>785</ele>
        <time>2019-07-29T10:44:48Z</time>
      </trkpt>
      <trkpt lat="46.04371" lon="6.39316">
        <ele>783</ele>
        <time>2019-07-29T10:44:52Z</time>
      </trkpt>
      <trkpt lat="46.04363" lon="6.39303">
        <ele>781</ele>
        <time>2019-07-29T10:44:56Z</time>
      </trkpt>
      <trkpt lat="46.04354" lon="6.3929">
        <ele>780</ele>
        <time>2019-07-29T10:45:00Z</time>
      </trkpt>
      <trkpt lat="46.04347" lon="6.39279">
        <ele>779</ele>
        <time>2019-07-29T10:45:04Z</time>
      </trkpt>
      <trkpt lat="46.04339" lon="6.39266">
        <ele>777</ele>
        <time>2019-07-29T10:45:08Z</time>
      </trkpt>
      <trkpt lat="46.04329" lon="6.39254">
        <ele>776</ele>
        <time>2019-07-29T10:45:12Z</time>
      </trkpt>
      <trkpt lat="46.04327" lon="6.39239">
        <ele>773</ele>
        <time>2019-07-29T10:45:16Z</time>
      </trkpt>
      <trkpt lat="46.04332" lon="6.39222">
        <ele>772</ele>
        <time>2019-07-29T10:45:20Z</time>
      </trkpt>
      <trkpt lat="46.04331" lon="6.39201">
        <ele>770</ele>
        <time>2019-07-29T10:45:24Z</time>
      </trkpt>
      <trkpt lat="46.04328" lon="6.39186">
        <ele>769</ele>
        <time>2019-07-29T10:45:28Z</time>
      </trkpt>
      <trkpt lat="46.04329" lon="6.39164">
        <ele>767</ele>
        <time>2019-07-29T10:45:32Z</time>
      </trkpt>
      <trkpt lat="46.04325" lon="6.39141">
        <ele>766</ele>
        <time>2019-07-29T10:45:36Z</time>
      </trkpt>
      <trkpt lat="46.04308" lon="6.39126">
        <ele>765</ele>
        <time>2019-07-29T10:45:40Z</time>
      </trkpt>
      <trkpt lat="46.04295" lon="6.39109">
        <ele>764</ele>
        <time>2019-07-29T10:45:44Z</time>
      </trkpt>
      <trkpt lat="46.04284" lon="6.39088">
        <ele>763</ele>
        <time>2019-07-29T10:45:48Z</time>
      </trkpt>
      <trkpt lat="46.04271" lon="6.39081">
        <ele>762</ele>
        <time>2019-07-29T10:45:52Z</time>
      </trkpt>
      <trkpt lat="46.04259" lon="6.39083">
        <ele>760</ele>
        <time>2019-07-29T10:45:56Z</time>
      </trkpt>
      <trkpt lat="46.04247" lon="6.39079">
        <ele>757</ele>
        <time>2019-07-29T10:46:00Z</time>
      </trkpt>
      <trkpt lat="46.04237" lon="6.39068">
        <ele>755</ele>
        <time>2019-07-29T10:46:04Z</time>
      </trkpt>
      <trkpt lat="46.04225" lon="6.39062">
        <ele>751</ele>
        <time>2019-07-29T10:46:08Z</time>
      </trkpt>
      <trkpt lat="46.04211" lon="6.39057">
        <ele>748</ele>
        <time>2019-07-29T10:46:12Z</time>
      </trkpt>
      <trkpt lat="46.04204" lon="6.39047">
        <ele>746</ele>
        <time>2019-07-29T10:46:16Z</time>
      </trkpt>
      <trkpt lat="46.04198" lon="6.39034">
        <ele>743</ele>
        <time>2019-07-29T10:46:20Z</time>
      </trkpt>
      <trkpt lat="46.04185" lon="6.39016">
        <ele>740</ele>
        <time>2019-07-29T10:46:24Z</time>
      </trkpt>
      <trkpt lat="46.04175" lon="6.38991">
        <ele>738</ele>
        <time>2019-07-29T10:46:28Z</time>
      </trkpt>
      <trkpt lat="46.04166" lon="6.38965">
        <ele>734</ele>
        <time>2019-07-29T10:46:32Z</time>
      </trkpt>
      <trkpt lat="46.04153" lon="6.38946">
        <ele>731</ele>
        <time>2019-07-29T10:46:36Z</time>
      </trkpt>
      <trkpt lat="46.04136" lon="6.38937">
        <ele>729</ele>
        <time>2019-07-29T10:46:40Z</time>
      </trkpt>
      <trkpt lat="46.0412" lon="6.38935">
        <ele>728</ele>
        <time>2019-07-29T10:46:44Z</time>
      </trkpt>
      <trkpt lat="46.04105" lon="6.38933">
        <ele>726</ele>
        <time>2019-07-29T10:46:48Z</time>
      </trkpt>
      <trkpt lat="46.04096" lon="6.3893">
        <ele>724</ele>
        <time>2019-07-29T10:46:52Z</time>
      </trkpt>
      <trkpt lat="46.04086" lon="6.38924">
        <ele>722</ele>
        <time>2019-07-29T10:46:56Z</time>
      </trkpt>
      <trkpt lat="46.04074" lon="6.3892">
        <ele>719</ele>
        <time>2019-07-29T10:47:00Z</time>
      </trkpt>
      <trkpt lat="46.04063" lon="6.38915">
        <ele>717</ele>
        <time>2019-07-29T10:47:04Z</time>
      </trkpt>
      <trkpt lat="46.04051" lon="6.38909">
        <ele>715</ele>
        <time>2019-07-29T10:47:08Z</time>
      </trkpt>
      <trkpt lat="46.04041" lon="6.38906">
        <ele>713</ele>
        <time>2019-07-29T10:47:12Z</time>
      </trkpt>
      <trkpt lat="46.0403" lon="6.38892">
        <ele>711</ele>
        <time>2019-07-29T10:47:16Z</time>
      </trkpt>
      <trkpt lat="46.04022" lon="6.38877">
        <ele>709</ele>
        <time>2019-07-29T10:47:20Z</time>
      </trkpt>
      <trkpt lat="46.04018" lon="6.38863">
        <ele>707</ele>
        <time>2019-07-29T10:47:24Z</time>
      </trkpt>
      <trkpt lat="46.04013" lon="6.38849">
        <ele>705</ele>
        <time>2019-07-29T10:47:28Z</time>
      </trkpt>
      <trkpt lat="46.04008" lon="6.38833">
        <ele>704</ele>
        <time>2019-07-29T10:47:32Z</time>
      </trkpt>
      <trkpt lat="46.03999" lon="6.38826">
        <ele>701</ele>
        <time>2019-07-29T10:47:36Z</time>
      </trkpt>
      <trkpt lat="46.03993" lon="6.38831">
        <ele>700</ele>
        <time>2019-07-29T10:47:40Z</time>
      </trkpt>
      <trkpt lat="46.03987" lon="6.38844">
        <ele>697</ele>
        <time>2019-07-29T10:47:44Z</time>
      </trkpt>
      <trkpt lat="46.0398" lon="6.38859">
        <ele>694</ele>
        <time>2019-07-29T10:47:48Z</time>
      </trkpt>
      <trkpt lat="46.03977" lon="6.38876">
        <ele>692</ele>
        <time>2019-07-29T10:47:52Z</time>
      </trkpt>
      <trkpt lat="46.03976" lon="6.38893">
        <ele>690</ele>
        <time>2019-07-29T10:47:56Z</time>
      </trkpt>
      <trkpt lat="46.03974" lon="6.38908">
        <ele>688</ele>
        <time>2019-07-29T10:48:00Z</time>
      </trkpt>
      <trkpt lat="46.03978" lon="6.38925">
        <ele>686</ele>
        <time>2019-07-29T10:48:04Z</time>
      </trkpt>
      <trkpt lat="46.0398" lon="6.38941">
        <ele>683</ele>
        <time>2019-07-29T10:48:08Z</time>
      </trkpt>
      <trkpt lat="46.03979" lon="6.38953">
        <ele>683</ele>
        <time>2019-07-29T10:48:12Z</time>
      </trkpt>
      <trkpt lat="46.03975" lon="6.38964">
        <ele>683</ele>
        <time>2019-07-29T10:48:32Z</time>
      </trkpt>
      <trkpt lat="46.03979" lon="6.38972">
        <ele>681</ele>
        <time>2019-07-29T10:48:36Z</time>
      </trkpt>
      <trkpt lat="46.03983" lon="6.38986">
        <ele>679</ele>
        <time>2019-07-29T10:48:40Z</time>
      </trkpt>
      <trkpt lat="46.03992" lon="6.38996">
        <ele>677</ele>
        <time>2019-07-29T10:48:44Z</time>
      </trkpt>
      <trkpt lat="46.04" lon="6.39005">
        <ele>676</ele>
        <time>2019-07-29T10:48:48Z</time>
      </trkpt>
      <trkpt lat="46.04004" lon="6.39012">
        <ele>674</ele>
        <time>2019-07-29T10:48:56Z</time>
      </trkpt>
      <trkpt lat="46.04008" lon="6.3902">
        <ele>672</ele>
        <time>2019-07-29T10:49:00Z</time>
      </trkpt>
      <trkpt lat="46.04009" lon="6.39039">
        <ele>670</ele>
        <time>2019-07-29T10:49:04Z</time>
      </trkpt>
      <trkpt lat="46.04008" lon="6.39063">
        <ele>668</ele>
        <time>2019-07-29T10:49:08Z</time>
      </trkpt>
      <trkpt lat="46.04011" lon="6.39083">
        <ele>666</ele>
        <time>2019-07-29T10:49:12Z</time>
      </trkpt>
      <trkpt lat="46.04006" lon="6.39092">
        <ele>665</ele>
        <time>2019-07-29T10:49:16Z</time>
      </trkpt>
      <trkpt lat="46.03998" lon="6.39078">
        <ele>662</ele>
        <time>2019-07-29T10:49:20Z</time>
      </trkpt>
      <trkpt lat="46.03992" lon="6.39063">
        <ele>660</ele>
        <time>2019-07-29T10:49:24Z</time>
      </trkpt>
      <trkpt lat="46.03989" lon="6.39048">
        <ele>659</ele>
        <time>2019-07-29T10:49:28Z</time>
      </trkpt>
      <trkpt lat="46.03982" lon="6.3906">
        <ele>656</ele>
        <time>2019-07-29T10:49:32Z</time>
      </trkpt>
      <trkpt lat="46.03981" lon="6.39075">
        <ele>653</ele>
        <time>2019-07-29T10:49:36Z</time>
      </trkpt>
      <trkpt lat="46.03985" lon="6.3909">
        <ele>652</ele>
        <time>2019-07-29T10:49:40Z</time>
      </trkpt>
      <trkpt lat="46.0399" lon="6.39102">
        <ele>650</ele>
        <time>2019-07-29T10:49:44Z</time>
      </trkpt>
      <trkpt lat="46.03994" lon="6.39116">
        <ele>648</ele>
        <time>2019-07-29T10:49:48Z</time>
      </trkpt>
      <trkpt lat="46.0399" lon="6.39122">
        <ele>646</ele>
        <time>2019-07-29T10:49:52Z</time>
      </trkpt>
      <trkpt lat="46.03983" lon="6.39114">
        <ele>644</ele>
        <time>2019-07-29T10:49:56Z</time>
      </trkpt>
      <trkpt lat="46.0397" lon="6.39105">
        <ele>642</ele>
        <time>2019-07-29T10:50:00Z</time>
      </trkpt>
      <trkpt lat="46.03959" lon="6.39096">
        <ele>639</ele>
        <time>2019-07-29T10:50:04Z</time>
      </trkpt>
      <trkpt lat="46.03953" lon="6.39084">
        <ele>637</ele>
        <time>2019-07-29T10:50:08Z</time>
      </trkpt>
      <trkpt lat="46.03945" lon="6.39076">
        <ele>635</ele>
        <time>2019-07-29T10:50:12Z</time>
      </trkpt>
      <trkpt lat="46.03937" lon="6.39063">
        <ele>632</ele>
        <time>2019-07-29T10:50:16Z</time>
      </trkpt>
      <trkpt lat="46.03929" lon="6.39051">
        <ele>629</ele>
        <time>2019-07-29T10:50:20Z</time>
      </trkpt>
      <trkpt lat="46.03922" lon="6.39038">
        <ele>627</ele>
        <time>2019-07-29T10:50:24Z</time>
      </trkpt>
      <trkpt lat="46.03915" lon="6.39024">
        <ele>624</ele>
        <time>2019-07-29T10:50:28Z</time>
      </trkpt>
      <trkpt lat="46.03906" lon="6.39013">
        <ele>623</ele>
        <time>2019-07-29T10:50:32Z</time>
      </trkpt>
      <trkpt lat="46.03902" lon="6.39013">
        <ele>623</ele>
        <time>2019-07-29T10:50:36Z</time>
      </trkpt>
      <trkpt lat="46.03906" lon="6.39013">
        <ele>622</ele>
        <time>2019-07-29T10:50:48Z</time>
      </trkpt>
      <trkpt lat="46.0391" lon="6.39023">
        <ele>621</ele>
        <time>2019-07-29T10:50:52Z</time>
      </trkpt>
      <trkpt lat="46.03913" lon="6.39041">
        <ele>619</ele>
        <time>2019-07-29T10:50:56Z</time>
      </trkpt>
      <trkpt lat="46.03913" lon="6.39069">
        <ele>616</ele>
        <time>2019-07-29T10:51:00Z</time>
      </trkpt>
      <trkpt lat="46.0392" lon="6.39099">
        <ele>614</ele>
        <time>2019-07-29T10:51:04Z</time>
      </trkpt>
      <trkpt lat="46.03918" lon="6.39126">
        <ele>612</ele>
        <time>2019-07-29T10:51:08Z</time>
      </trkpt>
      <trkpt lat="46.03907" lon="6.39144">
        <ele>611</ele>
        <time>2019-07-29T10:51:12Z</time>
      </trkpt>
      <trkpt lat="46.03891" lon="6.39152">
        <ele>610</ele>
        <time>2019-07-29T10:51:16Z</time>
      </trkpt>
      <trkpt lat="46.03869" lon="6.39149">
        <ele>608</ele>
        <time>2019-07-29T10:51:20Z</time>
      </trkpt>
      <trkpt lat="46.03845" lon="6.39155">
        <ele>606</ele>
        <time>2019-07-29T10:51:24Z</time>
      </trkpt>
      <trkpt lat="46.03821" lon="6.39164">
        <ele>604</ele>
        <time>2019-07-29T10:51:28Z</time>
      </trkpt>
      <trkpt lat="46.03794" lon="6.39164">
        <ele>601</ele>
        <time>2019-07-29T10:51:32Z</time>
      </trkpt>
      <trkpt lat="46.03768" lon="6.39162">
        <ele>599</ele>
        <time>2019-07-29T10:51:36Z</time>
      </trkpt>
      <trkpt lat="46.03746" lon="6.39171">
        <ele>597</ele>
        <time>2019-07-29T10:51:40Z</time>
      </trkpt>
      <trkpt lat="46.03725" lon="6.39172">
        <ele>597</ele>
        <time>2019-07-29T10:51:44Z</time>
      </trkpt>
      <trkpt lat="46.03715" lon="6.39179">
        <ele>598</ele>
        <time>2019-07-29T10:51:52Z</time>
      </trkpt>
      <trkpt lat="46.03709" lon="6.39174">
        <ele>598</ele>
        <time>2019-07-29T10:53:44Z</time>
      </trkpt>
      <trkpt lat="46.03711" lon="6.39174">
        <ele>597</ele>
        <time>2019-07-29T10:53:52Z</time>
      </trkpt>
      <trkpt lat="46.03704" lon="6.39179">
        <ele>596</ele>
        <time>2019-07-29T10:53:56Z</time>
      </trkpt>
      <trkpt lat="46.03693" lon="6.39189">
        <ele>595</ele>
        <time>2019-07-29T10:54:00Z</time>
      </trkpt>
      <trkpt lat="46.0368" lon="6.39196">
        <ele>593</ele>
        <time>2019-07-29T10:54:04Z</time>
      </trkpt>
      <trkpt lat="46.03676" lon="6.3918">
        <ele>592</ele>
        <time>2019-07-29T10:54:08Z</time>
      </trkpt>
      <trkpt lat="46.03688" lon="6.39162">
        <ele>590</ele>
        <time>2019-07-29T10:54:12Z</time>
      </trkpt>
      <trkpt lat="46.03704" lon="6.39146">
        <ele>589</ele>
        <time>2019-07-29T10:54:16Z</time>
      </trkpt>
      <trkpt lat="46.03719" lon="6.39126">
        <ele>587</ele>
        <time>2019-07-29T10:54:20Z</time>
      </trkpt>
      <trkpt lat="46.03735" lon="6.39098">
        <ele>584</ele>
        <time>2019-07-29T10:54:24Z</time>
      </trkpt>
      <trkpt lat="46.03756" lon="6.39069">
        <ele>581</ele>
        <time>2019-07-29T10:54:28Z</time>
      </trkpt>
      <trkpt lat="46.03778" lon="6.39053">
        <ele>579</ele>
        <time>2019-07-29T10:54:32Z</time>
      </trkpt>
      <trkpt lat="46.03803" lon="6.39051">
        <ele>578</ele>
        <time>2019-07-29T10:54:36Z</time>
      </trkpt>
      <trkpt lat="46.03821" lon="6.39037">
        <ele>577</ele>
        <time>2019-07-29T10:54:40Z</time>
      </trkpt>
      <trkpt lat="46.03826" lon="6.3901">
        <ele>575</ele>
        <time>2019-07-29T10:54:44Z</time>
      </trkpt>
      <trkpt lat="46.03824" lon="6.38975">
        <ele>571</ele>
        <time>2019-07-29T10:54:48Z</time>
      </trkpt>
      <trkpt lat="46.03817" lon="6.38936">
        <ele>568</ele>
        <time>2019-07-29T10:54:52Z</time>
      </trkpt>
      <trkpt lat="46.03805" lon="6.38902">
        <ele>566</ele>
        <time>2019-07-29T10:54:56Z</time>
      </trkpt>
      <trkpt lat="46.03798" lon="6.38866">
        <ele>564</ele>
        <time>2019-07-29T10:55:00Z</time>
      </trkpt>
      <trkpt lat="46.03794" lon="6.38824">
        <ele>561</ele>
        <time>2019-07-29T10:55:04Z</time>
      </trkpt>
      <trkpt lat="46.03796" lon="6.3879">
        <ele>557</ele>
        <time>2019-07-29T10:55:08Z</time>
      </trkpt>
      <trkpt lat="46.03795" lon="6.38743">
        <ele>554</ele>
        <time>2019-07-29T10:55:12Z</time>
      </trkpt>
      <trkpt lat="46.03798" lon="6.38693">
        <ele>554</ele>
        <time>2019-07-29T10:55:16Z</time>
      </trkpt>
      <trkpt lat="46.03791" lon="6.38661">
        <ele>553</ele>
        <time>2019-07-29T10:55:20Z</time>
      </trkpt>
      <trkpt lat="46.03776" lon="6.38669">
        <ele>551</ele>
        <time>2019-07-29T10:55:24Z</time>
      </trkpt>
      <trkpt lat="46.03775" lon="6.387">
        <ele>550</ele>
        <time>2019-07-29T10:55:28Z</time>
      </trkpt>
      <trkpt lat="46.03777" lon="6.38724">
        <ele>548</ele>
        <time>2019-07-29T10:55:32Z</time>
      </trkpt>
      <trkpt lat="46.03778" lon="6.38748">
        <ele>545</ele>
        <time>2019-07-29T10:55:36Z</time>
      </trkpt>
      <trkpt lat="46.03766" lon="6.38789">
        <ele>544</ele>
        <time>2019-07-29T10:55:40Z</time>
      </trkpt>
      <trkpt lat="46.03751" lon="6.38832">
        <ele>541</ele>
        <time>2019-07-29T10:55:44Z</time>
      </trkpt>
      <trkpt lat="46.03738" lon="6.38872">
        <ele>540</ele>
        <time>2019-07-29T10:55:48Z</time>
      </trkpt>
      <trkpt lat="46.03727" lon="6.38905">
        <ele>539</ele>
        <time>2019-07-29T10:55:52Z</time>
      </trkpt>
      <trkpt lat="46.03709" lon="6.38932">
        <ele>537</ele>
        <time>2019-07-29T10:55:56Z</time>
      </trkpt>
      <trkpt lat="46.0369" lon="6.38947">
        <ele>535</ele>
        <time>2019-07-29T10:56:00Z</time>
      </trkpt>
      <trkpt lat="46.03664" lon="6.38955">
        <ele>532</ele>
        <time>2019-07-29T10:56:04Z</time>
      </trkpt>
      <trkpt lat="46.03641" lon="6.38959">
        <ele>532</ele>
        <time>2019-07-29T10:56:08Z</time>
      </trkpt>
      <trkpt lat="46.03638" lon="6.38937">
        <ele>530</ele>
        <time>2019-07-29T10:56:12Z</time>
      </trkpt>
      <trkpt lat="46.0366" lon="6.38921">
        <ele>529</ele>
        <time>2019-07-29T10:56:16Z</time>
      </trkpt>
      <trkpt lat="46.03675" lon="6.38903">
        <ele>528</ele>
        <time>2019-07-29T10:56:20Z</time>
      </trkpt>
      <trkpt lat="46.03683" lon="6.38878">
        <ele>527</ele>
        <time>2019-07-29T10:56:24Z</time>
      </trkpt>
      <trkpt lat="46.03693" lon="6.38845">
        <ele>525</ele>
        <time>2019-07-29T10:56:28Z</time>
      </trkpt>
      <trkpt lat="46.03704" lon="6.38805">
        <ele>523</ele>
        <time>2019-07-29T10:56:32Z</time>
      </trkpt>
      <trkpt lat="46.03713" lon="6.38766">
        <ele>523</ele>
        <time>2019-07-29T10:56:36Z</time>
      </trkpt>
      <trkpt lat="46.03719" lon="6.3873">
        <ele>523</ele>
        <time>2019-07-29T10:56:40Z</time>
      </trkpt>
      <trkpt lat="46.03725" lon="6.38697">
        <ele>524</ele>
        <time>2019-07-29T10:56:44Z</time>
      </trkpt>
      <trkpt lat="46.03724" lon="6.38673">
        <ele>524</ele>
        <time>2019-07-29T10:56:48Z</time>
      </trkpt>
      <trkpt lat="46.03716" lon="6.38654">
        <ele>524</ele>
        <time>2019-07-29T10:56:52Z</time>
      </trkpt>
      <trkpt lat="46.03714" lon="6.38641">
        <ele>524</ele>
        <time>2019-07-29T10:56:56Z</time>
      </trkpt>
      <trkpt lat="46.03716" lon="6.38634">
        <ele>524</ele>
        <time>2019-07-29T10:57:00Z</time>
      </trkpt>
      <trkpt lat="46.03715" lon="6.3863">
        <ele>524</ele>
        <time>2019-07-29T10:57:16Z</time>
      </trkpt>
      <trkpt lat="46.03715" lon="6.38635">
        <ele>525</ele>
        <time>2019-07-29T10:57:20Z</time>
      </trkpt>
      <trkpt lat="46.03713" lon="6.38645">
        <ele>524</ele>
        <time>2019-07-29T10:57:24Z</time>
      </trkpt>
      <trkpt lat="46.03706" lon="6.38654">
        <ele>523</ele>
        <time>2019-07-29T10:57:28Z</time>
      </trkpt>
      <trkpt lat="46.03693" lon="6.38675">
        <ele>518</ele>
        <time>2019-07-29T10:57:32Z</time>
      </trkpt>
      <trkpt lat="46.03684" lon="6.38714">
        <ele>515</ele>
        <time>2019-07-29T10:57:36Z</time>
      </trkpt>
      <trkpt lat="46.03678" lon="6.38757">
        <ele>516</ele>
        <time>2019-07-29T10:57:40Z</time>
      </trkpt>
      <trkpt lat="46.03672" lon="6.38792">
        <ele>516</ele>
        <time>2019-07-29T10:57:44Z</time>
      </trkpt>
      <trkpt lat="46.03659" lon="6.38816">
        <ele>514</ele>
        <time>2019-07-29T10:57:48Z</time>
      </trkpt>
      <trkpt lat="46.03644" lon="6.38842">
        <ele>512</ele>
        <time>2019-07-29T10:57:52Z</time>
      </trkpt>
      <trkpt lat="46.03615" lon="6.38848">
        <ele>509</ele>
        <time>2019-07-29T10:57:56Z</time>
      </trkpt>
      <trkpt lat="46.03584" lon="6.3885">
        <ele>507</ele>
        <time>2019-07-29T10:58:00Z</time>
      </trkpt>
      <trkpt lat="46.03554" lon="6.3886">
        <ele>506</ele>
        <time>2019-07-29T10:58:04Z</time>
      </trkpt>
      <trkpt lat="46.03526" lon="6.38881">
        <ele>503</ele>
        <time>2019-07-29T10:58:08Z</time>
      </trkpt>
      <trkpt lat="46.03497" lon="6.38897">
        <ele>501</ele>
        <time>2019-07-29T10:58:12Z</time>
      </trkpt>
      <trkpt lat="46.0347" lon="6.38892">
        <ele>500</ele>
        <time>2019-07-29T10:58:16Z</time>
      </trkpt>
      <trkpt lat="46.03441" lon="6.38901">
        <ele>500</ele>
        <time>2019-07-29T10:58:20Z</time>
      </trkpt>
      <trkpt lat="46.0341" lon="6.38913">
        <ele>496</ele>
        <time>2019-07-29T10:58:24Z</time>
      </trkpt>
      <trkpt lat="46.0339" lon="6.38928">
        <ele>494</ele>
        <time>2019-07-29T10:58:28Z</time>
      </trkpt>
      <trkpt lat="46.0336" lon="6.38954">
        <ele>493</ele>
        <time>2019-07-29T10:58:32Z</time>
      </trkpt>
      <trkpt lat="46.03334" lon="6.38983">
        <ele>493</ele>
        <time>2019-07-29T10:58:36Z</time>
      </trkpt>
      <trkpt lat="46.03311" lon="6.39012">
        <ele>494</ele>
        <time>2019-07-29T10:58:40Z</time>
      </trkpt>
      <trkpt lat="46.0329" lon="6.39028">
        <ele>496</ele>
        <time>2019-07-29T10:58:44Z</time>
      </trkpt>
      <trkpt lat="46.03273" lon="6.39048">
        <ele>496</ele>
        <time>2019-07-29T10:58:48Z</time>
      </trkpt>
      <trkpt lat="46.03239" lon="6.39037">
        <ele>496</ele>
        <time>2019-07-29T10:58:52Z</time>
      </trkpt>
      <trkpt lat="46.03215" lon="6.39022">
        <ele>497</ele>
        <time>2019-07-29T10:58:56Z</time>
      </trkpt>
      <trkpt lat="46.03188" lon="6.39017">
        <ele>497</ele>
        <time>2019-07-29T10:59:00Z</time>
      </trkpt>
      <trkpt lat="46.03171" lon="6.39041">
        <ele>497</ele>
        <time>2019-07-29T10:59:04Z</time>
      </trkpt>
      <trkpt lat="46.03156" lon="6.39063">
        <ele>496</ele>
        <time>2019-07-29T10:59:08Z</time>
      </trkpt>
      <trkpt lat="46.03153" lon="6.39113">
        <ele>494</ele>
        <time>2019-07-29T10:59:12Z</time>
      </trkpt>
      <trkpt lat="46.03164" lon="6.3915">
        <ele>494</ele>
        <time>2019-07-29T10:59:16Z</time>
      </trkpt>
      <trkpt lat="46.03166" lon="6.39188">
        <ele>493</ele>
        <time>2019-07-29T10:59:20Z</time>
      </trkpt>
      <trkpt lat="46.03151" lon="6.39224">
        <ele>492</ele>
        <time>2019-07-29T10:59:24Z</time>
      </trkpt>
      <trkpt lat="46.03122" lon="6.39226">
        <ele>491</ele>
        <time>2019-07-29T10:59:28Z</time>
      </trkpt>
      <trkpt lat="46.03091" lon="6.39232">
        <ele>489</ele>
        <time>2019-07-29T10:59:32Z</time>
      </trkpt>
      <trkpt lat="46.0306" lon="6.39243">
        <ele>487</ele>
        <time>2019-07-29T10:59:36Z</time>
      </trkpt>
      <trkpt lat="46.03031" lon="6.39252">
        <ele>487</ele>
        <time>2019-07-29T10:59:40Z</time>
      </trkpt>
      <trkpt lat="46.03002" lon="6.39257">
        <ele>487</ele>
        <time>2019-07-29T10:59:44Z</time>
      </trkpt>
      <trkpt lat="46.0298" lon="6.39265">
        <ele>486</ele>
        <time>2019-07-29T10:59:48Z</time>
      </trkpt>
      <trkpt lat="46.02976" lon="6.39299">
        <ele>482</ele>
        <time>2019-07-29T10:59:52Z</time>
      </trkpt>
      <trkpt lat="46.02979" lon="6.39337">
        <ele>480</ele>
        <time>2019-07-29T10:59:56Z</time>
      </trkpt>
      <trkpt lat="46.02985" lon="6.39376">
        <ele>480</ele>
        <time>2019-07-29T11:00:00Z</time>
      </trkpt>
      <trkpt lat="46.02999" lon="6.3941">
        <ele>480</ele>
        <time>2019-07-29T11:00:04Z</time>
      </trkpt>
      <trkpt lat="46.03007" lon="6.39449">
        <ele>478</ele>
        <time>2019-07-29T11:00:08Z</time>
      </trkpt>
      <trkpt lat="46.0301" lon="6.39487">
        <ele>478</ele>
        <time>2019-07-29T11:00:12Z</time>
      </trkpt>
      <trkpt lat="46.03008" lon="6.3951">
        <ele>477</ele>
        <time>2019-07-29T11:00:16Z</time>
      </trkpt>
      <trkpt lat="46.02994" lon="6.39538">
        <ele>477</ele>
        <time>2019-07-29T11:00:20Z</time>
      </trkpt>
      <trkpt lat="46.02984" lon="6.3958">
        <ele>476</ele>
        <time>2019-07-29T11:00:24Z</time>
      </trkpt>
      <trkpt lat="46.02974" lon="6.39615">
        <ele>477</ele>
        <time>2019-07-29T11:00:28Z</time>
      </trkpt>
      <trkpt lat="46.02949" lon="6.39615">
        <ele>476</ele>
        <time>2019-07-29T11:00:32Z</time>
      </trkpt>
      <trkpt lat="46.02939" lon="6.39604">
        <ele>478</ele>
        <time>2019-07-29T11:00:36Z</time>
      </trkpt>
      <trkpt lat="46.02927" lon="6.39582">
        <ele>478</ele>
        <time>2019-07-29T11:00:40Z</time>
      </trkpt>
      <trkpt lat="46.02915" lon="6.39561">
        <ele>478</ele>
        <time>2019-07-29T11:00:44Z</time>
      </trkpt>
      <trkpt lat="46.02902" lon="6.39543">
        <ele>476</ele>
        <time>2019-07-29T11:00:48Z</time>
      </trkpt>
      <trkpt lat="46.02884" lon="6.39522">
        <ele>477</ele>
        <time>2019-07-29T11:00:52Z</time>
      </trkpt>
      <trkpt lat="46.02862" lon="6.39506">
        <ele>479</ele>
        <time>2019-07-29T11:00:56Z</time>
      </trkpt>
      <trkpt lat="46.02844" lon="6.39493">
        <ele>480</ele>
        <time>2019-07-29T11:01:00Z</time>
      </trkpt>
      <trkpt lat="46.02827" lon="6.39484">
        <ele>481</ele>
        <time>2019-07-29T11:01:04Z</time>
      </trkpt>
      <trkpt lat="46.02813" lon="6.39477">
        <ele>483</ele>
        <time>2019-07-29T11:01:08Z</time>
      </trkpt>
      <trkpt lat="46.02802" lon="6.39472">
        <ele>483</ele>
        <time>2019-07-29T11:01:12Z</time>
      </trkpt>
      <trkpt lat="46.02791" lon="6.39456">
        <ele>482</ele>
        <time>2019-07-29T11:01:16Z</time>
      </trkpt>
      <trkpt lat="46.02771" lon="6.39452">
        <ele>480</ele>
        <time>2019-07-29T11:01:20Z</time>
      </trkpt>
      <trkpt lat="46.02748" lon="6.39452">
        <ele>478</ele>
        <time>2019-07-29T11:01:24Z</time>
      </trkpt>
      <trkpt lat="46.02722" lon="6.39453">
        <ele>476</ele>
        <time>2019-07-29T11:01:28Z</time>
      </trkpt>
      <trkpt lat="46.02694" lon="6.39453">
        <ele>474</ele>
        <time>2019-07-29T11:01:32Z</time>
      </trkpt>
      <trkpt lat="46.02666" lon="6.39455">
        <ele>474</ele>
        <time>2019-07-29T11:01:36Z</time>
      </trkpt>
      <trkpt lat="46.0264" lon="6.39468">
        <ele>475</ele>
        <time>2019-07-29T11:01:40Z</time>
      </trkpt>
      <trkpt lat="46.02617" lon="6.39478">
        <ele>476</ele>
        <time>2019-07-29T11:01:44Z</time>
      </trkpt>
      <trkpt lat="46.02599" lon="6.39489">
        <ele>477</ele>
        <time>2019-07-29T11:01:48Z</time>
      </trkpt>
      <trkpt lat="46.02582" lon="6.39497">
        <ele>478</ele>
        <time>2019-07-29T11:01:52Z</time>
      </trkpt>
      <trkpt lat="46.02567" lon="6.39506">
        <ele>480</ele>
        <time>2019-07-29T11:01:56Z</time>
      </trkpt>
      <trkpt lat="46.02553" lon="6.39511">
        <ele>481</ele>
        <time>2019-07-29T11:02:00Z</time>
      </trkpt>
      <trkpt lat="46.02539" lon="6.39515">
        <ele>480</ele>
        <time>2019-07-29T11:02:04Z</time>
      </trkpt>
      <trkpt lat="46.02524" lon="6.39519">
        <ele>480</ele>
        <time>2019-07-29T11:02:08Z</time>
      </trkpt>
      <trkpt lat="46.02509" lon="6.39525">
        <ele>479</ele>
        <time>2019-07-29T11:02:12Z</time>
      </trkpt>
      <trkpt lat="46.02497" lon="6.39536">
        <ele>477</ele>
        <time>2019-07-29T11:02:16Z</time>
      </trkpt>
      <trkpt lat="46.0249" lon="6.39559">
        <ele>477</ele>
        <time>2019-07-29T11:02:20Z</time>
      </trkpt>
      <trkpt lat="46.02486" lon="6.39582">
        <ele>477</ele>
        <time>2019-07-29T11:02:24Z</time>
      </trkpt>
      <trkpt lat="46.02482" lon="6.39603">
        <ele>477</ele>
        <time>2019-07-29T11:02:28Z</time>
      </trkpt>
      <trkpt lat="46.02465" lon="6.39607">
        <ele>477</ele>
        <time>2019-07-29T11:02:32Z</time>
      </trkpt>
      <trkpt lat="46.0245" lon="6.39594">
        <ele>477</ele>
        <time>2019-07-29T11:02:36Z</time>
      </trkpt>
      <trkpt lat="46.02436" lon="6.39576">
        <ele>477</ele>
        <time>2019-07-29T11:02:40Z</time>
      </trkpt>
      <trkpt lat="46.0242" lon="6.3956">
        <ele>478</ele>
        <time>2019-07-29T11:02:44Z</time>
      </trkpt>
      <trkpt lat="46.02401" lon="6.39551">
        <ele>479</ele>
        <time>2019-07-29T11:02:48Z</time>
      </trkpt>
      <trkpt lat="46.02385" lon="6.39551">
        <ele>481</ele>
        <time>2019-07-29T11:02:52Z</time>
      </trkpt>
      <trkpt lat="46.02372" lon="6.39561">
        <ele>480</ele>
        <time>2019-07-29T11:02:56Z</time>
      </trkpt>
      <trkpt lat="46.02359" lon="6.39577">
        <ele>480</ele>
        <time>2019-07-29T11:03:00Z</time>
      </trkpt>
      <trkpt lat="46.02341" lon="6.39585">
        <ele>481</ele>
        <time>2019-07-29T11:03:04Z</time>
      </trkpt>
      <trkpt lat="46.02325" lon="6.39584">
        <ele>481</ele>
        <time>2019-07-29T11:03:08Z</time>
      </trkpt>
      <trkpt lat="46.02308" lon="6.39583">
        <ele>482</ele>
        <time>2019-07-29T11:03:12Z</time>
      </trkpt>
      <trkpt lat="46.02294" lon="6.3959">
        <ele>481</ele>
        <time>2019-07-29T11:03:16Z</time>
      </trkpt>
      <trkpt lat="46.02273" lon="6.39603">
        <ele>478</ele>
        <time>2019-07-29T11:03:20Z</time>
      </trkpt>
      <trkpt lat="46.02252" lon="6.39625">
        <ele>476</ele>
        <time>2019-07-29T11:03:24Z</time>
      </trkpt>
      <trkpt lat="46.02231" lon="6.39651">
        <ele>473</ele>
        <time>2019-07-29T11:03:28Z</time>
      </trkpt>
      <trkpt lat="46.02207" lon="6.39674">
        <ele>473</ele>
        <time>2019-07-29T11:03:32Z</time>
      </trkpt>
      <trkpt lat="46.02186" lon="6.39695">
        <ele>471</ele>
        <time>2019-07-29T11:03:36Z</time>
      </trkpt>
      <trkpt lat="46.02177" lon="6.39725">
        <ele>470</ele>
        <time>2019-07-29T11:03:40Z</time>
      </trkpt>
      <trkpt lat="46.02155" lon="6.39748">
        <ele>471</ele>
        <time>2019-07-29T11:03:44Z</time>
      </trkpt>
      <trkpt lat="46.0213" lon="6.39752">
        <ele>473</ele>
        <time>2019-07-29T11:03:48Z</time>
      </trkpt>
      <trkpt lat="46.02116" lon="6.39741">
        <ele>473</ele>
        <time>2019-07-29T11:03:52Z</time>
      </trkpt>
      <trkpt lat="46.02121" lon="6.39723">
        <ele>473</ele>
        <time>2019-07-29T11:03:56Z</time>
      </trkpt>
      <trkpt lat="46.02122" lon="6.3972">
        <ele>473</ele>
        <time>2019-07-29T11:04:56Z</time>
      </trkpt>
      <trkpt lat="46.02131" lon="6.39716">
        <ele>473</ele>
        <time>2019-07-29T11:05:00Z</time>
      </trkpt>
      <trkpt lat="46.02147" lon="6.39713">
        <ele>472</ele>
        <time>2019-07-29T11:05:04Z</time>
      </trkpt>
      <trkpt lat="46.02165" lon="6.39698">
        <ele>469</ele>
        <time>2019-07-29T11:05:08Z</time>
      </trkpt>
      <trkpt lat="46.02186" lon="6.39676">
        <ele>468</ele>
        <time>2019-07-29T11:05:12Z</time>
      </trkpt>
      <trkpt lat="46.02209" lon="6.39651">
        <ele>466</ele>
        <time>2019-07-29T11:05:16Z</time>
      </trkpt>
      <trkpt lat="46.02233" lon="6.39615">
        <ele>463</ele>
        <time>2019-07-29T11:05:20Z</time>
      </trkpt>
      <trkpt lat="46.02254" lon="6.39568">
        <ele>460</ele>
        <time>2019-07-29T11:05:24Z</time>
      </trkpt>
      <trkpt lat="46.02285" lon="6.39527">
        <ele>458</ele>
        <time>2019-07-29T11:05:28Z</time>
      </trkpt>
      <trkpt lat="46.02322" lon="6.39516">
        <ele>454</ele>
        <time>2019-07-29T11:05:32Z</time>
      </trkpt>
      <trkpt lat="46.02356" lon="6.39491">
        <ele>453</ele>
        <time>2019-07-29T11:05:36Z</time>
      </trkpt>
      <trkpt lat="46.02393" lon="6.39465">
        <ele>448</ele>
        <time>2019-07-29T11:05:40Z</time>
      </trkpt>
      <trkpt lat="46.02429" lon="6.3945">
        <ele>448</ele>
        <time>2019-07-29T11:05:44Z</time>
      </trkpt>
      <trkpt lat="46.02454" lon="6.39421">
        <ele>447</ele>
        <time>2019-07-29T11:05:48Z</time>
      </trkpt>
      <trkpt lat="46.02475" lon="6.39386">
        <ele>445</ele>
        <time>2019-07-29T11:05:52Z</time>
      </trkpt>
      <trkpt lat="46.02507" lon="6.39355">
        <ele>441</ele>
        <time>2019-07-29T11:05:56Z</time>
      </trkpt>
      <trkpt lat="46.02536" lon="6.39314">
        <ele>438</ele>
        <time>2019-07-29T11:06:00Z</time>
      </trkpt>
      <trkpt lat="46.02572" lon="6.39283">
        <ele>434</ele>
        <time>2019-07-29T11:06:04Z</time>
      </trkpt>
      <trkpt lat="46.02609" lon="6.39251">
        <ele>431</ele>
        <time>2019-07-29T11:06:08Z</time>
      </trkpt>
      <trkpt lat="46.02645" lon="6.39216">
        <ele>430</ele>
        <time>2019-07-29T11:06:12Z</time>
      </trkpt>
      <trkpt lat="46.02687" lon="6.39188">
        <ele>428</ele>
        <time>2019-07-29T11:06:16Z</time>
      </trkpt>
      <trkpt lat="46.02724" lon="6.39168">
        <ele>424</ele>
        <time>2019-07-29T11:06:20Z</time>
      </trkpt>
      <trkpt lat="46.02744" lon="6.39177">
        <ele>423</ele>
        <time>2019-07-29T11:06:24Z</time>
      </trkpt>
      <trkpt lat="46.02763" lon="6.39225">
        <ele>420</ele>
        <time>2019-07-29T11:06:28Z</time>
      </trkpt>
      <trkpt lat="46.02785" lon="6.39262">
        <ele>416</ele>
        <time>2019-07-29T11:06:36Z</time>
      </trkpt>
      <trkpt lat="46.02853" lon="6.39284">
        <ele>416</ele>
        <time>2019-07-29T11:06:40Z</time>
      </trkpt>
      <trkpt lat="46.02877" lon="6.39252">
        <ele>414</ele>
        <time>2019-07-29T11:06:44Z</time>
      </trkpt>
      <trkpt lat="46.02882" lon="6.39201">
        <ele>411</ele>
        <time>2019-07-29T11:06:48Z</time>
      </trkpt>
      <trkpt lat="46.02885" lon="6.39146">
        <ele>410</ele>
        <time>2019-07-29T11:06:52Z</time>
      </trkpt>
      <trkpt lat="46.02905" lon="6.39104">
        <ele>407</ele>
        <time>2019-07-29T11:06:56Z</time>
      </trkpt>
      <trkpt lat="46.02933" lon="6.39091">
        <ele>404</ele>
        <time>2019-07-29T11:07:00Z</time>
      </trkpt>
      <trkpt lat="46.0297" lon="6.39072">
        <ele>402</ele>
        <time>2019-07-29T11:07:04Z</time>
      </trkpt>
      <trkpt lat="46.03004" lon="6.3903">
        <ele>398</ele>
        <time>2019-07-29T11:07:08Z</time>
      </trkpt>
      <trkpt lat="46.03048" lon="6.39011">
        <ele>396</ele>
        <time>2019-07-29T11:07:12Z</time>
      </trkpt>
      <trkpt lat="46.0309" lon="6.38979">
        <ele>393</ele>
        <time>2019-07-29T11:07:16Z</time>
      </trkpt>
      <trkpt lat="46.03127" lon="6.38941">
        <ele>388</ele>
        <time>2019-07-29T11:07:20Z</time>
      </trkpt>
      <trkpt lat="46.03169" lon="6.38917">
        <ele>386</ele>
        <time>2019-07-29T11:07:24Z</time>
      </trkpt>
      <trkpt lat="46.0321" lon="6.3889">
        <ele>382</ele>
        <time>2019-07-29T11:07:28Z</time>
      </trkpt>
      <trkpt lat="46.03256" lon="6.38868">
        <ele>380</ele>
        <time>2019-07-29T11:07:32Z</time>
      </trkpt>
      <trkpt lat="46.03292" lon="6.38827">
        <ele>378</ele>
        <time>2019-07-29T11:07:36Z</time>
      </trkpt>
      <trkpt lat="46.03322" lon="6.38776">
        <ele>375</ele>
        <time>2019-07-29T11:07:40Z</time>
      </trkpt>
      <trkpt lat="46.03333" lon="6.387">
        <ele>373</ele>
        <time>2019-07-29T11:07:44Z</time>
      </trkpt>
      <trkpt lat="46.03356" lon="6.38639">
        <ele>371</ele>
        <time>2019-07-29T11:07:48Z</time>
      </trkpt>
      <trkpt lat="46.03378" lon="6.38576">
        <ele>370</ele>
        <time>2019-07-29T11:07:52Z</time>
      </trkpt>
      <trkpt lat="46.03395" lon="6.3852">
        <ele>370</ele>
        <time>2019-07-29T11:07:56Z</time>
      </trkpt>
      <trkpt lat="46.03404" lon="6.38482">
        <ele>366</ele>
        <time>2019-07-29T11:08:00Z</time>
      </trkpt>
      <trkpt lat="46.03419" lon="6.38429">
        <ele>363</ele>
        <time>2019-07-29T11:08:04Z</time>
      </trkpt>
      <trkpt lat="46.03445" lon="6.3838">
        <ele>360</ele>
        <time>2019-07-29T11:08:08Z</time>
      </trkpt>
      <trkpt lat="46.03472" lon="6.38329">
        <ele>359</ele>
        <time>2019-07-29T11:08:12Z</time>
      </trkpt>
      <trkpt lat="46.03502" lon="6.38291">
        <ele>359</ele>
        <time>2019-07-29T11:08:16Z</time>
      </trkpt>
      <trkpt lat="46.03508" lon="6.38248">
        <ele>359</ele>
        <time>2019-07-29T11:08:20Z</time>
      </trkpt>
      <trkpt lat="46.0352" lon="6.38203">
        <ele>358</ele>
        <time>2019-07-29T11:08:24Z</time>
      </trkpt>
      <trkpt lat="46.03538" lon="6.38159">
        <ele>355</ele>
        <time>2019-07-29T11:08:28Z</time>
      </trkpt>
      <trkpt lat="46.03657" lon="6.38141">
        <ele>349</ele>
        <time>2019-07-29T11:08:36Z</time>
      </trkpt>
      <trkpt lat="46.03701" lon="6.38119">
        <ele>346</ele>
        <time>2019-07-29T11:08:40Z</time>
      </trkpt>
      <trkpt lat="46.03741" lon="6.38091">
        <ele>345</ele>
        <time>2019-07-29T11:08:44Z</time>
      </trkpt>
      <trkpt lat="46.03783" lon="6.38053">
        <ele>340</ele>
        <time>2019-07-29T11:08:48Z</time>
      </trkpt>
      <trkpt lat="46.03823" lon="6.38017">
        <ele>339</ele>
        <time>2019-07-29T11:08:52Z</time>
      </trkpt>
      <trkpt lat="46.03861" lon="6.37975">
        <ele>339</ele>
        <time>2019-07-29T11:08:56Z</time>
      </trkpt>
      <trkpt lat="46.03885" lon="6.37927">
        <ele>340</ele>
        <time>2019-07-29T11:09:00Z</time>
      </trkpt>
      <trkpt lat="46.03914" lon="6.3789">
        <ele>339</ele>
        <time>2019-07-29T11:09:04Z</time>
      </trkpt>
      <trkpt lat="46.03947" lon="6.37859">
        <ele>339</ele>
        <time>2019-07-29T11:09:08Z</time>
      </trkpt>
      <trkpt lat="46.03981" lon="6.37834">
        <ele>338</ele>
        <time>2019-07-29T11:09:12Z</time>
      </trkpt>
      <trkpt lat="46.04014" lon="6.3781">
        <ele>337</ele>
        <time>2019-07-29T11:09:16Z</time>
      </trkpt>
      <trkpt lat="46.04051" lon="6.37791">
        <ele>335</ele>
        <time>2019-07-29T11:09:20Z</time>
      </trkpt>
      <trkpt lat="46.04087" lon="6.37781">
        <ele>335</ele>
        <time>2019-07-29T11:09:24Z</time>
      </trkpt>
      <trkpt lat="46.04126" lon="6.37776">
        <ele>335</ele>
        <time>2019-07-29T11:09:28Z</time>
      </trkpt>
      <trkpt lat="46.04163" lon="6.37761">
        <ele>335</ele>
        <time>2019-07-29T11:09:32Z</time>
      </trkpt>
      <trkpt lat="46.04197" lon="6.37741">
        <ele>334</ele>
        <time>2019-07-29T11:09:36Z</time>
      </trkpt>
      <trkpt lat="46.04234" lon="6.37735">
        <ele>333</ele>
        <time>2019-07-29T11:09:40Z</time>
      </trkpt>
      <trkpt lat="46.0427" lon="6.37737">
        <ele>332</ele>
        <time>2019-07-29T11:09:44Z</time>
      </trkpt>
      <trkpt lat="46.04305" lon="6.37712">
        <ele>330</ele>
        <time>2019-07-29T11:09:48Z</time>
      </trkpt>
      <trkpt lat="46.04335" lon="6.37676">
        <ele>327</ele>
        <time>2019-07-29T11:09:52Z</time>
      </trkpt>
      <trkpt lat="46.04367" lon="6.37641">
        <ele>324</ele>
        <time>2019-07-29T11:09:56Z</time>
      </trkpt>
      <trkpt lat="46.04407" lon="6.37612">
        <ele>322</ele>
        <time>2019-07-29T11:10:00Z</time>
      </trkpt>
      <trkpt lat="46.04452" lon="6.37605">
        <ele>321</ele>
        <time>2019-07-29T11:10:04Z</time>
      </trkpt>
      <trkpt lat="46.04491" lon="6.37587">
        <ele>324</ele>
        <time>2019-07-29T11:10:08Z</time>
      </trkpt>
      <trkpt lat="46.04509" lon="6.37555">
        <ele>324</ele>
        <time>2019-07-29T11:10:12Z</time>
      </trkpt>
      <trkpt lat="46.04529" lon="6.37556">
        <ele>322</ele>
        <time>2019-07-29T11:10:16Z</time>
      </trkpt>
      <trkpt lat="46.04553" lon="6.37544">
        <ele>321</ele>
        <time>2019-07-29T11:10:20Z</time>
      </trkpt>
      <trkpt lat="46.04583" lon="6.37529">
        <ele>318</ele>
        <time>2019-07-29T11:10:24Z</time>
      </trkpt>
      <trkpt lat="46.04612" lon="6.37507">
        <ele>316</ele>
        <time>2019-07-29T11:10:28Z</time>
      </trkpt>
      <trkpt lat="46.04626" lon="6.37471">
        <ele>316</ele>
        <time>2019-07-29T11:10:32Z</time>
      </trkpt>
      <trkpt lat="46.0465" lon="6.37458">
        <ele>313</ele>
        <time>2019-07-29T11:10:36Z</time>
      </trkpt>
      <trkpt lat="46.04684" lon="6.37459">
        <ele>311</ele>
        <time>2019-07-29T11:10:40Z</time>
      </trkpt>
      <trkpt lat="46.04718" lon="6.3745">
        <ele>309</ele>
        <time>2019-07-29T11:10:44Z</time>
      </trkpt>
      <trkpt lat="46.0475" lon="6.37467">
        <ele>306</ele>
        <time>2019-07-29T11:10:48Z</time>
      </trkpt>
      <trkpt lat="46.04787" lon="6.3752">
        <ele>305</ele>
        <time>2019-07-29T11:10:52Z</time>
      </trkpt>
      <trkpt lat="46.0482" lon="6.37514">
        <ele>304</ele>
        <time>2019-07-29T11:10:56Z</time>
      </trkpt>
      <trkpt lat="46.0485" lon="6.37513">
        <ele>302</ele>
        <time>2019-07-29T11:11:00Z</time>
      </trkpt>
      <trkpt lat="46.04882" lon="6.37529">
        <ele>299</ele>
        <time>2019-07-29T11:11:04Z</time>
      </trkpt>
      <trkpt lat="46.0492" lon="6.37546">
        <ele>295</ele>
        <time>2019-07-29T11:11:08Z</time>
      </trkpt>
      <trkpt lat="46.04956" lon="6.37558">
        <ele>294</ele>
        <time>2019-07-29T11:11:12Z</time>
      </trkpt>
      <trkpt lat="46.04991" lon="6.37542">
        <ele>293</ele>
        <time>2019-07-29T11:11:16Z</time>
      </trkpt>
      <trkpt lat="46.05026" lon="6.37573">
        <ele>290</ele>
        <time>2019-07-29T11:11:20Z</time>
      </trkpt>
      <trkpt lat="46.05059" lon="6.37582">
        <ele>287</ele>
        <time>2019-07-29T11:11:24Z</time>
      </trkpt>
      <trkpt lat="46.05096" lon="6.37556">
        <ele>285</ele>
        <time>2019-07-29T11:11:28Z</time>
      </trkpt>
      <trkpt lat="46.05129" lon="6.37516">
        <ele>283</ele>
        <time>2019-07-29T11:11:32Z</time>
      </trkpt>
      <trkpt lat="46.05161" lon="6.37487">
        <ele>281</ele>
        <time>2019-07-29T11:11:36Z</time>
      </trkpt>
      <trkpt lat="46.05189" lon="6.37458">
        <ele>278</ele>
        <time>2019-07-29T11:11:40Z</time>
      </trkpt>
      <trkpt lat="46.0522" lon="6.37423">
        <ele>275</ele>
        <time>2019-07-29T11:11:44Z</time>
      </trkpt>
      <trkpt lat="46.05246" lon="6.37381">
        <ele>276</ele>
        <time>2019-07-29T11:11:48Z</time>
      </trkpt>
      <trkpt lat="46.05279" lon="6.37372">
        <ele>274</ele>
        <time>2019-07-29T11:11:52Z</time>
      </trkpt>
      <trkpt lat="46.05314" lon="6.37366">
        <ele>271</ele>
        <time>2019-07-29T11:11:56Z</time>
      </trkpt>
      <trkpt lat="46.0535" lon="6.37344">
        <ele>268</ele>
        <time>2019-07-29T11:12:00Z</time>
      </trkpt>
      <trkpt lat="46.05382" lon="6.37312">
        <ele>269</ele>
        <time>2019-07-29T11:12:04Z</time>
      </trkpt>
      <trkpt lat="46.05378" lon="6.37314">
        <ele>268</ele>
        <time>2019-07-29T11:12:08Z</time>
      </trkpt>
      <trkpt lat="46.05359" lon="6.37298">
        <ele>267</ele>
        <time>2019-07-29T11:12:12Z</time>
      </trkpt>
      <trkpt lat="46.05368" lon="6.37265">
        <ele>266</ele>
        <time>2019-07-29T11:12:16Z</time>
      </trkpt>
      <trkpt lat="46.05391" lon="6.37241">
        <ele>265</ele>
        <time>2019-07-29T11:12:20Z</time>
      </trkpt>
      <trkpt lat="46.05418" lon="6.37218">
        <ele>263</ele>
        <time>2019-07-29T11:12:24Z</time>
      </trkpt>
      <trkpt lat="46.05445" lon="6.37197">
        <ele>262</ele>
        <time>2019-07-29T11:12:28Z</time>
      </trkpt>
      <trkpt lat="46.05464" lon="6.37177">
        <ele>261</ele>
        <time>2019-07-29T11:12:32Z</time>
      </trkpt>
      <trkpt lat="46.05487" lon="6.37178">
        <ele>262</ele>
        <time>2019-07-29T11:12:36Z</time>
      </trkpt>
      <trkpt lat="46.05499" lon="6.37164">
        <ele>262</ele>
        <time>2019-07-29T11:12:40Z</time>
      </trkpt>
      <trkpt lat="46.05504" lon="6.37143">
        <ele>263</ele>
        <time>2019-07-29T11:12:44Z</time>
      </trkpt>
      <trkpt lat="46.05509" lon="6.37124">
        <ele>263</ele>
        <time>2019-07-29T11:12:48Z</time>
      </trkpt>
      <trkpt lat="46.05515" lon="6.37106">
        <ele>265</ele>
        <time>2019-07-29T11:12:52Z</time>
      </trkpt>
      <trkpt lat="46.0552" lon="6.37087">
        <ele>265</ele>
        <time>2019-07-29T11:12:56Z</time>
      </trkpt>
      <trkpt lat="46.05522" lon="6.37066">
        <ele>266</ele>
        <time>2019-07-29T11:13:00Z</time>
      </trkpt>
      <trkpt lat="46.05522" lon="6.37044">
        <ele>267</ele>
        <time>2019-07-29T11:13:04Z</time>
      </trkpt>
      <trkpt lat="46.05524" lon="6.37022">
        <ele>267</ele>
        <time>2019-07-29T11:13:08Z</time>
      </trkpt>
      <trkpt lat="46.05527" lon="6.36999">
        <ele>269</ele>
        <time>2019-07-29T11:13:12Z</time>
      </trkpt>
      <trkpt lat="46.05529" lon="6.36978">
        <ele>270</ele>
        <time>2019-07-29T11:13:16Z</time>
      </trkpt>
      <trkpt lat="46.05531" lon="6.36955">
        <ele>271</ele>
        <time>2019-07-29T11:13:20Z</time>
      </trkpt>
      <trkpt lat="46.05536" lon="6.36935">
        <ele>271</ele>
        <time>2019-07-29T11:13:24Z</time>
      </trkpt>
      <trkpt lat="46.05538" lon="6.36914">
        <ele>272</ele>
        <time>2019-07-29T11:13:28Z</time>
      </trkpt>
      <trkpt lat="46.05542" lon="6.3689">
        <ele>272</ele>
        <time>2019-07-29T11:13:32Z</time>
      </trkpt>
      <trkpt lat="46.05543" lon="6.36869">
        <ele>274</ele>
        <time>2019-07-29T11:13:36Z</time>
      </trkpt>
      <trkpt lat="46.05539" lon="6.36845">
        <ele>274</ele>
        <time>2019-07-29T11:13:40Z</time>
      </trkpt>
      <trkpt lat="46.05532" lon="6.36823">
        <ele>275</ele>
        <time>2019-07-29T11:13:44Z</time>
      </trkpt>
      <trkpt lat="46.05525" lon="6.36801">
        <ele>276</ele>
        <time>2019-07-29T11:13:48Z</time>
      </trkpt>
      <trkpt lat="46.0552" lon="6.36777">
        <ele>277</ele>
        <time>2019-07-29T11:13:52Z</time>
      </trkpt>
      <trkpt lat="46.05516" lon="6.36754">
        <ele>278</ele>
        <time>2019-07-29T11:13:56Z</time>
      </trkpt>
      <trkpt lat="46.05512" lon="6.36731">
        <ele>279</ele>
        <time>2019-07-29T11:14:00Z</time>
      </trkpt>
      <trkpt lat="46.05506" lon="6.36708">
        <ele>279</ele>
        <time>2019-07-29T11:14:04Z</time>
      </trkpt>
      <trkpt lat="46.05499" lon="6.36687">
        <ele>279</ele>
        <time>2019-07-29T11:14:08Z</time>
      </trkpt>
      <trkpt lat="46.05489" lon="6.36668">
        <ele>281</ele>
        <time>2019-07-29T11:14:12Z</time>
      </trkpt>
      <trkpt lat="46.05478" lon="6.36653">
        <ele>282</ele>
        <time>2019-07-29T11:14:16Z</time>
      </trkpt>
      <trkpt lat="46.05466" lon="6.36638">
        <ele>283</ele>
        <time>2019-07-29T11:14:20Z</time>
      </trkpt>
      <trkpt lat="46.05457" lon="6.36621">
        <ele>284</ele>
        <time>2019-07-29T11:14:24Z</time>
      </trkpt>
      <trkpt lat="46.05449" lon="6.36603">
        <ele>284</ele>
        <time>2019-07-29T11:14:28Z</time>
      </trkpt>
      <trkpt lat="46.05443" lon="6.36584">
        <ele>285</ele>
        <time>2019-07-29T11:14:32Z</time>
      </trkpt>
      <trkpt lat="46.05439" lon="6.36563">
        <ele>286</ele>
        <time>2019-07-29T11:14:36Z</time>
      </trkpt>
      <trkpt lat="46.05436" lon="6.36543">
        <ele>288</ele>
        <time>2019-07-29T11:14:40Z</time>
      </trkpt>
      <trkpt lat="46.05435" lon="6.36523">
        <ele>288</ele>
        <time>2019-07-29T11:14:44Z</time>
      </trkpt>
      <trkpt lat="46.05436" lon="6.36502">
        <ele>290</ele>
        <time>2019-07-29T11:14:48Z</time>
      </trkpt>
      <trkpt lat="46.05437" lon="6.3648">
        <ele>290</ele>
        <time>2019-07-29T11:14:52Z</time>
      </trkpt>
      <trkpt lat="46.05438" lon="6.36459">
        <ele>291</ele>
        <time>2019-07-29T11:14:56Z</time>
      </trkpt>
      <trkpt lat="46.05438" lon="6.36437">
        <ele>292</ele>
        <time>2019-07-29T11:15:00Z</time>
      </trkpt>
      <trkpt lat="46.05438" lon="6.36417">
        <ele>293</ele>
        <time>2019-07-29T11:15:04Z</time>
      </trkpt>
      <trkpt lat="46.05437" lon="6.36396">
        <ele>294</ele>
        <time>2019-07-29T11:15:08Z</time>
      </trkpt>
      <trkpt lat="46.05435" lon="6.36373">
        <ele>295</ele>
        <time>2019-07-29T11:15:12Z</time>
      </trkpt>
      <trkpt lat="46.05435" lon="6.36353">
        <ele>296</ele>
        <time>2019-07-29T11:15:16Z</time>
      </trkpt>
      <trkpt lat="46.05436" lon="6.36333">
        <ele>297</ele>
        <time>2019-07-29T11:15:20Z</time>
      </trkpt>
      <trkpt lat="46.05434" lon="6.36318">
        <ele>298</ele>
        <time>2019-07-29T11:15:24Z</time>
      </trkpt>
      <trkpt lat="46.05428" lon="6.36316">
        <ele>298</ele>
        <time>2019-07-29T11:16:24Z</time>
      </trkpt>
      <trkpt lat="46.05425" lon="6.36314">
        <ele>298</ele>
        <time>2019-07-29T11:16:28Z</time>
      </trkpt>
      <trkpt lat="46.05436" lon="6.3632">
        <ele>299</ele>
        <time>2019-07-29T11:25:44Z</time>
      </trkpt>
      <trkpt lat="46.05441" lon="6.36322">
        <ele>299</ele>
        <time>2019-07-29T11:25:48Z</time>
      </trkpt>
      <trkpt lat="46.05446" lon="6.36321">
        <ele>299</ele>
        <time>2019-07-29T11:25:52Z</time>
      </trkpt>
      <trkpt lat="46.05446" lon="6.36309">
        <ele>299</ele>
        <time>2019-07-29T11:25:56Z</time>
      </trkpt>
      <trkpt lat="46.05445" lon="6.36293">
        <ele>300</ele>
        <time>2019-07-29T11:26:00Z</time>
      </trkpt>
      <trkpt lat="46.05443" lon="6.36277">
        <ele>301</ele>
        <time>2019-07-29T11:26:04Z</time>
      </trkpt>
      <trkpt lat="46.05436" lon="6.36261">
        <ele>302</ele>
        <time>2019-07-29T11:26:08Z</time>
      </trkpt>
      <trkpt lat="46.05426" lon="6.36249">
        <ele>303</ele>
        <time>2019-07-29T11:26:12Z</time>
      </trkpt>
      <trkpt lat="46.05415" lon="6.36249">
        <ele>304</ele>
        <time>2019-07-29T11:26:16Z</time>
      </trkpt>
      <trkpt lat="46.05403" lon="6.36258">
        <ele>304</ele>
        <time>2019-07-29T11:26:20Z</time>
      </trkpt>
      <trkpt lat="46.05394" lon="6.36272">
        <ele>305</ele>
        <time>2019-07-29T11:26:24Z</time>
      </trkpt>
      <trkpt lat="46.0539" lon="6.36289">
        <ele>306</ele>
        <time>2019-07-29T11:26:28Z</time>
      </trkpt>
      <trkpt lat="46.05387" lon="6.36309">
        <ele>306</ele>
        <time>2019-07-29T11:26:32Z</time>
      </trkpt>
      <trkpt lat="46.05383" lon="6.36328">
        <ele>307</ele>
        <time>2019-07-29T11:26:36Z</time>
      </trkpt>
      <trkpt lat="46.05381" lon="6.36349">
        <ele>308</ele>
        <time>2019-07-29T11:26:40Z</time>
      </trkpt>
      <trkpt lat="46.05381" lon="6.3637">
        <ele>308</ele>
        <time>2019-07-29T11:26:44Z</time>
      </trkpt>
      <trkpt lat="46.05377" lon="6.36388">
        <ele>310</ele>
        <time>2019-07-29T11:26:48Z</time>
      </trkpt>
      <trkpt lat="46.05376" lon="6.36407">
        <ele>311</ele>
        <time>2019-07-29T11:26:52Z</time>
      </trkpt>
      <trkpt lat="46.05376" lon="6.36428">
        <ele>311</ele>
        <time>2019-07-29T11:26:56Z</time>
      </trkpt>
      <trkpt lat="46.05375" lon="6.36449">
        <ele>312</ele>
        <time>2019-07-29T11:27:00Z</time>
      </trkpt>
      <trkpt lat="46.05372" lon="6.36468">
        <ele>313</ele>
        <time>2019-07-29T11:27:04Z</time>
      </trkpt>
      <trkpt lat="46.05368" lon="6.36487">
        <ele>313</ele>
        <time>2019-07-29T11:27:08Z</time>
      </trkpt>
      <trkpt lat="46.05363" lon="6.36505">
        <ele>314</ele>
        <time>2019-07-29T11:27:12Z</time>
      </trkpt>
      <trkpt lat="46.05357" lon="6.36522">
        <ele>315</ele>
        <time>2019-07-29T11:27:16Z</time>
      </trkpt>
      <trkpt lat="46.05351" lon="6.36539">
        <ele>316</ele>
        <time>2019-07-29T11:27:20Z</time>
      </trkpt>
      <trkpt lat="46.05345" lon="6.36556">
        <ele>317</ele>
        <time>2019-07-29T11:27:24Z</time>
      </trkpt>
      <trkpt lat="46.05343" lon="6.36576">
        <ele>318</ele>
        <time>2019-07-29T11:27:28Z</time>
      </trkpt>
      <trkpt lat="46.05338" lon="6.36595">
        <ele>319</ele>
        <time>2019-07-29T11:27:32Z</time>
      </trkpt>
      <trkpt lat="46.05333" lon="6.36615">
        <ele>319</ele>
        <time>2019-07-29T11:27:36Z</time>
      </trkpt>
      <trkpt lat="46.05329" lon="6.36634">
        <ele>320</ele>
        <time>2019-07-29T11:27:40Z</time>
      </trkpt>
      <trkpt lat="46.05325" lon="6.36651">
        <ele>320</ele>
        <time>2019-07-29T11:27:44Z</time>
      </trkpt>
      <trkpt lat="46.0532" lon="6.36669">
        <ele>321</ele>
        <time>2019-07-29T11:27:48Z</time>
      </trkpt>
      <trkpt lat="46.05313" lon="6.36685">
        <ele>322</ele>
        <time>2019-07-29T11:27:52Z</time>
      </trkpt>
      <trkpt lat="46.05308" lon="6.367">
        <ele>323</ele>
        <time>2019-07-29T11:27:56Z</time>
      </trkpt>
      <trkpt lat="46.05302" lon="6.36723">
        <ele>323</ele>
        <time>2019-07-29T11:28:00Z</time>
      </trkpt>
      <trkpt lat="46.05296" lon="6.36743">
        <ele>324</ele>
        <time>2019-07-29T11:28:04Z</time>
      </trkpt>
      <trkpt lat="46.05291" lon="6.3676">
        <ele>326</ele>
        <time>2019-07-29T11:28:08Z</time>
      </trkpt>
      <trkpt lat="46.05286" lon="6.36779">
        <ele>327</ele>
        <time>2019-07-29T11:28:12Z</time>
      </trkpt>
      <trkpt lat="46.05283" lon="6.36797">
        <ele>328</ele>
        <time>2019-07-29T11:28:16Z</time>
      </trkpt>
      <trkpt lat="46.05278" lon="6.36818">
        <ele>328</ele>
        <time>2019-07-29T11:28:20Z</time>
      </trkpt>
      <trkpt lat="46.05275" lon="6.36838">
        <ele>330</ele>
        <time>2019-07-29T11:28:24Z</time>
      </trkpt>
      <trkpt lat="46.05271" lon="6.36858">
        <ele>330</ele>
        <time>2019-07-29T11:28:28Z</time>
      </trkpt>
      <trkpt lat="46.05266" lon="6.36875">
        <ele>330</ele>
        <time>2019-07-29T11:28:32Z</time>
      </trkpt>
      <trkpt lat="46.05261" lon="6.36891">
        <ele>332</ele>
        <time>2019-07-29T11:28:36Z</time>
      </trkpt>
      <trkpt lat="46.05249" lon="6.36906">
        <ele>333</ele>
        <time>2019-07-29T11:28:40Z</time>
      </trkpt>
      <trkpt lat="46.05238" lon="6.36921">
        <ele>334</ele>
        <time>2019-07-29T11:28:44Z</time>
      </trkpt>
      <trkpt lat="46.05228" lon="6.36935">
        <ele>335</ele>
        <time>2019-07-29T11:28:48Z</time>
      </trkpt>
      <trkpt lat="46.05215" lon="6.36949">
        <ele>335</ele>
        <time>2019-07-29T11:28:52Z</time>
      </trkpt>
      <trkpt lat="46.05205" lon="6.36964">
        <ele>336</ele>
        <time>2019-07-29T11:28:56Z</time>
      </trkpt>
      <trkpt lat="46.05197" lon="6.36977">
        <ele>337</ele>
        <time>2019-07-29T11:29:00Z</time>
      </trkpt>
      <trkpt lat="46.05189" lon="6.3699">
        <ele>339</ele>
        <time>2019-07-29T11:29:04Z</time>
      </trkpt>
      <trkpt lat="46.05186" lon="6.37006">
        <ele>340</ele>
        <time>2019-07-29T11:29:08Z</time>
      </trkpt>
      <trkpt lat="46.05183" lon="6.37023">
        <ele>340</ele>
        <time>2019-07-29T11:29:12Z</time>
      </trkpt>
      <trkpt lat="46.05179" lon="6.37043">
        <ele>341</ele>
        <time>2019-07-29T11:29:16Z</time>
      </trkpt>
      <trkpt lat="46.0518" lon="6.37065">
        <ele>341</ele>
        <time>2019-07-29T11:29:20Z</time>
      </trkpt>
      <trkpt lat="46.05178" lon="6.37086">
        <ele>342</ele>
        <time>2019-07-29T11:29:24Z</time>
      </trkpt>
      <trkpt lat="46.05173" lon="6.37107">
        <ele>343</ele>
        <time>2019-07-29T11:29:28Z</time>
      </trkpt>
      <trkpt lat="46.05168" lon="6.37128">
        <ele>344</ele>
        <time>2019-07-29T11:29:32Z</time>
      </trkpt>
      <trkpt lat="46.05164" lon="6.37148">
        <ele>345</ele>
        <time>2019-07-29T11:29:36Z</time>
      </trkpt>
      <trkpt lat="46.05161" lon="6.37168">
        <ele>346</ele>
        <time>2019-07-29T11:29:40Z</time>
      </trkpt>
      <trkpt lat="46.05161" lon="6.37187">
        <ele>346</ele>
        <time>2019-07-29T11:29:44Z</time>
      </trkpt>
      <trkpt lat="46.05161" lon="6.37207">
        <ele>347</ele>
        <time>2019-07-29T11:29:48Z</time>
      </trkpt>
      <trkpt lat="46.05158" lon="6.37225">
        <ele>348</ele>
        <time>2019-07-29T11:29:52Z</time>
      </trkpt>
      <trkpt lat="46.05151" lon="6.37235">
        <ele>349</ele>
        <time>2019-07-29T11:29:56Z</time>
      </trkpt>
      <trkpt lat="46.05141" lon="6.37232">
        <ele>350</ele>
        <time>2019-07-29T11:30:00Z</time>
      </trkpt>
      <trkpt lat="46.05132" lon="6.37219">
        <ele>351</ele>
        <time>2019-07-29T11:30:04Z</time>
      </trkpt>
      <trkpt lat="46.05122" lon="6.37201">
        <ele>352</ele>
        <time>2019-07-29T11:30:08Z</time>
      </trkpt>
      <trkpt lat="46.05123" lon="6.37182">
        <ele>352</ele>
        <time>2019-07-29T11:30:12Z</time>
      </trkpt>
      <trkpt lat="46.05124" lon="6.37164">
        <ele>354</ele>
        <time>2019-07-29T11:30:16Z</time>
      </trkpt>
      <trkpt lat="46.05124" lon="6.37146">
        <ele>354</ele>
        <time>2019-07-29T11:30:20Z</time>
      </trkpt>
      <trkpt lat="46.05124" lon="6.37126">
        <ele>355</ele>
        <time>2019-07-29T11:30:24Z</time>
      </trkpt>
      <trkpt lat="46.05124" lon="6.37107">
        <ele>356</ele>
        <time>2019-07-29T11:30:28Z</time>
      </trkpt>
      <trkpt lat="46.05126" lon="6.37088">
        <ele>356</ele>
        <time>2019-07-29T11:30:32Z</time>
      </trkpt>
      <trkpt lat="46.05129" lon="6.37068">
        <ele>357</ele>
        <time>2019-07-29T11:30:36Z</time>
      </trkpt>
      <trkpt lat="46.0513" lon="6.37048">
        <ele>358</ele>
        <time>2019-07-29T11:30:40Z</time>
      </trkpt>
      <trkpt lat="46.0513" lon="6.37029">
        <ele>359</ele>
        <time>2019-07-29T11:30:44Z</time>
      </trkpt>
      <trkpt lat="46.05124" lon="6.37007">
        <ele>359</ele>
        <time>2019-07-29T11:30:48Z</time>
      </trkpt>
      <trkpt lat="46.05122" lon="6.36986">
        <ele>360</ele>
        <time>2019-07-29T11:30:52Z</time>
      </trkpt>
      <trkpt lat="46.05117" lon="6.36966">
        <ele>361</ele>
        <time>2019-07-29T11:30:56Z</time>
      </trkpt>
      <trkpt lat="46.05115" lon="6.36946">
        <ele>361</ele>
        <time>2019-07-29T11:31:00Z</time>
      </trkpt>
      <trkpt lat="46.05117" lon="6.3693">
        <ele>363</ele>
        <time>2019-07-29T11:31:04Z</time>
      </trkpt>
      <trkpt lat="46.05116" lon="6.36914">
        <ele>363</ele>
        <time>2019-07-29T11:31:08Z</time>
      </trkpt>
      <trkpt lat="46.05113" lon="6.36896">
        <ele>365</ele>
        <time>2019-07-29T11:31:12Z</time>
      </trkpt>
      <trkpt lat="46.05111" lon="6.36879">
        <ele>365</ele>
        <time>2019-07-29T11:31:16Z</time>
      </trkpt>
      <trkpt lat="46.0511" lon="6.36859">
        <ele>365</ele>
        <time>2019-07-29T11:31:20Z</time>
      </trkpt>
      <trkpt lat="46.0511" lon="6.3684">
        <ele>367</ele>
        <time>2019-07-29T11:31:24Z</time>
      </trkpt>
      <trkpt lat="46.05104" lon="6.36819">
        <ele>368</ele>
        <time>2019-07-29T11:31:28Z</time>
      </trkpt>
      <trkpt lat="46.05102" lon="6.36797">
        <ele>368</ele>
        <time>2019-07-29T11:31:32Z</time>
      </trkpt>
      <trkpt lat="46.05096" lon="6.36774">
        <ele>369</ele>
        <time>2019-07-29T11:31:36Z</time>
      </trkpt>
      <trkpt lat="46.05095" lon="6.36755">
        <ele>370</ele>
        <time>2019-07-29T11:31:40Z</time>
      </trkpt>
      <trkpt lat="46.05094" lon="6.36736">
        <ele>371</ele>
        <time>2019-07-29T11:31:44Z</time>
      </trkpt>
      <trkpt lat="46.05095" lon="6.3672">
        <ele>371</ele>
        <time>2019-07-29T11:31:48Z</time>
      </trkpt>
      <trkpt lat="46.05095" lon="6.36705">
        <ele>372</ele>
        <time>2019-07-29T11:31:52Z</time>
      </trkpt>
      <trkpt lat="46.05095" lon="6.36688">
        <ele>372</ele>
        <time>2019-07-29T11:31:56Z</time>
      </trkpt>
      <trkpt lat="46.05098" lon="6.36671">
        <ele>374</ele>
        <time>2019-07-29T11:32:00Z</time>
      </trkpt>
      <trkpt lat="46.05104" lon="6.36654">
        <ele>374</ele>
        <time>2019-07-29T11:32:04Z</time>
      </trkpt>
      <trkpt lat="46.05108" lon="6.36638">
        <ele>375</ele>
        <time>2019-07-29T11:32:08Z</time>
      </trkpt>
      <trkpt lat="46.05112" lon="6.36617">
        <ele>376</ele>
        <time>2019-07-29T11:32:12Z</time>
      </trkpt>
      <trkpt lat="46.05114" lon="6.36598">
        <ele>377</ele>
        <time>2019-07-29T11:32:16Z</time>
      </trkpt>
      <trkpt lat="46.05114" lon="6.36577">
        <ele>378</ele>
        <time>2019-07-29T11:32:20Z</time>
      </trkpt>
      <trkpt lat="46.05117" lon="6.36557">
        <ele>378</ele>
        <time>2019-07-29T11:32:24Z</time>
      </trkpt>
      <trkpt lat="46.05108" lon="6.36535">
        <ele>380</ele>
        <time>2019-07-29T11:32:28Z</time>
      </trkpt>
      <trkpt lat="46.05086" lon="6.36512">
        <ele>380</ele>
        <time>2019-07-29T11:32:32Z</time>
      </trkpt>
      <trkpt lat="46.05079" lon="6.36492">
        <ele>381</ele>
        <time>2019-07-29T11:32:36Z</time>
      </trkpt>
      <trkpt lat="46.05077" lon="6.36473">
        <ele>382</ele>
        <time>2019-07-29T11:32:40Z</time>
      </trkpt>
      <trkpt lat="46.05077" lon="6.36455">
        <ele>383</ele>
        <time>2019-07-29T11:32:44Z</time>
      </trkpt>
      <trkpt lat="46.05076" lon="6.36435">
        <ele>384</ele>
        <time>2019-07-29T11:32:48Z</time>
      </trkpt>
      <trkpt lat="46.05074" lon="6.36417">
        <ele>384</ele>
        <time>2019-07-29T11:32:52Z</time>
      </trkpt>
      <trkpt lat="46.05072" lon="6.36398">
        <ele>385</ele>
        <time>2019-07-29T11:32:56Z</time>
      </trkpt>
      <trkpt lat="46.0507" lon="6.36382">
        <ele>386</ele>
        <time>2019-07-29T11:33:00Z</time>
      </trkpt>
      <trkpt lat="46.05069" lon="6.36363">
        <ele>387</ele>
        <time>2019-07-29T11:33:04Z</time>
      </trkpt>
      <trkpt lat="46.05069" lon="6.36346">
        <ele>388</ele>
        <time>2019-07-29T11:33:08Z</time>
      </trkpt>
      <trkpt lat="46.0507" lon="6.36332">
        <ele>388</ele>
        <time>2019-07-29T11:33:12Z</time>
      </trkpt>
      <trkpt lat="46.05072" lon="6.36314">
        <ele>389</ele>
        <time>2019-07-29T11:33:16Z</time>
      </trkpt>
      <trkpt lat="46.05073" lon="6.36295">
        <ele>390</ele>
        <time>2019-07-29T11:33:20Z</time>
      </trkpt>
      <trkpt lat="46.05076" lon="6.36277">
        <ele>391</ele>
        <time>2019-07-29T11:33:24Z</time>
      </trkpt>
      <trkpt lat="46.05074" lon="6.36258">
        <ele>392</ele>
        <time>2019-07-29T11:33:28Z</time>
      </trkpt>
      <trkpt lat="46.05072" lon="6.3624">
        <ele>393</ele>
        <time>2019-07-29T11:33:32Z</time>
      </trkpt>
      <trkpt lat="46.05072" lon="6.36222">
        <ele>393</ele>
        <time>2019-07-29T11:33:36Z</time>
      </trkpt>
      <trkpt lat="46.05069" lon="6.36202">
        <ele>395</ele>
        <time>2019-07-29T11:33:40Z</time>
      </trkpt>
      <trkpt lat="46.05063" lon="6.36183">
        <ele>396</ele>
        <time>2019-07-29T11:33:44Z</time>
      </trkpt>
      <trkpt lat="46.05062" lon="6.36161">
        <ele>396</ele>
        <time>2019-07-29T11:33:48Z</time>
      </trkpt>
      <trkpt lat="46.0506" lon="6.3614">
        <ele>398</ele>
        <time>2019-07-29T11:33:52Z</time>
      </trkpt>
      <trkpt lat="46.05058" lon="6.36119">
        <ele>398</ele>
        <time>2019-07-29T11:33:56Z</time>
      </trkpt>
      <trkpt lat="46.05059" lon="6.36096">
        <ele>399</ele>
        <time>2019-07-29T11:34:00Z</time>
      </trkpt>
      <trkpt lat="46.05061" lon="6.36075">
        <ele>399</ele>
        <time>2019-07-29T11:34:04Z</time>
      </trkpt>
      <trkpt lat="46.05061" lon="6.36057">
        <ele>400</ele>
        <time>2019-07-29T11:34:08Z</time>
      </trkpt>
      <trkpt lat="46.05059" lon="6.3604">
        <ele>401</ele>
        <time>2019-07-29T11:34:12Z</time>
      </trkpt>
      <trkpt lat="46.05054" lon="6.3602">
        <ele>402</ele>
        <time>2019-07-29T11:34:16Z</time>
      </trkpt>
      <trkpt lat="46.05046" lon="6.36002">
        <ele>402</ele>
        <time>2019-07-29T11:34:20Z</time>
      </trkpt>
      <trkpt lat="46.05036" lon="6.35991">
        <ele>403</ele>
        <time>2019-07-29T11:34:24Z</time>
      </trkpt>
      <trkpt lat="46.0502" lon="6.35984">
        <ele>402</ele>
        <time>2019-07-29T11:34:28Z</time>
      </trkpt>
      <trkpt lat="46.05004" lon="6.35968">
        <ele>402</ele>
        <time>2019-07-29T11:34:32Z</time>
      </trkpt>
      <trkpt lat="46.04987" lon="6.35955">
        <ele>403</ele>
        <time>2019-07-29T11:34:36Z</time>
      </trkpt>
      <trkpt lat="46.0497" lon="6.35942">
        <ele>403</ele>
        <time>2019-07-29T11:34:40Z</time>
      </trkpt>
      <trkpt lat="46.04954" lon="6.35931">
        <ele>403</ele>
        <time>2019-07-29T11:34:44Z</time>
      </trkpt>
      <trkpt lat="46.04937" lon="6.35918">
        <ele>403</ele>
        <time>2019-07-29T11:34:48Z</time>
      </trkpt>
      <trkpt lat="46.04921" lon="6.35906">
        <ele>404</ele>
        <time>2019-07-29T11:34:52Z</time>
      </trkpt>
      <trkpt lat="46.04905" lon="6.35895">
        <ele>405</ele>
        <time>2019-07-29T11:34:56Z</time>
      </trkpt>
      <trkpt lat="46.04888" lon="6.35886">
        <ele>406</ele>
        <time>2019-07-29T11:35:00Z</time>
      </trkpt>
      <trkpt lat="46.0487" lon="6.35879">
        <ele>406</ele>
        <time>2019-07-29T11:35:04Z</time>
      </trkpt>
      <trkpt lat="46.04852" lon="6.35872">
        <ele>407</ele>
        <time>2019-07-29T11:35:08Z</time>
      </trkpt>
      <trkpt lat="46.04834" lon="6.35868">
        <ele>407</ele>
        <time>2019-07-29T11:35:12Z</time>
      </trkpt>
      <trkpt lat="46.04816" lon="6.35865">
        <ele>408</ele>
        <time>2019-07-29T11:35:16Z</time>
      </trkpt>
      <trkpt lat="46.048" lon="6.35866">
        <ele>410</ele>
        <time>2019-07-29T11:35:20Z</time>
      </trkpt>
      <trkpt lat="46.04786" lon="6.35865">
        <ele>411</ele>
        <time>2019-07-29T11:35:24Z</time>
      </trkpt>
      <trkpt lat="46.04772" lon="6.35866">
        <ele>412</ele>
        <time>2019-07-29T11:35:28Z</time>
      </trkpt>
      <trkpt lat="46.04759" lon="6.35863">
        <ele>414</ele>
        <time>2019-07-29T11:35:32Z</time>
      </trkpt>
      <trkpt lat="46.04749" lon="6.35854">
        <ele>414</ele>
        <time>2019-07-29T11:35:36Z</time>
      </trkpt>
      <trkpt lat="46.0475" lon="6.35834">
        <ele>413</ele>
        <time>2019-07-29T11:35:40Z</time>
      </trkpt>
      <trkpt lat="46.04752" lon="6.3581">
        <ele>413</ele>
        <time>2019-07-29T11:35:44Z</time>
      </trkpt>
      <trkpt lat="46.04755" lon="6.3578">
        <ele>412</ele>
        <time>2019-07-29T11:35:48Z</time>
      </trkpt>
      <trkpt lat="46.04756" lon="6.35745">
        <ele>409</ele>
        <time>2019-07-29T11:35:52Z</time>
      </trkpt>
      <trkpt lat="46.04759" lon="6.35708">
        <ele>408</ele>
        <time>2019-07-29T11:35:56Z</time>
      </trkpt>
      <trkpt lat="46.04764" lon="6.35672">
        <ele>408</ele>
        <time>2019-07-29T11:36:00Z</time>
      </trkpt>
      <trkpt lat="46.04769" lon="6.35634">
        <ele>409</ele>
        <time>2019-07-29T11:36:04Z</time>
      </trkpt>
      <trkpt lat="46.04772" lon="6.35596">
        <ele>407</ele>
        <time>2019-07-29T11:36:08Z</time>
      </trkpt>
      <trkpt lat="46.04776" lon="6.35558">
        <ele>407</ele>
        <time>2019-07-29T11:36:12Z</time>
      </trkpt>
      <trkpt lat="46.0478" lon="6.35518">
        <ele>408</ele>
        <time>2019-07-29T11:36:16Z</time>
      </trkpt>
      <trkpt lat="46.04782" lon="6.35481">
        <ele>408</ele>
        <time>2019-07-29T11:36:20Z</time>
      </trkpt>
      <trkpt lat="46.0478" lon="6.35445">
        <ele>408</ele>
        <time>2019-07-29T11:36:24Z</time>
      </trkpt>
      <trkpt lat="46.04776" lon="6.35408">
        <ele>408</ele>
        <time>2019-07-29T11:36:28Z</time>
      </trkpt>
      <trkpt lat="46.04776" lon="6.35371">
        <ele>408</ele>
        <time>2019-07-29T11:36:32Z</time>
      </trkpt>
      <trkpt lat="46.04775" lon="6.35337">
        <ele>410</ele>
        <time>2019-07-29T11:36:36Z</time>
      </trkpt>
      <trkpt lat="46.04774" lon="6.35304">
        <ele>411</ele>
        <time>2019-07-29T11:36:40Z</time>
      </trkpt>
      <trkpt lat="46.04773" lon="6.35272">
        <ele>412</ele>
        <time>2019-07-29T11:36:44Z</time>
      </trkpt>
      <trkpt lat="46.04772" lon="6.3524">
        <ele>412</ele>
        <time>2019-07-29T11:36:48Z</time>
      </trkpt>
      <trkpt lat="46.0477" lon="6.35208">
        <ele>413</ele>
        <time>2019-07-29T11:36:52Z</time>
      </trkpt>
      <trkpt lat="46.04772" lon="6.35176">
        <ele>413</ele>
        <time>2019-07-29T11:36:56Z</time>
      </trkpt>
      <trkpt lat="46.04785" lon="6.3515">
        <ele>414</ele>
        <time>2019-07-29T11:37:00Z</time>
      </trkpt>
      <trkpt lat="46.048" lon="6.35128">
        <ele>415</ele>
        <time>2019-07-29T11:37:04Z</time>
      </trkpt>
      <trkpt lat="46.04818" lon="6.35106">
        <ele>415</ele>
        <time>2019-07-29T11:37:08Z</time>
      </trkpt>
      <trkpt lat="46.04834" lon="6.35082">
        <ele>415</ele>
        <time>2019-07-29T11:37:12Z</time>
      </trkpt>
      <trkpt lat="46.04847" lon="6.35055">
        <ele>414</ele>
        <time>2019-07-29T11:37:16Z</time>
      </trkpt>
      <trkpt lat="46.04856" lon="6.35022">
        <ele>415</ele>
        <time>2019-07-29T11:37:20Z</time>
      </trkpt>
      <trkpt lat="46.04862" lon="6.34987">
        <ele>414</ele>
        <time>2019-07-29T11:37:24Z</time>
      </trkpt>
      <trkpt lat="46.04869" lon="6.34953">
        <ele>414</ele>
        <time>2019-07-29T11:37:28Z</time>
      </trkpt>
      <trkpt lat="46.04876" lon="6.34919">
        <ele>414</ele>
        <time>2019-07-29T11:37:32Z</time>
      </trkpt>
      <trkpt lat="46.04882" lon="6.34886">
        <ele>414</ele>
        <time>2019-07-29T11:37:36Z</time>
      </trkpt>
      <trkpt lat="46.04887" lon="6.34853">
        <ele>415</ele>
        <time>2019-07-29T11:37:40Z</time>
      </trkpt>
      <trkpt lat="46.04891" lon="6.34818">
        <ele>415</ele>
        <time>2019-07-29T11:37:44Z</time>
      </trkpt>
      <trkpt lat="46.04894" lon="6.34782">
        <ele>414</ele>
        <time>2019-07-29T11:37:48Z</time>
      </trkpt>
      <trkpt lat="46.04897" lon="6.34746">
        <ele>414</ele>
        <time>2019-07-29T11:37:52Z</time>
      </trkpt>
      <trkpt lat="46.049" lon="6.3471">
        <ele>414</ele>
        <time>2019-07-29T11:37:56Z</time>
      </trkpt>
      <trkpt lat="46.04905" lon="6.34674">
        <ele>414</ele>
        <time>2019-07-29T11:38:00Z</time>
      </trkpt>
      <trkpt lat="46.04905" lon="6.34637">
        <ele>414</ele>
        <time>2019-07-29T11:38:04Z</time>
      </trkpt>
      <trkpt lat="46.04903" lon="6.34603">
        <ele>415</ele>
        <time>2019-07-29T11:38:08Z</time>
      </trkpt>
      <trkpt lat="46.04903" lon="6.34569">
        <ele>416</ele>
        <time>2019-07-29T11:38:12Z</time>
      </trkpt>
      <trkpt lat="46.04899" lon="6.34535">
        <ele>416</ele>
        <time>2019-07-29T11:38:16Z</time>
      </trkpt>
      <trkpt lat="46.04895" lon="6.34502">
        <ele>417</ele>
        <time>2019-07-29T11:38:20Z</time>
      </trkpt>
      <trkpt lat="46.04891" lon="6.3447">
        <ele>418</ele>
        <time>2019-07-29T11:38:24Z</time>
      </trkpt>
      <trkpt lat="46.04887" lon="6.34438">
        <ele>418</ele>
        <time>2019-07-29T11:38:28Z</time>
      </trkpt>
      <trkpt lat="46.04883" lon="6.34407">
        <ele>419</ele>
        <time>2019-07-29T11:38:32Z</time>
      </trkpt>
      <trkpt lat="46.04877" lon="6.34378">
        <ele>419</ele>
        <time>2019-07-29T11:38:36Z</time>
      </trkpt>
      <trkpt lat="46.04871" lon="6.34354">
        <ele>421</ele>
        <time>2019-07-29T11:38:40Z</time>
      </trkpt>
      <trkpt lat="46.04857" lon="6.34348">
        <ele>423</ele>
        <time>2019-07-29T11:38:44Z</time>
      </trkpt>
      <trkpt lat="46.04846" lon="6.34347">
        <ele>424</ele>
        <time>2019-07-29T11:38:48Z</time>
      </trkpt>
      <trkpt lat="46.04836" lon="6.34352">
        <ele>424</ele>
        <time>2019-07-29T11:38:52Z</time>
      </trkpt>
      <trkpt lat="46.04826" lon="6.34353">
        <ele>425</ele>
        <time>2019-07-29T11:38:56Z</time>
      </trkpt>
      <trkpt lat="46.04813" lon="6.34355">
        <ele>427</ele>
        <time>2019-07-29T11:39:00Z</time>
      </trkpt>
      <trkpt lat="46.04802" lon="6.34357">
        <ele>428</ele>
        <time>2019-07-29T11:39:04Z</time>
      </trkpt>
      <trkpt lat="46.04792" lon="6.34358">
        <ele>429</ele>
        <time>2019-07-29T11:39:08Z</time>
      </trkpt>
      <trkpt lat="46.04783" lon="6.34359">
        <ele>430</ele>
        <time>2019-07-29T11:39:12Z</time>
      </trkpt>
      <trkpt lat="46.0477" lon="6.34359">
        <ele>432</ele>
        <time>2019-07-29T11:39:16Z</time>
      </trkpt>
      <trkpt lat="46.04759" lon="6.34357">
        <ele>433</ele>
        <time>2019-07-29T11:39:20Z</time>
      </trkpt>
      <trkpt lat="46.04749" lon="6.34354">
        <ele>433</ele>
        <time>2019-07-29T11:39:24Z</time>
      </trkpt>
      <trkpt lat="46.04739" lon="6.34351">
        <ele>435</ele>
        <time>2019-07-29T11:39:28Z</time>
      </trkpt>
      <trkpt lat="46.0473" lon="6.34347">
        <ele>436</ele>
        <time>2019-07-29T11:39:32Z</time>
      </trkpt>
      <trkpt lat="46.04721" lon="6.34347">
        <ele>437</ele>
        <time>2019-07-29T11:39:36Z</time>
      </trkpt>
      <trkpt lat="46.04711" lon="6.34347">
        <ele>438</ele>
        <time>2019-07-29T11:39:40Z</time>
      </trkpt>
      <trkpt lat="46.04701" lon="6.34346">
        <ele>439</ele>
        <time>2019-07-29T11:39:44Z</time>
      </trkpt>
      <trkpt lat="46.0469" lon="6.34343">
        <ele>440</ele>
        <time>2019-07-29T11:39:48Z</time>
      </trkpt>
      <trkpt lat="46.0468" lon="6.34338">
        <ele>441</ele>
        <time>2019-07-29T11:39:52Z</time>
      </trkpt>
      <trkpt lat="46.04672" lon="6.34335">
        <ele>442</ele>
        <time>2019-07-29T11:39:56Z</time>
      </trkpt>
      <trkpt lat="46.04662" lon="6.34333">
        <ele>443</ele>
        <time>2019-07-29T11:40:00Z</time>
      </trkpt>
      <trkpt lat="46.04653" lon="6.34332">
        <ele>444</ele>
        <time>2019-07-29T11:40:04Z</time>
      </trkpt>
      <trkpt lat="46.04643" lon="6.34332">
        <ele>445</ele>
        <time>2019-07-29T11:40:08Z</time>
      </trkpt>
      <trkpt lat="46.04635" lon="6.34334">
        <ele>447</ele>
        <time>2019-07-29T11:40:12Z</time>
      </trkpt>
      <trkpt lat="46.04625" lon="6.34334">
        <ele>447</ele>
        <time>2019-07-29T11:40:16Z</time>
      </trkpt>
      <trkpt lat="46.04617" lon="6.34335">
        <ele>448</ele>
        <time>2019-07-29T11:40:20Z</time>
      </trkpt>
      <trkpt lat="46.04608" lon="6.34336">
        <ele>450</ele>
        <time>2019-07-29T11:40:24Z</time>
      </trkpt>
      <trkpt lat="46.04599" lon="6.34337">
        <ele>451</ele>
        <time>2019-07-29T11:40:28Z</time>
      </trkpt>
      <trkpt lat="46.0459" lon="6.34336">
        <ele>452</ele>
        <time>2019-07-29T11:40:32Z</time>
      </trkpt>
      <trkpt lat="46.04581" lon="6.34334">
        <ele>453</ele>
        <time>2019-07-29T11:40:36Z</time>
      </trkpt>
      <trkpt lat="46.04571" lon="6.34333">
        <ele>454</ele>
        <time>2019-07-29T11:40:40Z</time>
      </trkpt>
      <trkpt lat="46.04564" lon="6.34327">
        <ele>455</ele>
        <time>2019-07-29T11:40:44Z</time>
      </trkpt>
      <trkpt lat="46.04556" lon="6.34321">
        <ele>455</ele>
        <time>2019-07-29T11:40:48Z</time>
      </trkpt>
      <trkpt lat="46.04549" lon="6.34314">
        <ele>457</ele>
        <time>2019-07-29T11:40:52Z</time>
      </trkpt>
      <trkpt lat="46.04541" lon="6.34307">
        <ele>458</ele>
        <time>2019-07-29T11:40:56Z</time>
      </trkpt>
      <trkpt lat="46.04533" lon="6.343">
        <ele>459</ele>
        <time>2019-07-29T11:41:00Z</time>
      </trkpt>
      <trkpt lat="46.04525" lon="6.34293">
        <ele>460</ele>
        <time>2019-07-29T11:41:04Z</time>
      </trkpt>
      <trkpt lat="46.04516" lon="6.34287">
        <ele>461</ele>
        <time>2019-07-29T11:41:08Z</time>
      </trkpt>
      <trkpt lat="46.04507" lon="6.3428">
        <ele>462</ele>
        <time>2019-07-29T11:41:12Z</time>
      </trkpt>
      <trkpt lat="46.04498" lon="6.34272">
        <ele>462</ele>
        <time>2019-07-29T11:41:16Z</time>
      </trkpt>
      <trkpt lat="46.04491" lon="6.34261">
        <ele>463</ele>
        <time>2019-07-29T11:41:20Z</time>
      </trkpt>
      <trkpt lat="46.04487" lon="6.34246">
        <ele>464</ele>
        <time>2019-07-29T11:41:24Z</time>
      </trkpt>
      <trkpt lat="46.04484" lon="6.3423">
        <ele>464</ele>
        <time>2019-07-29T11:41:28Z</time>
      </trkpt>
      <trkpt lat="46.0448" lon="6.34214">
        <ele>465</ele>
        <time>2019-07-29T11:41:32Z</time>
      </trkpt>
      <trkpt lat="46.04475" lon="6.34199">
        <ele>466</ele>
        <time>2019-07-29T11:41:36Z</time>
      </trkpt>
      <trkpt lat="46.04469" lon="6.34182">
        <ele>466</ele>
        <time>2019-07-29T11:41:40Z</time>
      </trkpt>
      <trkpt lat="46.04464" lon="6.34166">
        <ele>467</ele>
        <time>2019-07-29T11:41:44Z</time>
      </trkpt>
      <trkpt lat="46.0446" lon="6.34151">
        <ele>467</ele>
        <time>2019-07-29T11:41:48Z</time>
      </trkpt>
      <trkpt lat="46.04457" lon="6.34135">
        <ele>469</ele>
        <time>2019-07-29T11:41:52Z</time>
      </trkpt>
      <trkpt lat="46.04456" lon="6.34118">
        <ele>469</ele>
        <time>2019-07-29T11:41:56Z</time>
      </trkpt>
      <trkpt lat="46.04456" lon="6.34099">
        <ele>470</ele>
        <time>2019-07-29T11:42:00Z</time>
      </trkpt>
      <trkpt lat="46.04459" lon="6.34078">
        <ele>469</ele>
        <time>2019-07-29T11:42:04Z</time>
      </trkpt>
      <trkpt lat="46.04463" lon="6.34052">
        <ele>468</ele>
        <time>2019-07-29T11:42:08Z</time>
      </trkpt>
      <trkpt lat="46.04466" lon="6.34024">
        <ele>468</ele>
        <time>2019-07-29T11:42:12Z</time>
      </trkpt>
      <trkpt lat="46.04467" lon="6.33997">
        <ele>468</ele>
        <time>2019-07-29T11:42:16Z</time>
      </trkpt>
      <trkpt lat="46.04465" lon="6.3397">
        <ele>468</ele>
        <time>2019-07-29T11:42:20Z</time>
      </trkpt>
      <trkpt lat="46.04461" lon="6.33943">
        <ele>470</ele>
        <time>2019-07-29T11:42:24Z</time>
      </trkpt>
      <trkpt lat="46.04456" lon="6.33923">
        <ele>472</ele>
        <time>2019-07-29T11:42:28Z</time>
      </trkpt>
      <trkpt lat="46.04452" lon="6.33903">
        <ele>473</ele>
        <time>2019-07-29T11:42:32Z</time>
      </trkpt>
      <trkpt lat="46.0445" lon="6.33883">
        <ele>474</ele>
        <time>2019-07-29T11:42:36Z</time>
      </trkpt>
      <trkpt lat="46.04449" lon="6.33862">
        <ele>475</ele>
        <time>2019-07-29T11:42:40Z</time>
      </trkpt>
      <trkpt lat="46.04446" lon="6.3384">
        <ele>475</ele>
        <time>2019-07-29T11:42:44Z</time>
      </trkpt>
      <trkpt lat="46.04442" lon="6.33815">
        <ele>475</ele>
        <time>2019-07-29T11:42:48Z</time>
      </trkpt>
      <trkpt lat="46.04437" lon="6.33788">
        <ele>475</ele>
        <time>2019-07-29T11:42:52Z</time>
      </trkpt>
      <trkpt lat="46.04434" lon="6.33761">
        <ele>476</ele>
        <time>2019-07-29T11:42:56Z</time>
      </trkpt>
      <trkpt lat="46.0443" lon="6.33739">
        <ele>478</ele>
        <time>2019-07-29T11:43:00Z</time>
      </trkpt>
      <trkpt lat="46.04426" lon="6.33721">
        <ele>479</ele>
        <time>2019-07-29T11:43:04Z</time>
      </trkpt>
      <trkpt lat="46.04421" lon="6.33704">
        <ele>480</ele>
        <time>2019-07-29T11:43:08Z</time>
      </trkpt>
      <trkpt lat="46.04415" lon="6.33683">
        <ele>480</ele>
        <time>2019-07-29T11:43:12Z</time>
      </trkpt>
      <trkpt lat="46.0441" lon="6.33661">
        <ele>480</ele>
        <time>2019-07-29T11:43:16Z</time>
      </trkpt>
      <trkpt lat="46.04408" lon="6.33637">
        <ele>479</ele>
        <time>2019-07-29T11:43:20Z</time>
      </trkpt>
      <trkpt lat="46.04406" lon="6.33611">
        <ele>479</ele>
        <time>2019-07-29T11:43:24Z</time>
      </trkpt>
      <trkpt lat="46.04404" lon="6.33585">
        <ele>478</ele>
        <time>2019-07-29T11:43:28Z</time>
      </trkpt>
      <trkpt lat="46.04401" lon="6.33561">
        <ele>480</ele>
        <time>2019-07-29T11:43:32Z</time>
      </trkpt>
      <trkpt lat="46.04394" lon="6.33541">
        <ele>484</ele>
        <time>2019-07-29T11:43:36Z</time>
      </trkpt>
      <trkpt lat="46.04391" lon="6.33523">
        <ele>485</ele>
        <time>2019-07-29T11:43:40Z</time>
      </trkpt>
      <trkpt lat="46.04386" lon="6.33503">
        <ele>485</ele>
        <time>2019-07-29T11:43:44Z</time>
      </trkpt>
      <trkpt lat="46.04377" lon="6.33486">
        <ele>486</ele>
        <time>2019-07-29T11:43:48Z</time>
      </trkpt>
      <trkpt lat="46.04376" lon="6.33464">
        <ele>487</ele>
        <time>2019-07-29T11:43:52Z</time>
      </trkpt>
      <trkpt lat="46.04371" lon="6.3345">
        <ele>489</ele>
        <time>2019-07-29T11:43:56Z</time>
      </trkpt>
      <trkpt lat="46.04372" lon="6.33442">
        <ele>489</ele>
        <time>2019-07-29T11:44:00Z</time>
      </trkpt>
      <trkpt lat="46.04372" lon="6.33433">
        <ele>488</ele>
        <time>2019-07-29T11:44:04Z</time>
      </trkpt>
      <trkpt lat="46.04376" lon="6.3342">
        <ele>488</ele>
        <time>2019-07-29T11:44:08Z</time>
      </trkpt>
      <trkpt lat="46.04379" lon="6.33398">
        <ele>485</ele>
        <time>2019-07-29T11:44:12Z</time>
      </trkpt>
      <trkpt lat="46.04386" lon="6.33375">
        <ele>484</ele>
        <time>2019-07-29T11:44:16Z</time>
      </trkpt>
      <trkpt lat="46.04403" lon="6.33366">
        <ele>482</ele>
        <time>2019-07-29T11:44:20Z</time>
      </trkpt>
      <trkpt lat="46.04417" lon="6.3336">
        <ele>479</ele>
        <time>2019-07-29T11:44:24Z</time>
      </trkpt>
      <trkpt lat="46.04431" lon="6.33348">
        <ele>476</ele>
        <time>2019-07-29T11:44:28Z</time>
      </trkpt>
      <trkpt lat="46.0444" lon="6.33325">
        <ele>472</ele>
        <time>2019-07-29T11:44:32Z</time>
      </trkpt>
      <trkpt lat="46.04444" lon="6.33299">
        <ele>467</ele>
        <time>2019-07-29T11:44:36Z</time>
      </trkpt>
      <trkpt lat="46.04449" lon="6.33275">
        <ele>465</ele>
        <time>2019-07-29T11:44:40Z</time>
      </trkpt>
      <trkpt lat="46.04466" lon="6.33257">
        <ele>462</ele>
        <time>2019-07-29T11:44:44Z</time>
      </trkpt>
      <trkpt lat="46.04486" lon="6.3324">
        <ele>456</ele>
        <time>2019-07-29T11:44:48Z</time>
      </trkpt>
      <trkpt lat="46.04505" lon="6.33226">
        <ele>453</ele>
        <time>2019-07-29T11:44:52Z</time>
      </trkpt>
      <trkpt lat="46.04516" lon="6.332">
        <ele>450</ele>
        <time>2019-07-29T11:44:56Z</time>
      </trkpt>
      <trkpt lat="46.04517" lon="6.33169">
        <ele>448</ele>
        <time>2019-07-29T11:45:00Z</time>
      </trkpt>
      <trkpt lat="46.04525" lon="6.33158">
        <ele>447</ele>
        <time>2019-07-29T11:45:04Z</time>
      </trkpt>
      <trkpt lat="46.04531" lon="6.33153">
        <ele>447</ele>
        <time>2019-07-29T11:45:28Z</time>
      </trkpt>
      <trkpt lat="46.04532" lon="6.33154">
        <ele>447</ele>
        <time>2019-07-29T11:45:32Z</time>
      </trkpt>
      <trkpt lat="46.04529" lon="6.33155">
        <ele>448</ele>
        <time>2019-07-29T11:45:36Z</time>
      </trkpt>
      <trkpt lat="46.04521" lon="6.3316">
        <ele>448</ele>
        <time>2019-07-29T11:45:40Z</time>
      </trkpt>
      <trkpt lat="46.04518" lon="6.33173">
        <ele>450</ele>
        <time>2019-07-29T11:45:44Z</time>
      </trkpt>
      <trkpt lat="46.04516" lon="6.33188">
        <ele>450</ele>
        <time>2019-07-29T11:45:48Z</time>
      </trkpt>
      <trkpt lat="46.04516" lon="6.33202">
        <ele>451</ele>
        <time>2019-07-29T11:45:52Z</time>
      </trkpt>
      <trkpt lat="46.04515" lon="6.33216">
        <ele>453</ele>
        <time>2019-07-29T11:45:56Z</time>
      </trkpt>
      <trkpt lat="46.04508" lon="6.33225">
        <ele>455</ele>
        <time>2019-07-29T11:46:00Z</time>
      </trkpt>
      <trkpt lat="46.04501" lon="6.33231">
        <ele>456</ele>
        <time>2019-07-29T11:46:04Z</time>
      </trkpt>
      <trkpt lat="46.04495" lon="6.33237">
        <ele>457</ele>
        <time>2019-07-29T11:46:08Z</time>
      </trkpt>
      <trkpt lat="46.04489" lon="6.33244">
        <ele>458</ele>
        <time>2019-07-29T11:46:12Z</time>
      </trkpt>
      <trkpt lat="46.04483" lon="6.3325">
        <ele>460</ele>
        <time>2019-07-29T11:46:16Z</time>
      </trkpt>
      <trkpt lat="46.04475" lon="6.33254">
        <ele>460</ele>
        <time>2019-07-29T11:46:20Z</time>
      </trkpt>
      <trkpt lat="46.04467" lon="6.3326">
        <ele>462</ele>
        <time>2019-07-29T11:46:24Z</time>
      </trkpt>
      <trkpt lat="46.0446" lon="6.33266">
        <ele>463</ele>
        <time>2019-07-29T11:46:28Z</time>
      </trkpt>
      <trkpt lat="46.04453" lon="6.33271">
        <ele>464</ele>
        <time>2019-07-29T11:46:32Z</time>
      </trkpt>
      <trkpt lat="46.04448" lon="6.33278">
        <ele>466</ele>
        <time>2019-07-29T11:46:36Z</time>
      </trkpt>
      <trkpt lat="46.04444" lon="6.33286">
        <ele>467</ele>
        <time>2019-07-29T11:46:40Z</time>
      </trkpt>
      <trkpt lat="46.04443" lon="6.33297">
        <ele>468</ele>
        <time>2019-07-29T11:46:44Z</time>
      </trkpt>
      <trkpt lat="46.04443" lon="6.33308">
        <ele>469</ele>
        <time>2019-07-29T11:46:48Z</time>
      </trkpt>
      <trkpt lat="46.04443" lon="6.33318">
        <ele>471</ele>
        <time>2019-07-29T11:46:52Z</time>
      </trkpt>
      <trkpt lat="46.04442" lon="6.33328">
        <ele>472</ele>
        <time>2019-07-29T11:46:56Z</time>
      </trkpt>
      <trkpt lat="46.04438" lon="6.33336">
        <ele>474</ele>
        <time>2019-07-29T11:47:00Z</time>
      </trkpt>
      <trkpt lat="46.04434" lon="6.33346">
        <ele>475</ele>
        <time>2019-07-29T11:47:04Z</time>
      </trkpt>
      <trkpt lat="46.0443" lon="6.33353">
        <ele>477</ele>
        <time>2019-07-29T11:47:08Z</time>
      </trkpt>
      <trkpt lat="46.04424" lon="6.33359">
        <ele>479</ele>
        <time>2019-07-29T11:47:12Z</time>
      </trkpt>
      <trkpt lat="46.04417" lon="6.33363">
        <ele>481</ele>
        <time>2019-07-29T11:47:16Z</time>
      </trkpt>
      <trkpt lat="46.04409" lon="6.33365">
        <ele>482</ele>
        <time>2019-07-29T11:47:20Z</time>
      </trkpt>
      <trkpt lat="46.04402" lon="6.33365">
        <ele>484</ele>
        <time>2019-07-29T11:47:24Z</time>
      </trkpt>
      <trkpt lat="46.04395" lon="6.33367">
        <ele>485</ele>
        <time>2019-07-29T11:47:28Z</time>
      </trkpt>
      <trkpt lat="46.04389" lon="6.33373">
        <ele>485</ele>
        <time>2019-07-29T11:47:32Z</time>
      </trkpt>
      <trkpt lat="46.04384" lon="6.33383">
        <ele>485</ele>
        <time>2019-07-29T11:47:36Z</time>
      </trkpt>
      <trkpt lat="46.04381" lon="6.33396">
        <ele>486</ele>
        <time>2019-07-29T11:47:40Z</time>
      </trkpt>
      <trkpt lat="46.04379" lon="6.33411">
        <ele>487</ele>
        <time>2019-07-29T11:47:44Z</time>
      </trkpt>
      <trkpt lat="46.04377" lon="6.33425">
        <ele>488</ele>
        <time>2019-07-29T11:47:48Z</time>
      </trkpt>
      <trkpt lat="46.04374" lon="6.33439">
        <ele>488</ele>
        <time>2019-07-29T11:47:52Z</time>
      </trkpt>
      <trkpt lat="46.04367" lon="6.33444">
        <ele>490</ele>
        <time>2019-07-29T11:47:56Z</time>
      </trkpt>
      <trkpt lat="46.0436" lon="6.33435">
        <ele>491</ele>
        <time>2019-07-29T11:48:00Z</time>
      </trkpt>
      <trkpt lat="46.04353" lon="6.33429">
        <ele>493</ele>
        <time>2019-07-29T11:48:04Z</time>
      </trkpt>
      <trkpt lat="46.04348" lon="6.33424">
        <ele>493</ele>
        <time>2019-07-29T11:48:08Z</time>
      </trkpt>
      <trkpt lat="46.04347" lon="6.33424">
        <ele>493</ele>
        <time>2019-07-29T11:48:56Z</time>
      </trkpt>
      <trkpt lat="46.0435" lon="6.33429">
        <ele>492</ele>
        <time>2019-07-29T11:49:00Z</time>
      </trkpt>
      <trkpt lat="46.04357" lon="6.33434">
        <ele>491</ele>
        <time>2019-07-29T11:49:04Z</time>
      </trkpt>
      <trkpt lat="46.04364" lon="6.33443">
        <ele>490</ele>
        <time>2019-07-29T11:49:08Z</time>
      </trkpt>
      <trkpt lat="46.04371" lon="6.33451">
        <ele>488</ele>
        <time>2019-07-29T11:49:12Z</time>
      </trkpt>
      <trkpt lat="46.04376" lon="6.33469">
        <ele>487</ele>
        <time>2019-07-29T11:49:16Z</time>
      </trkpt>
      <trkpt lat="46.04375" lon="6.33482">
        <ele>486</ele>
        <time>2019-07-29T11:49:20Z</time>
      </trkpt>
      <trkpt lat="46.04378" lon="6.33486">
        <ele>487</ele>
        <time>2019-07-29T11:49:44Z</time>
      </trkpt>
      <trkpt lat="46.04378" lon="6.33481">
        <ele>487</ele>
        <time>2019-07-29T11:49:48Z</time>
      </trkpt>
      <trkpt lat="46.04377" lon="6.33472">
        <ele>487</ele>
        <time>2019-07-29T11:49:52Z</time>
      </trkpt>
      <trkpt lat="46.04376" lon="6.33458">
        <ele>487</ele>
        <time>2019-07-29T11:49:56Z</time>
      </trkpt>
      <trkpt lat="46.04373" lon="6.33443">
        <ele>488</ele>
        <time>2019-07-29T11:50:00Z</time>
      </trkpt>
      <trkpt lat="46.04373" lon="6.3343">
        <ele>488</ele>
        <time>2019-07-29T11:50:04Z</time>
      </trkpt>
      <trkpt lat="46.04375" lon="6.33414">
        <ele>487</ele>
        <time>2019-07-29T11:50:08Z</time>
      </trkpt>
      <trkpt lat="46.04378" lon="6.33391">
        <ele>486</ele>
        <time>2019-07-29T11:50:12Z</time>
      </trkpt>
      <trkpt lat="46.04386" lon="6.33372">
        <ele>485</ele>
        <time>2019-07-29T11:50:16Z</time>
      </trkpt>
      <trkpt lat="46.04401" lon="6.33365">
        <ele>483</ele>
        <time>2019-07-29T11:50:20Z</time>
      </trkpt>
      <trkpt lat="46.04415" lon="6.33363">
        <ele>480</ele>
        <time>2019-07-29T11:50:24Z</time>
      </trkpt>
      <trkpt lat="46.04427" lon="6.33354">
        <ele>477</ele>
        <time>2019-07-29T11:50:28Z</time>
      </trkpt>
      <trkpt lat="46.04437" lon="6.3334">
        <ele>475</ele>
        <time>2019-07-29T11:50:32Z</time>
      </trkpt>
      <trkpt lat="46.04443" lon="6.33314">
        <ele>470</ele>
        <time>2019-07-29T11:50:36Z</time>
      </trkpt>
      <trkpt lat="46.04445" lon="6.33288">
        <ele>467</ele>
        <time>2019-07-29T11:50:40Z</time>
      </trkpt>
      <trkpt lat="46.04454" lon="6.33268">
        <ele>465</ele>
        <time>2019-07-29T11:50:44Z</time>
      </trkpt>
      <trkpt lat="46.04463" lon="6.33253">
        <ele>462</ele>
        <time>2019-07-29T11:50:48Z</time>
      </trkpt>
      <trkpt lat="46.04455" lon="6.33225">
        <ele>460</ele>
        <time>2019-07-29T11:50:52Z</time>
      </trkpt>
      <trkpt lat="46.04453" lon="6.33196">
        <ele>460</ele>
        <time>2019-07-29T11:50:56Z</time>
      </trkpt>
      <trkpt lat="46.04456" lon="6.33175">
        <ele>462</ele>
        <time>2019-07-29T11:51:00Z</time>
      </trkpt>
      <trkpt lat="46.04464" lon="6.33165">
        <ele>463</ele>
        <time>2019-07-29T11:51:04Z</time>
      </trkpt>
      <trkpt lat="46.04472" lon="6.33155">
        <ele>465</ele>
        <time>2019-07-29T11:51:08Z</time>
      </trkpt>
      <trkpt lat="46.04477" lon="6.33146">
        <ele>465</ele>
        <time>2019-07-29T11:51:12Z</time>
      </trkpt>
      <trkpt lat="46.04484" lon="6.33137">
        <ele>464</ele>
        <time>2019-07-29T11:51:16Z</time>
      </trkpt>
      <trkpt lat="46.04486" lon="6.33124">
        <ele>464</ele>
        <time>2019-07-29T11:51:20Z</time>
      </trkpt>
      <trkpt lat="46.04484" lon="6.33111">
        <ele>463</ele>
        <time>2019-07-29T11:51:24Z</time>
      </trkpt>
      <trkpt lat="46.04484" lon="6.33097">
        <ele>463</ele>
        <time>2019-07-29T11:51:28Z</time>
      </trkpt>
      <trkpt lat="46.04485" lon="6.33089">
        <ele>462</ele>
        <time>2019-07-29T11:51:32Z</time>
      </trkpt>
      <trkpt lat="46.0449" lon="6.33079">
        <ele>461</ele>
        <time>2019-07-29T11:51:36Z</time>
      </trkpt>
      <trkpt lat="46.04495" lon="6.33069">
        <ele>461</ele>
        <time>2019-07-29T11:51:40Z</time>
      </trkpt>
      <trkpt lat="46.04499" lon="6.33054">
        <ele>460</ele>
        <time>2019-07-29T11:51:44Z</time>
      </trkpt>
      <trkpt lat="46.04503" lon="6.33035">
        <ele>459</ele>
        <time>2019-07-29T11:51:48Z</time>
      </trkpt>
      <trkpt lat="46.04508" lon="6.3302">
        <ele>460</ele>
        <time>2019-07-29T11:51:52Z</time>
      </trkpt>
      <trkpt lat="46.04513" lon="6.33005">
        <ele>460</ele>
        <time>2019-07-29T11:51:56Z</time>
      </trkpt>
      <trkpt lat="46.04518" lon="6.32988">
        <ele>460</ele>
        <time>2019-07-29T11:52:00Z</time>
      </trkpt>
      <trkpt lat="46.04524" lon="6.32974">
        <ele>461</ele>
        <time>2019-07-29T11:52:04Z</time>
      </trkpt>
      <trkpt lat="46.0453" lon="6.32959">
        <ele>460</ele>
        <time>2019-07-29T11:52:08Z</time>
      </trkpt>
      <trkpt lat="46.04537" lon="6.32944">
        <ele>459</ele>
        <time>2019-07-29T11:52:12Z</time>
      </trkpt>
      <trkpt lat="46.04543" lon="6.32929">
        <ele>458</ele>
        <time>2019-07-29T11:52:16Z</time>
      </trkpt>
      <trkpt lat="46.04549" lon="6.32914">
        <ele>456</ele>
        <time>2019-07-29T11:52:20Z</time>
      </trkpt>
      <trkpt lat="46.04559" lon="6.32891">
        <ele>455</ele>
        <time>2019-07-29T11:52:24Z</time>
      </trkpt>
      <trkpt lat="46.04567" lon="6.32865">
        <ele>454</ele>
        <time>2019-07-29T11:52:28Z</time>
      </trkpt>
      <trkpt lat="46.04573" lon="6.32844">
        <ele>456</ele>
        <time>2019-07-29T11:52:32Z</time>
      </trkpt>
      <trkpt lat="46.04578" lon="6.32825">
        <ele>456</ele>
        <time>2019-07-29T11:52:36Z</time>
      </trkpt>
      <trkpt lat="46.04581" lon="6.32806">
        <ele>457</ele>
        <time>2019-07-29T11:52:40Z</time>
      </trkpt>
      <trkpt lat="46.04584" lon="6.32787">
        <ele>456</ele>
        <time>2019-07-29T11:52:44Z</time>
      </trkpt>
      <trkpt lat="46.04588" lon="6.32771">
        <ele>457</ele>
        <time>2019-07-29T11:52:48Z</time>
      </trkpt>
      <trkpt lat="46.04592" lon="6.32756">
        <ele>458</ele>
        <time>2019-07-29T11:52:52Z</time>
      </trkpt>
      <trkpt lat="46.04592" lon="6.32754">
        <ele>458</ele>
        <time>2019-07-29T11:53:20Z</time>
      </trkpt>
      <trkpt lat="46.04594" lon="6.32744">
        <ele>458</ele>
        <time>2019-07-29T11:53:24Z</time>
      </trkpt>
      <trkpt lat="46.04597" lon="6.32726">
        <ele>458</ele>
        <time>2019-07-29T11:53:28Z</time>
      </trkpt>
      <trkpt lat="46.04601" lon="6.32705">
        <ele>458</ele>
        <time>2019-07-29T11:53:32Z</time>
      </trkpt>
      <trkpt lat="46.04607" lon="6.32681">
        <ele>458</ele>
        <time>2019-07-29T11:53:36Z</time>
      </trkpt>
      <trkpt lat="46.04612" lon="6.32655">
        <ele>459</ele>
        <time>2019-07-29T11:53:40Z</time>
      </trkpt>
      <trkpt lat="46.04616" lon="6.32629">
        <ele>459</ele>
        <time>2019-07-29T11:53:44Z</time>
      </trkpt>
      <trkpt lat="46.0462" lon="6.32599">
        <ele>459</ele>
        <time>2019-07-29T11:53:48Z</time>
      </trkpt>
      <trkpt lat="46.04621" lon="6.32569">
        <ele>459</ele>
        <time>2019-07-29T11:53:52Z</time>
      </trkpt>
      <trkpt lat="46.04624" lon="6.32539">
        <ele>460</ele>
        <time>2019-07-29T11:53:56Z</time>
      </trkpt>
      <trkpt lat="46.04626" lon="6.32508">
        <ele>460</ele>
        <time>2019-07-29T11:54:00Z</time>
      </trkpt>
      <trkpt lat="46.04626" lon="6.3248">
        <ele>457</ele>
        <time>2019-07-29T11:54:04Z</time>
      </trkpt>
      <trkpt lat="46.04626" lon="6.32456">
        <ele>455</ele>
        <time>2019-07-29T11:54:08Z</time>
      </trkpt>
      <trkpt lat="46.04637" lon="6.32448">
        <ele>454</ele>
        <time>2019-07-29T11:54:12Z</time>
      </trkpt>
      <trkpt lat="46.04651" lon="6.32444">
        <ele>452</ele>
        <time>2019-07-29T11:54:16Z</time>
      </trkpt>
      <trkpt lat="46.04671" lon="6.32432">
        <ele>447</ele>
        <time>2019-07-29T11:54:20Z</time>
      </trkpt>
      <trkpt lat="46.04697" lon="6.32423">
        <ele>444</ele>
        <time>2019-07-29T11:54:24Z</time>
      </trkpt>
      <trkpt lat="46.04725" lon="6.32412">
        <ele>440</ele>
        <time>2019-07-29T11:54:28Z</time>
      </trkpt>
      <trkpt lat="46.04752" lon="6.32394">
        <ele>437</ele>
        <time>2019-07-29T11:54:32Z</time>
      </trkpt>
      <trkpt lat="46.04774" lon="6.32362">
        <ele>432</ele>
        <time>2019-07-29T11:54:36Z</time>
      </trkpt>
      <trkpt lat="46.0481" lon="6.32361">
        <ele>425</ele>
        <time>2019-07-29T11:54:40Z</time>
      </trkpt>
      <trkpt lat="46.04849" lon="6.32372">
        <ele>418</ele>
        <time>2019-07-29T11:54:44Z</time>
      </trkpt>
      <trkpt lat="46.04894" lon="6.32376">
        <ele>414</ele>
        <time>2019-07-29T11:54:48Z</time>
      </trkpt>
      <trkpt lat="46.04928" lon="6.32369">
        <ele>414</ele>
        <time>2019-07-29T11:54:52Z</time>
      </trkpt>
      <trkpt lat="46.0495" lon="6.3234">
        <ele>412</ele>
        <time>2019-07-29T11:54:56Z</time>
      </trkpt>
      <trkpt lat="46.04945" lon="6.32297">
        <ele>410</ele>
        <time>2019-07-29T11:55:00Z</time>
      </trkpt>
      <trkpt lat="46.04952" lon="6.32269">
        <ele>408</ele>
        <time>2019-07-29T11:55:04Z</time>
      </trkpt>
      <trkpt lat="46.04976" lon="6.32272">
        <ele>407</ele>
        <time>2019-07-29T11:55:08Z</time>
      </trkpt>
      <trkpt lat="46.04988" lon="6.32275">
        <ele>407</ele>
        <time>2019-07-29T11:55:12Z</time>
      </trkpt>
      <trkpt lat="46.04988" lon="6.32275">
        <ele>407</ele>
        <time>2019-07-29T11:55:16Z</time>
      </trkpt>
      <trkpt lat="46.04988" lon="6.32274">
        <ele>407</ele>
        <time>2019-07-29T11:55:20Z</time>
      </trkpt>
      <trkpt lat="46.04988" lon="6.32272">
        <ele>408</ele>
        <time>2019-07-29T11:55:28Z</time>
      </trkpt>
      <trkpt lat="46.04994" lon="6.32276">
        <ele>406</ele>
        <time>2019-07-29T11:55:32Z</time>
      </trkpt>
      <trkpt lat="46.05001" lon="6.32281">
        <ele>406</ele>
        <time>2019-07-29T11:55:36Z</time>
      </trkpt>
      <trkpt lat="46.05006" lon="6.32281">
        <ele>405</ele>
        <time>2019-07-29T11:55:40Z</time>
      </trkpt>
      <trkpt lat="46.05004" lon="6.32277">
        <ele>406</ele>
        <time>2019-07-29T11:55:44Z</time>
      </trkpt>
      <trkpt lat="46.04994" lon="6.32277">
        <ele>406</ele>
        <time>2019-07-29T11:55:48Z</time>
      </trkpt>
      <trkpt lat="46.04984" lon="6.32272">
        <ele>408</ele>
        <time>2019-07-29T11:55:52Z</time>
      </trkpt>
      <trkpt lat="46.04977" lon="6.32258">
        <ele>410</ele>
        <time>2019-07-29T11:55:56Z</time>
      </trkpt>
      <trkpt lat="46.04973" lon="6.32245">
        <ele>411</ele>
        <time>2019-07-29T11:56:00Z</time>
      </trkpt>
      <trkpt lat="46.04971" lon="6.32232">
        <ele>412</ele>
        <time>2019-07-29T11:56:04Z</time>
      </trkpt>
      <trkpt lat="46.04968" lon="6.32215">
        <ele>412</ele>
        <time>2019-07-29T11:56:08Z</time>
      </trkpt>
      <trkpt lat="46.04966" lon="6.32199">
        <ele>414</ele>
        <time>2019-07-29T11:56:12Z</time>
      </trkpt>
      <trkpt lat="46.04966" lon="6.32182">
        <ele>415</ele>
        <time>2019-07-29T11:56:16Z</time>
      </trkpt>
      <trkpt lat="46.04967" lon="6.32166">
        <ele>416</ele>
        <time>2019-07-29T11:56:20Z</time>
      </trkpt>
      <trkpt lat="46.04966" lon="6.32149">
        <ele>417</ele>
        <time>2019-07-29T11:56:24Z</time>
      </trkpt>
      <trkpt lat="46.04963" lon="6.3213">
        <ele>418</ele>
        <time>2019-07-29T11:56:28Z</time>
      </trkpt>
      <trkpt lat="46.0496" lon="6.32111">
        <ele>419</ele>
        <time>2019-07-29T11:56:32Z</time>
      </trkpt>
      <trkpt lat="46.04957" lon="6.32092">
        <ele>420</ele>
        <time>2019-07-29T11:56:36Z</time>
      </trkpt>
      <trkpt lat="46.04955" lon="6.32074">
        <ele>420</ele>
        <time>2019-07-29T11:56:40Z</time>
      </trkpt>
      <trkpt lat="46.04952" lon="6.32056">
        <ele>421</ele>
        <time>2019-07-29T11:56:44Z</time>
      </trkpt>
      <trkpt lat="46.04949" lon="6.3204">
        <ele>423</ele>
        <time>2019-07-29T11:56:48Z</time>
      </trkpt>
      <trkpt lat="46.04947" lon="6.32025">
        <ele>424</ele>
        <time>2019-07-29T11:56:52Z</time>
      </trkpt>
      <trkpt lat="46.04944" lon="6.32009">
        <ele>425</ele>
        <time>2019-07-29T11:56:56Z</time>
      </trkpt>
      <trkpt lat="46.04941" lon="6.31993">
        <ele>425</ele>
        <time>2019-07-29T11:57:00Z</time>
      </trkpt>
      <trkpt lat="46.04938" lon="6.31976">
        <ele>427</ele>
        <time>2019-07-29T11:57:04Z</time>
      </trkpt>
      <trkpt lat="46.04934" lon="6.31958">
        <ele>428</ele>
        <time>2019-07-29T11:57:08Z</time>
      </trkpt>
      <trkpt lat="46.04932" lon="6.3194">
        <ele>428</ele>
        <time>2019-07-29T11:57:12Z</time>
      </trkpt>
      <trkpt lat="46.04929" lon="6.31923">
        <ele>430</ele>
        <time>2019-07-29T11:57:16Z</time>
      </trkpt>
      <trkpt lat="46.04926" lon="6.31905">
        <ele>430</ele>
        <time>2019-07-29T11:57:20Z</time>
      </trkpt>
      <trkpt lat="46.04923" lon="6.31887">
        <ele>431</ele>
        <time>2019-07-29T11:57:24Z</time>
      </trkpt>
      <trkpt lat="46.04919" lon="6.31869">
        <ele>431</ele>
        <time>2019-07-29T11:57:28Z</time>
      </trkpt>
      <trkpt lat="46.04915" lon="6.3185">
        <ele>431</ele>
        <time>2019-07-29T11:57:32Z</time>
      </trkpt>
      <trkpt lat="46.04913" lon="6.31831">
        <ele>432</ele>
        <time>2019-07-29T11:57:36Z</time>
      </trkpt>
      <trkpt lat="46.04912" lon="6.31809">
        <ele>433</ele>
        <time>2019-07-29T11:57:40Z</time>
      </trkpt>
      <trkpt lat="46.04912" lon="6.31785">
        <ele>433</ele>
        <time>2019-07-29T11:57:44Z</time>
      </trkpt>
      <trkpt lat="46.04912" lon="6.31761">
        <ele>434</ele>
        <time>2019-07-29T11:57:48Z</time>
      </trkpt>
      <trkpt lat="46.04911" lon="6.31738">
        <ele>435</ele>
        <time>2019-07-29T11:57:52Z</time>
      </trkpt>
      <trkpt lat="46.04912" lon="6.31716">
        <ele>436</ele>
        <time>2019-07-29T11:57:56Z</time>
      </trkpt>
      <trkpt lat="46.04912" lon="6.31694">
        <ele>436</ele>
        <time>2019-07-29T11:58:00Z</time>
      </trkpt>
      <trkpt lat="46.04913" lon="6.31672">
        <ele>436</ele>
        <time>2019-07-29T11:58:04Z</time>
      </trkpt>
      <trkpt lat="46.04917" lon="6.31648">
        <ele>435</ele>
        <time>2019-07-29T11:58:08Z</time>
      </trkpt>
      <trkpt lat="46.04922" lon="6.31624">
        <ele>436</ele>
        <time>2019-07-29T11:58:12Z</time>
      </trkpt>
      <trkpt lat="46.04922" lon="6.31602">
        <ele>434</ele>
        <time>2019-07-29T11:58:16Z</time>
      </trkpt>
      <trkpt lat="46.0492" lon="6.31576">
        <ele>435</ele>
        <time>2019-07-29T11:58:20Z</time>
      </trkpt>
      <trkpt lat="46.04922" lon="6.31559">
        <ele>435</ele>
        <time>2019-07-29T11:59:48Z</time>
      </trkpt>
      <trkpt lat="46.04919" lon="6.31553">
        <ele>436</ele>
        <time>2019-07-29T11:59:52Z</time>
      </trkpt>
      <trkpt lat="46.04917" lon="6.3154">
        <ele>437</ele>
        <time>2019-07-29T11:59:56Z</time>
      </trkpt>
      <trkpt lat="46.04911" lon="6.31526">
        <ele>437</ele>
        <time>2019-07-29T12:00:00Z</time>
      </trkpt>
      <trkpt lat="46.04907" lon="6.31509">
        <ele>439</ele>
        <time>2019-07-29T12:00:04Z</time>
      </trkpt>
      <trkpt lat="46.04903" lon="6.31492">
        <ele>440</ele>
        <time>2019-07-29T12:00:08Z</time>
      </trkpt>
      <trkpt lat="46.04901" lon="6.31473">
        <ele>441</ele>
        <time>2019-07-29T12:00:12Z</time>
      </trkpt>
      <trkpt lat="46.04899" lon="6.31457">
        <ele>442</ele>
        <time>2019-07-29T12:00:16Z</time>
      </trkpt>
      <trkpt lat="46.04897" lon="6.31442">
        <ele>443</ele>
        <time>2019-07-29T12:00:20Z</time>
      </trkpt>
      <trkpt lat="46.04896" lon="6.31426">
        <ele>444</ele>
        <time>2019-07-29T12:00:24Z</time>
      </trkpt>
      <trkpt lat="46.04895" lon="6.31409">
        <ele>444</ele>
        <time>2019-07-29T12:00:28Z</time>
      </trkpt>
      <trkpt lat="46.04893" lon="6.31391">
        <ele>446</ele>
        <time>2019-07-29T12:00:32Z</time>
      </trkpt>
      <trkpt lat="46.04891" lon="6.31373">
        <ele>447</ele>
        <time>2019-07-29T12:00:36Z</time>
      </trkpt>
      <trkpt lat="46.04888" lon="6.31354">
        <ele>447</ele>
        <time>2019-07-29T12:00:40Z</time>
      </trkpt>
      <trkpt lat="46.04885" lon="6.31335">
        <ele>448</ele>
        <time>2019-07-29T12:00:44Z</time>
      </trkpt>
      <trkpt lat="46.04881" lon="6.31316">
        <ele>449</ele>
        <time>2019-07-29T12:00:48Z</time>
      </trkpt>
      <trkpt lat="46.04875" lon="6.31298">
        <ele>450</ele>
        <time>2019-07-29T12:00:52Z</time>
      </trkpt>
      <trkpt lat="46.04867" lon="6.31283">
        <ele>452</ele>
        <time>2019-07-29T12:00:56Z</time>
      </trkpt>
      <trkpt lat="46.04857" lon="6.31271">
        <ele>452</ele>
        <time>2019-07-29T12:01:00Z</time>
      </trkpt>
      <trkpt lat="46.04847" lon="6.31262">
        <ele>452</ele>
        <time>2019-07-29T12:01:04Z</time>
      </trkpt>
      <trkpt lat="46.04836" lon="6.31255">
        <ele>454</ele>
        <time>2019-07-29T12:01:08Z</time>
      </trkpt>
      <trkpt lat="46.04825" lon="6.31248">
        <ele>455</ele>
        <time>2019-07-29T12:01:12Z</time>
      </trkpt>
      <trkpt lat="46.04814" lon="6.31241">
        <ele>456</ele>
        <time>2019-07-29T12:01:16Z</time>
      </trkpt>
      <trkpt lat="46.04803" lon="6.31235">
        <ele>457</ele>
        <time>2019-07-29T12:01:20Z</time>
      </trkpt>
      <trkpt lat="46.04794" lon="6.3123">
        <ele>458</ele>
        <time>2019-07-29T12:01:24Z</time>
      </trkpt>
      <trkpt lat="46.04783" lon="6.31225">
        <ele>460</ele>
        <time>2019-07-29T12:01:28Z</time>
      </trkpt>
      <trkpt lat="46.04773" lon="6.3122">
        <ele>460</ele>
        <time>2019-07-29T12:01:32Z</time>
      </trkpt>
      <trkpt lat="46.04764" lon="6.31213">
        <ele>461</ele>
        <time>2019-07-29T12:01:36Z</time>
      </trkpt>
      <trkpt lat="46.04755" lon="6.31207">
        <ele>462</ele>
        <time>2019-07-29T12:01:40Z</time>
      </trkpt>
      <trkpt lat="46.04747" lon="6.31202">
        <ele>464</ele>
        <time>2019-07-29T12:01:44Z</time>
      </trkpt>
      <trkpt lat="46.04739" lon="6.31196">
        <ele>464</ele>
        <time>2019-07-29T12:01:48Z</time>
      </trkpt>
      <trkpt lat="46.0473" lon="6.31192">
        <ele>465</ele>
        <time>2019-07-29T12:01:52Z</time>
      </trkpt>
      <trkpt lat="46.04722" lon="6.31187">
        <ele>466</ele>
        <time>2019-07-29T12:01:56Z</time>
      </trkpt>
      <trkpt lat="46.04712" lon="6.31193">
        <ele>467</ele>
        <time>2019-07-29T12:02:00Z</time>
      </trkpt>
      <trkpt lat="46.04707" lon="6.31203">
        <ele>468</ele>
        <time>2019-07-29T12:02:04Z</time>
      </trkpt>
      <trkpt lat="46.04707" lon="6.31217">
        <ele>470</ele>
        <time>2019-07-29T12:02:08Z</time>
      </trkpt>
      <trkpt lat="46.04707" lon="6.31231">
        <ele>471</ele>
        <time>2019-07-29T12:02:12Z</time>
      </trkpt>
      <trkpt lat="46.04709" lon="6.31246">
        <ele>472</ele>
        <time>2019-07-29T12:02:16Z</time>
      </trkpt>
      <trkpt lat="46.0471" lon="6.31261">
        <ele>472</ele>
        <time>2019-07-29T12:02:20Z</time>
      </trkpt>
      <trkpt lat="46.0471" lon="6.31275">
        <ele>473</ele>
        <time>2019-07-29T12:02:24Z</time>
      </trkpt>
      <trkpt lat="46.0471" lon="6.31291">
        <ele>474</ele>
        <time>2019-07-29T12:02:28Z</time>
      </trkpt>
      <trkpt lat="46.04711" lon="6.31307">
        <ele>475</ele>
        <time>2019-07-29T12:02:32Z</time>
      </trkpt>
      <trkpt lat="46.04712" lon="6.31324">
        <ele>476</ele>
        <time>2019-07-29T12:02:36Z</time>
      </trkpt>
      <trkpt lat="46.04716" lon="6.31342">
        <ele>476</ele>
        <time>2019-07-29T12:02:40Z</time>
      </trkpt>
      <trkpt lat="46.04719" lon="6.31363">
        <ele>476</ele>
        <time>2019-07-29T12:02:44Z</time>
      </trkpt>
      <trkpt lat="46.04718" lon="6.31384">
        <ele>477</ele>
        <time>2019-07-29T12:02:48Z</time>
      </trkpt>
      <trkpt lat="46.04716" lon="6.31406">
        <ele>478</ele>
        <time>2019-07-29T12:02:52Z</time>
      </trkpt>
      <trkpt lat="46.04719" lon="6.3143">
        <ele>478</ele>
        <time>2019-07-29T12:02:56Z</time>
      </trkpt>
      <trkpt lat="46.04725" lon="6.31455">
        <ele>478</ele>
        <time>2019-07-29T12:03:00Z</time>
      </trkpt>
      <trkpt lat="46.04729" lon="6.31484">
        <ele>476</ele>
        <time>2019-07-29T12:03:04Z</time>
      </trkpt>
      <trkpt lat="46.0473" lon="6.31517">
        <ele>476</ele>
        <time>2019-07-29T12:03:08Z</time>
      </trkpt>
      <trkpt lat="46.04729" lon="6.3155">
        <ele>477</ele>
        <time>2019-07-29T12:03:12Z</time>
      </trkpt>
      <trkpt lat="46.04711" lon="6.31575">
        <ele>480</ele>
        <time>2019-07-29T12:03:16Z</time>
      </trkpt>
      <trkpt lat="46.04695" lon="6.31593">
        <ele>481</ele>
        <time>2019-07-29T12:03:20Z</time>
      </trkpt>
      <trkpt lat="46.04664" lon="6.31593">
        <ele>482</ele>
        <time>2019-07-29T12:03:24Z</time>
      </trkpt>
      <trkpt lat="46.04652" lon="6.31582">
        <ele>482</ele>
        <time>2019-07-29T12:03:28Z</time>
      </trkpt>
      <trkpt lat="46.04657" lon="6.31567">
        <ele>483</ele>
        <time>2019-07-29T12:03:32Z</time>
      </trkpt>
      <trkpt lat="46.0466" lon="6.31552">
        <ele>484</ele>
        <time>2019-07-29T12:03:36Z</time>
      </trkpt>
      <trkpt lat="46.04659" lon="6.3154">
        <ele>485</ele>
        <time>2019-07-29T12:03:40Z</time>
      </trkpt>
      <trkpt lat="46.04656" lon="6.31524">
        <ele>486</ele>
        <time>2019-07-29T12:03:44Z</time>
      </trkpt>
      <trkpt lat="46.04652" lon="6.31504">
        <ele>487</ele>
        <time>2019-07-29T12:03:48Z</time>
      </trkpt>
      <trkpt lat="46.04648" lon="6.31487">
        <ele>488</ele>
        <time>2019-07-29T12:03:52Z</time>
      </trkpt>
      <trkpt lat="46.04642" lon="6.31467">
        <ele>489</ele>
        <time>2019-07-29T12:03:56Z</time>
      </trkpt>
      <trkpt lat="46.04638" lon="6.31445">
        <ele>489</ele>
        <time>2019-07-29T12:04:00Z</time>
      </trkpt>
      <trkpt lat="46.04636" lon="6.31425">
        <ele>490</ele>
        <time>2019-07-29T12:04:04Z</time>
      </trkpt>
      <trkpt lat="46.04636" lon="6.31404">
        <ele>491</ele>
        <time>2019-07-29T12:04:08Z</time>
      </trkpt>
      <trkpt lat="46.04637" lon="6.31384">
        <ele>492</ele>
        <time>2019-07-29T12:04:12Z</time>
      </trkpt>
      <trkpt lat="46.0464" lon="6.31365">
        <ele>493</ele>
        <time>2019-07-29T12:04:16Z</time>
      </trkpt>
      <trkpt lat="46.04642" lon="6.31346">
        <ele>493</ele>
        <time>2019-07-29T12:04:20Z</time>
      </trkpt>
      <trkpt lat="46.04638" lon="6.31329">
        <ele>495</ele>
        <time>2019-07-29T12:04:24Z</time>
      </trkpt>
      <trkpt lat="46.04627" lon="6.31325">
        <ele>496</ele>
        <time>2019-07-29T12:04:28Z</time>
      </trkpt>
      <trkpt lat="46.04619" lon="6.31334">
        <ele>496</ele>
        <time>2019-07-29T12:04:32Z</time>
      </trkpt>
      <trkpt lat="46.04615" lon="6.31349">
        <ele>497</ele>
        <time>2019-07-29T12:04:36Z</time>
      </trkpt>
      <trkpt lat="46.04615" lon="6.31365">
        <ele>498</ele>
        <time>2019-07-29T12:04:40Z</time>
      </trkpt>
      <trkpt lat="46.04612" lon="6.31379">
        <ele>499</ele>
        <time>2019-07-29T12:04:44Z</time>
      </trkpt>
      <trkpt lat="46.04609" lon="6.31393">
        <ele>501</ele>
        <time>2019-07-29T12:04:48Z</time>
      </trkpt>
      <trkpt lat="46.04604" lon="6.31405">
        <ele>502</ele>
        <time>2019-07-29T12:04:52Z</time>
      </trkpt>
      <trkpt lat="46.04598" lon="6.31416">
        <ele>503</ele>
        <time>2019-07-29T12:04:56Z</time>
      </trkpt>
      <trkpt lat="46.04592" lon="6.31428">
        <ele>503</ele>
        <time>2019-07-29T12:05:00Z</time>
      </trkpt>
      <trkpt lat="46.04585" lon="6.31437">
        <ele>504</ele>
        <time>2019-07-29T12:05:04Z</time>
      </trkpt>
      <trkpt lat="46.04579" lon="6.31446">
        <ele>505</ele>
        <time>2019-07-29T12:05:08Z</time>
      </trkpt>
      <trkpt lat="46.04571" lon="6.31456">
        <ele>506</ele>
        <time>2019-07-29T12:05:12Z</time>
      </trkpt>
      <trkpt lat="46.04565" lon="6.3147">
        <ele>507</ele>
        <time>2019-07-29T12:05:16Z</time>
      </trkpt>
      <trkpt lat="46.04558" lon="6.31483">
        <ele>508</ele>
        <time>2019-07-29T12:05:20Z</time>
      </trkpt>
      <trkpt lat="46.04549" lon="6.31491">
        <ele>509</ele>
        <time>2019-07-29T12:05:24Z</time>
      </trkpt>
      <trkpt lat="46.04538" lon="6.31494">
        <ele>510</ele>
        <time>2019-07-29T12:05:28Z</time>
      </trkpt>
      <trkpt lat="46.0453" lon="6.31495">
        <ele>511</ele>
        <time>2019-07-29T12:05:32Z</time>
      </trkpt>
      <trkpt lat="46.04522" lon="6.31494">
        <ele>512</ele>
        <time>2019-07-29T12:05:36Z</time>
      </trkpt>
      <trkpt lat="46.04514" lon="6.31489">
        <ele>512</ele>
        <time>2019-07-29T12:05:40Z</time>
      </trkpt>
      <trkpt lat="46.04504" lon="6.31483">
        <ele>513</ele>
        <time>2019-07-29T12:05:44Z</time>
      </trkpt>
      <trkpt lat="46.04499" lon="6.31474">
        <ele>513</ele>
        <time>2019-07-29T12:05:48Z</time>
      </trkpt>
      <trkpt lat="46.04492" lon="6.31462">
        <ele>515</ele>
        <time>2019-07-29T12:05:52Z</time>
      </trkpt>
      <trkpt lat="46.04487" lon="6.31451">
        <ele>515</ele>
        <time>2019-07-29T12:05:56Z</time>
      </trkpt>
      <trkpt lat="46.04483" lon="6.31439">
        <ele>517</ele>
        <time>2019-07-29T12:06:00Z</time>
      </trkpt>
      <trkpt lat="46.04477" lon="6.31428">
        <ele>517</ele>
        <time>2019-07-29T12:06:04Z</time>
      </trkpt>
      <trkpt lat="46.04473" lon="6.31415">
        <ele>518</ele>
        <time>2019-07-29T12:06:08Z</time>
      </trkpt>
      <trkpt lat="46.04466" lon="6.31404">
        <ele>519</ele>
        <time>2019-07-29T12:06:12Z</time>
      </trkpt>
      <trkpt lat="46.04459" lon="6.31393">
        <ele>519</ele>
        <time>2019-07-29T12:06:16Z</time>
      </trkpt>
      <trkpt lat="46.04453" lon="6.31384">
        <ele>521</ele>
        <time>2019-07-29T12:06:20Z</time>
      </trkpt>
      <trkpt lat="46.04448" lon="6.31372">
        <ele>521</ele>
        <time>2019-07-29T12:06:24Z</time>
      </trkpt>
      <trkpt lat="46.04445" lon="6.31358">
        <ele>522</ele>
        <time>2019-07-29T12:06:28Z</time>
      </trkpt>
      <trkpt lat="46.04444" lon="6.31344">
        <ele>522</ele>
        <time>2019-07-29T12:06:32Z</time>
      </trkpt>
      <trkpt lat="46.04445" lon="6.31329">
        <ele>522</ele>
        <time>2019-07-29T12:06:36Z</time>
      </trkpt>
      <trkpt lat="46.04445" lon="6.31313">
        <ele>522</ele>
        <time>2019-07-29T12:06:40Z</time>
      </trkpt>
      <trkpt lat="46.04445" lon="6.31295">
        <ele>522</ele>
        <time>2019-07-29T12:06:44Z</time>
      </trkpt>
      <trkpt lat="46.04444" lon="6.31275">
        <ele>522</ele>
        <time>2019-07-29T12:06:48Z</time>
      </trkpt>
      <trkpt lat="46.04445" lon="6.31255">
        <ele>523</ele>
        <time>2019-07-29T12:06:52Z</time>
      </trkpt>
      <trkpt lat="46.04447" lon="6.31231">
        <ele>522</ele>
        <time>2019-07-29T12:06:56Z</time>
      </trkpt>
      <trkpt lat="46.04449" lon="6.31205">
        <ele>522</ele>
        <time>2019-07-29T12:07:00Z</time>
      </trkpt>
      <trkpt lat="46.0445" lon="6.31176">
        <ele>522</ele>
        <time>2019-07-29T12:07:04Z</time>
      </trkpt>
      <trkpt lat="46.04447" lon="6.3115">
        <ele>521</ele>
        <time>2019-07-29T12:07:08Z</time>
      </trkpt>
      <trkpt lat="46.04435" lon="6.31126">
        <ele>518</ele>
        <time>2019-07-29T12:07:12Z</time>
      </trkpt>
      <trkpt lat="46.04413" lon="6.31099">
        <ele>517</ele>
        <time>2019-07-29T12:07:16Z</time>
      </trkpt>
      <trkpt lat="46.04401" lon="6.31074">
        <ele>517</ele>
        <time>2019-07-29T12:07:20Z</time>
      </trkpt>
      <trkpt lat="46.04387" lon="6.31041">
        <ele>517</ele>
        <time>2019-07-29T12:07:24Z</time>
      </trkpt>
      <trkpt lat="46.04384" lon="6.31001">
        <ele>519</ele>
        <time>2019-07-29T12:07:28Z</time>
      </trkpt>
      <trkpt lat="46.04387" lon="6.30975">
        <ele>523</ele>
        <time>2019-07-29T12:07:32Z</time>
      </trkpt>
      <trkpt lat="46.04386" lon="6.30959">
        <ele>524</ele>
        <time>2019-07-29T12:07:36Z</time>
      </trkpt>
      <trkpt lat="46.04388" lon="6.30945">
        <ele>525</ele>
        <time>2019-07-29T12:07:40Z</time>
      </trkpt>
      <trkpt lat="46.04391" lon="6.3093">
        <ele>526</ele>
        <time>2019-07-29T12:07:44Z</time>
      </trkpt>
      <trkpt lat="46.04393" lon="6.30916">
        <ele>528</ele>
        <time>2019-07-29T12:07:48Z</time>
      </trkpt>
      <trkpt lat="46.04396" lon="6.30902">
        <ele>530</ele>
        <time>2019-07-29T12:07:52Z</time>
      </trkpt>
      <trkpt lat="46.04399" lon="6.30889">
        <ele>531</ele>
        <time>2019-07-29T12:07:56Z</time>
      </trkpt>
      <trkpt lat="46.044" lon="6.30874">
        <ele>531</ele>
        <time>2019-07-29T12:08:00Z</time>
      </trkpt>
      <trkpt lat="46.04401" lon="6.3086">
        <ele>533</ele>
        <time>2019-07-29T12:08:04Z</time>
      </trkpt>
      <trkpt lat="46.04403" lon="6.30844">
        <ele>533</ele>
        <time>2019-07-29T12:08:08Z</time>
      </trkpt>
      <trkpt lat="46.04406" lon="6.30829">
        <ele>534</ele>
        <time>2019-07-29T12:08:12Z</time>
      </trkpt>
      <trkpt lat="46.04409" lon="6.30813">
        <ele>535</ele>
        <time>2019-07-29T12:08:16Z</time>
      </trkpt>
      <trkpt lat="46.04411" lon="6.30796">
        <ele>535</ele>
        <time>2019-07-29T12:08:20Z</time>
      </trkpt>
      <trkpt lat="46.04414" lon="6.30778">
        <ele>535</ele>
        <time>2019-07-29T12:08:24Z</time>
      </trkpt>
      <trkpt lat="46.04416" lon="6.30758">
        <ele>535</ele>
        <time>2019-07-29T12:08:28Z</time>
      </trkpt>
      <trkpt lat="46.04415" lon="6.30738">
        <ele>535</ele>
        <time>2019-07-29T12:08:32Z</time>
      </trkpt>
      <trkpt lat="46.04412" lon="6.30716">
        <ele>534</ele>
        <time>2019-07-29T12:08:36Z</time>
      </trkpt>
      <trkpt lat="46.04415" lon="6.30691">
        <ele>535</ele>
        <time>2019-07-29T12:08:40Z</time>
      </trkpt>
      <trkpt lat="46.04417" lon="6.30667">
        <ele>536</ele>
        <time>2019-07-29T12:08:44Z</time>
      </trkpt>
      <trkpt lat="46.04414" lon="6.30654">
        <ele>537</ele>
        <time>2019-07-29T12:08:48Z</time>
      </trkpt>
      <trkpt lat="46.04411" lon="6.30643">
        <ele>537</ele>
        <time>2019-07-29T12:08:52Z</time>
      </trkpt>
      <trkpt lat="46.04408" lon="6.30627">
        <ele>538</ele>
        <time>2019-07-29T12:08:56Z</time>
      </trkpt>
      <trkpt lat="46.04412" lon="6.30611">
        <ele>538</ele>
        <time>2019-07-29T12:09:00Z</time>
      </trkpt>
      <trkpt lat="46.04415" lon="6.30594">
        <ele>537</ele>
        <time>2019-07-29T12:09:04Z</time>
      </trkpt>
      <trkpt lat="46.0442" lon="6.30571">
        <ele>536</ele>
        <time>2019-07-29T12:09:08Z</time>
      </trkpt>
      <trkpt lat="46.04424" lon="6.30546">
        <ele>536</ele>
        <time>2019-07-29T12:09:12Z</time>
      </trkpt>
      <trkpt lat="46.0443" lon="6.30522">
        <ele>535</ele>
        <time>2019-07-29T12:09:16Z</time>
      </trkpt>
      <trkpt lat="46.04437" lon="6.30493">
        <ele>535</ele>
        <time>2019-07-29T12:09:20Z</time>
      </trkpt>
      <trkpt lat="46.04443" lon="6.30461">
        <ele>536</ele>
        <time>2019-07-29T12:09:24Z</time>
      </trkpt>
      <trkpt lat="46.04446" lon="6.3043">
        <ele>536</ele>
        <time>2019-07-29T12:09:28Z</time>
      </trkpt>
      <trkpt lat="46.04446" lon="6.30399">
        <ele>536</ele>
        <time>2019-07-29T12:09:32Z</time>
      </trkpt>
      <trkpt lat="46.04446" lon="6.30365">
        <ele>537</ele>
        <time>2019-07-29T12:09:36Z</time>
      </trkpt>
      <trkpt lat="46.04442" lon="6.30334">
        <ele>538</ele>
        <time>2019-07-29T12:09:40Z</time>
      </trkpt>
      <trkpt lat="46.04438" lon="6.3031">
        <ele>538</ele>
        <time>2019-07-29T12:09:44Z</time>
      </trkpt>
      <trkpt lat="46.04438" lon="6.30286">
        <ele>538</ele>
        <time>2019-07-29T12:09:48Z</time>
      </trkpt>
      <trkpt lat="46.0444" lon="6.30256">
        <ele>536</ele>
        <time>2019-07-29T12:09:52Z</time>
      </trkpt>
      <trkpt lat="46.04435" lon="6.30222">
        <ele>532</ele>
        <time>2019-07-29T12:09:56Z</time>
      </trkpt>
      <trkpt lat="46.04445" lon="6.30187">
        <ele>529</ele>
        <time>2019-07-29T12:10:00Z</time>
      </trkpt>
      <trkpt lat="46.04455" lon="6.30166">
        <ele>529</ele>
        <time>2019-07-29T12:10:04Z</time>
      </trkpt>
      <trkpt lat="46.04467" lon="6.30153">
        <ele>529</ele>
        <time>2019-07-29T12:10:08Z</time>
      </trkpt>
      <trkpt lat="46.04486" lon="6.30145">
        <ele>530</ele>
        <time>2019-07-29T12:10:12Z</time>
      </trkpt>
      <trkpt lat="46.04487" lon="6.30135">
        <ele>531</ele>
        <time>2019-07-29T12:10:16Z</time>
      </trkpt>
      <trkpt lat="46.04484" lon="6.30124">
        <ele>531</ele>
        <time>2019-07-29T12:10:20Z</time>
      </trkpt>
      <trkpt lat="46.0448" lon="6.30114">
        <ele>533</ele>
        <time>2019-07-29T12:10:24Z</time>
      </trkpt>
      <trkpt lat="46.04475" lon="6.30102">
        <ele>534</ele>
        <time>2019-07-29T12:10:28Z</time>
      </trkpt>
      <trkpt lat="46.04469" lon="6.30091">
        <ele>534</ele>
        <time>2019-07-29T12:10:32Z</time>
      </trkpt>
      <trkpt lat="46.04463" lon="6.30082">
        <ele>536</ele>
        <time>2019-07-29T12:10:36Z</time>
      </trkpt>
      <trkpt lat="46.04457" lon="6.30073">
        <ele>537</ele>
        <time>2019-07-29T12:10:40Z</time>
      </trkpt>
      <trkpt lat="46.04448" lon="6.30066">
        <ele>538</ele>
        <time>2019-07-29T12:10:44Z</time>
      </trkpt>
      <trkpt lat="46.04441" lon="6.30059">
        <ele>540</ele>
        <time>2019-07-29T12:10:48Z</time>
      </trkpt>
      <trkpt lat="46.04434" lon="6.30056">
        <ele>541</ele>
        <time>2019-07-29T12:10:52Z</time>
      </trkpt>
      <trkpt lat="46.04428" lon="6.3005">
        <ele>542</ele>
        <time>2019-07-29T12:10:56Z</time>
      </trkpt>
      <trkpt lat="46.0442" lon="6.30045">
        <ele>544</ele>
        <time>2019-07-29T12:11:00Z</time>
      </trkpt>
      <trkpt lat="46.04413" lon="6.30041">
        <ele>545</ele>
        <time>2019-07-29T12:11:04Z</time>
      </trkpt>
      <trkpt lat="46.04409" lon="6.30039">
        <ele>546</ele>
        <time>2019-07-29T12:11:08Z</time>
      </trkpt>
      <trkpt lat="46.04404" lon="6.30037">
        <ele>547</ele>
        <time>2019-07-29T12:11:12Z</time>
      </trkpt>
      <trkpt lat="46.04397" lon="6.30031">
        <ele>548</ele>
        <time>2019-07-29T12:11:16Z</time>
      </trkpt>
      <trkpt lat="46.04387" lon="6.30024">
        <ele>549</ele>
        <time>2019-07-29T12:11:20Z</time>
      </trkpt>
      <trkpt lat="46.04379" lon="6.30018">
        <ele>549</ele>
        <time>2019-07-29T12:11:24Z</time>
      </trkpt>
      <trkpt lat="46.04372" lon="6.30014">
        <ele>551</ele>
        <time>2019-07-29T12:11:28Z</time>
      </trkpt>
      <trkpt lat="46.04368" lon="6.30012">
        <ele>552</ele>
        <time>2019-07-29T12:11:32Z</time>
      </trkpt>
      <trkpt lat="46.04363" lon="6.30009">
        <ele>553</ele>
        <time>2019-07-29T12:11:36Z</time>
      </trkpt>
      <trkpt lat="46.04358" lon="6.30006">
        <ele>554</ele>
        <time>2019-07-29T12:11:40Z</time>
      </trkpt>
      <trkpt lat="46.04351" lon="6.30005">
        <ele>555</ele>
        <time>2019-07-29T12:11:44Z</time>
      </trkpt>
      <trkpt lat="46.04345" lon="6.30006">
        <ele>555</ele>
        <time>2019-07-29T12:11:48Z</time>
      </trkpt>
      <trkpt lat="46.04337" lon="6.30006">
        <ele>556</ele>
        <time>2019-07-29T12:11:52Z</time>
      </trkpt>
      <trkpt lat="46.0433" lon="6.30006">
        <ele>557</ele>
        <time>2019-07-29T12:11:56Z</time>
      </trkpt>
      <trkpt lat="46.04321" lon="6.30006">
        <ele>558</ele>
        <time>2019-07-29T12:12:00Z</time>
      </trkpt>
      <trkpt lat="46.04315" lon="6.30007">
        <ele>559</ele>
        <time>2019-07-29T12:12:04Z</time>
      </trkpt>
      <trkpt lat="46.04304" lon="6.30007">
        <ele>560</ele>
        <time>2019-07-29T12:12:08Z</time>
      </trkpt>
      <trkpt lat="46.04296" lon="6.30005">
        <ele>561</ele>
        <time>2019-07-29T12:12:12Z</time>
      </trkpt>
      <trkpt lat="46.04288" lon="6.30006">
        <ele>562</ele>
        <time>2019-07-29T12:12:16Z</time>
      </trkpt>
      <trkpt lat="46.04279" lon="6.30005">
        <ele>563</ele>
        <time>2019-07-29T12:12:20Z</time>
      </trkpt>
      <trkpt lat="46.04271" lon="6.30005">
        <ele>564</ele>
        <time>2019-07-29T12:12:24Z</time>
      </trkpt>
      <trkpt lat="46.04259" lon="6.30004">
        <ele>565</ele>
        <time>2019-07-29T12:12:28Z</time>
      </trkpt>
      <trkpt lat="46.04251" lon="6.30003">
        <ele>566</ele>
        <time>2019-07-29T12:12:32Z</time>
      </trkpt>
      <trkpt lat="46.04241" lon="6.30003">
        <ele>568</ele>
        <time>2019-07-29T12:12:36Z</time>
      </trkpt>
      <trkpt lat="46.04235" lon="6.30002">
        <ele>568</ele>
        <time>2019-07-29T12:12:40Z</time>
      </trkpt>
      <trkpt lat="46.04228" lon="6.3">
        <ele>569</ele>
        <time>2019-07-29T12:12:44Z</time>
      </trkpt>
      <trkpt lat="46.04221" lon="6.29999">
        <ele>571</ele>
        <time>2019-07-29T12:12:48Z</time>
      </trkpt>
      <trkpt lat="46.04213" lon="6.29999">
        <ele>572</ele>
        <time>2019-07-29T12:12:52Z</time>
      </trkpt>
      <trkpt lat="46.04204" lon="6.29996">
        <ele>572</ele>
        <time>2019-07-29T12:12:56Z</time>
      </trkpt>
      <trkpt lat="46.04198" lon="6.29993">
        <ele>573</ele>
        <time>2019-07-29T12:13:00Z</time>
      </trkpt>
      <trkpt lat="46.04189" lon="6.29991">
        <ele>574</ele>
        <time>2019-07-29T12:13:04Z</time>
      </trkpt>
      <trkpt lat="46.04182" lon="6.2999">
        <ele>574</ele>
        <time>2019-07-29T12:13:08Z</time>
      </trkpt>
      <trkpt lat="46.04174" lon="6.29987">
        <ele>575</ele>
        <time>2019-07-29T12:13:12Z</time>
      </trkpt>
      <trkpt lat="46.04165" lon="6.29982">
        <ele>576</ele>
        <time>2019-07-29T12:13:16Z</time>
      </trkpt>
      <trkpt lat="46.04157" lon="6.29979">
        <ele>576</ele>
        <time>2019-07-29T12:13:20Z</time>
      </trkpt>
      <trkpt lat="46.04154" lon="6.29988">
        <ele>576</ele>
        <time>2019-07-29T12:13:24Z</time>
      </trkpt>
      <trkpt lat="46.04153" lon="6.3">
        <ele>577</ele>
        <time>2019-07-29T12:13:28Z</time>
      </trkpt>
      <trkpt lat="46.04155" lon="6.30001">
        <ele>577</ele>
        <time>2019-07-29T12:13:32Z</time>
      </trkpt>
      <trkpt lat="46.04156" lon="6.29984">
        <ele>576</ele>
        <time>2019-07-29T12:13:36Z</time>
      </trkpt>
      <trkpt lat="46.04157" lon="6.29959">
        <ele>573</ele>
        <time>2019-07-29T12:13:40Z</time>
      </trkpt>
      <trkpt lat="46.04157" lon="6.29929">
        <ele>572</ele>
        <time>2019-07-29T12:13:44Z</time>
      </trkpt>
      <trkpt lat="46.04156" lon="6.29897">
        <ele>571</ele>
        <time>2019-07-29T12:13:48Z</time>
      </trkpt>
      <trkpt lat="46.04156" lon="6.29857">
        <ele>569</ele>
        <time>2019-07-29T12:13:52Z</time>
      </trkpt>
      <trkpt lat="46.04154" lon="6.29811">
        <ele>567</ele>
        <time>2019-07-29T12:13:56Z</time>
      </trkpt>
      <trkpt lat="46.04153" lon="6.2976">
        <ele>564</ele>
        <time>2019-07-29T12:14:00Z</time>
      </trkpt>
      <trkpt lat="46.04159" lon="6.29707">
        <ele>560</ele>
        <time>2019-07-29T12:14:04Z</time>
      </trkpt>
      <trkpt lat="46.04169" lon="6.29653">
        <ele>559</ele>
        <time>2019-07-29T12:14:08Z</time>
      </trkpt>
      <trkpt lat="46.04173" lon="6.29599">
        <ele>556</ele>
        <time>2019-07-29T12:14:12Z</time>
      </trkpt>
      <trkpt lat="46.04202" lon="6.29561">
        <ele>553</ele>
        <time>2019-07-29T12:14:16Z</time>
      </trkpt>
      <trkpt lat="46.04242" lon="6.29558">
        <ele>550</ele>
        <time>2019-07-29T12:14:20Z</time>
      </trkpt>
      <trkpt lat="46.04276" lon="6.29585">
        <ele>548</ele>
        <time>2019-07-29T12:14:24Z</time>
      </trkpt>
      <trkpt lat="46.04293" lon="6.29637">
        <ele>546</ele>
        <time>2019-07-29T12:14:28Z</time>
      </trkpt>
      <trkpt lat="46.04308" lon="6.2969">
        <ele>544</ele>
        <time>2019-07-29T12:14:32Z</time>
      </trkpt>
      <trkpt lat="46.04335" lon="6.29734">
        <ele>541</ele>
        <time>2019-07-29T12:14:36Z</time>
      </trkpt>
      <trkpt lat="46.04375" lon="6.29742">
        <ele>538</ele>
        <time>2019-07-29T12:14:40Z</time>
      </trkpt>
      <trkpt lat="46.04411" lon="6.2971">
        <ele>538</ele>
        <time>2019-07-29T12:14:44Z</time>
      </trkpt>
      <trkpt lat="46.04438" lon="6.29682">
        <ele>539</ele>
        <time>2019-07-29T12:14:48Z</time>
      </trkpt>
      <trkpt lat="46.0446" lon="6.29658">
        <ele>538</ele>
        <time>2019-07-29T12:14:52Z</time>
      </trkpt>
      <trkpt lat="46.04476" lon="6.29641">
        <ele>538</ele>
        <time>2019-07-29T12:14:56Z</time>
      </trkpt>
      <trkpt lat="46.04481" lon="6.29637">
        <ele>538</ele>
        <time>2019-07-29T12:15:16Z</time>
      </trkpt>
      <trkpt lat="46.04485" lon="6.29631">
        <ele>538</ele>
        <time>2019-07-29T12:15:20Z</time>
      </trkpt>
      <trkpt lat="46.04478" lon="6.29632">
        <ele>537</ele>
        <time>2019-07-29T12:15:24Z</time>
      </trkpt>
      <trkpt lat="46.04467" lon="6.29646">
        <ele>538</ele>
        <time>2019-07-29T12:15:28Z</time>
      </trkpt>
      <trkpt lat="46.04454" lon="6.2966">
        <ele>539</ele>
        <time>2019-07-29T12:15:32Z</time>
      </trkpt>
      <trkpt lat="46.0444" lon="6.29675">
        <ele>540</ele>
        <time>2019-07-29T12:15:36Z</time>
      </trkpt>
      <trkpt lat="46.04427" lon="6.2969">
        <ele>541</ele>
        <time>2019-07-29T12:15:40Z</time>
      </trkpt>
      <trkpt lat="46.04414" lon="6.29704">
        <ele>542</ele>
        <time>2019-07-29T12:15:44Z</time>
      </trkpt>
      <trkpt lat="46.04401" lon="6.29719">
        <ele>543</ele>
        <time>2019-07-29T12:15:48Z</time>
      </trkpt>
      <trkpt lat="46.04387" lon="6.29733">
        <ele>544</ele>
        <time>2019-07-29T12:15:52Z</time>
      </trkpt>
      <trkpt lat="46.04371" lon="6.2974">
        <ele>545</ele>
        <time>2019-07-29T12:15:56Z</time>
      </trkpt>
      <trkpt lat="46.04355" lon="6.2974">
        <ele>546</ele>
        <time>2019-07-29T12:16:00Z</time>
      </trkpt>
      <trkpt lat="46.04339" lon="6.29733">
        <ele>547</ele>
        <time>2019-07-29T12:16:04Z</time>
      </trkpt>
      <trkpt lat="46.04327" lon="6.29721">
        <ele>549</ele>
        <time>2019-07-29T12:16:08Z</time>
      </trkpt>
      <trkpt lat="46.04319" lon="6.29706">
        <ele>550</ele>
        <time>2019-07-29T12:16:12Z</time>
      </trkpt>
      <trkpt lat="46.04313" lon="6.2969">
        <ele>551</ele>
        <time>2019-07-29T12:16:16Z</time>
      </trkpt>
      <trkpt lat="46.04308" lon="6.29674">
        <ele>551</ele>
        <time>2019-07-29T12:16:20Z</time>
      </trkpt>
      <trkpt lat="46.04303" lon="6.29658">
        <ele>552</ele>
        <time>2019-07-29T12:16:24Z</time>
      </trkpt>
      <trkpt lat="46.04298" lon="6.29643">
        <ele>553</ele>
        <time>2019-07-29T12:16:28Z</time>
      </trkpt>
      <trkpt lat="46.04294" lon="6.29629">
        <ele>553</ele>
        <time>2019-07-29T12:16:32Z</time>
      </trkpt>
      <trkpt lat="46.04289" lon="6.29613">
        <ele>554</ele>
        <time>2019-07-29T12:16:36Z</time>
      </trkpt>
      <trkpt lat="46.04284" lon="6.29599">
        <ele>554</ele>
        <time>2019-07-29T12:16:40Z</time>
      </trkpt>
      <trkpt lat="46.04279" lon="6.29585">
        <ele>555</ele>
        <time>2019-07-29T12:16:44Z</time>
      </trkpt>
      <trkpt lat="46.04272" lon="6.29572">
        <ele>556</ele>
        <time>2019-07-29T12:16:48Z</time>
      </trkpt>
      <trkpt lat="46.04263" lon="6.29562">
        <ele>556</ele>
        <time>2019-07-29T12:16:52Z</time>
      </trkpt>
      <trkpt lat="46.04251" lon="6.29557">
        <ele>556</ele>
        <time>2019-07-29T12:16:56Z</time>
      </trkpt>
      <trkpt lat="46.04239" lon="6.29555">
        <ele>558</ele>
        <time>2019-07-29T12:17:00Z</time>
      </trkpt>
      <trkpt lat="46.04227" lon="6.29556">
        <ele>558</ele>
        <time>2019-07-29T12:17:04Z</time>
      </trkpt>
      <trkpt lat="46.04215" lon="6.29556">
        <ele>559</ele>
        <time>2019-07-29T12:17:08Z</time>
      </trkpt>
      <trkpt lat="46.04203" lon="6.29558">
        <ele>560</ele>
        <time>2019-07-29T12:17:12Z</time>
      </trkpt>
      <trkpt lat="46.04193" lon="6.2956">
        <ele>560</ele>
        <time>2019-07-29T12:17:16Z</time>
      </trkpt>
      <trkpt lat="46.04182" lon="6.29553">
        <ele>559</ele>
        <time>2019-07-29T12:17:20Z</time>
      </trkpt>
      <trkpt lat="46.04173" lon="6.29533">
        <ele>559</ele>
        <time>2019-07-29T12:17:24Z</time>
      </trkpt>
      <trkpt lat="46.04162" lon="6.2951">
        <ele>559</ele>
        <time>2019-07-29T12:17:28Z</time>
      </trkpt>
      <trkpt lat="46.04149" lon="6.29486">
        <ele>558</ele>
        <time>2019-07-29T12:17:32Z</time>
      </trkpt>
      <trkpt lat="46.04136" lon="6.29459">
        <ele>558</ele>
        <time>2019-07-29T12:17:36Z</time>
      </trkpt>
      <trkpt lat="46.04123" lon="6.29432">
        <ele>558</ele>
        <time>2019-07-29T12:17:40Z</time>
      </trkpt>
      <trkpt lat="46.04111" lon="6.29403">
        <ele>559</ele>
        <time>2019-07-29T12:17:44Z</time>
      </trkpt>
      <trkpt lat="46.04103" lon="6.29377">
        <ele>559</ele>
        <time>2019-07-29T12:17:48Z</time>
      </trkpt>
      <trkpt lat="46.04097" lon="6.29344">
        <ele>560</ele>
        <time>2019-07-29T12:17:52Z</time>
      </trkpt>
      <trkpt lat="46.0409" lon="6.29313">
        <ele>561</ele>
        <time>2019-07-29T12:17:56Z</time>
      </trkpt>
      <trkpt lat="46.04083" lon="6.29284">
        <ele>561</ele>
        <time>2019-07-29T12:18:00Z</time>
      </trkpt>
      <trkpt lat="46.04076" lon="6.29256">
        <ele>562</ele>
        <time>2019-07-29T12:18:04Z</time>
      </trkpt>
      <trkpt lat="46.04069" lon="6.29228">
        <ele>563</ele>
        <time>2019-07-29T12:18:08Z</time>
      </trkpt>
      <trkpt lat="46.04062" lon="6.29199">
        <ele>563</ele>
        <time>2019-07-29T12:18:12Z</time>
      </trkpt>
      <trkpt lat="46.04055" lon="6.29171">
        <ele>565</ele>
        <time>2019-07-29T12:18:16Z</time>
      </trkpt>
      <trkpt lat="46.04047" lon="6.29146">
        <ele>565</ele>
        <time>2019-07-29T12:18:20Z</time>
      </trkpt>
      <trkpt lat="46.0404" lon="6.29118">
        <ele>566</ele>
        <time>2019-07-29T12:18:24Z</time>
      </trkpt>
      <trkpt lat="46.04035" lon="6.29096">
        <ele>567</ele>
        <time>2019-07-29T12:18:28Z</time>
      </trkpt>
      <trkpt lat="46.0403" lon="6.29076">
        <ele>568</ele>
        <time>2019-07-29T12:18:32Z</time>
      </trkpt>
      <trkpt lat="46.04023" lon="6.29053">
        <ele>570</ele>
        <time>2019-07-29T12:18:36Z</time>
      </trkpt>
      <trkpt lat="46.04018" lon="6.29031">
        <ele>571</ele>
        <time>2019-07-29T12:18:40Z</time>
      </trkpt>
      <trkpt lat="46.04013" lon="6.29014">
        <ele>572</ele>
        <time>2019-07-29T12:18:44Z</time>
      </trkpt>
      <trkpt lat="46.0401" lon="6.28998">
        <ele>572</ele>
        <time>2019-07-29T12:18:48Z</time>
      </trkpt>
      <trkpt lat="46.04007" lon="6.28979">
        <ele>571</ele>
        <time>2019-07-29T12:18:52Z</time>
      </trkpt>
      <trkpt lat="46.03998" lon="6.28953">
        <ele>572</ele>
        <time>2019-07-29T12:18:56Z</time>
      </trkpt>
      <trkpt lat="46.03991" lon="6.28926">
        <ele>573</ele>
        <time>2019-07-29T12:19:00Z</time>
      </trkpt>
      <trkpt lat="46.03983" lon="6.28893">
        <ele>572</ele>
        <time>2019-07-29T12:19:04Z</time>
      </trkpt>
      <trkpt lat="46.03975" lon="6.28862">
        <ele>572</ele>
        <time>2019-07-29T12:19:08Z</time>
      </trkpt>
      <trkpt lat="46.03964" lon="6.28829">
        <ele>572</ele>
        <time>2019-07-29T12:19:12Z</time>
      </trkpt>
      <trkpt lat="46.03949" lon="6.28798">
        <ele>572</ele>
        <time>2019-07-29T12:19:16Z</time>
      </trkpt>
      <trkpt lat="46.03933" lon="6.28773">
        <ele>572</ele>
        <time>2019-07-29T12:19:20Z</time>
      </trkpt>
      <trkpt lat="46.03919" lon="6.2875">
        <ele>573</ele>
        <time>2019-07-29T12:19:24Z</time>
      </trkpt>
      <trkpt lat="46.03905" lon="6.28727">
        <ele>574</ele>
        <time>2019-07-29T12:19:28Z</time>
      </trkpt>
      <trkpt lat="46.03894" lon="6.28706">
        <ele>575</ele>
        <time>2019-07-29T12:19:32Z</time>
      </trkpt>
      <trkpt lat="46.03883" lon="6.28685">
        <ele>576</ele>
        <time>2019-07-29T12:19:36Z</time>
      </trkpt>
      <trkpt lat="46.03872" lon="6.28668">
        <ele>577</ele>
        <time>2019-07-29T12:19:40Z</time>
      </trkpt>
      <trkpt lat="46.0386" lon="6.28652">
        <ele>578</ele>
        <time>2019-07-29T12:19:44Z</time>
      </trkpt>
      <trkpt lat="46.03846" lon="6.28636">
        <ele>579</ele>
        <time>2019-07-29T12:19:48Z</time>
      </trkpt>
      <trkpt lat="46.03833" lon="6.28619">
        <ele>579</ele>
        <time>2019-07-29T12:19:52Z</time>
      </trkpt>
      <trkpt lat="46.03819" lon="6.286">
        <ele>580</ele>
        <time>2019-07-29T12:19:56Z</time>
      </trkpt>
      <trkpt lat="46.03806" lon="6.28581">
        <ele>580</ele>
        <time>2019-07-29T12:20:00Z</time>
      </trkpt>
      <trkpt lat="46.03793" lon="6.28563">
        <ele>581</ele>
        <time>2019-07-29T12:20:04Z</time>
      </trkpt>
      <trkpt lat="46.03778" lon="6.28544">
        <ele>581</ele>
        <time>2019-07-29T12:20:08Z</time>
      </trkpt>
      <trkpt lat="46.03767" lon="6.28523">
        <ele>582</ele>
        <time>2019-07-29T12:20:12Z</time>
      </trkpt>
      <trkpt lat="46.03758" lon="6.28503">
        <ele>581</ele>
        <time>2019-07-29T12:20:16Z</time>
      </trkpt>
      <trkpt lat="46.0375" lon="6.28483">
        <ele>582</ele>
        <time>2019-07-29T12:20:20Z</time>
      </trkpt>
      <trkpt lat="46.0374" lon="6.28458">
        <ele>582</ele>
        <time>2019-07-29T12:20:24Z</time>
      </trkpt>
      <trkpt lat="46.03732" lon="6.28434">
        <ele>583</ele>
        <time>2019-07-29T12:20:28Z</time>
      </trkpt>
      <trkpt lat="46.03725" lon="6.28412">
        <ele>585</ele>
        <time>2019-07-29T12:20:32Z</time>
      </trkpt>
      <trkpt lat="46.03721" lon="6.28391">
        <ele>586</ele>
        <time>2019-07-29T12:20:36Z</time>
      </trkpt>
      <trkpt lat="46.03717" lon="6.28371">
        <ele>586</ele>
        <time>2019-07-29T12:20:40Z</time>
      </trkpt>
      <trkpt lat="46.03712" lon="6.28351">
        <ele>587</ele>
        <time>2019-07-29T12:20:44Z</time>
      </trkpt>
      <trkpt lat="46.03703" lon="6.28333">
        <ele>588</ele>
        <time>2019-07-29T12:20:48Z</time>
      </trkpt>
      <trkpt lat="46.03691" lon="6.28321">
        <ele>589</ele>
        <time>2019-07-29T12:20:52Z</time>
      </trkpt>
      <trkpt lat="46.03679" lon="6.2831">
        <ele>589</ele>
        <time>2019-07-29T12:20:56Z</time>
      </trkpt>
      <trkpt lat="46.03666" lon="6.283">
        <ele>590</ele>
        <time>2019-07-29T12:21:00Z</time>
      </trkpt>
      <trkpt lat="46.03654" lon="6.28292">
        <ele>591</ele>
        <time>2019-07-29T12:21:04Z</time>
      </trkpt>
      <trkpt lat="46.03642" lon="6.28282">
        <ele>592</ele>
        <time>2019-07-29T12:21:08Z</time>
      </trkpt>
      <trkpt lat="46.03631" lon="6.28273">
        <ele>593</ele>
        <time>2019-07-29T12:21:12Z</time>
      </trkpt>
      <trkpt lat="46.03621" lon="6.28264">
        <ele>594</ele>
        <time>2019-07-29T12:21:16Z</time>
      </trkpt>
      <trkpt lat="46.03611" lon="6.28254">
        <ele>595</ele>
        <time>2019-07-29T12:21:20Z</time>
      </trkpt>
      <trkpt lat="46.03603" lon="6.28242">
        <ele>595</ele>
        <time>2019-07-29T12:21:24Z</time>
      </trkpt>
      <trkpt lat="46.03599" lon="6.28228">
        <ele>596</ele>
        <time>2019-07-29T12:21:28Z</time>
      </trkpt>
      <trkpt lat="46.03595" lon="6.28215">
        <ele>597</ele>
        <time>2019-07-29T12:21:32Z</time>
      </trkpt>
      <trkpt lat="46.03592" lon="6.28199">
        <ele>598</ele>
        <time>2019-07-29T12:21:36Z</time>
      </trkpt>
      <trkpt lat="46.0359" lon="6.28184">
        <ele>598</ele>
        <time>2019-07-29T12:21:40Z</time>
      </trkpt>
      <trkpt lat="46.03586" lon="6.2817">
        <ele>600</ele>
        <time>2019-07-29T12:21:44Z</time>
      </trkpt>
      <trkpt lat="46.0358" lon="6.28159">
        <ele>599</ele>
        <time>2019-07-29T12:21:48Z</time>
      </trkpt>
      <trkpt lat="46.03572" lon="6.28149">
        <ele>601</ele>
        <time>2019-07-29T12:21:52Z</time>
      </trkpt>
      <trkpt lat="46.0356" lon="6.28136">
        <ele>601</ele>
        <time>2019-07-29T12:21:56Z</time>
      </trkpt>
      <trkpt lat="46.03549" lon="6.28127">
        <ele>602</ele>
        <time>2019-07-29T12:22:00Z</time>
      </trkpt>
      <trkpt lat="46.03539" lon="6.28119">
        <ele>603</ele>
        <time>2019-07-29T12:22:04Z</time>
      </trkpt>
      <trkpt lat="46.03531" lon="6.28113">
        <ele>604</ele>
        <time>2019-07-29T12:22:08Z</time>
      </trkpt>
      <trkpt lat="46.03524" lon="6.28105">
        <ele>604</ele>
        <time>2019-07-29T12:22:12Z</time>
      </trkpt>
      <trkpt lat="46.03511" lon="6.28096">
        <ele>605</ele>
        <time>2019-07-29T12:22:16Z</time>
      </trkpt>
      <trkpt lat="46.03501" lon="6.28089">
        <ele>605</ele>
        <time>2019-07-29T12:22:20Z</time>
      </trkpt>
      <trkpt lat="46.0349" lon="6.28082">
        <ele>606</ele>
        <time>2019-07-29T12:22:24Z</time>
      </trkpt>
      <trkpt lat="46.0348" lon="6.28079">
        <ele>606</ele>
        <time>2019-07-29T12:22:28Z</time>
      </trkpt>
      <trkpt lat="46.03464" lon="6.28065">
        <ele>606</ele>
        <time>2019-07-29T12:22:32Z</time>
      </trkpt>
      <trkpt lat="46.03452" lon="6.28053">
        <ele>608</ele>
        <time>2019-07-29T12:22:36Z</time>
      </trkpt>
      <trkpt lat="46.03442" lon="6.28043">
        <ele>608</ele>
        <time>2019-07-29T12:22:40Z</time>
      </trkpt>
      <trkpt lat="46.03433" lon="6.28032">
        <ele>609</ele>
        <time>2019-07-29T12:22:44Z</time>
      </trkpt>
      <trkpt lat="46.03421" lon="6.28019">
        <ele>610</ele>
        <time>2019-07-29T12:22:48Z</time>
      </trkpt>
      <trkpt lat="46.03412" lon="6.28011">
        <ele>611</ele>
        <time>2019-07-29T12:22:52Z</time>
      </trkpt>
      <trkpt lat="46.03405" lon="6.28003">
        <ele>612</ele>
        <time>2019-07-29T12:22:56Z</time>
      </trkpt>
      <trkpt lat="46.03397" lon="6.27995">
        <ele>613</ele>
        <time>2019-07-29T12:23:00Z</time>
      </trkpt>
      <trkpt lat="46.0339" lon="6.27988">
        <ele>613</ele>
        <time>2019-07-29T12:23:04Z</time>
      </trkpt>
      <trkpt lat="46.0338" lon="6.2798">
        <ele>615</ele>
        <time>2019-07-29T12:23:08Z</time>
      </trkpt>
      <trkpt lat="46.03372" lon="6.27974">
        <ele>616</ele>
        <time>2019-07-29T12:23:12Z</time>
      </trkpt>
      <trkpt lat="46.03364" lon="6.27964">
        <ele>617</ele>
        <time>2019-07-29T12:23:16Z</time>
      </trkpt>
      <trkpt lat="46.03357" lon="6.27954">
        <ele>617</ele>
        <time>2019-07-29T12:23:20Z</time>
      </trkpt>
      <trkpt lat="46.03351" lon="6.27943">
        <ele>618</ele>
        <time>2019-07-29T12:23:24Z</time>
      </trkpt>
      <trkpt lat="46.03347" lon="6.27934">
        <ele>619</ele>
        <time>2019-07-29T12:23:28Z</time>
      </trkpt>
      <trkpt lat="46.03339" lon="6.2792">
        <ele>619</ele>
        <time>2019-07-29T12:23:32Z</time>
      </trkpt>
      <trkpt lat="46.03332" lon="6.27904">
        <ele>620</ele>
        <time>2019-07-29T12:23:36Z</time>
      </trkpt>
      <trkpt lat="46.03326" lon="6.27893">
        <ele>621</ele>
        <time>2019-07-29T12:23:40Z</time>
      </trkpt>
      <trkpt lat="46.03319" lon="6.2788">
        <ele>621</ele>
        <time>2019-07-29T12:23:44Z</time>
      </trkpt>
      <trkpt lat="46.03311" lon="6.27866">
        <ele>622</ele>
        <time>2019-07-29T12:23:48Z</time>
      </trkpt>
      <trkpt lat="46.03303" lon="6.27854">
        <ele>623</ele>
        <time>2019-07-29T12:23:52Z</time>
      </trkpt>
      <trkpt lat="46.03296" lon="6.2784">
        <ele>624</ele>
        <time>2019-07-29T12:23:56Z</time>
      </trkpt>
      <trkpt lat="46.03286" lon="6.27828">
        <ele>624</ele>
        <time>2019-07-29T12:24:00Z</time>
      </trkpt>
      <trkpt lat="46.03278" lon="6.27816">
        <ele>625</ele>
        <time>2019-07-29T12:24:04Z</time>
      </trkpt>
      <trkpt lat="46.03268" lon="6.27802">
        <ele>625</ele>
        <time>2019-07-29T12:24:08Z</time>
      </trkpt>
      <trkpt lat="46.03263" lon="6.27789">
        <ele>626</ele>
        <time>2019-07-29T12:24:12Z</time>
      </trkpt>
      <trkpt lat="46.03254" lon="6.27774">
        <ele>626</ele>
        <time>2019-07-29T12:24:16Z</time>
      </trkpt>
      <trkpt lat="46.0325" lon="6.27758">
        <ele>627</ele>
        <time>2019-07-29T12:24:20Z</time>
      </trkpt>
      <trkpt lat="46.03245" lon="6.27741">
        <ele>628</ele>
        <time>2019-07-29T12:24:24Z</time>
      </trkpt>
      <trkpt lat="46.03237" lon="6.27721">
        <ele>628</ele>
        <time>2019-07-29T12:24:28Z</time>
      </trkpt>
      <trkpt lat="46.03229" lon="6.27704">
        <ele>628</ele>
        <time>2019-07-29T12:24:32Z</time>
      </trkpt>
      <trkpt lat="46.03219" lon="6.2769">
        <ele>629</ele>
        <time>2019-07-29T12:24:36Z</time>
      </trkpt>
      <trkpt lat="46.03208" lon="6.27679">
        <ele>629</ele>
        <time>2019-07-29T12:24:40Z</time>
      </trkpt>
      <trkpt lat="46.03197" lon="6.27669">
        <ele>630</ele>
        <time>2019-07-29T12:24:44Z</time>
      </trkpt>
      <trkpt lat="46.03185" lon="6.27659">
        <ele>631</ele>
        <time>2019-07-29T12:24:48Z</time>
      </trkpt>
      <trkpt lat="46.03173" lon="6.27648">
        <ele>631</ele>
        <time>2019-07-29T12:24:52Z</time>
      </trkpt>
      <trkpt lat="46.03162" lon="6.27637">
        <ele>631</ele>
        <time>2019-07-29T12:24:56Z</time>
      </trkpt>
      <trkpt lat="46.03151" lon="6.27623">
        <ele>633</ele>
        <time>2019-07-29T12:25:00Z</time>
      </trkpt>
      <trkpt lat="46.03142" lon="6.27607">
        <ele>633</ele>
        <time>2019-07-29T12:25:04Z</time>
      </trkpt>
      <trkpt lat="46.03133" lon="6.27591">
        <ele>634</ele>
        <time>2019-07-29T12:25:08Z</time>
      </trkpt>
      <trkpt lat="46.03124" lon="6.27573">
        <ele>634</ele>
        <time>2019-07-29T12:25:12Z</time>
      </trkpt>
      <trkpt lat="46.03116" lon="6.27555">
        <ele>635</ele>
        <time>2019-07-29T12:25:16Z</time>
      </trkpt>
      <trkpt lat="46.03107" lon="6.27537">
        <ele>635</ele>
        <time>2019-07-29T12:25:20Z</time>
      </trkpt>
      <trkpt lat="46.031" lon="6.2752">
        <ele>635</ele>
        <time>2019-07-29T12:25:24Z</time>
      </trkpt>
      <trkpt lat="46.03095" lon="6.27502">
        <ele>636</ele>
        <time>2019-07-29T12:25:28Z</time>
      </trkpt>
      <trkpt lat="46.0309" lon="6.27482">
        <ele>636</ele>
        <time>2019-07-29T12:25:32Z</time>
      </trkpt>
      <trkpt lat="46.03084" lon="6.27462">
        <ele>636</ele>
        <time>2019-07-29T12:25:36Z</time>
      </trkpt>
      <trkpt lat="46.03077" lon="6.27443">
        <ele>636</ele>
        <time>2019-07-29T12:25:40Z</time>
      </trkpt>
      <trkpt lat="46.03067" lon="6.27426">
        <ele>637</ele>
        <time>2019-07-29T12:25:44Z</time>
      </trkpt>
      <trkpt lat="46.03057" lon="6.27409">
        <ele>637</ele>
        <time>2019-07-29T12:25:48Z</time>
      </trkpt>
      <trkpt lat="46.0305" lon="6.27389">
        <ele>637</ele>
        <time>2019-07-29T12:25:52Z</time>
      </trkpt>
      <trkpt lat="46.03042" lon="6.27372">
        <ele>638</ele>
        <time>2019-07-29T12:25:56Z</time>
      </trkpt>
      <trkpt lat="46.03036" lon="6.2736">
        <ele>639</ele>
        <time>2019-07-29T12:26:00Z</time>
      </trkpt>
      <trkpt lat="46.03032" lon="6.27348">
        <ele>639</ele>
        <time>2019-07-29T12:26:04Z</time>
      </trkpt>
      <trkpt lat="46.03024" lon="6.27347">
        <ele>639</ele>
        <time>2019-07-29T12:26:08Z</time>
      </trkpt>
      <trkpt lat="46.03014" lon="6.27352">
        <ele>639</ele>
        <time>2019-07-29T12:26:12Z</time>
      </trkpt>
      <trkpt lat="46.03008" lon="6.27356">
        <ele>640</ele>
        <time>2019-07-29T12:26:16Z</time>
      </trkpt>
      <trkpt lat="46.03013" lon="6.27356">
        <ele>640</ele>
        <time>2019-07-29T12:26:20Z</time>
      </trkpt>
      <trkpt lat="46.03022" lon="6.27352">
        <ele>639</ele>
        <time>2019-07-29T12:26:24Z</time>
      </trkpt>
      <trkpt lat="46.03032" lon="6.27343">
        <ele>638</ele>
        <time>2019-07-29T12:26:28Z</time>
      </trkpt>
      <trkpt lat="46.03044" lon="6.27332">
        <ele>637</ele>
        <time>2019-07-29T12:26:32Z</time>
      </trkpt>
      <trkpt lat="46.03061" lon="6.27324">
        <ele>636</ele>
        <time>2019-07-29T12:26:36Z</time>
      </trkpt>
      <trkpt lat="46.03075" lon="6.27321">
        <ele>637</ele>
        <time>2019-07-29T12:26:40Z</time>
      </trkpt>
      <trkpt lat="46.03088" lon="6.27323">
        <ele>636</ele>
        <time>2019-07-29T12:26:44Z</time>
      </trkpt>
      <trkpt lat="46.03101" lon="6.27323">
        <ele>636</ele>
        <time>2019-07-29T12:26:48Z</time>
      </trkpt>
      <trkpt lat="46.03115" lon="6.27323">
        <ele>637</ele>
        <time>2019-07-29T12:26:52Z</time>
      </trkpt>
      <trkpt lat="46.03129" lon="6.27322">
        <ele>636</ele>
        <time>2019-07-29T12:26:56Z</time>
      </trkpt>
      <trkpt lat="46.03142" lon="6.27317">
        <ele>636</ele>
        <time>2019-07-29T12:27:00Z</time>
      </trkpt>
      <trkpt lat="46.03156" lon="6.27312">
        <ele>636</ele>
        <time>2019-07-29T12:27:04Z</time>
      </trkpt>
      <trkpt lat="46.03172" lon="6.27308">
        <ele>635</ele>
        <time>2019-07-29T12:27:08Z</time>
      </trkpt>
      <trkpt lat="46.03191" lon="6.27303">
        <ele>635</ele>
        <time>2019-07-29T12:27:12Z</time>
      </trkpt>
      <trkpt lat="46.03211" lon="6.27302">
        <ele>634</ele>
        <time>2019-07-29T12:27:16Z</time>
      </trkpt>
      <trkpt lat="46.03233" lon="6.27303">
        <ele>634</ele>
        <time>2019-07-29T12:27:20Z</time>
      </trkpt>
      <trkpt lat="46.03256" lon="6.27304">
        <ele>633</ele>
        <time>2019-07-29T12:27:24Z</time>
      </trkpt>
      <trkpt lat="46.0328" lon="6.27307">
        <ele>633</ele>
        <time>2019-07-29T12:27:28Z</time>
      </trkpt>
      <trkpt lat="46.03302" lon="6.27318">
        <ele>633</ele>
        <time>2019-07-29T12:27:32Z</time>
      </trkpt>
      <trkpt lat="46.03323" lon="6.27331">
        <ele>634</ele>
        <time>2019-07-29T12:27:36Z</time>
      </trkpt>
      <trkpt lat="46.03346" lon="6.2734">
        <ele>634</ele>
        <time>2019-07-29T12:27:40Z</time>
      </trkpt>
      <trkpt lat="46.03369" lon="6.27349">
        <ele>633</ele>
        <time>2019-07-29T12:27:44Z</time>
      </trkpt>
      <trkpt lat="46.03391" lon="6.27359">
        <ele>633</ele>
        <time>2019-07-29T12:27:48Z</time>
      </trkpt>
      <trkpt lat="46.03413" lon="6.27367">
        <ele>633</ele>
        <time>2019-07-29T12:27:52Z</time>
      </trkpt>
      <trkpt lat="46.03435" lon="6.27362">
        <ele>633</ele>
        <time>2019-07-29T12:27:56Z</time>
      </trkpt>
      <trkpt lat="46.03454" lon="6.27347">
        <ele>632</ele>
        <time>2019-07-29T12:28:00Z</time>
      </trkpt>
      <trkpt lat="46.03474" lon="6.27329">
        <ele>630</ele>
        <time>2019-07-29T12:28:04Z</time>
      </trkpt>
      <trkpt lat="46.03496" lon="6.2731">
        <ele>629</ele>
        <time>2019-07-29T12:28:08Z</time>
      </trkpt>
      <trkpt lat="46.03518" lon="6.2729">
        <ele>627</ele>
        <time>2019-07-29T12:28:12Z</time>
      </trkpt>
      <trkpt lat="46.03544" lon="6.27272">
        <ele>626</ele>
        <time>2019-07-29T12:28:16Z</time>
      </trkpt>
      <trkpt lat="46.03567" lon="6.27248">
        <ele>626</ele>
        <time>2019-07-29T12:28:20Z</time>
      </trkpt>
      <trkpt lat="46.03589" lon="6.27223">
        <ele>626</ele>
        <time>2019-07-29T12:28:24Z</time>
      </trkpt>
      <trkpt lat="46.03606" lon="6.27193">
        <ele>626</ele>
        <time>2019-07-29T12:28:28Z</time>
      </trkpt>
      <trkpt lat="46.03618" lon="6.27159">
        <ele>625</ele>
        <time>2019-07-29T12:28:32Z</time>
      </trkpt>
      <trkpt lat="46.03625" lon="6.27125">
        <ele>624</ele>
        <time>2019-07-29T12:28:36Z</time>
      </trkpt>
      <trkpt lat="46.03625" lon="6.27089">
        <ele>623</ele>
        <time>2019-07-29T12:28:40Z</time>
      </trkpt>
      <trkpt lat="46.03621" lon="6.27054">
        <ele>622</ele>
        <time>2019-07-29T12:28:44Z</time>
      </trkpt>
      <trkpt lat="46.03615" lon="6.27019">
        <ele>623</ele>
        <time>2019-07-29T12:28:48Z</time>
      </trkpt>
      <trkpt lat="46.0361" lon="6.26985">
        <ele>623</ele>
        <time>2019-07-29T12:28:52Z</time>
      </trkpt>
      <trkpt lat="46.03603" lon="6.26953">
        <ele>623</ele>
        <time>2019-07-29T12:28:56Z</time>
      </trkpt>
      <trkpt lat="46.03595" lon="6.2692">
        <ele>623</ele>
        <time>2019-07-29T12:29:00Z</time>
      </trkpt>
      <trkpt lat="46.03586" lon="6.2689">
        <ele>623</ele>
        <time>2019-07-29T12:29:04Z</time>
      </trkpt>
      <trkpt lat="46.03575" lon="6.2686">
        <ele>624</ele>
        <time>2019-07-29T12:29:08Z</time>
      </trkpt>
      <trkpt lat="46.03565" lon="6.26829">
        <ele>622</ele>
        <time>2019-07-29T12:29:12Z</time>
      </trkpt>
      <trkpt lat="46.03555" lon="6.26799">
        <ele>621</ele>
        <time>2019-07-29T12:29:16Z</time>
      </trkpt>
      <trkpt lat="46.03547" lon="6.26766">
        <ele>621</ele>
        <time>2019-07-29T12:29:20Z</time>
      </trkpt>
      <trkpt lat="46.03547" lon="6.26731">
        <ele>622</ele>
        <time>2019-07-29T12:29:24Z</time>
      </trkpt>
      <trkpt lat="46.03556" lon="6.26697">
        <ele>620</ele>
        <time>2019-07-29T12:29:28Z</time>
      </trkpt>
      <trkpt lat="46.03574" lon="6.26669">
        <ele>620</ele>
        <time>2019-07-29T12:29:32Z</time>
      </trkpt>
      <trkpt lat="46.03596" lon="6.26645">
        <ele>621</ele>
        <time>2019-07-29T12:29:36Z</time>
      </trkpt>
      <trkpt lat="46.03619" lon="6.26628">
        <ele>620</ele>
        <time>2019-07-29T12:29:40Z</time>
      </trkpt>
      <trkpt lat="46.0364" lon="6.26607">
        <ele>619</ele>
        <time>2019-07-29T12:29:44Z</time>
      </trkpt>
      <trkpt lat="46.03656" lon="6.26581">
        <ele>618</ele>
        <time>2019-07-29T12:29:48Z</time>
      </trkpt>
      <trkpt lat="46.03668" lon="6.26553">
        <ele>618</ele>
        <time>2019-07-29T12:29:52Z</time>
      </trkpt>
      <trkpt lat="46.03674" lon="6.26524">
        <ele>618</ele>
        <time>2019-07-29T12:29:56Z</time>
      </trkpt>
      <trkpt lat="46.03675" lon="6.26498">
        <ele>618</ele>
        <time>2019-07-29T12:30:00Z</time>
      </trkpt>
      <trkpt lat="46.03667" lon="6.26471">
        <ele>618</ele>
        <time>2019-07-29T12:30:04Z</time>
      </trkpt>
      <trkpt lat="46.03654" lon="6.26437">
        <ele>618</ele>
        <time>2019-07-29T12:30:08Z</time>
      </trkpt>
      <trkpt lat="46.0364" lon="6.26405">
        <ele>617</ele>
        <time>2019-07-29T12:30:12Z</time>
      </trkpt>
      <trkpt lat="46.03623" lon="6.26375">
        <ele>616</ele>
        <time>2019-07-29T12:30:16Z</time>
      </trkpt>
      <trkpt lat="46.03608" lon="6.26345">
        <ele>615</ele>
        <time>2019-07-29T12:30:20Z</time>
      </trkpt>
      <trkpt lat="46.03593" lon="6.26312">
        <ele>615</ele>
        <time>2019-07-29T12:30:24Z</time>
      </trkpt>
      <trkpt lat="46.03581" lon="6.26268">
        <ele>615</ele>
        <time>2019-07-29T12:30:28Z</time>
      </trkpt>
      <trkpt lat="46.03572" lon="6.26234">
        <ele>615</ele>
        <time>2019-07-29T12:30:32Z</time>
      </trkpt>
      <trkpt lat="46.03559" lon="6.26199">
        <ele>614</ele>
        <time>2019-07-29T12:30:36Z</time>
      </trkpt>
      <trkpt lat="46.03545" lon="6.26163">
        <ele>612</ele>
        <time>2019-07-29T12:30:40Z</time>
      </trkpt>
      <trkpt lat="46.03533" lon="6.2613">
        <ele>611</ele>
        <time>2019-07-29T12:30:44Z</time>
      </trkpt>
      <trkpt lat="46.03519" lon="6.26092">
        <ele>610</ele>
        <time>2019-07-29T12:30:48Z</time>
      </trkpt>
      <trkpt lat="46.03509" lon="6.26049">
        <ele>607</ele>
        <time>2019-07-29T12:30:52Z</time>
      </trkpt>
      <trkpt lat="46.03503" lon="6.26003">
        <ele>605</ele>
        <time>2019-07-29T12:30:56Z</time>
      </trkpt>
      <trkpt lat="46.03497" lon="6.25956">
        <ele>604</ele>
        <time>2019-07-29T12:31:00Z</time>
      </trkpt>
      <trkpt lat="46.03496" lon="6.25914">
        <ele>604</ele>
        <time>2019-07-29T12:31:04Z</time>
      </trkpt>
      <trkpt lat="46.03504" lon="6.25878">
        <ele>602</ele>
        <time>2019-07-29T12:31:08Z</time>
      </trkpt>
      <trkpt lat="46.03523" lon="6.25846">
        <ele>600</ele>
        <time>2019-07-29T12:31:12Z</time>
      </trkpt>
      <trkpt lat="46.03545" lon="6.25815">
        <ele>599</ele>
        <time>2019-07-29T12:31:16Z</time>
      </trkpt>
      <trkpt lat="46.03566" lon="6.25785">
        <ele>599</ele>
        <time>2019-07-29T12:31:20Z</time>
      </trkpt>
      <trkpt lat="46.03585" lon="6.25757">
        <ele>599</ele>
        <time>2019-07-29T12:31:24Z</time>
      </trkpt>
      <trkpt lat="46.03608" lon="6.25736">
        <ele>597</ele>
        <time>2019-07-29T12:31:28Z</time>
      </trkpt>
      <trkpt lat="46.03629" lon="6.25715">
        <ele>598</ele>
        <time>2019-07-29T12:31:32Z</time>
      </trkpt>
      <trkpt lat="46.03646" lon="6.25692">
        <ele>598</ele>
        <time>2019-07-29T12:31:36Z</time>
      </trkpt>
      <trkpt lat="46.03658" lon="6.25667">
        <ele>599</ele>
        <time>2019-07-29T12:31:40Z</time>
      </trkpt>
      <trkpt lat="46.03666" lon="6.25639">
        <ele>598</ele>
        <time>2019-07-29T12:31:44Z</time>
      </trkpt>
      <trkpt lat="46.03674" lon="6.25613">
        <ele>596</ele>
        <time>2019-07-29T12:31:48Z</time>
      </trkpt>
      <trkpt lat="46.03688" lon="6.25597">
        <ele>595</ele>
        <time>2019-07-29T12:31:52Z</time>
      </trkpt>
      <trkpt lat="46.03711" lon="6.25596">
        <ele>592</ele>
        <time>2019-07-29T12:31:56Z</time>
      </trkpt>
      <trkpt lat="46.03737" lon="6.25602">
        <ele>589</ele>
        <time>2019-07-29T12:32:00Z</time>
      </trkpt>
      <trkpt lat="46.03764" lon="6.25609">
        <ele>588</ele>
        <time>2019-07-29T12:32:04Z</time>
      </trkpt>
      <trkpt lat="46.03794" lon="6.25616">
        <ele>585</ele>
        <time>2019-07-29T12:32:08Z</time>
      </trkpt>
      <trkpt lat="46.03828" lon="6.25623">
        <ele>580</ele>
        <time>2019-07-29T12:32:12Z</time>
      </trkpt>
      <trkpt lat="46.03864" lon="6.25631">
        <ele>577</ele>
        <time>2019-07-29T12:32:16Z</time>
      </trkpt>
      <trkpt lat="46.03902" lon="6.2564">
        <ele>577</ele>
        <time>2019-07-29T12:32:20Z</time>
      </trkpt>
      <trkpt lat="46.0394" lon="6.25648">
        <ele>575</ele>
        <time>2019-07-29T12:32:24Z</time>
      </trkpt>
      <trkpt lat="46.03972" lon="6.25658">
        <ele>575</ele>
        <time>2019-07-29T12:32:28Z</time>
      </trkpt>
      <trkpt lat="46.04" lon="6.25666">
        <ele>575</ele>
        <time>2019-07-29T12:32:32Z</time>
      </trkpt>
      <trkpt lat="46.0403" lon="6.25677">
        <ele>574</ele>
        <time>2019-07-29T12:32:36Z</time>
      </trkpt>
      <trkpt lat="46.04058" lon="6.25695">
        <ele>573</ele>
        <time>2019-07-29T12:32:40Z</time>
      </trkpt>
      <trkpt lat="46.04087" lon="6.25716">
        <ele>572</ele>
        <time>2019-07-29T12:32:44Z</time>
      </trkpt>
      <trkpt lat="46.04111" lon="6.25732">
        <ele>571</ele>
        <time>2019-07-29T12:32:48Z</time>
      </trkpt>
      <trkpt lat="46.04131" lon="6.25749">
        <ele>571</ele>
        <time>2019-07-29T12:32:52Z</time>
      </trkpt>
      <trkpt lat="46.04152" lon="6.25764">
        <ele>570</ele>
        <time>2019-07-29T12:32:56Z</time>
      </trkpt>
      <trkpt lat="46.04177" lon="6.25782">
        <ele>569</ele>
        <time>2019-07-29T12:33:00Z</time>
      </trkpt>
      <trkpt lat="46.04218" lon="6.25793">
        <ele>569</ele>
        <time>2019-07-29T12:33:04Z</time>
      </trkpt>
      <trkpt lat="46.04251" lon="6.25799">
        <ele>569</ele>
        <time>2019-07-29T12:33:08Z</time>
      </trkpt>
      <trkpt lat="46.04277" lon="6.25803">
        <ele>569</ele>
        <time>2019-07-29T12:33:12Z</time>
      </trkpt>
      <trkpt lat="46.04306" lon="6.25803">
        <ele>568</ele>
        <time>2019-07-29T12:33:16Z</time>
      </trkpt>
      <trkpt lat="46.04332" lon="6.25799">
        <ele>567</ele>
        <time>2019-07-29T12:33:20Z</time>
      </trkpt>
      <trkpt lat="46.04358" lon="6.25791">
        <ele>565</ele>
        <time>2019-07-29T12:33:24Z</time>
      </trkpt>
      <trkpt lat="46.04386" lon="6.25781">
        <ele>564</ele>
        <time>2019-07-29T12:33:28Z</time>
      </trkpt>
      <trkpt lat="46.04418" lon="6.2578">
        <ele>563</ele>
        <time>2019-07-29T12:33:32Z</time>
      </trkpt>
      <trkpt lat="46.04437" lon="6.25766">
        <ele>564</ele>
        <time>2019-07-29T12:33:36Z</time>
      </trkpt>
      <trkpt lat="46.04459" lon="6.25757">
        <ele>565</ele>
        <time>2019-07-29T12:33:40Z</time>
      </trkpt>
      <trkpt lat="46.04479" lon="6.2575">
        <ele>566</ele>
        <time>2019-07-29T12:33:44Z</time>
      </trkpt>
      <trkpt lat="46.04496" lon="6.25741">
        <ele>566</ele>
        <time>2019-07-29T12:33:48Z</time>
      </trkpt>
      <trkpt lat="46.04515" lon="6.25734">
        <ele>567</ele>
        <time>2019-07-29T12:33:52Z</time>
      </trkpt>
      <trkpt lat="46.04534" lon="6.25728">
        <ele>568</ele>
        <time>2019-07-29T12:33:56Z</time>
      </trkpt>
      <trkpt lat="46.04547" lon="6.25724">
        <ele>568</ele>
        <time>2019-07-29T12:34:00Z</time>
      </trkpt>
      <trkpt lat="46.0456" lon="6.25736">
        <ele>566</ele>
        <time>2019-07-29T12:34:04Z</time>
      </trkpt>
      <trkpt lat="46.04571" lon="6.25759">
        <ele>567</ele>
        <time>2019-07-29T12:34:08Z</time>
      </trkpt>
      <trkpt lat="46.04582" lon="6.25784">
        <ele>566</ele>
        <time>2019-07-29T12:34:12Z</time>
      </trkpt>
      <trkpt lat="46.04596" lon="6.25812">
        <ele>565</ele>
        <time>2019-07-29T12:34:16Z</time>
      </trkpt>
      <trkpt lat="46.0461" lon="6.25841">
        <ele>565</ele>
        <time>2019-07-29T12:34:20Z</time>
      </trkpt>
      <trkpt lat="46.04625" lon="6.25872">
        <ele>564</ele>
        <time>2019-07-29T12:34:24Z</time>
      </trkpt>
      <trkpt lat="46.0464" lon="6.25902">
        <ele>564</ele>
        <time>2019-07-29T12:34:28Z</time>
      </trkpt>
      <trkpt lat="46.04654" lon="6.25932">
        <ele>565</ele>
        <time>2019-07-29T12:34:32Z</time>
      </trkpt>
      <trkpt lat="46.04667" lon="6.25961">
        <ele>565</ele>
        <time>2019-07-29T12:34:36Z</time>
      </trkpt>
      <trkpt lat="46.04682" lon="6.2599">
        <ele>564</ele>
        <time>2019-07-29T12:34:40Z</time>
      </trkpt>
      <trkpt lat="46.04697" lon="6.26019">
        <ele>564</ele>
        <time>2019-07-29T12:34:44Z</time>
      </trkpt>
      <trkpt lat="46.04712" lon="6.2605">
        <ele>562</ele>
        <time>2019-07-29T12:34:48Z</time>
      </trkpt>
      <trkpt lat="46.04727" lon="6.2608">
        <ele>561</ele>
        <time>2019-07-29T12:34:52Z</time>
      </trkpt>
      <trkpt lat="46.04744" lon="6.26111">
        <ele>561</ele>
        <time>2019-07-29T12:34:56Z</time>
      </trkpt>
      <trkpt lat="46.0476" lon="6.26144">
        <ele>559</ele>
        <time>2019-07-29T12:35:00Z</time>
      </trkpt>
      <trkpt lat="46.04782" lon="6.26154">
        <ele>561</ele>
        <time>2019-07-29T12:35:04Z</time>
      </trkpt>
      <trkpt lat="46.048" lon="6.26135">
        <ele>563</ele>
        <time>2019-07-29T12:35:08Z</time>
      </trkpt>
      <trkpt lat="46.04815" lon="6.26119">
        <ele>564</ele>
        <time>2019-07-29T12:35:12Z</time>
      </trkpt>
      <trkpt lat="46.04828" lon="6.26105">
        <ele>566</ele>
        <time>2019-07-29T12:35:16Z</time>
      </trkpt>
      <trkpt lat="46.0484" lon="6.26091">
        <ele>568</ele>
        <time>2019-07-29T12:35:20Z</time>
      </trkpt>
      <trkpt lat="46.04851" lon="6.26077">
        <ele>568</ele>
        <time>2019-07-29T12:35:24Z</time>
      </trkpt>
      <trkpt lat="46.04861" lon="6.26061">
        <ele>569</ele>
        <time>2019-07-29T12:35:28Z</time>
      </trkpt>
      <trkpt lat="46.04869" lon="6.26043">
        <ele>569</ele>
        <time>2019-07-29T12:35:32Z</time>
      </trkpt>
      <trkpt lat="46.04877" lon="6.26025">
        <ele>571</ele>
        <time>2019-07-29T12:35:36Z</time>
      </trkpt>
      <trkpt lat="46.04884" lon="6.26006">
        <ele>572</ele>
        <time>2019-07-29T12:35:40Z</time>
      </trkpt>
      <trkpt lat="46.0489" lon="6.25987">
        <ele>572</ele>
        <time>2019-07-29T12:35:44Z</time>
      </trkpt>
      <trkpt lat="46.04896" lon="6.25967">
        <ele>573</ele>
        <time>2019-07-29T12:35:48Z</time>
      </trkpt>
      <trkpt lat="46.04902" lon="6.25948">
        <ele>575</ele>
        <time>2019-07-29T12:35:52Z</time>
      </trkpt>
      <trkpt lat="46.04908" lon="6.25928">
        <ele>576</ele>
        <time>2019-07-29T12:35:56Z</time>
      </trkpt>
      <trkpt lat="46.04913" lon="6.25908">
        <ele>576</ele>
        <time>2019-07-29T12:36:00Z</time>
      </trkpt>
      <trkpt lat="46.0492" lon="6.25889">
        <ele>577</ele>
        <time>2019-07-29T12:36:04Z</time>
      </trkpt>
      <trkpt lat="46.04925" lon="6.2587">
        <ele>578</ele>
        <time>2019-07-29T12:36:08Z</time>
      </trkpt>
      <trkpt lat="46.0493" lon="6.25852">
        <ele>578</ele>
        <time>2019-07-29T12:36:12Z</time>
      </trkpt>
      <trkpt lat="46.04933" lon="6.25833">
        <ele>580</ele>
        <time>2019-07-29T12:36:16Z</time>
      </trkpt>
      <trkpt lat="46.04938" lon="6.2583">
        <ele>580</ele>
        <time>2019-07-29T12:36:20Z</time>
      </trkpt>
      <trkpt lat="46.04948" lon="6.25836">
        <ele>580</ele>
        <time>2019-07-29T12:36:24Z</time>
      </trkpt>
      <trkpt lat="46.04959" lon="6.25833">
        <ele>581</ele>
        <time>2019-07-29T12:36:28Z</time>
      </trkpt>
      <trkpt lat="46.04969" lon="6.25828">
        <ele>581</ele>
        <time>2019-07-29T12:36:32Z</time>
      </trkpt>
      <trkpt lat="46.04981" lon="6.25824">
        <ele>582</ele>
        <time>2019-07-29T12:36:36Z</time>
      </trkpt>
      <trkpt lat="46.04993" lon="6.2582">
        <ele>583</ele>
        <time>2019-07-29T12:36:40Z</time>
      </trkpt>
      <trkpt lat="46.05005" lon="6.25818">
        <ele>585</ele>
        <time>2019-07-29T12:36:44Z</time>
      </trkpt>
      <trkpt lat="46.05019" lon="6.25816">
        <ele>585</ele>
        <time>2019-07-29T12:36:48Z</time>
      </trkpt>
      <trkpt lat="46.05031" lon="6.25812">
        <ele>586</ele>
        <time>2019-07-29T12:36:52Z</time>
      </trkpt>
      <trkpt lat="46.05044" lon="6.2581">
        <ele>587</ele>
        <time>2019-07-29T12:36:56Z</time>
      </trkpt>
      <trkpt lat="46.05057" lon="6.25806">
        <ele>588</ele>
        <time>2019-07-29T12:37:00Z</time>
      </trkpt>
      <trkpt lat="46.05069" lon="6.25805">
        <ele>588</ele>
        <time>2019-07-29T12:37:04Z</time>
      </trkpt>
      <trkpt lat="46.05082" lon="6.25805">
        <ele>588</ele>
        <time>2019-07-29T12:37:08Z</time>
      </trkpt>
      <trkpt lat="46.05097" lon="6.25801">
        <ele>588</ele>
        <time>2019-07-29T12:37:12Z</time>
      </trkpt>
      <trkpt lat="46.05113" lon="6.25801">
        <ele>588</ele>
        <time>2019-07-29T12:37:16Z</time>
      </trkpt>
      <trkpt lat="46.05129" lon="6.25801">
        <ele>588</ele>
        <time>2019-07-29T12:37:20Z</time>
      </trkpt>
      <trkpt lat="46.05146" lon="6.25802">
        <ele>589</ele>
        <time>2019-07-29T12:37:24Z</time>
      </trkpt>
      <trkpt lat="46.05164" lon="6.25803">
        <ele>589</ele>
        <time>2019-07-29T12:37:28Z</time>
      </trkpt>
      <trkpt lat="46.05184" lon="6.25804">
        <ele>589</ele>
        <time>2019-07-29T12:37:32Z</time>
      </trkpt>
      <trkpt lat="46.05204" lon="6.25807">
        <ele>589</ele>
        <time>2019-07-29T12:37:36Z</time>
      </trkpt>
      <trkpt lat="46.05224" lon="6.25809">
        <ele>589</ele>
        <time>2019-07-29T12:37:40Z</time>
      </trkpt>
      <trkpt lat="46.05245" lon="6.25807">
        <ele>589</ele>
        <time>2019-07-29T12:37:44Z</time>
      </trkpt>
      <trkpt lat="46.05261" lon="6.25802">
        <ele>589</ele>
        <time>2019-07-29T12:37:48Z</time>
      </trkpt>
      <trkpt lat="46.0528" lon="6.25792">
        <ele>589</ele>
        <time>2019-07-29T12:37:52Z</time>
      </trkpt>
      <trkpt lat="46.053" lon="6.25777">
        <ele>590</ele>
        <time>2019-07-29T12:37:56Z</time>
      </trkpt>
      <trkpt lat="46.05319" lon="6.25763">
        <ele>590</ele>
        <time>2019-07-29T12:38:00Z</time>
      </trkpt>
      <trkpt lat="46.05337" lon="6.25748">
        <ele>591</ele>
        <time>2019-07-29T12:38:04Z</time>
      </trkpt>
      <trkpt lat="46.05353" lon="6.25727">
        <ele>592</ele>
        <time>2019-07-29T12:38:08Z</time>
      </trkpt>
      <trkpt lat="46.05368" lon="6.25708">
        <ele>593</ele>
        <time>2019-07-29T12:38:12Z</time>
      </trkpt>
      <trkpt lat="46.05381" lon="6.25689">
        <ele>594</ele>
        <time>2019-07-29T12:38:16Z</time>
      </trkpt>
      <trkpt lat="46.05393" lon="6.25675">
        <ele>595</ele>
        <time>2019-07-29T12:38:20Z</time>
      </trkpt>
      <trkpt lat="46.05402" lon="6.25663">
        <ele>597</ele>
        <time>2019-07-29T12:38:24Z</time>
      </trkpt>
      <trkpt lat="46.05411" lon="6.25654">
        <ele>598</ele>
        <time>2019-07-29T12:38:28Z</time>
      </trkpt>
      <trkpt lat="46.0542" lon="6.25649">
        <ele>599</ele>
        <time>2019-07-29T12:38:32Z</time>
      </trkpt>
      <trkpt lat="46.05431" lon="6.25643">
        <ele>600</ele>
        <time>2019-07-29T12:38:36Z</time>
      </trkpt>
      <trkpt lat="46.05443" lon="6.25637">
        <ele>601</ele>
        <time>2019-07-29T12:38:40Z</time>
      </trkpt>
      <trkpt lat="46.05453" lon="6.25629">
        <ele>602</ele>
        <time>2019-07-29T12:38:44Z</time>
      </trkpt>
      <trkpt lat="46.05464" lon="6.25622">
        <ele>602</ele>
        <time>2019-07-29T12:38:48Z</time>
      </trkpt>
      <trkpt lat="46.05477" lon="6.25615">
        <ele>603</ele>
        <time>2019-07-29T12:38:52Z</time>
      </trkpt>
      <trkpt lat="46.0549" lon="6.2561">
        <ele>603</ele>
        <time>2019-07-29T12:38:56Z</time>
      </trkpt>
      <trkpt lat="46.05504" lon="6.25605">
        <ele>604</ele>
        <time>2019-07-29T12:39:00Z</time>
      </trkpt>
      <trkpt lat="46.05519" lon="6.256">
        <ele>604</ele>
        <time>2019-07-29T12:39:04Z</time>
      </trkpt>
      <trkpt lat="46.05534" lon="6.25595">
        <ele>604</ele>
        <time>2019-07-29T12:39:08Z</time>
      </trkpt>
      <trkpt lat="46.0555" lon="6.25589">
        <ele>604</ele>
        <time>2019-07-29T12:39:12Z</time>
      </trkpt>
      <trkpt lat="46.05567" lon="6.25583">
        <ele>605</ele>
        <time>2019-07-29T12:39:16Z</time>
      </trkpt>
      <trkpt lat="46.05584" lon="6.25578">
        <ele>606</ele>
        <time>2019-07-29T12:39:20Z</time>
      </trkpt>
      <trkpt lat="46.05603" lon="6.25574">
        <ele>606</ele>
        <time>2019-07-29T12:39:24Z</time>
      </trkpt>
      <trkpt lat="46.05621" lon="6.2557">
        <ele>606</ele>
        <time>2019-07-29T12:39:28Z</time>
      </trkpt>
      <trkpt lat="46.05639" lon="6.25568">
        <ele>606</ele>
        <time>2019-07-29T12:39:32Z</time>
      </trkpt>
      <trkpt lat="46.05658" lon="6.25568">
        <ele>605</ele>
        <time>2019-07-29T12:39:36Z</time>
      </trkpt>
      <trkpt lat="46.05676" lon="6.25568">
        <ele>607</ele>
        <time>2019-07-29T12:39:40Z</time>
      </trkpt>
      <trkpt lat="46.05694" lon="6.25569">
        <ele>607</ele>
        <time>2019-07-29T12:39:44Z</time>
      </trkpt>
      <trkpt lat="46.05708" lon="6.25567">
        <ele>608</ele>
        <time>2019-07-29T12:39:48Z</time>
      </trkpt>
      <trkpt lat="46.05718" lon="6.25565">
        <ele>608</ele>
        <time>2019-07-29T12:39:52Z</time>
      </trkpt>
      <trkpt lat="46.05722" lon="6.25557">
        <ele>609</ele>
        <time>2019-07-29T12:39:56Z</time>
      </trkpt>
      <trkpt lat="46.0572" lon="6.2555">
        <ele>609</ele>
        <time>2019-07-29T12:40:00Z</time>
      </trkpt>
      <trkpt lat="46.05718" lon="6.25543">
        <ele>610</ele>
        <time>2019-07-29T12:40:04Z</time>
      </trkpt>
      <trkpt lat="46.0572" lon="6.25547">
        <ele>609</ele>
        <time>2019-07-29T12:40:08Z</time>
      </trkpt>
      <trkpt lat="46.05718" lon="6.25555">
        <ele>609</ele>
        <time>2019-07-29T12:40:12Z</time>
      </trkpt>
      <trkpt lat="46.05715" lon="6.2556">
        <ele>609</ele>
        <time>2019-07-29T12:40:16Z</time>
      </trkpt>
      <trkpt lat="46.05711" lon="6.25562">
        <ele>609</ele>
        <time>2019-07-29T12:40:32Z</time>
      </trkpt>
      <trkpt lat="46.05717" lon="6.25564">
        <ele>609</ele>
        <time>2019-07-29T12:40:36Z</time>
      </trkpt>
      <trkpt lat="46.0572" lon="6.25549">
        <ele>609</ele>
        <time>2019-07-29T12:40:40Z</time>
      </trkpt>
      <trkpt lat="46.05716" lon="6.25532">
        <ele>610</ele>
        <time>2019-07-29T12:40:44Z</time>
      </trkpt>
      <trkpt lat="46.05711" lon="6.25518">
        <ele>611</ele>
        <time>2019-07-29T12:40:48Z</time>
      </trkpt>
      <trkpt lat="46.05706" lon="6.25503">
        <ele>612</ele>
        <time>2019-07-29T12:40:52Z</time>
      </trkpt>
      <trkpt lat="46.05701" lon="6.25487">
        <ele>612</ele>
        <time>2019-07-29T12:40:56Z</time>
      </trkpt>
      <trkpt lat="46.05696" lon="6.25468">
        <ele>613</ele>
        <time>2019-07-29T12:41:00Z</time>
      </trkpt>
      <trkpt lat="46.05694" lon="6.25449">
        <ele>613</ele>
        <time>2019-07-29T12:41:04Z</time>
      </trkpt>
      <trkpt lat="46.05699" lon="6.2543">
        <ele>614</ele>
        <time>2019-07-29T12:41:08Z</time>
      </trkpt>
      <trkpt lat="46.05707" lon="6.25418">
        <ele>616</ele>
        <time>2019-07-29T12:41:12Z</time>
      </trkpt>
      <trkpt lat="46.05706" lon="6.25412">
        <ele>615</ele>
        <time>2019-07-29T12:41:16Z</time>
      </trkpt>
      <trkpt lat="46.057" lon="6.25422">
        <ele>615</ele>
        <time>2019-07-29T12:41:20Z</time>
      </trkpt>
      <trkpt lat="46.05695" lon="6.25436">
        <ele>613</ele>
        <time>2019-07-29T12:41:24Z</time>
      </trkpt>
      <trkpt lat="46.05698" lon="6.2546">
        <ele>612</ele>
        <time>2019-07-29T12:41:28Z</time>
      </trkpt>
      <trkpt lat="46.05702" lon="6.25484">
        <ele>611</ele>
        <time>2019-07-29T12:41:32Z</time>
      </trkpt>
      <trkpt lat="46.05708" lon="6.25505">
        <ele>610</ele>
        <time>2019-07-29T12:41:36Z</time>
      </trkpt>
      <trkpt lat="46.05716" lon="6.25531">
        <ele>609</ele>
        <time>2019-07-29T12:41:40Z</time>
      </trkpt>
      <trkpt lat="46.0572" lon="6.25555">
        <ele>609</ele>
        <time>2019-07-29T12:41:44Z</time>
      </trkpt>
      <trkpt lat="46.05726" lon="6.25574">
        <ele>608</ele>
        <time>2019-07-29T12:41:48Z</time>
      </trkpt>
      <trkpt lat="46.05735" lon="6.25594">
        <ele>607</ele>
        <time>2019-07-29T12:41:52Z</time>
      </trkpt>
      <trkpt lat="46.05744" lon="6.25617">
        <ele>607</ele>
        <time>2019-07-29T12:41:56Z</time>
      </trkpt>
      <trkpt lat="46.05754" lon="6.25643">
        <ele>606</ele>
        <time>2019-07-29T12:42:00Z</time>
      </trkpt>
      <trkpt lat="46.0576" lon="6.25671">
        <ele>606</ele>
        <time>2019-07-29T12:42:04Z</time>
      </trkpt>
      <trkpt lat="46.05764" lon="6.25698">
        <ele>609</ele>
        <time>2019-07-29T12:42:08Z</time>
      </trkpt>
      <trkpt lat="46.05769" lon="6.25723">
        <ele>607</ele>
        <time>2019-07-29T12:42:12Z</time>
      </trkpt>
      <trkpt lat="46.05773" lon="6.25751">
        <ele>606</ele>
        <time>2019-07-29T12:42:16Z</time>
      </trkpt>
      <trkpt lat="46.0578" lon="6.2578">
        <ele>606</ele>
        <time>2019-07-29T12:42:20Z</time>
      </trkpt>
      <trkpt lat="46.0579" lon="6.2581">
        <ele>606</ele>
        <time>2019-07-29T12:42:24Z</time>
      </trkpt>
      <trkpt lat="46.05802" lon="6.25841">
        <ele>605</ele>
        <time>2019-07-29T12:42:28Z</time>
      </trkpt>
      <trkpt lat="46.05816" lon="6.25872">
        <ele>605</ele>
        <time>2019-07-29T12:42:32Z</time>
      </trkpt>
      <trkpt lat="46.05831" lon="6.25904">
        <ele>604</ele>
        <time>2019-07-29T12:42:36Z</time>
      </trkpt>
      <trkpt lat="46.05847" lon="6.25938">
        <ele>604</ele>
        <time>2019-07-29T12:42:40Z</time>
      </trkpt>
      <trkpt lat="46.05861" lon="6.25972">
        <ele>605</ele>
        <time>2019-07-29T12:42:44Z</time>
      </trkpt>
      <trkpt lat="46.05873" lon="6.26005">
        <ele>606</ele>
        <time>2019-07-29T12:42:48Z</time>
      </trkpt>
      <trkpt lat="46.05881" lon="6.26039">
        <ele>605</ele>
        <time>2019-07-29T12:42:52Z</time>
      </trkpt>
      <trkpt lat="46.05886" lon="6.26076">
        <ele>603</ele>
        <time>2019-07-29T12:42:56Z</time>
      </trkpt>
      <trkpt lat="46.05888" lon="6.26119">
        <ele>599</ele>
        <time>2019-07-29T12:43:00Z</time>
      </trkpt>
      <trkpt lat="46.0589" lon="6.2617">
        <ele>596</ele>
        <time>2019-07-29T12:43:04Z</time>
      </trkpt>
      <trkpt lat="46.05892" lon="6.26226">
        <ele>595</ele>
        <time>2019-07-29T12:43:08Z</time>
      </trkpt>
      <trkpt lat="46.05891" lon="6.26273">
        <ele>600</ele>
        <time>2019-07-29T12:43:12Z</time>
      </trkpt>
      <trkpt lat="46.05891" lon="6.2631">
        <ele>602</ele>
        <time>2019-07-29T12:43:16Z</time>
      </trkpt>
      <trkpt lat="46.05888" lon="6.26341">
        <ele>603</ele>
        <time>2019-07-29T12:43:20Z</time>
      </trkpt>
      <trkpt lat="46.05877" lon="6.26368">
        <ele>603</ele>
        <time>2019-07-29T12:43:24Z</time>
      </trkpt>
      <trkpt lat="46.05864" lon="6.26395">
        <ele>602</ele>
        <time>2019-07-29T12:43:28Z</time>
      </trkpt>
      <trkpt lat="46.0585" lon="6.26424">
        <ele>599</ele>
        <time>2019-07-29T12:43:32Z</time>
      </trkpt>
      <trkpt lat="46.05832" lon="6.26455">
        <ele>596</ele>
        <time>2019-07-29T12:43:36Z</time>
      </trkpt>
      <trkpt lat="46.0581" lon="6.26491">
        <ele>594</ele>
        <time>2019-07-29T12:43:40Z</time>
      </trkpt>
      <trkpt lat="46.05786" lon="6.26531">
        <ele>591</ele>
        <time>2019-07-29T12:43:44Z</time>
      </trkpt>
      <trkpt lat="46.05762" lon="6.2657">
        <ele>591</ele>
        <time>2019-07-29T12:43:48Z</time>
      </trkpt>
      <trkpt lat="46.05739" lon="6.26608">
        <ele>591</ele>
        <time>2019-07-29T12:43:52Z</time>
      </trkpt>
      <trkpt lat="46.05722" lon="6.26649">
        <ele>589</ele>
        <time>2019-07-29T12:43:56Z</time>
      </trkpt>
      <trkpt lat="46.05711" lon="6.26692">
        <ele>588</ele>
        <time>2019-07-29T12:44:00Z</time>
      </trkpt>
      <trkpt lat="46.05703" lon="6.26735">
        <ele>588</ele>
        <time>2019-07-29T12:44:04Z</time>
      </trkpt>
      <trkpt lat="46.05694" lon="6.26779">
        <ele>588</ele>
        <time>2019-07-29T12:44:08Z</time>
      </trkpt>
      <trkpt lat="46.05689" lon="6.26825">
        <ele>587</ele>
        <time>2019-07-29T12:44:12Z</time>
      </trkpt>
      <trkpt lat="46.05686" lon="6.26872">
        <ele>586</ele>
        <time>2019-07-29T12:44:16Z</time>
      </trkpt>
      <trkpt lat="46.05682" lon="6.26918">
        <ele>584</ele>
        <time>2019-07-29T12:44:20Z</time>
      </trkpt>
      <trkpt lat="46.05679" lon="6.26966">
        <ele>583</ele>
        <time>2019-07-29T12:44:24Z</time>
      </trkpt>
      <trkpt lat="46.05678" lon="6.27">
        <ele>585</ele>
        <time>2019-07-29T12:44:28Z</time>
      </trkpt>
      <trkpt lat="46.05676" lon="6.27026">
        <ele>584</ele>
        <time>2019-07-29T12:44:32Z</time>
      </trkpt>
      <trkpt lat="46.05673" lon="6.27055">
        <ele>583</ele>
        <time>2019-07-29T12:44:36Z</time>
      </trkpt>
      <trkpt lat="46.05669" lon="6.27088">
        <ele>583</ele>
        <time>2019-07-29T12:44:40Z</time>
      </trkpt>
      <trkpt lat="46.05665" lon="6.27121">
        <ele>583</ele>
        <time>2019-07-29T12:44:44Z</time>
      </trkpt>
      <trkpt lat="46.0566" lon="6.27154">
        <ele>584</ele>
        <time>2019-07-29T12:44:48Z</time>
      </trkpt>
      <trkpt lat="46.05657" lon="6.27183">
        <ele>586</ele>
        <time>2019-07-29T12:44:52Z</time>
      </trkpt>
      <trkpt lat="46.05653" lon="6.27209">
        <ele>588</ele>
        <time>2019-07-29T12:44:56Z</time>
      </trkpt>
      <trkpt lat="46.05651" lon="6.27234">
        <ele>589</ele>
        <time>2019-07-29T12:45:00Z</time>
      </trkpt>
      <trkpt lat="46.05648" lon="6.27259">
        <ele>589</ele>
        <time>2019-07-29T12:45:04Z</time>
      </trkpt>
      <trkpt lat="46.05645" lon="6.27283">
        <ele>591</ele>
        <time>2019-07-29T12:45:08Z</time>
      </trkpt>
      <trkpt lat="46.05642" lon="6.27305">
        <ele>591</ele>
        <time>2019-07-29T12:45:12Z</time>
      </trkpt>
      <trkpt lat="46.05639" lon="6.27328">
        <ele>592</ele>
        <time>2019-07-29T12:45:16Z</time>
      </trkpt>
      <trkpt lat="46.05636" lon="6.27353">
        <ele>592</ele>
        <time>2019-07-29T12:45:20Z</time>
      </trkpt>
      <trkpt lat="46.05633" lon="6.27376">
        <ele>592</ele>
        <time>2019-07-29T12:45:24Z</time>
      </trkpt>
      <trkpt lat="46.05629" lon="6.27401">
        <ele>591</ele>
        <time>2019-07-29T12:45:28Z</time>
      </trkpt>
      <trkpt lat="46.0563" lon="6.27413">
        <ele>591</ele>
        <time>2019-07-29T12:46:48Z</time>
      </trkpt>
      <trkpt lat="46.05629" lon="6.27425">
        <ele>590</ele>
        <time>2019-07-29T12:46:52Z</time>
      </trkpt>
      <trkpt lat="46.05627" lon="6.27449">
        <ele>589</ele>
        <time>2019-07-29T12:46:56Z</time>
      </trkpt>
      <trkpt lat="46.05627" lon="6.27478">
        <ele>587</ele>
        <time>2019-07-29T12:47:00Z</time>
      </trkpt>
      <trkpt lat="46.05629" lon="6.27511">
        <ele>585</ele>
        <time>2019-07-29T12:47:04Z</time>
      </trkpt>
      <trkpt lat="46.05631" lon="6.27551">
        <ele>582</ele>
        <time>2019-07-29T12:47:08Z</time>
      </trkpt>
      <trkpt lat="46.05633" lon="6.276">
        <ele>578</ele>
        <time>2019-07-29T12:47:12Z</time>
      </trkpt>
      <trkpt lat="46.05637" lon="6.27654">
        <ele>577</ele>
        <time>2019-07-29T12:47:16Z</time>
      </trkpt>
      <trkpt lat="46.05639" lon="6.27709">
        <ele>573</ele>
        <time>2019-07-29T12:47:20Z</time>
      </trkpt>
      <trkpt lat="46.05637" lon="6.27764">
        <ele>572</ele>
        <time>2019-07-29T12:47:24Z</time>
      </trkpt>
      <trkpt lat="46.05618" lon="6.27812">
        <ele>569</ele>
        <time>2019-07-29T12:47:28Z</time>
      </trkpt>
      <trkpt lat="46.05598" lon="6.27852">
        <ele>568</ele>
        <time>2019-07-29T12:47:32Z</time>
      </trkpt>
      <trkpt lat="46.05605" lon="6.27892">
        <ele>561</ele>
        <time>2019-07-29T12:47:36Z</time>
      </trkpt>
      <trkpt lat="46.05626" lon="6.27932">
        <ele>557</ele>
        <time>2019-07-29T12:47:40Z</time>
      </trkpt>
      <trkpt lat="46.05647" lon="6.27974">
        <ele>557</ele>
        <time>2019-07-29T12:47:44Z</time>
      </trkpt>
      <trkpt lat="46.05667" lon="6.28015">
        <ele>555</ele>
        <time>2019-07-29T12:47:48Z</time>
      </trkpt>
      <trkpt lat="46.05695" lon="6.28046">
        <ele>554</ele>
        <time>2019-07-29T12:47:52Z</time>
      </trkpt>
      <trkpt lat="46.05726" lon="6.28075">
        <ele>550</ele>
        <time>2019-07-29T12:47:56Z</time>
      </trkpt>
      <trkpt lat="46.05757" lon="6.2811">
        <ele>547</ele>
        <time>2019-07-29T12:48:00Z</time>
      </trkpt>
      <trkpt lat="46.05785" lon="6.28151">
        <ele>547</ele>
        <time>2019-07-29T12:48:04Z</time>
      </trkpt>
      <trkpt lat="46.05807" lon="6.28188">
        <ele>547</ele>
        <time>2019-07-29T12:48:08Z</time>
      </trkpt>
      <trkpt lat="46.05797" lon="6.28223">
        <ele>544</ele>
        <time>2019-07-29T12:48:12Z</time>
      </trkpt>
      <trkpt lat="46.05766" lon="6.28223">
        <ele>541</ele>
        <time>2019-07-29T12:48:16Z</time>
      </trkpt>
      <trkpt lat="46.05728" lon="6.28219">
        <ele>537</ele>
        <time>2019-07-29T12:48:20Z</time>
      </trkpt>
      <trkpt lat="46.05688" lon="6.28213">
        <ele>534</ele>
        <time>2019-07-29T12:48:24Z</time>
      </trkpt>
      <trkpt lat="46.05656" lon="6.28217">
        <ele>534</ele>
        <time>2019-07-29T12:48:28Z</time>
      </trkpt>
      <trkpt lat="46.05648" lon="6.28249">
        <ele>533</ele>
        <time>2019-07-29T12:48:32Z</time>
      </trkpt>
      <trkpt lat="46.05673" lon="6.28273">
        <ele>529</ele>
        <time>2019-07-29T12:48:36Z</time>
      </trkpt>
      <trkpt lat="46.05698" lon="6.28295">
        <ele>526</ele>
        <time>2019-07-29T12:48:40Z</time>
      </trkpt>
      <trkpt lat="46.05707" lon="6.28335">
        <ele>524</ele>
        <time>2019-07-29T12:48:44Z</time>
      </trkpt>
      <trkpt lat="46.05693" lon="6.28384">
        <ele>519</ele>
        <time>2019-07-29T12:48:48Z</time>
      </trkpt>
      <trkpt lat="46.05669" lon="6.28434">
        <ele>515</ele>
        <time>2019-07-29T12:48:52Z</time>
      </trkpt>
      <trkpt lat="46.05643" lon="6.28481">
        <ele>513</ele>
        <time>2019-07-29T12:48:56Z</time>
      </trkpt>
      <trkpt lat="46.05619" lon="6.2852">
        <ele>513</ele>
        <time>2019-07-29T12:49:00Z</time>
      </trkpt>
      <trkpt lat="46.05588" lon="6.28539">
        <ele>509</ele>
        <time>2019-07-29T12:49:04Z</time>
      </trkpt>
      <trkpt lat="46.05554" lon="6.28536">
        <ele>507</ele>
        <time>2019-07-29T12:49:08Z</time>
      </trkpt>
      <trkpt lat="46.05524" lon="6.28518">
        <ele>507</ele>
        <time>2019-07-29T12:49:12Z</time>
      </trkpt>
      <trkpt lat="46.05507" lon="6.28491">
        <ele>507</ele>
        <time>2019-07-29T12:49:16Z</time>
      </trkpt>
      <trkpt lat="46.05494" lon="6.28466">
        <ele>507</ele>
        <time>2019-07-29T12:49:20Z</time>
      </trkpt>
      <trkpt lat="46.05484" lon="6.28461">
        <ele>507</ele>
        <time>2019-07-29T12:49:24Z</time>
      </trkpt>
      <trkpt lat="46.05477" lon="6.28454">
        <ele>508</ele>
        <time>2019-07-29T12:50:24Z</time>
      </trkpt>
      <trkpt lat="46.05477" lon="6.28464">
        <ele>508</ele>
        <time>2019-07-29T12:50:28Z</time>
      </trkpt>
      <trkpt lat="46.05487" lon="6.28472">
        <ele>507</ele>
        <time>2019-07-29T12:50:32Z</time>
      </trkpt>
      <trkpt lat="46.05499" lon="6.28477">
        <ele>507</ele>
        <time>2019-07-29T12:50:36Z</time>
      </trkpt>
      <trkpt lat="46.05507" lon="6.28495">
        <ele>508</ele>
        <time>2019-07-29T12:50:40Z</time>
      </trkpt>
      <trkpt lat="46.05518" lon="6.28515">
        <ele>508</ele>
        <time>2019-07-29T12:50:44Z</time>
      </trkpt>
      <trkpt lat="46.05533" lon="6.28528">
        <ele>508</ele>
        <time>2019-07-29T12:50:48Z</time>
      </trkpt>
      <trkpt lat="46.0555" lon="6.28537">
        <ele>509</ele>
        <time>2019-07-29T12:50:52Z</time>
      </trkpt>
      <trkpt lat="46.05566" lon="6.28541">
        <ele>510</ele>
        <time>2019-07-29T12:50:56Z</time>
      </trkpt>
      <trkpt lat="46.05582" lon="6.28542">
        <ele>512</ele>
        <time>2019-07-29T12:51:00Z</time>
      </trkpt>
      <trkpt lat="46.05598" lon="6.28539">
        <ele>512</ele>
        <time>2019-07-29T12:51:04Z</time>
      </trkpt>
      <trkpt lat="46.05611" lon="6.28531">
        <ele>514</ele>
        <time>2019-07-29T12:51:08Z</time>
      </trkpt>
      <trkpt lat="46.05622" lon="6.28518">
        <ele>514</ele>
        <time>2019-07-29T12:51:12Z</time>
      </trkpt>
      <trkpt lat="46.0563" lon="6.28507">
        <ele>515</ele>
        <time>2019-07-29T12:51:16Z</time>
      </trkpt>
      <trkpt lat="46.05637" lon="6.28496">
        <ele>516</ele>
        <time>2019-07-29T12:51:20Z</time>
      </trkpt>
      <trkpt lat="46.05645" lon="6.28482">
        <ele>516</ele>
        <time>2019-07-29T12:51:24Z</time>
      </trkpt>
      <trkpt lat="46.05652" lon="6.28468">
        <ele>518</ele>
        <time>2019-07-29T12:51:28Z</time>
      </trkpt>
      <trkpt lat="46.05661" lon="6.28454">
        <ele>519</ele>
        <time>2019-07-29T12:51:32Z</time>
      </trkpt>
      <trkpt lat="46.05669" lon="6.28439">
        <ele>520</ele>
        <time>2019-07-29T12:51:36Z</time>
      </trkpt>
      <trkpt lat="46.05677" lon="6.28425">
        <ele>521</ele>
        <time>2019-07-29T12:51:40Z</time>
      </trkpt>
      <trkpt lat="46.05685" lon="6.2841">
        <ele>522</ele>
        <time>2019-07-29T12:51:44Z</time>
      </trkpt>
      <trkpt lat="46.05692" lon="6.28395">
        <ele>523</ele>
        <time>2019-07-29T12:51:48Z</time>
      </trkpt>
      <trkpt lat="46.057" lon="6.2838">
        <ele>524</ele>
        <time>2019-07-29T12:51:52Z</time>
      </trkpt>
      <trkpt lat="46.05706" lon="6.28366">
        <ele>526</ele>
        <time>2019-07-29T12:51:56Z</time>
      </trkpt>
      <trkpt lat="46.05711" lon="6.2835">
        <ele>527</ele>
        <time>2019-07-29T12:52:00Z</time>
      </trkpt>
      <trkpt lat="46.05714" lon="6.28333">
        <ele>528</ele>
        <time>2019-07-29T12:52:04Z</time>
      </trkpt>
      <trkpt lat="46.05719" lon="6.28321">
        <ele>528</ele>
        <time>2019-07-29T12:52:08Z</time>
      </trkpt>
      <trkpt lat="46.05732" lon="6.28337">
        <ele>525</ele>
        <time>2019-07-29T12:52:12Z</time>
      </trkpt>
      <trkpt lat="46.05751" lon="6.28364">
        <ele>522</ele>
        <time>2019-07-29T12:52:16Z</time>
      </trkpt>
      <trkpt lat="46.05773" lon="6.28396">
        <ele>519</ele>
        <time>2019-07-29T12:52:20Z</time>
      </trkpt>
      <trkpt lat="46.05793" lon="6.28427">
        <ele>516</ele>
        <time>2019-07-29T12:52:24Z</time>
      </trkpt>
      <trkpt lat="46.05821" lon="6.28464">
        <ele>511</ele>
        <time>2019-07-29T12:52:28Z</time>
      </trkpt>
      <trkpt lat="46.05847" lon="6.28491">
        <ele>509</ele>
        <time>2019-07-29T12:52:32Z</time>
      </trkpt>
      <trkpt lat="46.05871" lon="6.28523">
        <ele>508</ele>
        <time>2019-07-29T12:52:36Z</time>
      </trkpt>
      <trkpt lat="46.05898" lon="6.28548">
        <ele>504</ele>
        <time>2019-07-29T12:52:40Z</time>
      </trkpt>
      <trkpt lat="46.05921" lon="6.28574">
        <ele>503</ele>
        <time>2019-07-29T12:52:44Z</time>
      </trkpt>
      <trkpt lat="46.05946" lon="6.28604">
        <ele>499</ele>
        <time>2019-07-29T12:52:48Z</time>
      </trkpt>
      <trkpt lat="46.05966" lon="6.28632">
        <ele>499</ele>
        <time>2019-07-29T12:52:52Z</time>
      </trkpt>
      <trkpt lat="46.05993" lon="6.28661">
        <ele>497</ele>
        <time>2019-07-29T12:52:56Z</time>
      </trkpt>
      <trkpt lat="46.06018" lon="6.287">
        <ele>489</ele>
        <time>2019-07-29T12:53:00Z</time>
      </trkpt>
      <trkpt lat="46.06043" lon="6.28743">
        <ele>486</ele>
        <time>2019-07-29T12:53:04Z</time>
      </trkpt>
      <trkpt lat="46.06071" lon="6.2878">
        <ele>478</ele>
        <time>2019-07-29T12:53:08Z</time>
      </trkpt>
      <trkpt lat="46.06094" lon="6.28813">
        <ele>477</ele>
        <time>2019-07-29T12:53:12Z</time>
      </trkpt>
      <trkpt lat="46.0611" lon="6.28847">
        <ele>474</ele>
        <time>2019-07-29T12:53:16Z</time>
      </trkpt>
      <trkpt lat="46.06125" lon="6.2888">
        <ele>470</ele>
        <time>2019-07-29T12:53:20Z</time>
      </trkpt>
      <trkpt lat="46.06133" lon="6.28901">
        <ele>467</ele>
        <time>2019-07-29T12:53:24Z</time>
      </trkpt>
      <trkpt lat="46.06139" lon="6.28912">
        <ele>467</ele>
        <time>2019-07-29T12:53:28Z</time>
      </trkpt>
      <trkpt lat="46.06147" lon="6.28926">
        <ele>466</ele>
        <time>2019-07-29T12:53:32Z</time>
      </trkpt>
      <trkpt lat="46.06157" lon="6.28946">
        <ele>463</ele>
        <time>2019-07-29T12:53:36Z</time>
      </trkpt>
      <trkpt lat="46.06171" lon="6.2897">
        <ele>462</ele>
        <time>2019-07-29T12:53:40Z</time>
      </trkpt>
      <trkpt lat="46.06184" lon="6.28999">
        <ele>458</ele>
        <time>2019-07-29T12:53:44Z</time>
      </trkpt>
      <trkpt lat="46.06203" lon="6.29026">
        <ele>453</ele>
        <time>2019-07-29T12:53:48Z</time>
      </trkpt>
      <trkpt lat="46.06221" lon="6.29054">
        <ele>451</ele>
        <time>2019-07-29T12:53:52Z</time>
      </trkpt>
      <trkpt lat="46.06233" lon="6.29083">
        <ele>449</ele>
        <time>2019-07-29T12:53:56Z</time>
      </trkpt>
      <trkpt lat="46.06228" lon="6.29113">
        <ele>446</ele>
        <time>2019-07-29T12:54:00Z</time>
      </trkpt>
      <trkpt lat="46.06226" lon="6.29138">
        <ele>444</ele>
        <time>2019-07-29T12:54:04Z</time>
      </trkpt>
      <trkpt lat="46.06241" lon="6.29156">
        <ele>443</ele>
        <time>2019-07-29T12:54:08Z</time>
      </trkpt>
      <trkpt lat="46.06249" lon="6.29182">
        <ele>443</ele>
        <time>2019-07-29T12:54:12Z</time>
      </trkpt>
      <trkpt lat="46.06256" lon="6.29198">
        <ele>442</ele>
        <time>2019-07-29T12:54:16Z</time>
      </trkpt>
      <trkpt lat="46.06275" lon="6.29197">
        <ele>441</ele>
        <time>2019-07-29T12:54:20Z</time>
      </trkpt>
      <trkpt lat="46.06294" lon="6.29199">
        <ele>441</ele>
        <time>2019-07-29T12:54:24Z</time>
      </trkpt>
      <trkpt lat="46.06313" lon="6.29222">
        <ele>438</ele>
        <time>2019-07-29T12:54:28Z</time>
      </trkpt>
      <trkpt lat="46.06333" lon="6.29246">
        <ele>435</ele>
        <time>2019-07-29T12:54:32Z</time>
      </trkpt>
      <trkpt lat="46.0636" lon="6.29266">
        <ele>431</ele>
        <time>2019-07-29T12:54:36Z</time>
      </trkpt>
      <trkpt lat="46.06388" lon="6.29284">
        <ele>428</ele>
        <time>2019-07-29T12:54:40Z</time>
      </trkpt>
      <trkpt lat="46.06414" lon="6.293">
        <ele>425</ele>
        <time>2019-07-29T12:54:44Z</time>
      </trkpt>
      <trkpt lat="46.06435" lon="6.29311">
        <ele>422</ele>
        <time>2019-07-29T12:54:48Z</time>
      </trkpt>
      <trkpt lat="46.06462" lon="6.29313">
        <ele>417</ele>
        <time>2019-07-29T12:54:52Z</time>
      </trkpt>
      <trkpt lat="46.06493" lon="6.29314">
        <ele>414</ele>
        <time>2019-07-29T12:54:56Z</time>
      </trkpt>
      <trkpt lat="46.06518" lon="6.29318">
        <ele>412</ele>
        <time>2019-07-29T12:55:00Z</time>
      </trkpt>
      <trkpt lat="46.06546" lon="6.29336">
        <ele>407</ele>
        <time>2019-07-29T12:55:04Z</time>
      </trkpt>
      <trkpt lat="46.06565" lon="6.29355">
        <ele>407</ele>
        <time>2019-07-29T12:55:08Z</time>
      </trkpt>
      <trkpt lat="46.0658" lon="6.29376">
        <ele>406</ele>
        <time>2019-07-29T12:55:12Z</time>
      </trkpt>
      <trkpt lat="46.06593" lon="6.29399">
        <ele>404</ele>
        <time>2019-07-29T12:55:16Z</time>
      </trkpt>
      <trkpt lat="46.06608" lon="6.29423">
        <ele>403</ele>
        <time>2019-07-29T12:55:20Z</time>
      </trkpt>
      <trkpt lat="46.06625" lon="6.29442">
        <ele>401</ele>
        <time>2019-07-29T12:55:24Z</time>
      </trkpt>
      <trkpt lat="46.06641" lon="6.29461">
        <ele>399</ele>
        <time>2019-07-29T12:55:28Z</time>
      </trkpt>
      <trkpt lat="46.0666" lon="6.29466">
        <ele>397</ele>
        <time>2019-07-29T12:55:32Z</time>
      </trkpt>
      <trkpt lat="46.06685" lon="6.29456">
        <ele>396</ele>
        <time>2019-07-29T12:55:36Z</time>
      </trkpt>
      <trkpt lat="46.06708" lon="6.29449">
        <ele>396</ele>
        <time>2019-07-29T12:55:40Z</time>
      </trkpt>
      <trkpt lat="46.06732" lon="6.29444">
        <ele>396</ele>
        <time>2019-07-29T12:55:44Z</time>
      </trkpt>
      <trkpt lat="46.06753" lon="6.29435">
        <ele>395</ele>
        <time>2019-07-29T12:55:48Z</time>
      </trkpt>
      <trkpt lat="46.06781" lon="6.29435">
        <ele>394</ele>
        <time>2019-07-29T12:55:52Z</time>
      </trkpt>
      <trkpt lat="46.06802" lon="6.29422">
        <ele>396</ele>
        <time>2019-07-29T12:55:56Z</time>
      </trkpt>
      <trkpt lat="46.06821" lon="6.2941">
        <ele>396</ele>
        <time>2019-07-29T12:56:00Z</time>
      </trkpt>
      <trkpt lat="46.06835" lon="6.29399">
        <ele>398</ele>
        <time>2019-07-29T12:56:04Z</time>
      </trkpt>
      <trkpt lat="46.06853" lon="6.2939">
        <ele>397</ele>
        <time>2019-07-29T12:56:08Z</time>
      </trkpt>
      <trkpt lat="46.06869" lon="6.29373">
        <ele>398</ele>
        <time>2019-07-29T12:56:12Z</time>
      </trkpt>
      <trkpt lat="46.06885" lon="6.29355">
        <ele>398</ele>
        <time>2019-07-29T12:56:16Z</time>
      </trkpt>
      <trkpt lat="46.06903" lon="6.29337">
        <ele>399</ele>
        <time>2019-07-29T12:56:20Z</time>
      </trkpt>
      <trkpt lat="46.06921" lon="6.29321">
        <ele>398</ele>
        <time>2019-07-29T12:56:24Z</time>
      </trkpt>
      <trkpt lat="46.0694" lon="6.29308">
        <ele>397</ele>
        <time>2019-07-29T12:56:28Z</time>
      </trkpt>
      <trkpt lat="46.06961" lon="6.29297">
        <ele>397</ele>
        <time>2019-07-29T12:56:32Z</time>
      </trkpt>
      <trkpt lat="46.06985" lon="6.29283">
        <ele>396</ele>
        <time>2019-07-29T12:56:36Z</time>
      </trkpt>
      <trkpt lat="46.07012" lon="6.29267">
        <ele>394</ele>
        <time>2019-07-29T12:56:40Z</time>
      </trkpt>
      <trkpt lat="46.0704" lon="6.29243">
        <ele>392</ele>
        <time>2019-07-29T12:56:44Z</time>
      </trkpt>
      <trkpt lat="46.07068" lon="6.29221">
        <ele>391</ele>
        <time>2019-07-29T12:56:48Z</time>
      </trkpt>
      <trkpt lat="46.07093" lon="6.29212">
        <ele>392</ele>
        <time>2019-07-29T12:56:52Z</time>
      </trkpt>
      <trkpt lat="46.07113" lon="6.29203">
        <ele>395</ele>
        <time>2019-07-29T12:56:56Z</time>
      </trkpt>
      <trkpt lat="46.07131" lon="6.29193">
        <ele>396</ele>
        <time>2019-07-29T12:57:00Z</time>
      </trkpt>
      <trkpt lat="46.07153" lon="6.29186">
        <ele>394</ele>
        <time>2019-07-29T12:57:04Z</time>
      </trkpt>
      <trkpt lat="46.07174" lon="6.29176">
        <ele>394</ele>
        <time>2019-07-29T12:57:08Z</time>
      </trkpt>
      <trkpt lat="46.07197" lon="6.29163">
        <ele>394</ele>
        <time>2019-07-29T12:57:12Z</time>
      </trkpt>
      <trkpt lat="46.07219" lon="6.29147">
        <ele>396</ele>
        <time>2019-07-29T12:57:16Z</time>
      </trkpt>
      <trkpt lat="46.07236" lon="6.29135">
        <ele>398</ele>
        <time>2019-07-29T12:57:20Z</time>
      </trkpt>
      <trkpt lat="46.07249" lon="6.29122">
        <ele>399</ele>
        <time>2019-07-29T12:57:24Z</time>
      </trkpt>
      <trkpt lat="46.07263" lon="6.29105">
        <ele>401</ele>
        <time>2019-07-29T12:57:28Z</time>
      </trkpt>
      <trkpt lat="46.07271" lon="6.29082">
        <ele>401</ele>
        <time>2019-07-29T12:57:32Z</time>
      </trkpt>
      <trkpt lat="46.07276" lon="6.29056">
        <ele>401</ele>
        <time>2019-07-29T12:57:36Z</time>
      </trkpt>
      <trkpt lat="46.07281" lon="6.29026">
        <ele>400</ele>
        <time>2019-07-29T12:57:40Z</time>
      </trkpt>
      <trkpt lat="46.07287" lon="6.28993">
        <ele>399</ele>
        <time>2019-07-29T12:57:44Z</time>
      </trkpt>
      <trkpt lat="46.07311" lon="6.28973">
        <ele>396</ele>
        <time>2019-07-29T12:57:48Z</time>
      </trkpt>
      <trkpt lat="46.07341" lon="6.29002">
        <ele>391</ele>
        <time>2019-07-29T12:57:52Z</time>
      </trkpt>
      <trkpt lat="46.07376" lon="6.29033">
        <ele>386</ele>
        <time>2019-07-29T12:57:56Z</time>
      </trkpt>
      <trkpt lat="46.07399" lon="6.29038">
        <ele>390</ele>
        <time>2019-07-29T12:58:00Z</time>
      </trkpt>
      <trkpt lat="46.07404" lon="6.2904">
        <ele>391</ele>
        <time>2019-07-29T12:58:20Z</time>
      </trkpt>
      <trkpt lat="46.07412" lon="6.29041">
        <ele>389</ele>
        <time>2019-07-29T12:58:24Z</time>
      </trkpt>
      <trkpt lat="46.07429" lon="6.29044">
        <ele>386</ele>
        <time>2019-07-29T12:58:28Z</time>
      </trkpt>
      <trkpt lat="46.07454" lon="6.29048">
        <ele>383</ele>
        <time>2019-07-29T12:58:32Z</time>
      </trkpt>
      <trkpt lat="46.07485" lon="6.29051">
        <ele>383</ele>
        <time>2019-07-29T12:58:36Z</time>
      </trkpt>
      <trkpt lat="46.07515" lon="6.29043">
        <ele>382</ele>
        <time>2019-07-29T12:58:40Z</time>
      </trkpt>
      <trkpt lat="46.0754" lon="6.29023">
        <ele>384</ele>
        <time>2019-07-29T12:58:44Z</time>
      </trkpt>
      <trkpt lat="46.07556" lon="6.29001">
        <ele>388</ele>
        <time>2019-07-29T12:58:48Z</time>
      </trkpt>
      <trkpt lat="46.07566" lon="6.28983">
        <ele>389</ele>
        <time>2019-07-29T12:58:52Z</time>
      </trkpt>
      <trkpt lat="46.07574" lon="6.2896">
        <ele>388</ele>
        <time>2019-07-29T12:58:56Z</time>
      </trkpt>
      <trkpt lat="46.0759" lon="6.28941">
        <ele>386</ele>
        <time>2019-07-29T12:59:00Z</time>
      </trkpt>
      <trkpt lat="46.07612" lon="6.28923">
        <ele>384</ele>
        <time>2019-07-29T12:59:04Z</time>
      </trkpt>
      <trkpt lat="46.07637" lon="6.28902">
        <ele>384</ele>
        <time>2019-07-29T12:59:08Z</time>
      </trkpt>
      <trkpt lat="46.0766" lon="6.28871">
        <ele>382</ele>
        <time>2019-07-29T12:59:12Z</time>
      </trkpt>
      <trkpt lat="46.07684" lon="6.28841">
        <ele>381</ele>
        <time>2019-07-29T12:59:16Z</time>
      </trkpt>
      <trkpt lat="46.07709" lon="6.28817">
        <ele>381</ele>
        <time>2019-07-29T12:59:20Z</time>
      </trkpt>
      <trkpt lat="46.07736" lon="6.28795">
        <ele>380</ele>
        <time>2019-07-29T12:59:24Z</time>
      </trkpt>
      <trkpt lat="46.07763" lon="6.28771">
        <ele>379</ele>
        <time>2019-07-29T12:59:28Z</time>
      </trkpt>
      <trkpt lat="46.0779" lon="6.28746">
        <ele>381</ele>
        <time>2019-07-29T12:59:32Z</time>
      </trkpt>
      <trkpt lat="46.07811" lon="6.2872">
        <ele>382</ele>
        <time>2019-07-29T12:59:36Z</time>
      </trkpt>
      <trkpt lat="46.07825" lon="6.28688">
        <ele>384</ele>
        <time>2019-07-29T12:59:40Z</time>
      </trkpt>
      <trkpt lat="46.0784" lon="6.28659">
        <ele>383</ele>
        <time>2019-07-29T12:59:44Z</time>
      </trkpt>
      <trkpt lat="46.07861" lon="6.28634">
        <ele>383</ele>
        <time>2019-07-29T12:59:48Z</time>
      </trkpt>
      <trkpt lat="46.07883" lon="6.28613">
        <ele>384</ele>
        <time>2019-07-29T12:59:52Z</time>
      </trkpt>
      <trkpt lat="46.07905" lon="6.28599">
        <ele>384</ele>
        <time>2019-07-29T12:59:56Z</time>
      </trkpt>
      <trkpt lat="46.07931" lon="6.28599">
        <ele>381</ele>
        <time>2019-07-29T13:00:00Z</time>
      </trkpt>
      <trkpt lat="46.07963" lon="6.28606">
        <ele>378</ele>
        <time>2019-07-29T13:00:04Z</time>
      </trkpt>
      <trkpt lat="46.07996" lon="6.28608">
        <ele>375</ele>
        <time>2019-07-29T13:00:08Z</time>
      </trkpt>
      <trkpt lat="46.08029" lon="6.28593">
        <ele>374</ele>
        <time>2019-07-29T13:00:12Z</time>
      </trkpt>
      <trkpt lat="46.08061" lon="6.28572">
        <ele>374</ele>
        <time>2019-07-29T13:00:16Z</time>
      </trkpt>
      <trkpt lat="46.08092" lon="6.28558">
        <ele>374</ele>
        <time>2019-07-29T13:00:20Z</time>
      </trkpt>
      <trkpt lat="46.0812" lon="6.28549">
        <ele>373</ele>
        <time>2019-07-29T13:00:24Z</time>
      </trkpt>
      <trkpt lat="46.0815" lon="6.28543">
        <ele>374</ele>
        <time>2019-07-29T13:00:28Z</time>
      </trkpt>
      <trkpt lat="46.08179" lon="6.28537">
        <ele>371</ele>
        <time>2019-07-29T13:00:32Z</time>
      </trkpt>
      <trkpt lat="46.08211" lon="6.28543">
        <ele>366</ele>
        <time>2019-07-29T13:00:36Z</time>
      </trkpt>
      <trkpt lat="46.08246" lon="6.28551">
        <ele>365</ele>
        <time>2019-07-29T13:00:40Z</time>
      </trkpt>
      <trkpt lat="46.08281" lon="6.28545">
        <ele>366</ele>
        <time>2019-07-29T13:00:44Z</time>
      </trkpt>
      <trkpt lat="46.08311" lon="6.28533">
        <ele>367</ele>
        <time>2019-07-29T13:00:48Z</time>
      </trkpt>
      <trkpt lat="46.08338" lon="6.28514">
        <ele>368</ele>
        <time>2019-07-29T13:00:52Z</time>
      </trkpt>
      <trkpt lat="46.08362" lon="6.28497">
        <ele>370</ele>
        <time>2019-07-29T13:00:56Z</time>
      </trkpt>
      <trkpt lat="46.08381" lon="6.28479">
        <ele>371</ele>
        <time>2019-07-29T13:01:00Z</time>
      </trkpt>
      <trkpt lat="46.08398" lon="6.28473">
        <ele>367</ele>
        <time>2019-07-29T13:01:04Z</time>
      </trkpt>
      <trkpt lat="46.08415" lon="6.28496">
        <ele>367</ele>
        <time>2019-07-29T13:01:08Z</time>
      </trkpt>
      <trkpt lat="46.08429" lon="6.2853">
        <ele>364</ele>
        <time>2019-07-29T13:01:12Z</time>
      </trkpt>
      <trkpt lat="46.08453" lon="6.28555">
        <ele>363</ele>
        <time>2019-07-29T13:01:16Z</time>
      </trkpt>
      <trkpt lat="46.08484" lon="6.28557">
        <ele>363</ele>
        <time>2019-07-29T13:01:20Z</time>
      </trkpt>
      <trkpt lat="46.08514" lon="6.28543">
        <ele>362</ele>
        <time>2019-07-29T13:01:24Z</time>
      </trkpt>
      <trkpt lat="46.08544" lon="6.2853">
        <ele>362</ele>
        <time>2019-07-29T13:01:28Z</time>
      </trkpt>
      <trkpt lat="46.08574" lon="6.2853">
        <ele>362</ele>
        <time>2019-07-29T13:01:32Z</time>
      </trkpt>
      <trkpt lat="46.08604" lon="6.28534">
        <ele>361</ele>
        <time>2019-07-29T13:01:36Z</time>
      </trkpt>
      <trkpt lat="46.08634" lon="6.2854">
        <ele>360</ele>
        <time>2019-07-29T13:01:40Z</time>
      </trkpt>
      <trkpt lat="46.08664" lon="6.28545">
        <ele>360</ele>
        <time>2019-07-29T13:01:44Z</time>
      </trkpt>
      <trkpt lat="46.08693" lon="6.28549">
        <ele>360</ele>
        <time>2019-07-29T13:01:48Z</time>
      </trkpt>
      <trkpt lat="46.08724" lon="6.28545">
        <ele>358</ele>
        <time>2019-07-29T13:01:52Z</time>
      </trkpt>
      <trkpt lat="46.08756" lon="6.28531">
        <ele>356</ele>
        <time>2019-07-29T13:01:56Z</time>
      </trkpt>
      <trkpt lat="46.08789" lon="6.28516">
        <ele>356</ele>
        <time>2019-07-29T13:02:00Z</time>
      </trkpt>
      <trkpt lat="46.08821" lon="6.28501">
        <ele>355</ele>
        <time>2019-07-29T13:02:04Z</time>
      </trkpt>
      <trkpt lat="46.08851" lon="6.28483">
        <ele>356</ele>
        <time>2019-07-29T13:02:08Z</time>
      </trkpt>
      <trkpt lat="46.0888" lon="6.28468">
        <ele>356</ele>
        <time>2019-07-29T13:02:12Z</time>
      </trkpt>
      <trkpt lat="46.08908" lon="6.28452">
        <ele>355</ele>
        <time>2019-07-29T13:02:16Z</time>
      </trkpt>
      <trkpt lat="46.08925" lon="6.28434">
        <ele>357</ele>
        <time>2019-07-29T13:02:20Z</time>
      </trkpt>
      <trkpt lat="46.08938" lon="6.28423">
        <ele>354</ele>
        <time>2019-07-29T13:02:24Z</time>
      </trkpt>
      <trkpt lat="46.08957" lon="6.28415">
        <ele>352</ele>
        <time>2019-07-29T13:02:28Z</time>
      </trkpt>
      <trkpt lat="46.08979" lon="6.28406">
        <ele>349</ele>
        <time>2019-07-29T13:02:32Z</time>
      </trkpt>
      <trkpt lat="46.09007" lon="6.28396">
        <ele>347</ele>
        <time>2019-07-29T13:02:36Z</time>
      </trkpt>
      <trkpt lat="46.09039" lon="6.28399">
        <ele>345</ele>
        <time>2019-07-29T13:02:40Z</time>
      </trkpt>
      <trkpt lat="46.0906" lon="6.28428">
        <ele>343</ele>
        <time>2019-07-29T13:02:44Z</time>
      </trkpt>
      <trkpt lat="46.09067" lon="6.28454">
        <ele>343</ele>
        <time>2019-07-29T13:02:48Z</time>
      </trkpt>
      <trkpt lat="46.09073" lon="6.28471">
        <ele>342</ele>
        <time>2019-07-29T13:02:52Z</time>
      </trkpt>
      <trkpt lat="46.09078" lon="6.28486">
        <ele>342</ele>
        <time>2019-07-29T13:02:56Z</time>
      </trkpt>
      <trkpt lat="46.09077" lon="6.28502">
        <ele>342</ele>
        <time>2019-07-29T13:03:00Z</time>
      </trkpt>
      <trkpt lat="46.09076" lon="6.28513">
        <ele>341</ele>
        <time>2019-07-29T13:03:04Z</time>
      </trkpt>
      <trkpt lat="46.09082" lon="6.28503">
        <ele>341</ele>
        <time>2019-07-29T13:03:08Z</time>
      </trkpt>
      <trkpt lat="46.09081" lon="6.28483">
        <ele>341</ele>
        <time>2019-07-29T13:03:12Z</time>
      </trkpt>
      <trkpt lat="46.09075" lon="6.28463">
        <ele>343</ele>
        <time>2019-07-29T13:03:16Z</time>
      </trkpt>
      <trkpt lat="46.09069" lon="6.28444">
        <ele>344</ele>
        <time>2019-07-29T13:03:20Z</time>
      </trkpt>
      <trkpt lat="46.09071" lon="6.28422">
        <ele>344</ele>
        <time>2019-07-29T13:03:24Z</time>
      </trkpt>
      <trkpt lat="46.09082" lon="6.28402">
        <ele>343</ele>
        <time>2019-07-29T13:03:28Z</time>
      </trkpt>
      <trkpt lat="46.09098" lon="6.28383">
        <ele>344</ele>
        <time>2019-07-29T13:03:32Z</time>
      </trkpt>
      <trkpt lat="46.09113" lon="6.28363">
        <ele>343</ele>
        <time>2019-07-29T13:03:36Z</time>
      </trkpt>
      <trkpt lat="46.09128" lon="6.28337">
        <ele>343</ele>
        <time>2019-07-29T13:03:40Z</time>
      </trkpt>
      <trkpt lat="46.09137" lon="6.28307">
        <ele>343</ele>
        <time>2019-07-29T13:03:44Z</time>
      </trkpt>
      <trkpt lat="46.09136" lon="6.28273">
        <ele>343</ele>
        <time>2019-07-29T13:03:48Z</time>
      </trkpt>
      <trkpt lat="46.09132" lon="6.28241">
        <ele>343</ele>
        <time>2019-07-29T13:03:52Z</time>
      </trkpt>
      <trkpt lat="46.09141" lon="6.28212">
        <ele>343</ele>
        <time>2019-07-29T13:03:56Z</time>
      </trkpt>
      <trkpt lat="46.09156" lon="6.28189">
        <ele>344</ele>
        <time>2019-07-29T13:04:00Z</time>
      </trkpt>
      <trkpt lat="46.09171" lon="6.28165">
        <ele>344</ele>
        <time>2019-07-29T13:04:04Z</time>
      </trkpt>
      <trkpt lat="46.09186" lon="6.28143">
        <ele>346</ele>
        <time>2019-07-29T13:04:08Z</time>
      </trkpt>
      <trkpt lat="46.09202" lon="6.28119">
        <ele>346</ele>
        <time>2019-07-29T13:04:12Z</time>
      </trkpt>
      <trkpt lat="46.09218" lon="6.28095">
        <ele>346</ele>
        <time>2019-07-29T13:04:16Z</time>
      </trkpt>
      <trkpt lat="46.09234" lon="6.28072">
        <ele>346</ele>
        <time>2019-07-29T13:04:20Z</time>
      </trkpt>
      <trkpt lat="46.0925" lon="6.28048">
        <ele>346</ele>
        <time>2019-07-29T13:04:24Z</time>
      </trkpt>
      <trkpt lat="46.09266" lon="6.28025">
        <ele>347</ele>
        <time>2019-07-29T13:04:28Z</time>
      </trkpt>
      <trkpt lat="46.09281" lon="6.28002">
        <ele>348</ele>
        <time>2019-07-29T13:04:32Z</time>
      </trkpt>
      <trkpt lat="46.09294" lon="6.27977">
        <ele>348</ele>
        <time>2019-07-29T13:04:36Z</time>
      </trkpt>
      <trkpt lat="46.09301" lon="6.27948">
        <ele>349</ele>
        <time>2019-07-29T13:04:40Z</time>
      </trkpt>
      <trkpt lat="46.09305" lon="6.27918">
        <ele>349</ele>
        <time>2019-07-29T13:04:44Z</time>
      </trkpt>
      <trkpt lat="46.09308" lon="6.27888">
        <ele>350</ele>
        <time>2019-07-29T13:04:48Z</time>
      </trkpt>
      <trkpt lat="46.09315" lon="6.27859">
        <ele>350</ele>
        <time>2019-07-29T13:04:52Z</time>
      </trkpt>
      <trkpt lat="46.09331" lon="6.2784">
        <ele>350</ele>
        <time>2019-07-29T13:04:56Z</time>
      </trkpt>
      <trkpt lat="46.09349" lon="6.27832">
        <ele>351</ele>
        <time>2019-07-29T13:05:00Z</time>
      </trkpt>
      <trkpt lat="46.09369" lon="6.27825">
        <ele>353</ele>
        <time>2019-07-29T13:05:04Z</time>
      </trkpt>
      <trkpt lat="46.09386" lon="6.27812">
        <ele>353</ele>
        <time>2019-07-29T13:05:08Z</time>
      </trkpt>
      <trkpt lat="46.09403" lon="6.27797">
        <ele>354</ele>
        <time>2019-07-29T13:05:12Z</time>
      </trkpt>
      <trkpt lat="46.0942" lon="6.27783">
        <ele>355</ele>
        <time>2019-07-29T13:05:16Z</time>
      </trkpt>
      <trkpt lat="46.09437" lon="6.27771">
        <ele>356</ele>
        <time>2019-07-29T13:05:20Z</time>
      </trkpt>
      <trkpt lat="46.09454" lon="6.2776">
        <ele>356</ele>
        <time>2019-07-29T13:05:24Z</time>
      </trkpt>
      <trkpt lat="46.09471" lon="6.2775">
        <ele>357</ele>
        <time>2019-07-29T13:05:28Z</time>
      </trkpt>
      <trkpt lat="46.09488" lon="6.27742">
        <ele>357</ele>
        <time>2019-07-29T13:05:32Z</time>
      </trkpt>
      <trkpt lat="46.09506" lon="6.27736">
        <ele>358</ele>
        <time>2019-07-29T13:05:36Z</time>
      </trkpt>
      <trkpt lat="46.09525" lon="6.27731">
        <ele>359</ele>
        <time>2019-07-29T13:05:40Z</time>
      </trkpt>
      <trkpt lat="46.09542" lon="6.27725">
        <ele>360</ele>
        <time>2019-07-29T13:05:44Z</time>
      </trkpt>
      <trkpt lat="46.09558" lon="6.27717">
        <ele>360</ele>
        <time>2019-07-29T13:05:48Z</time>
      </trkpt>
      <trkpt lat="46.09574" lon="6.27705">
        <ele>361</ele>
        <time>2019-07-29T13:05:52Z</time>
      </trkpt>
      <trkpt lat="46.0959" lon="6.2769">
        <ele>362</ele>
        <time>2019-07-29T13:05:56Z</time>
      </trkpt>
      <trkpt lat="46.09603" lon="6.27675">
        <ele>363</ele>
        <time>2019-07-29T13:06:00Z</time>
      </trkpt>
      <trkpt lat="46.09617" lon="6.2766">
        <ele>363</ele>
        <time>2019-07-29T13:06:04Z</time>
      </trkpt>
      <trkpt lat="46.0963" lon="6.27644">
        <ele>364</ele>
        <time>2019-07-29T13:06:08Z</time>
      </trkpt>
      <trkpt lat="46.09644" lon="6.27629">
        <ele>364</ele>
        <time>2019-07-29T13:06:12Z</time>
      </trkpt>
      <trkpt lat="46.09657" lon="6.27615">
        <ele>366</ele>
        <time>2019-07-29T13:06:16Z</time>
      </trkpt>
      <trkpt lat="46.0967" lon="6.276">
        <ele>366</ele>
        <time>2019-07-29T13:06:20Z</time>
      </trkpt>
      <trkpt lat="46.09683" lon="6.27586">
        <ele>366</ele>
        <time>2019-07-29T13:06:24Z</time>
      </trkpt>
      <trkpt lat="46.09695" lon="6.27572">
        <ele>367</ele>
        <time>2019-07-29T13:06:28Z</time>
      </trkpt>
      <trkpt lat="46.09708" lon="6.27558">
        <ele>368</ele>
        <time>2019-07-29T13:06:32Z</time>
      </trkpt>
      <trkpt lat="46.0972" lon="6.27544">
        <ele>369</ele>
        <time>2019-07-29T13:06:36Z</time>
      </trkpt>
      <trkpt lat="46.09731" lon="6.27528">
        <ele>370</ele>
        <time>2019-07-29T13:06:40Z</time>
      </trkpt>
      <trkpt lat="46.09741" lon="6.27511">
        <ele>371</ele>
        <time>2019-07-29T13:06:44Z</time>
      </trkpt>
      <trkpt lat="46.09749" lon="6.27492">
        <ele>372</ele>
        <time>2019-07-29T13:06:48Z</time>
      </trkpt>
      <trkpt lat="46.09756" lon="6.27472">
        <ele>373</ele>
        <time>2019-07-29T13:06:52Z</time>
      </trkpt>
      <trkpt lat="46.09762" lon="6.27452">
        <ele>373</ele>
        <time>2019-07-29T13:06:56Z</time>
      </trkpt>
      <trkpt lat="46.09767" lon="6.27432">
        <ele>374</ele>
        <time>2019-07-29T13:07:00Z</time>
      </trkpt>
      <trkpt lat="46.09771" lon="6.2741">
        <ele>374</ele>
        <time>2019-07-29T13:07:04Z</time>
      </trkpt>
      <trkpt lat="46.09773" lon="6.27386">
        <ele>375</ele>
        <time>2019-07-29T13:07:08Z</time>
      </trkpt>
      <trkpt lat="46.09774" lon="6.27365">
        <ele>376</ele>
        <time>2019-07-29T13:07:12Z</time>
      </trkpt>
      <trkpt lat="46.09774" lon="6.27341">
        <ele>376</ele>
        <time>2019-07-29T13:07:16Z</time>
      </trkpt>
      <trkpt lat="46.09775" lon="6.27318">
        <ele>376</ele>
        <time>2019-07-29T13:07:20Z</time>
      </trkpt>
      <trkpt lat="46.09775" lon="6.27294">
        <ele>376</ele>
        <time>2019-07-29T13:07:24Z</time>
      </trkpt>
      <trkpt lat="46.09777" lon="6.27271">
        <ele>377</ele>
        <time>2019-07-29T13:07:28Z</time>
      </trkpt>
      <trkpt lat="46.09782" lon="6.27248">
        <ele>378</ele>
        <time>2019-07-29T13:07:32Z</time>
      </trkpt>
      <trkpt lat="46.0979" lon="6.27227">
        <ele>379</ele>
        <time>2019-07-29T13:07:36Z</time>
      </trkpt>
      <trkpt lat="46.09801" lon="6.2721">
        <ele>380</ele>
        <time>2019-07-29T13:07:40Z</time>
      </trkpt>
      <trkpt lat="46.09814" lon="6.27195">
        <ele>379</ele>
        <time>2019-07-29T13:07:44Z</time>
      </trkpt>
      <trkpt lat="46.09828" lon="6.27181">
        <ele>380</ele>
        <time>2019-07-29T13:07:48Z</time>
      </trkpt>
      <trkpt lat="46.09842" lon="6.27168">
        <ele>381</ele>
        <time>2019-07-29T13:07:52Z</time>
      </trkpt>
      <trkpt lat="46.09856" lon="6.27156">
        <ele>382</ele>
        <time>2019-07-29T13:07:56Z</time>
      </trkpt>
      <trkpt lat="46.09869" lon="6.27143">
        <ele>383</ele>
        <time>2019-07-29T13:08:00Z</time>
      </trkpt>
      <trkpt lat="46.09882" lon="6.2713">
        <ele>383</ele>
        <time>2019-07-29T13:08:04Z</time>
      </trkpt>
      <trkpt lat="46.09893" lon="6.27112">
        <ele>384</ele>
        <time>2019-07-29T13:08:08Z</time>
      </trkpt>
      <trkpt lat="46.099" lon="6.27092">
        <ele>385</ele>
        <time>2019-07-29T13:08:12Z</time>
      </trkpt>
      <trkpt lat="46.09907" lon="6.27069">
        <ele>386</ele>
        <time>2019-07-29T13:08:16Z</time>
      </trkpt>
      <trkpt lat="46.09913" lon="6.27048">
        <ele>387</ele>
        <time>2019-07-29T13:08:20Z</time>
      </trkpt>
      <trkpt lat="46.09919" lon="6.27027">
        <ele>387</ele>
        <time>2019-07-29T13:08:24Z</time>
      </trkpt>
      <trkpt lat="46.09925" lon="6.27009">
        <ele>388</ele>
        <time>2019-07-29T13:08:28Z</time>
      </trkpt>
      <trkpt lat="46.09931" lon="6.26989">
        <ele>389</ele>
        <time>2019-07-29T13:08:32Z</time>
      </trkpt>
      <trkpt lat="46.09933" lon="6.2697">
        <ele>390</ele>
        <time>2019-07-29T13:08:36Z</time>
      </trkpt>
      <trkpt lat="46.09932" lon="6.26951">
        <ele>391</ele>
        <time>2019-07-29T13:08:40Z</time>
      </trkpt>
      <trkpt lat="46.09934" lon="6.26932">
        <ele>391</ele>
        <time>2019-07-29T13:08:44Z</time>
      </trkpt>
      <trkpt lat="46.09938" lon="6.26914">
        <ele>393</ele>
        <time>2019-07-29T13:08:48Z</time>
      </trkpt>
      <trkpt lat="46.09945" lon="6.26894">
        <ele>393</ele>
        <time>2019-07-29T13:08:52Z</time>
      </trkpt>
      <trkpt lat="46.09958" lon="6.26881">
        <ele>393</ele>
        <time>2019-07-29T13:08:56Z</time>
      </trkpt>
      <trkpt lat="46.09971" lon="6.26878">
        <ele>394</ele>
        <time>2019-07-29T13:09:00Z</time>
      </trkpt>
      <trkpt lat="46.09984" lon="6.2688">
        <ele>395</ele>
        <time>2019-07-29T13:09:04Z</time>
      </trkpt>
      <trkpt lat="46.09995" lon="6.26885">
        <ele>396</ele>
        <time>2019-07-29T13:09:08Z</time>
      </trkpt>
      <trkpt lat="46.10008" lon="6.26889">
        <ele>396</ele>
        <time>2019-07-29T13:09:12Z</time>
      </trkpt>
      <trkpt lat="46.1002" lon="6.26892">
        <ele>397</ele>
        <time>2019-07-29T13:09:16Z</time>
      </trkpt>
      <trkpt lat="46.10035" lon="6.2689">
        <ele>397</ele>
        <time>2019-07-29T13:09:20Z</time>
      </trkpt>
      <trkpt lat="46.10053" lon="6.26883">
        <ele>398</ele>
        <time>2019-07-29T13:09:24Z</time>
      </trkpt>
      <trkpt lat="46.10067" lon="6.2687">
        <ele>399</ele>
        <time>2019-07-29T13:09:28Z</time>
      </trkpt>
      <trkpt lat="46.10081" lon="6.26858">
        <ele>400</ele>
        <time>2019-07-29T13:09:32Z</time>
      </trkpt>
      <trkpt lat="46.10094" lon="6.26846">
        <ele>401</ele>
        <time>2019-07-29T13:09:36Z</time>
      </trkpt>
      <trkpt lat="46.10108" lon="6.26834">
        <ele>401</ele>
        <time>2019-07-29T13:09:40Z</time>
      </trkpt>
      <trkpt lat="46.10121" lon="6.26822">
        <ele>402</ele>
        <time>2019-07-29T13:09:44Z</time>
      </trkpt>
      <trkpt lat="46.10134" lon="6.26809">
        <ele>402</ele>
        <time>2019-07-29T13:09:48Z</time>
      </trkpt>
      <trkpt lat="46.10146" lon="6.26797">
        <ele>403</ele>
        <time>2019-07-29T13:09:52Z</time>
      </trkpt>
      <trkpt lat="46.10158" lon="6.26786">
        <ele>404</ele>
        <time>2019-07-29T13:09:56Z</time>
      </trkpt>
      <trkpt lat="46.10171" lon="6.26775">
        <ele>405</ele>
        <time>2019-07-29T13:10:00Z</time>
      </trkpt>
      <trkpt lat="46.10185" lon="6.26763">
        <ele>405</ele>
        <time>2019-07-29T13:10:04Z</time>
      </trkpt>
      <trkpt lat="46.10198" lon="6.2675">
        <ele>406</ele>
        <time>2019-07-29T13:10:08Z</time>
      </trkpt>
      <trkpt lat="46.1021" lon="6.26734">
        <ele>406</ele>
        <time>2019-07-29T13:10:12Z</time>
      </trkpt>
      <trkpt lat="46.10221" lon="6.2672">
        <ele>407</ele>
        <time>2019-07-29T13:10:16Z</time>
      </trkpt>
      <trkpt lat="46.10232" lon="6.26704">
        <ele>408</ele>
        <time>2019-07-29T13:10:20Z</time>
      </trkpt>
      <trkpt lat="46.10243" lon="6.26689">
        <ele>409</ele>
        <time>2019-07-29T13:10:24Z</time>
      </trkpt>
      <trkpt lat="46.10253" lon="6.26672">
        <ele>410</ele>
        <time>2019-07-29T13:10:28Z</time>
      </trkpt>
      <trkpt lat="46.10263" lon="6.26656">
        <ele>410</ele>
        <time>2019-07-29T13:10:32Z</time>
      </trkpt>
      <trkpt lat="46.10273" lon="6.2664">
        <ele>411</ele>
        <time>2019-07-29T13:10:36Z</time>
      </trkpt>
      <trkpt lat="46.10284" lon="6.26625">
        <ele>412</ele>
        <time>2019-07-29T13:10:40Z</time>
      </trkpt>
      <trkpt lat="46.10293" lon="6.2661">
        <ele>413</ele>
        <time>2019-07-29T13:10:44Z</time>
      </trkpt>
      <trkpt lat="46.10303" lon="6.26594">
        <ele>413</ele>
        <time>2019-07-29T13:10:48Z</time>
      </trkpt>
      <trkpt lat="46.10314" lon="6.26583">
        <ele>413</ele>
        <time>2019-07-29T13:10:52Z</time>
      </trkpt>
      <trkpt lat="46.10321" lon="6.26582">
        <ele>414</ele>
        <time>2019-07-29T13:11:12Z</time>
      </trkpt>
      <trkpt lat="46.10326" lon="6.26584">
        <ele>413</ele>
        <time>2019-07-29T13:11:16Z</time>
      </trkpt>
      <trkpt lat="46.10335" lon="6.2659">
        <ele>412</ele>
        <time>2019-07-29T13:11:20Z</time>
      </trkpt>
      <trkpt lat="46.10348" lon="6.2659">
        <ele>410</ele>
        <time>2019-07-29T13:11:24Z</time>
      </trkpt>
      <trkpt lat="46.10366" lon="6.26585">
        <ele>408</ele>
        <time>2019-07-29T13:11:28Z</time>
      </trkpt>
      <trkpt lat="46.10388" lon="6.26579">
        <ele>408</ele>
        <time>2019-07-29T13:11:32Z</time>
      </trkpt>
      <trkpt lat="46.10411" lon="6.26574">
        <ele>407</ele>
        <time>2019-07-29T13:11:36Z</time>
      </trkpt>
      <trkpt lat="46.10436" lon="6.26575">
        <ele>405</ele>
        <time>2019-07-29T13:11:40Z</time>
      </trkpt>
      <trkpt lat="46.1046" lon="6.26582">
        <ele>404</ele>
        <time>2019-07-29T13:11:44Z</time>
      </trkpt>
      <trkpt lat="46.10487" lon="6.2659">
        <ele>402</ele>
        <time>2019-07-29T13:11:48Z</time>
      </trkpt>
      <trkpt lat="46.10518" lon="6.26601">
        <ele>399</ele>
        <time>2019-07-29T13:11:52Z</time>
      </trkpt>
      <trkpt lat="46.10555" lon="6.26613">
        <ele>393</ele>
        <time>2019-07-29T13:11:56Z</time>
      </trkpt>
      <trkpt lat="46.10597" lon="6.26622">
        <ele>390</ele>
        <time>2019-07-29T13:12:00Z</time>
      </trkpt>
      <trkpt lat="46.10641" lon="6.26614">
        <ele>383</ele>
        <time>2019-07-29T13:12:04Z</time>
      </trkpt>
      <trkpt lat="46.10683" lon="6.26588">
        <ele>379</ele>
        <time>2019-07-29T13:12:08Z</time>
      </trkpt>
      <trkpt lat="46.10725" lon="6.26556">
        <ele>375</ele>
        <time>2019-07-29T13:12:12Z</time>
      </trkpt>
      <trkpt lat="46.10769" lon="6.26523">
        <ele>369</ele>
        <time>2019-07-29T13:12:16Z</time>
      </trkpt>
      <trkpt lat="46.10812" lon="6.26489">
        <ele>369</ele>
        <time>2019-07-29T13:12:20Z</time>
      </trkpt>
      <trkpt lat="46.10846" lon="6.26453">
        <ele>368</ele>
        <time>2019-07-29T13:12:24Z</time>
      </trkpt>
      <trkpt lat="46.10879" lon="6.26433">
        <ele>367</ele>
        <time>2019-07-29T13:12:28Z</time>
      </trkpt>
      <trkpt lat="46.10913" lon="6.26434">
        <ele>365</ele>
        <time>2019-07-29T13:12:32Z</time>
      </trkpt>
      <trkpt lat="46.10946" lon="6.26427">
        <ele>366</ele>
        <time>2019-07-29T13:12:36Z</time>
      </trkpt>
      <trkpt lat="46.10976" lon="6.26417">
        <ele>364</ele>
        <time>2019-07-29T13:12:40Z</time>
      </trkpt>
      <trkpt lat="46.11008" lon="6.26413">
        <ele>363</ele>
        <time>2019-07-29T13:12:44Z</time>
      </trkpt>
      <trkpt lat="46.11041" lon="6.26402">
        <ele>359</ele>
        <time>2019-07-29T13:12:48Z</time>
      </trkpt>
      <trkpt lat="46.11074" lon="6.26384">
        <ele>359</ele>
        <time>2019-07-29T13:12:52Z</time>
      </trkpt>
      <trkpt lat="46.11107" lon="6.26363">
        <ele>358</ele>
        <time>2019-07-29T13:12:56Z</time>
      </trkpt>
      <trkpt lat="46.11138" lon="6.26335">
        <ele>354</ele>
        <time>2019-07-29T13:13:00Z</time>
      </trkpt>
      <trkpt lat="46.1117" lon="6.26317">
        <ele>354</ele>
        <time>2019-07-29T13:13:04Z</time>
      </trkpt>
      <trkpt lat="46.11202" lon="6.26306">
        <ele>352</ele>
        <time>2019-07-29T13:13:08Z</time>
      </trkpt>
      <trkpt lat="46.11235" lon="6.26295">
        <ele>351</ele>
        <time>2019-07-29T13:13:12Z</time>
      </trkpt>
      <trkpt lat="46.11265" lon="6.26269">
        <ele>347</ele>
        <time>2019-07-29T13:13:16Z</time>
      </trkpt>
      <trkpt lat="46.11298" lon="6.26241">
        <ele>344</ele>
        <time>2019-07-29T13:13:20Z</time>
      </trkpt>
      <trkpt lat="46.11333" lon="6.26216">
        <ele>343</ele>
        <time>2019-07-29T13:13:24Z</time>
      </trkpt>
      <trkpt lat="46.11369" lon="6.26191">
        <ele>339</ele>
        <time>2019-07-29T13:13:28Z</time>
      </trkpt>
      <trkpt lat="46.11404" lon="6.26164">
        <ele>338</ele>
        <time>2019-07-29T13:13:32Z</time>
      </trkpt>
      <trkpt lat="46.11434" lon="6.26129">
        <ele>336</ele>
        <time>2019-07-29T13:13:36Z</time>
      </trkpt>
      <trkpt lat="46.11464" lon="6.2609">
        <ele>332</ele>
        <time>2019-07-29T13:13:40Z</time>
      </trkpt>
      <trkpt lat="46.11493" lon="6.26049">
        <ele>329</ele>
        <time>2019-07-29T13:13:44Z</time>
      </trkpt>
      <trkpt lat="46.11513" lon="6.25998">
        <ele>328</ele>
        <time>2019-07-29T13:13:48Z</time>
      </trkpt>
      <trkpt lat="46.1154" lon="6.25954">
        <ele>323</ele>
        <time>2019-07-29T13:13:52Z</time>
      </trkpt>
      <trkpt lat="46.11582" lon="6.25946">
        <ele>322</ele>
        <time>2019-07-29T13:13:56Z</time>
      </trkpt>
      <trkpt lat="46.11625" lon="6.2595">
        <ele>319</ele>
        <time>2019-07-29T13:14:00Z</time>
      </trkpt>
      <trkpt lat="46.11659" lon="6.25979">
        <ele>318</ele>
        <time>2019-07-29T13:14:04Z</time>
      </trkpt>
      <trkpt lat="46.11674" lon="6.26028">
        <ele>315</ele>
        <time>2019-07-29T13:14:08Z</time>
      </trkpt>
      <trkpt lat="46.11681" lon="6.26083">
        <ele>312</ele>
        <time>2019-07-29T13:14:12Z</time>
      </trkpt>
      <trkpt lat="46.1169" lon="6.26139">
        <ele>311</ele>
        <time>2019-07-29T13:14:16Z</time>
      </trkpt>
      <trkpt lat="46.11709" lon="6.26192">
        <ele>309</ele>
        <time>2019-07-29T13:14:20Z</time>
      </trkpt>
      <trkpt lat="46.11723" lon="6.26249">
        <ele>309</ele>
        <time>2019-07-29T13:14:24Z</time>
      </trkpt>
      <trkpt lat="46.11732" lon="6.26308">
        <ele>307</ele>
        <time>2019-07-29T13:14:28Z</time>
      </trkpt>
      <trkpt lat="46.11741" lon="6.26366">
        <ele>306</ele>
        <time>2019-07-29T13:14:32Z</time>
      </trkpt>
      <trkpt lat="46.1175" lon="6.26424">
        <ele>305</ele>
        <time>2019-07-29T13:14:36Z</time>
      </trkpt>
      <trkpt lat="46.11758" lon="6.26481">
        <ele>305</ele>
        <time>2019-07-29T13:14:40Z</time>
      </trkpt>
      <trkpt lat="46.11767" lon="6.26539">
        <ele>303</ele>
        <time>2019-07-29T13:14:44Z</time>
      </trkpt>
      <trkpt lat="46.11776" lon="6.26595">
        <ele>300</ele>
        <time>2019-07-29T13:14:48Z</time>
      </trkpt>
      <trkpt lat="46.11796" lon="6.26641">
        <ele>298</ele>
        <time>2019-07-29T13:14:52Z</time>
      </trkpt>
      <trkpt lat="46.11825" lon="6.26674">
        <ele>298</ele>
        <time>2019-07-29T13:14:56Z</time>
      </trkpt>
      <trkpt lat="46.11855" lon="6.26705">
        <ele>295</ele>
        <time>2019-07-29T13:15:00Z</time>
      </trkpt>
      <trkpt lat="46.11885" lon="6.26736">
        <ele>296</ele>
        <time>2019-07-29T13:15:04Z</time>
      </trkpt>
      <trkpt lat="46.11914" lon="6.26766">
        <ele>298</ele>
        <time>2019-07-29T13:15:08Z</time>
      </trkpt>
      <trkpt lat="46.11943" lon="6.26795">
        <ele>295</ele>
        <time>2019-07-29T13:15:12Z</time>
      </trkpt>
      <trkpt lat="46.11971" lon="6.26824">
        <ele>296</ele>
        <time>2019-07-29T13:15:16Z</time>
      </trkpt>
      <trkpt lat="46.11997" lon="6.26851">
        <ele>297</ele>
        <time>2019-07-29T13:15:20Z</time>
      </trkpt>
      <trkpt lat="46.1202" lon="6.26874">
        <ele>298</ele>
        <time>2019-07-29T13:15:24Z</time>
      </trkpt>
      <trkpt lat="46.12042" lon="6.26891">
        <ele>302</ele>
        <time>2019-07-29T13:15:28Z</time>
      </trkpt>
      <trkpt lat="46.12059" lon="6.26902">
        <ele>303</ele>
        <time>2019-07-29T13:15:32Z</time>
      </trkpt>
      <trkpt lat="46.12064" lon="6.2691">
        <ele>305</ele>
        <time>2019-07-29T13:15:36Z</time>
      </trkpt>
      <trkpt lat="46.12069" lon="6.26926">
        <ele>304</ele>
        <time>2019-07-29T13:15:40Z</time>
      </trkpt>
      <trkpt lat="46.1208" lon="6.2695">
        <ele>303</ele>
        <time>2019-07-29T13:15:44Z</time>
      </trkpt>
      <trkpt lat="46.12103" lon="6.26956">
        <ele>301</ele>
        <time>2019-07-29T13:15:48Z</time>
      </trkpt>
      <trkpt lat="46.12121" lon="6.26933">
        <ele>302</ele>
        <time>2019-07-29T13:15:52Z</time>
      </trkpt>
      <trkpt lat="46.12142" lon="6.26913">
        <ele>302</ele>
        <time>2019-07-29T13:15:56Z</time>
      </trkpt>
      <trkpt lat="46.12165" lon="6.26897">
        <ele>301</ele>
        <time>2019-07-29T13:16:00Z</time>
      </trkpt>
      <trkpt lat="46.1219" lon="6.26878">
        <ele>298</ele>
        <time>2019-07-29T13:16:04Z</time>
      </trkpt>
      <trkpt lat="46.12218" lon="6.26863">
        <ele>295</ele>
        <time>2019-07-29T13:16:08Z</time>
      </trkpt>
      <trkpt lat="46.1225" lon="6.26853">
        <ele>293</ele>
        <time>2019-07-29T13:16:12Z</time>
      </trkpt>
      <trkpt lat="46.12285" lon="6.26847">
        <ele>291</ele>
        <time>2019-07-29T13:16:16Z</time>
      </trkpt>
      <trkpt lat="46.12322" lon="6.26844">
        <ele>287</ele>
        <time>2019-07-29T13:16:20Z</time>
      </trkpt>
      <trkpt lat="46.12357" lon="6.26833">
        <ele>287</ele>
        <time>2019-07-29T13:16:24Z</time>
      </trkpt>
      <trkpt lat="46.12388" lon="6.26808">
        <ele>288</ele>
        <time>2019-07-29T13:16:28Z</time>
      </trkpt>
      <trkpt lat="46.12417" lon="6.26779">
        <ele>288</ele>
        <time>2019-07-29T13:16:32Z</time>
      </trkpt>
      <trkpt lat="46.12444" lon="6.26751">
        <ele>288</ele>
        <time>2019-07-29T13:16:36Z</time>
      </trkpt>
      <trkpt lat="46.1247" lon="6.26723">
        <ele>288</ele>
        <time>2019-07-29T13:16:40Z</time>
      </trkpt>
      <trkpt lat="46.12497" lon="6.26696">
        <ele>288</ele>
        <time>2019-07-29T13:16:44Z</time>
      </trkpt>
      <trkpt lat="46.12525" lon="6.26668">
        <ele>286</ele>
        <time>2019-07-29T13:16:48Z</time>
      </trkpt>
      <trkpt lat="46.12554" lon="6.26642">
        <ele>283</ele>
        <time>2019-07-29T13:16:52Z</time>
      </trkpt>
      <trkpt lat="46.12589" lon="6.26623">
        <ele>281</ele>
        <time>2019-07-29T13:16:56Z</time>
      </trkpt>
      <trkpt lat="46.12627" lon="6.26619">
        <ele>281</ele>
        <time>2019-07-29T13:17:00Z</time>
      </trkpt>
      <trkpt lat="46.12662" lon="6.26621">
        <ele>279</ele>
        <time>2019-07-29T13:17:04Z</time>
      </trkpt>
      <trkpt lat="46.12698" lon="6.26624">
        <ele>277</ele>
        <time>2019-07-29T13:17:08Z</time>
      </trkpt>
      <trkpt lat="46.12734" lon="6.26632">
        <ele>276</ele>
        <time>2019-07-29T13:17:12Z</time>
      </trkpt>
      <trkpt lat="46.1277" lon="6.26646">
        <ele>273</ele>
        <time>2019-07-29T13:17:16Z</time>
      </trkpt>
      <trkpt lat="46.12805" lon="6.2666">
        <ele>273</ele>
        <time>2019-07-29T13:17:20Z</time>
      </trkpt>
      <trkpt lat="46.1284" lon="6.26661">
        <ele>271</ele>
        <time>2019-07-29T13:17:24Z</time>
      </trkpt>
      <trkpt lat="46.1288" lon="6.26659">
        <ele>268</ele>
        <time>2019-07-29T13:17:28Z</time>
      </trkpt>
      <trkpt lat="46.1292" lon="6.26662">
        <ele>264</ele>
        <time>2019-07-29T13:17:32Z</time>
      </trkpt>
      <trkpt lat="46.12961" lon="6.26675">
        <ele>261</ele>
        <time>2019-07-29T13:17:36Z</time>
      </trkpt>
      <trkpt lat="46.13" lon="6.26697">
        <ele>261</ele>
        <time>2019-07-29T13:17:40Z</time>
      </trkpt>
      <trkpt lat="46.13035" lon="6.26726">
        <ele>261</ele>
        <time>2019-07-29T13:17:44Z</time>
      </trkpt>
      <trkpt lat="46.1307" lon="6.26754">
        <ele>260</ele>
        <time>2019-07-29T13:17:48Z</time>
      </trkpt>
      <trkpt lat="46.13106" lon="6.26771">
        <ele>258</ele>
        <time>2019-07-29T13:17:52Z</time>
      </trkpt>
      <trkpt lat="46.13146" lon="6.26775">
        <ele>257</ele>
        <time>2019-07-29T13:17:56Z</time>
      </trkpt>
      <trkpt lat="46.13186" lon="6.26776">
        <ele>256</ele>
        <time>2019-07-29T13:18:00Z</time>
      </trkpt>
      <trkpt lat="46.13224" lon="6.26777">
        <ele>255</ele>
        <time>2019-07-29T13:18:04Z</time>
      </trkpt>
      <trkpt lat="46.13257" lon="6.26786">
        <ele>259</ele>
        <time>2019-07-29T13:18:08Z</time>
      </trkpt>
      <trkpt lat="46.13281" lon="6.26794">
        <ele>260</ele>
        <time>2019-07-29T13:18:12Z</time>
      </trkpt>
      <trkpt lat="46.13294" lon="6.26797">
        <ele>260</ele>
        <time>2019-07-29T13:18:16Z</time>
      </trkpt>
      <trkpt lat="46.13305" lon="6.26805">
        <ele>259</ele>
        <time>2019-07-29T13:18:20Z</time>
      </trkpt>
      <trkpt lat="46.13318" lon="6.26792">
        <ele>259</ele>
        <time>2019-07-29T13:18:24Z</time>
      </trkpt>
      <trkpt lat="46.13329" lon="6.26767">
        <ele>258</ele>
        <time>2019-07-29T13:18:28Z</time>
      </trkpt>
      <trkpt lat="46.13334" lon="6.26734">
        <ele>257</ele>
        <time>2019-07-29T13:18:32Z</time>
      </trkpt>
      <trkpt lat="46.13336" lon="6.26699">
        <ele>258</ele>
        <time>2019-07-29T13:18:36Z</time>
      </trkpt>
      <trkpt lat="46.13337" lon="6.26665">
        <ele>258</ele>
        <time>2019-07-29T13:18:40Z</time>
      </trkpt>
      <trkpt lat="46.13336" lon="6.26632">
        <ele>258</ele>
        <time>2019-07-29T13:18:44Z</time>
      </trkpt>
      <trkpt lat="46.13333" lon="6.26598">
        <ele>259</ele>
        <time>2019-07-29T13:18:48Z</time>
      </trkpt>
      <trkpt lat="46.13336" lon="6.26567">
        <ele>260</ele>
        <time>2019-07-29T13:18:52Z</time>
      </trkpt>
      <trkpt lat="46.13322" lon="6.26546">
        <ele>259</ele>
        <time>2019-07-29T13:18:56Z</time>
      </trkpt>
      <trkpt lat="46.1331" lon="6.26521">
        <ele>260</ele>
        <time>2019-07-29T13:19:00Z</time>
      </trkpt>
      <trkpt lat="46.13295" lon="6.26495">
        <ele>261</ele>
        <time>2019-07-29T13:19:04Z</time>
      </trkpt>
      <trkpt lat="46.1328" lon="6.2647">
        <ele>261</ele>
        <time>2019-07-29T13:19:08Z</time>
      </trkpt>
      <trkpt lat="46.1326" lon="6.26442">
        <ele>256</ele>
        <time>2019-07-29T13:19:12Z</time>
      </trkpt>
      <trkpt lat="46.13237" lon="6.26408">
        <ele>253</ele>
        <time>2019-07-29T13:19:16Z</time>
      </trkpt>
      <trkpt lat="46.13216" lon="6.26364">
        <ele>248</ele>
        <time>2019-07-29T13:19:20Z</time>
      </trkpt>
      <trkpt lat="46.13202" lon="6.26308">
        <ele>244</ele>
        <time>2019-07-29T13:19:24Z</time>
      </trkpt>
      <trkpt lat="46.13199" lon="6.26246">
        <ele>242</ele>
        <time>2019-07-29T13:19:28Z</time>
      </trkpt>
      <trkpt lat="46.13187" lon="6.26199">
        <ele>242</ele>
        <time>2019-07-29T13:19:32Z</time>
      </trkpt>
      <trkpt lat="46.13153" lon="6.26185">
        <ele>243</ele>
        <time>2019-07-29T13:19:36Z</time>
      </trkpt>
      <trkpt lat="46.13121" lon="6.26178">
        <ele>247</ele>
        <time>2019-07-29T13:19:40Z</time>
      </trkpt>
      <trkpt lat="46.13099" lon="6.26174">
        <ele>250</ele>
        <time>2019-07-29T13:19:44Z</time>
      </trkpt>
      <trkpt lat="46.13085" lon="6.26168">
        <ele>253</ele>
        <time>2019-07-29T13:19:48Z</time>
      </trkpt>
      <trkpt lat="46.13083" lon="6.26153">
        <ele>254</ele>
        <time>2019-07-29T13:19:52Z</time>
      </trkpt>
      <trkpt lat="46.13093" lon="6.26142">
        <ele>255</ele>
        <time>2019-07-29T13:19:56Z</time>
      </trkpt>
      <trkpt lat="46.13105" lon="6.26136">
        <ele>256</ele>
        <time>2019-07-29T13:20:00Z</time>
      </trkpt>
      <trkpt lat="46.13117" lon="6.2613">
        <ele>258</ele>
        <time>2019-07-29T13:20:04Z</time>
      </trkpt>
      <trkpt lat="46.13128" lon="6.26125">
        <ele>258</ele>
        <time>2019-07-29T13:20:08Z</time>
      </trkpt>
      <trkpt lat="46.13139" lon="6.2612">
        <ele>259</ele>
        <time>2019-07-29T13:20:12Z</time>
      </trkpt>
      <trkpt lat="46.1315" lon="6.26114">
        <ele>260</ele>
        <time>2019-07-29T13:20:16Z</time>
      </trkpt>
      <trkpt lat="46.13161" lon="6.26105">
        <ele>261</ele>
        <time>2019-07-29T13:20:20Z</time>
      </trkpt>
      <trkpt lat="46.13172" lon="6.26097">
        <ele>262</ele>
        <time>2019-07-29T13:20:24Z</time>
      </trkpt>
      <trkpt lat="46.13183" lon="6.26091">
        <ele>263</ele>
        <time>2019-07-29T13:20:28Z</time>
      </trkpt>
      <trkpt lat="46.13193" lon="6.26085">
        <ele>264</ele>
        <time>2019-07-29T13:20:32Z</time>
      </trkpt>
      <trkpt lat="46.13203" lon="6.26079">
        <ele>265</ele>
        <time>2019-07-29T13:20:36Z</time>
      </trkpt>
      <trkpt lat="46.13212" lon="6.26071">
        <ele>267</ele>
        <time>2019-07-29T13:20:40Z</time>
      </trkpt>
      <trkpt lat="46.13219" lon="6.26061">
        <ele>268</ele>
        <time>2019-07-29T13:20:44Z</time>
      </trkpt>
      <trkpt lat="46.13226" lon="6.26051">
        <ele>269</ele>
        <time>2019-07-29T13:20:48Z</time>
      </trkpt>
      <trkpt lat="46.13232" lon="6.26039">
        <ele>270</ele>
        <time>2019-07-29T13:20:52Z</time>
      </trkpt>
      <trkpt lat="46.13237" lon="6.26027">
        <ele>270</ele>
        <time>2019-07-29T13:20:56Z</time>
      </trkpt>
      <trkpt lat="46.13243" lon="6.26015">
        <ele>272</ele>
        <time>2019-07-29T13:21:00Z</time>
      </trkpt>
      <trkpt lat="46.13251" lon="6.26005">
        <ele>273</ele>
        <time>2019-07-29T13:21:04Z</time>
      </trkpt>
      <trkpt lat="46.13262" lon="6.25998">
        <ele>273</ele>
        <time>2019-07-29T13:21:08Z</time>
      </trkpt>
      <trkpt lat="46.13273" lon="6.25995">
        <ele>273</ele>
        <time>2019-07-29T13:21:12Z</time>
      </trkpt>
      <trkpt lat="46.13287" lon="6.25994">
        <ele>271</ele>
        <time>2019-07-29T13:21:16Z</time>
      </trkpt>
      <trkpt lat="46.13304" lon="6.25994">
        <ele>270</ele>
        <time>2019-07-29T13:21:20Z</time>
      </trkpt>
      <trkpt lat="46.13324" lon="6.25994">
        <ele>270</ele>
        <time>2019-07-29T13:21:24Z</time>
      </trkpt>
      <trkpt lat="46.13347" lon="6.25992">
        <ele>269</ele>
        <time>2019-07-29T13:21:28Z</time>
      </trkpt>
      <trkpt lat="46.13369" lon="6.25983">
        <ele>269</ele>
        <time>2019-07-29T13:21:32Z</time>
      </trkpt>
      <trkpt lat="46.13391" lon="6.25968">
        <ele>268</ele>
        <time>2019-07-29T13:21:36Z</time>
      </trkpt>
      <trkpt lat="46.13413" lon="6.25951">
        <ele>269</ele>
        <time>2019-07-29T13:21:40Z</time>
      </trkpt>
      <trkpt lat="46.13433" lon="6.25933">
        <ele>270</ele>
        <time>2019-07-29T13:21:44Z</time>
      </trkpt>
      <trkpt lat="46.13451" lon="6.25917">
        <ele>271</ele>
        <time>2019-07-29T13:21:48Z</time>
      </trkpt>
      <trkpt lat="46.13466" lon="6.25903">
        <ele>272</ele>
        <time>2019-07-29T13:21:52Z</time>
      </trkpt>
      <trkpt lat="46.13477" lon="6.25885">
        <ele>274</ele>
        <time>2019-07-29T13:21:56Z</time>
      </trkpt>
      <trkpt lat="46.13476" lon="6.25861">
        <ele>274</ele>
        <time>2019-07-29T13:22:00Z</time>
      </trkpt>
      <trkpt lat="46.13469" lon="6.25838">
        <ele>274</ele>
        <time>2019-07-29T13:22:04Z</time>
      </trkpt>
      <trkpt lat="46.13469" lon="6.25814">
        <ele>274</ele>
        <time>2019-07-29T13:22:08Z</time>
      </trkpt>
      <trkpt lat="46.13478" lon="6.25794">
        <ele>276</ele>
        <time>2019-07-29T13:22:12Z</time>
      </trkpt>
      <trkpt lat="46.13487" lon="6.25776">
        <ele>277</ele>
        <time>2019-07-29T13:22:16Z</time>
      </trkpt>
      <trkpt lat="46.13492" lon="6.25763">
        <ele>277</ele>
        <time>2019-07-29T13:22:20Z</time>
      </trkpt>
      <trkpt lat="46.13487" lon="6.25774">
        <ele>277</ele>
        <time>2019-07-29T13:22:24Z</time>
      </trkpt>
      <trkpt lat="46.13501" lon="6.25786">
        <ele>273</ele>
        <time>2019-07-29T13:22:28Z</time>
      </trkpt>
      <trkpt lat="46.13522" lon="6.25787">
        <ele>272</ele>
        <time>2019-07-29T13:22:32Z</time>
      </trkpt>
      <trkpt lat="46.13545" lon="6.25774">
        <ele>272</ele>
        <time>2019-07-29T13:22:36Z</time>
      </trkpt>
      <trkpt lat="46.13567" lon="6.25758">
        <ele>270</ele>
        <time>2019-07-29T13:22:40Z</time>
      </trkpt>
      <trkpt lat="46.13589" lon="6.2574">
        <ele>272</ele>
        <time>2019-07-29T13:22:44Z</time>
      </trkpt>
      <trkpt lat="46.13612" lon="6.25721">
        <ele>272</ele>
        <time>2019-07-29T13:22:48Z</time>
      </trkpt>
      <trkpt lat="46.13635" lon="6.25701">
        <ele>271</ele>
        <time>2019-07-29T13:22:52Z</time>
      </trkpt>
      <trkpt lat="46.13659" lon="6.2568">
        <ele>272</ele>
        <time>2019-07-29T13:22:56Z</time>
      </trkpt>
      <trkpt lat="46.13681" lon="6.25654">
        <ele>270</ele>
        <time>2019-07-29T13:23:00Z</time>
      </trkpt>
      <trkpt lat="46.13701" lon="6.25628">
        <ele>271</ele>
        <time>2019-07-29T13:23:04Z</time>
      </trkpt>
      <trkpt lat="46.1372" lon="6.256">
        <ele>271</ele>
        <time>2019-07-29T13:23:08Z</time>
      </trkpt>
      <trkpt lat="46.13738" lon="6.25577">
        <ele>271</ele>
        <time>2019-07-29T13:23:12Z</time>
      </trkpt>
      <trkpt lat="46.13759" lon="6.25556">
        <ele>270</ele>
        <time>2019-07-29T13:23:16Z</time>
      </trkpt>
      <trkpt lat="46.13781" lon="6.25536">
        <ele>269</ele>
        <time>2019-07-29T13:23:20Z</time>
      </trkpt>
      <trkpt lat="46.13802" lon="6.25516">
        <ele>270</ele>
        <time>2019-07-29T13:23:24Z</time>
      </trkpt>
      <trkpt lat="46.13824" lon="6.25499">
        <ele>270</ele>
        <time>2019-07-29T13:23:28Z</time>
      </trkpt>
      <trkpt lat="46.13845" lon="6.25481">
        <ele>270</ele>
        <time>2019-07-29T13:23:32Z</time>
      </trkpt>
      <trkpt lat="46.13866" lon="6.25463">
        <ele>268</ele>
        <time>2019-07-29T13:23:36Z</time>
      </trkpt>
      <trkpt lat="46.13889" lon="6.25442">
        <ele>268</ele>
        <time>2019-07-29T13:23:40Z</time>
      </trkpt>
      <trkpt lat="46.13913" lon="6.25422">
        <ele>266</ele>
        <time>2019-07-29T13:23:44Z</time>
      </trkpt>
      <trkpt lat="46.13937" lon="6.25401">
        <ele>268</ele>
        <time>2019-07-29T13:23:48Z</time>
      </trkpt>
      <trkpt lat="46.13962" lon="6.2538">
        <ele>266</ele>
        <time>2019-07-29T13:23:52Z</time>
      </trkpt>
      <trkpt lat="46.13988" lon="6.25359">
        <ele>266</ele>
        <time>2019-07-29T13:23:56Z</time>
      </trkpt>
      <trkpt lat="46.14013" lon="6.25337">
        <ele>266</ele>
        <time>2019-07-29T13:24:00Z</time>
      </trkpt>
      <trkpt lat="46.14038" lon="6.25318">
        <ele>268</ele>
        <time>2019-07-29T13:24:04Z</time>
      </trkpt>
      <trkpt lat="46.14063" lon="6.25302">
        <ele>267</ele>
        <time>2019-07-29T13:24:08Z</time>
      </trkpt>
      <trkpt lat="46.14088" lon="6.25282">
        <ele>266</ele>
        <time>2019-07-29T13:24:12Z</time>
      </trkpt>
      <trkpt lat="46.14113" lon="6.25262">
        <ele>267</ele>
        <time>2019-07-29T13:24:16Z</time>
      </trkpt>
      <trkpt lat="46.14139" lon="6.25242">
        <ele>266</ele>
        <time>2019-07-29T13:24:20Z</time>
      </trkpt>
      <trkpt lat="46.14165" lon="6.2522">
        <ele>266</ele>
        <time>2019-07-29T13:24:24Z</time>
      </trkpt>
      <trkpt lat="46.14188" lon="6.25189">
        <ele>263</ele>
        <time>2019-07-29T13:24:28Z</time>
      </trkpt>
      <trkpt lat="46.14209" lon="6.25147">
        <ele>258</ele>
        <time>2019-07-29T13:24:32Z</time>
      </trkpt>
      <trkpt lat="46.14238" lon="6.25111">
        <ele>260</ele>
        <time>2019-07-29T13:24:36Z</time>
      </trkpt>
      <trkpt lat="46.14271" lon="6.25102">
        <ele>262</ele>
        <time>2019-07-29T13:24:40Z</time>
      </trkpt>
      <trkpt lat="46.14292" lon="6.25084">
        <ele>265</ele>
        <time>2019-07-29T13:24:44Z</time>
      </trkpt>
      <trkpt lat="46.14312" lon="6.25065">
        <ele>265</ele>
        <time>2019-07-29T13:24:48Z</time>
      </trkpt>
      <trkpt lat="46.14335" lon="6.25051">
        <ele>265</ele>
        <time>2019-07-29T13:24:52Z</time>
      </trkpt>
      <trkpt lat="46.14359" lon="6.25047">
        <ele>266</ele>
        <time>2019-07-29T13:24:56Z</time>
      </trkpt>
      <trkpt lat="46.1438" lon="6.25033">
        <ele>264</ele>
        <time>2019-07-29T13:25:00Z</time>
      </trkpt>
      <trkpt lat="46.14399" lon="6.25008">
        <ele>264</ele>
        <time>2019-07-29T13:25:04Z</time>
      </trkpt>
      <trkpt lat="46.1442" lon="6.24984">
        <ele>263</ele>
        <time>2019-07-29T13:25:08Z</time>
      </trkpt>
      <trkpt lat="46.14443" lon="6.24964">
        <ele>263</ele>
        <time>2019-07-29T13:25:12Z</time>
      </trkpt>
      <trkpt lat="46.14465" lon="6.24946">
        <ele>264</ele>
        <time>2019-07-29T13:25:16Z</time>
      </trkpt>
      <trkpt lat="46.14487" lon="6.24928">
        <ele>265</ele>
        <time>2019-07-29T13:25:20Z</time>
      </trkpt>
      <trkpt lat="46.14508" lon="6.24909">
        <ele>264</ele>
        <time>2019-07-29T13:25:24Z</time>
      </trkpt>
      <trkpt lat="46.14529" lon="6.24886">
        <ele>265</ele>
        <time>2019-07-29T13:25:28Z</time>
      </trkpt>
      <trkpt lat="46.14546" lon="6.24859">
        <ele>265</ele>
        <time>2019-07-29T13:25:32Z</time>
      </trkpt>
      <trkpt lat="46.14563" lon="6.24834">
        <ele>265</ele>
        <time>2019-07-29T13:25:36Z</time>
      </trkpt>
      <trkpt lat="46.14582" lon="6.24814">
        <ele>265</ele>
        <time>2019-07-29T13:25:40Z</time>
      </trkpt>
      <trkpt lat="46.14603" lon="6.248">
        <ele>266</ele>
        <time>2019-07-29T13:25:44Z</time>
      </trkpt>
      <trkpt lat="46.14625" lon="6.24786">
        <ele>265</ele>
        <time>2019-07-29T13:25:48Z</time>
      </trkpt>
      <trkpt lat="46.14646" lon="6.24773">
        <ele>265</ele>
        <time>2019-07-29T13:25:52Z</time>
      </trkpt>
      <trkpt lat="46.14666" lon="6.2476">
        <ele>264</ele>
        <time>2019-07-29T13:25:56Z</time>
      </trkpt>
      <trkpt lat="46.14686" lon="6.24747">
        <ele>265</ele>
        <time>2019-07-29T13:26:00Z</time>
      </trkpt>
      <trkpt lat="46.14707" lon="6.24733">
        <ele>266</ele>
        <time>2019-07-29T13:26:04Z</time>
      </trkpt>
      <trkpt lat="46.14728" lon="6.24719">
        <ele>266</ele>
        <time>2019-07-29T13:26:08Z</time>
      </trkpt>
      <trkpt lat="46.14749" lon="6.24707">
        <ele>266</ele>
        <time>2019-07-29T13:26:12Z</time>
      </trkpt>
      <trkpt lat="46.14769" lon="6.24694">
        <ele>266</ele>
        <time>2019-07-29T13:26:16Z</time>
      </trkpt>
      <trkpt lat="46.14789" lon="6.24682">
        <ele>266</ele>
        <time>2019-07-29T13:26:20Z</time>
      </trkpt>
      <trkpt lat="46.14809" lon="6.24668">
        <ele>267</ele>
        <time>2019-07-29T13:26:24Z</time>
      </trkpt>
      <trkpt lat="46.14829" lon="6.24655">
        <ele>267</ele>
        <time>2019-07-29T13:26:28Z</time>
      </trkpt>
      <trkpt lat="46.14848" lon="6.24641">
        <ele>268</ele>
        <time>2019-07-29T13:26:32Z</time>
      </trkpt>
      <trkpt lat="46.14868" lon="6.24628">
        <ele>269</ele>
        <time>2019-07-29T13:26:36Z</time>
      </trkpt>
      <trkpt lat="46.14888" lon="6.24614">
        <ele>268</ele>
        <time>2019-07-29T13:26:40Z</time>
      </trkpt>
      <trkpt lat="46.14908" lon="6.24602">
        <ele>269</ele>
        <time>2019-07-29T13:26:44Z</time>
      </trkpt>
      <trkpt lat="46.14927" lon="6.24591">
        <ele>268</ele>
        <time>2019-07-29T13:26:48Z</time>
      </trkpt>
      <trkpt lat="46.14947" lon="6.2458">
        <ele>268</ele>
        <time>2019-07-29T13:26:52Z</time>
      </trkpt>
      <trkpt lat="46.14967" lon="6.2457">
        <ele>268</ele>
        <time>2019-07-29T13:26:56Z</time>
      </trkpt>
      <trkpt lat="46.14988" lon="6.24559">
        <ele>267</ele>
        <time>2019-07-29T13:27:00Z</time>
      </trkpt>
      <trkpt lat="46.15009" lon="6.24548">
        <ele>268</ele>
        <time>2019-07-29T13:27:04Z</time>
      </trkpt>
      <trkpt lat="46.15032" lon="6.24537">
        <ele>267</ele>
        <time>2019-07-29T13:27:08Z</time>
      </trkpt>
      <trkpt lat="46.15055" lon="6.24525">
        <ele>266</ele>
        <time>2019-07-29T13:27:12Z</time>
      </trkpt>
      <trkpt lat="46.15079" lon="6.24519">
        <ele>265</ele>
        <time>2019-07-29T13:27:16Z</time>
      </trkpt>
      <trkpt lat="46.15104" lon="6.24514">
        <ele>265</ele>
        <time>2019-07-29T13:27:20Z</time>
      </trkpt>
      <trkpt lat="46.15129" lon="6.24513">
        <ele>265</ele>
        <time>2019-07-29T13:27:24Z</time>
      </trkpt>
      <trkpt lat="46.15154" lon="6.2451">
        <ele>267</ele>
        <time>2019-07-29T13:27:28Z</time>
      </trkpt>
      <trkpt lat="46.15178" lon="6.24501">
        <ele>266</ele>
        <time>2019-07-29T13:27:32Z</time>
      </trkpt>
      <trkpt lat="46.15202" lon="6.24493">
        <ele>267</ele>
        <time>2019-07-29T13:27:36Z</time>
      </trkpt>
      <trkpt lat="46.15225" lon="6.24489">
        <ele>267</ele>
        <time>2019-07-29T13:27:40Z</time>
      </trkpt>
      <trkpt lat="46.15247" lon="6.24487">
        <ele>267</ele>
        <time>2019-07-29T13:27:44Z</time>
      </trkpt>
      <trkpt lat="46.1527" lon="6.24486">
        <ele>267</ele>
        <time>2019-07-29T13:27:48Z</time>
      </trkpt>
      <trkpt lat="46.15292" lon="6.24486">
        <ele>267</ele>
        <time>2019-07-29T13:27:52Z</time>
      </trkpt>
      <trkpt lat="46.15317" lon="6.2449">
        <ele>265</ele>
        <time>2019-07-29T13:27:56Z</time>
      </trkpt>
      <trkpt lat="46.15345" lon="6.24494">
        <ele>262</ele>
        <time>2019-07-29T13:28:00Z</time>
      </trkpt>
      <trkpt lat="46.15375" lon="6.245">
        <ele>261</ele>
        <time>2019-07-29T13:28:04Z</time>
      </trkpt>
      <trkpt lat="46.15403" lon="6.24506">
        <ele>260</ele>
        <time>2019-07-29T13:28:08Z</time>
      </trkpt>
      <trkpt lat="46.15432" lon="6.2451">
        <ele>256</ele>
        <time>2019-07-29T13:28:12Z</time>
      </trkpt>
      <trkpt lat="46.15466" lon="6.24519">
        <ele>253</ele>
        <time>2019-07-29T13:28:16Z</time>
      </trkpt>
      <trkpt lat="46.15505" lon="6.24542">
        <ele>247</ele>
        <time>2019-07-29T13:28:20Z</time>
      </trkpt>
      <trkpt lat="46.15545" lon="6.24563">
        <ele>242</ele>
        <time>2019-07-29T13:28:24Z</time>
      </trkpt>
      <trkpt lat="46.15584" lon="6.24562">
        <ele>243</ele>
        <time>2019-07-29T13:28:28Z</time>
      </trkpt>
      <trkpt lat="46.15616" lon="6.24544">
        <ele>247</ele>
        <time>2019-07-29T13:28:32Z</time>
      </trkpt>
      <trkpt lat="46.15638" lon="6.24519">
        <ele>249</ele>
        <time>2019-07-29T13:28:36Z</time>
      </trkpt>
      <trkpt lat="46.15654" lon="6.24497">
        <ele>252</ele>
        <time>2019-07-29T13:28:40Z</time>
      </trkpt>
      <trkpt lat="46.15669" lon="6.24477">
        <ele>254</ele>
        <time>2019-07-29T13:28:44Z</time>
      </trkpt>
      <trkpt lat="46.15683" lon="6.24457">
        <ele>256</ele>
        <time>2019-07-29T13:28:48Z</time>
      </trkpt>
      <trkpt lat="46.15696" lon="6.24438">
        <ele>256</ele>
        <time>2019-07-29T13:28:52Z</time>
      </trkpt>
      <trkpt lat="46.15708" lon="6.2442">
        <ele>257</ele>
        <time>2019-07-29T13:28:56Z</time>
      </trkpt>
      <trkpt lat="46.15717" lon="6.24398">
        <ele>257</ele>
        <time>2019-07-29T13:29:00Z</time>
      </trkpt>
      <trkpt lat="46.15723" lon="6.24379">
        <ele>258</ele>
        <time>2019-07-29T13:29:04Z</time>
      </trkpt>
      <trkpt lat="46.15731" lon="6.24379">
        <ele>257</ele>
        <time>2019-07-29T13:30:00Z</time>
      </trkpt>
      <trkpt lat="46.15741" lon="6.24378">
        <ele>254</ele>
        <time>2019-07-29T13:30:04Z</time>
      </trkpt>
      <trkpt lat="46.15761" lon="6.24371">
        <ele>251</ele>
        <time>2019-07-29T13:30:08Z</time>
      </trkpt>
      <trkpt lat="46.15785" lon="6.24352">
        <ele>246</ele>
        <time>2019-07-29T13:30:12Z</time>
      </trkpt>
      <trkpt lat="46.15814" lon="6.24328">
        <ele>244</ele>
        <time>2019-07-29T13:30:16Z</time>
      </trkpt>
      <trkpt lat="46.15848" lon="6.243">
        <ele>239</ele>
        <time>2019-07-29T13:30:20Z</time>
      </trkpt>
      <trkpt lat="46.15877" lon="6.24275">
        <ele>238</ele>
        <time>2019-07-29T13:30:24Z</time>
      </trkpt>
      <trkpt lat="46.15902" lon="6.24254">
        <ele>233</ele>
        <time>2019-07-29T13:30:28Z</time>
      </trkpt>
      <trkpt lat="46.15929" lon="6.24238">
        <ele>234</ele>
        <time>2019-07-29T13:30:32Z</time>
      </trkpt>
      <trkpt lat="46.15949" lon="6.24255">
        <ele>235</ele>
        <time>2019-07-29T13:30:36Z</time>
      </trkpt>
      <trkpt lat="46.15955" lon="6.24283">
        <ele>235</ele>
        <time>2019-07-29T13:30:40Z</time>
      </trkpt>
      <trkpt lat="46.15964" lon="6.24307">
        <ele>236</ele>
        <time>2019-07-29T13:30:44Z</time>
      </trkpt>
      <trkpt lat="46.15962" lon="6.24319">
        <ele>235</ele>
        <time>2019-07-29T13:30:48Z</time>
      </trkpt>
      <trkpt lat="46.15959" lon="6.24322">
        <ele>235</ele>
        <time>2019-07-29T13:31:40Z</time>
      </trkpt>
      <trkpt lat="46.15952" lon="6.24325">
        <ele>234</ele>
        <time>2019-07-29T13:31:44Z</time>
      </trkpt>
      <trkpt lat="46.15945" lon="6.24332">
        <ele>234</ele>
        <time>2019-07-29T13:31:48Z</time>
      </trkpt>
      <trkpt lat="46.1595" lon="6.24329">
        <ele>232</ele>
        <time>2019-07-29T13:31:52Z</time>
      </trkpt>
      <trkpt lat="46.1596" lon="6.24318">
        <ele>233</ele>
        <time>2019-07-29T13:31:56Z</time>
      </trkpt>
      <trkpt lat="46.15967" lon="6.24306">
        <ele>235</ele>
        <time>2019-07-29T13:32:00Z</time>
      </trkpt>
      <trkpt lat="46.15975" lon="6.24291">
        <ele>235</ele>
        <time>2019-07-29T13:32:04Z</time>
      </trkpt>
      <trkpt lat="46.15986" lon="6.24274">
        <ele>235</ele>
        <time>2019-07-29T13:32:08Z</time>
      </trkpt>
      <trkpt lat="46.16003" lon="6.24265">
        <ele>232</ele>
        <time>2019-07-29T13:32:12Z</time>
      </trkpt>
      <trkpt lat="46.16021" lon="6.24257">
        <ele>231</ele>
        <time>2019-07-29T13:32:16Z</time>
      </trkpt>
      <trkpt lat="46.1604" lon="6.24248">
        <ele>231</ele>
        <time>2019-07-29T13:32:20Z</time>
      </trkpt>
      <trkpt lat="46.16058" lon="6.24236">
        <ele>232</ele>
        <time>2019-07-29T13:32:24Z</time>
      </trkpt>
      <trkpt lat="46.16076" lon="6.24222">
        <ele>230</ele>
        <time>2019-07-29T13:32:28Z</time>
      </trkpt>
      <trkpt lat="46.16092" lon="6.24209">
        <ele>231</ele>
        <time>2019-07-29T13:32:32Z</time>
      </trkpt>
      <trkpt lat="46.16092" lon="6.24203">
        <ele>233</ele>
        <time>2019-07-29T13:32:48Z</time>
      </trkpt>
      <trkpt lat="46.1609" lon="6.24197">
        <ele>234</ele>
        <time>2019-07-29T13:32:52Z</time>
      </trkpt>
      <trkpt lat="46.1608" lon="6.24207">
        <ele>234</ele>
        <time>2019-07-29T13:32:56Z</time>
      </trkpt>
      <trkpt lat="46.16064" lon="6.2422">
        <ele>234</ele>
        <time>2019-07-29T13:33:00Z</time>
      </trkpt>
      <trkpt lat="46.16047" lon="6.24234">
        <ele>235</ele>
        <time>2019-07-29T13:33:04Z</time>
      </trkpt>
      <trkpt lat="46.16029" lon="6.24245">
        <ele>235</ele>
        <time>2019-07-29T13:33:08Z</time>
      </trkpt>
      <trkpt lat="46.16009" lon="6.24254">
        <ele>235</ele>
        <time>2019-07-29T13:33:12Z</time>
      </trkpt>
      <trkpt lat="46.15988" lon="6.2426">
        <ele>236</ele>
        <time>2019-07-29T13:33:16Z</time>
      </trkpt>
      <trkpt lat="46.15966" lon="6.24259">
        <ele>235</ele>
        <time>2019-07-29T13:33:20Z</time>
      </trkpt>
      <trkpt lat="46.15949" lon="6.24277">
        <ele>236</ele>
        <time>2019-07-29T13:33:24Z</time>
      </trkpt>
      <trkpt lat="46.1593" lon="6.24299">
        <ele>235</ele>
        <time>2019-07-29T13:33:28Z</time>
      </trkpt>
      <trkpt lat="46.15906" lon="6.24318">
        <ele>235</ele>
        <time>2019-07-29T13:33:32Z</time>
      </trkpt>
      <trkpt lat="46.1588" lon="6.24339">
        <ele>234</ele>
        <time>2019-07-29T13:33:36Z</time>
      </trkpt>
      <trkpt lat="46.1585" lon="6.24363">
        <ele>231</ele>
        <time>2019-07-29T13:33:40Z</time>
      </trkpt>
      <trkpt lat="46.1582" lon="6.24396">
        <ele>228</ele>
        <time>2019-07-29T13:33:44Z</time>
      </trkpt>
      <trkpt lat="46.15798" lon="6.24445">
        <ele>227</ele>
        <time>2019-07-29T13:33:48Z</time>
      </trkpt>
      <trkpt lat="46.15784" lon="6.24502">
        <ele>225</ele>
        <time>2019-07-29T13:33:52Z</time>
      </trkpt>
      <trkpt lat="46.15769" lon="6.24555">
        <ele>225</ele>
        <time>2019-07-29T13:33:56Z</time>
      </trkpt>
      <trkpt lat="46.15747" lon="6.246">
        <ele>225</ele>
        <time>2019-07-29T13:34:00Z</time>
      </trkpt>
      <trkpt lat="46.15717" lon="6.24635">
        <ele>225</ele>
        <time>2019-07-29T13:34:04Z</time>
      </trkpt>
      <trkpt lat="46.15683" lon="6.24663">
        <ele>226</ele>
        <time>2019-07-29T13:34:08Z</time>
      </trkpt>
      <trkpt lat="46.15646" lon="6.24681">
        <ele>224</ele>
        <time>2019-07-29T13:34:12Z</time>
      </trkpt>
      <trkpt lat="46.15609" lon="6.24699">
        <ele>224</ele>
        <time>2019-07-29T13:34:16Z</time>
      </trkpt>
      <trkpt lat="46.15576" lon="6.24726">
        <ele>223</ele>
        <time>2019-07-29T13:34:20Z</time>
      </trkpt>
      <trkpt lat="46.15546" lon="6.24762">
        <ele>224</ele>
        <time>2019-07-29T13:34:24Z</time>
      </trkpt>
      <trkpt lat="46.15516" lon="6.248">
        <ele>222</ele>
        <time>2019-07-29T13:34:28Z</time>
      </trkpt>
      <trkpt lat="46.15487" lon="6.24836">
        <ele>221</ele>
        <time>2019-07-29T13:34:32Z</time>
      </trkpt>
      <trkpt lat="46.15459" lon="6.24871">
        <ele>222</ele>
        <time>2019-07-29T13:34:36Z</time>
      </trkpt>
      <trkpt lat="46.15431" lon="6.24906">
        <ele>222</ele>
        <time>2019-07-29T13:34:40Z</time>
      </trkpt>
      <trkpt lat="46.15402" lon="6.24942">
        <ele>221</ele>
        <time>2019-07-29T13:34:44Z</time>
      </trkpt>
      <trkpt lat="46.15374" lon="6.24978">
        <ele>221</ele>
        <time>2019-07-29T13:34:48Z</time>
      </trkpt>
      <trkpt lat="46.15347" lon="6.25013">
        <ele>221</ele>
        <time>2019-07-29T13:34:52Z</time>
      </trkpt>
      <trkpt lat="46.1532" lon="6.25048">
        <ele>220</ele>
        <time>2019-07-29T13:34:56Z</time>
      </trkpt>
      <trkpt lat="46.15295" lon="6.25087">
        <ele>220</ele>
        <time>2019-07-29T13:35:00Z</time>
      </trkpt>
      <trkpt lat="46.1527" lon="6.25128">
        <ele>218</ele>
        <time>2019-07-29T13:35:04Z</time>
      </trkpt>
      <trkpt lat="46.15245" lon="6.25172">
        <ele>216</ele>
        <time>2019-07-29T13:35:08Z</time>
      </trkpt>
      <trkpt lat="46.15221" lon="6.25217">
        <ele>217</ele>
        <time>2019-07-29T13:35:12Z</time>
      </trkpt>
      <trkpt lat="46.15197" lon="6.25266">
        <ele>217</ele>
        <time>2019-07-29T13:35:16Z</time>
      </trkpt>
      <trkpt lat="46.15172" lon="6.25314">
        <ele>214</ele>
        <time>2019-07-29T13:35:20Z</time>
      </trkpt>
      <trkpt lat="46.15147" lon="6.2536">
        <ele>212</ele>
        <time>2019-07-29T13:35:24Z</time>
      </trkpt>
      <trkpt lat="46.15122" lon="6.25405">
        <ele>210</ele>
        <time>2019-07-29T13:35:28Z</time>
      </trkpt>
      <trkpt lat="46.15098" lon="6.25449">
        <ele>210</ele>
        <time>2019-07-29T13:35:32Z</time>
      </trkpt>
      <trkpt lat="46.15075" lon="6.25491">
        <ele>212</ele>
        <time>2019-07-29T13:35:36Z</time>
      </trkpt>
      <trkpt lat="46.15052" lon="6.25532">
        <ele>212</ele>
        <time>2019-07-29T13:35:40Z</time>
      </trkpt>
      <trkpt lat="46.15028" lon="6.25572">
        <ele>210</ele>
        <time>2019-07-29T13:35:44Z</time>
      </trkpt>
      <trkpt lat="46.15003" lon="6.25611">
        <ele>210</ele>
        <time>2019-07-29T13:35:48Z</time>
      </trkpt>
      <trkpt lat="46.14978" lon="6.25649">
        <ele>208</ele>
        <time>2019-07-29T13:35:52Z</time>
      </trkpt>
      <trkpt lat="46.14953" lon="6.25687">
        <ele>208</ele>
        <time>2019-07-29T13:35:56Z</time>
      </trkpt>
      <trkpt lat="46.14927" lon="6.25726">
        <ele>208</ele>
        <time>2019-07-29T13:36:00Z</time>
      </trkpt>
      <trkpt lat="46.14904" lon="6.25772">
        <ele>205</ele>
        <time>2019-07-29T13:36:04Z</time>
      </trkpt>
      <trkpt lat="46.14886" lon="6.25819">
        <ele>205</ele>
        <time>2019-07-29T13:36:08Z</time>
      </trkpt>
      <trkpt lat="46.14873" lon="6.25863">
        <ele>207</ele>
        <time>2019-07-29T13:36:12Z</time>
      </trkpt>
      <trkpt lat="46.14863" lon="6.25902">
        <ele>209</ele>
        <time>2019-07-29T13:36:16Z</time>
      </trkpt>
      <trkpt lat="46.14853" lon="6.25938">
        <ele>211</ele>
        <time>2019-07-29T13:36:20Z</time>
      </trkpt>
      <trkpt lat="46.14844" lon="6.25971">
        <ele>212</ele>
        <time>2019-07-29T13:36:24Z</time>
      </trkpt>
      <trkpt lat="46.14835" lon="6.26005">
        <ele>213</ele>
        <time>2019-07-29T13:36:28Z</time>
      </trkpt>
      <trkpt lat="46.14826" lon="6.26038">
        <ele>213</ele>
        <time>2019-07-29T13:36:32Z</time>
      </trkpt>
      <trkpt lat="46.14817" lon="6.26071">
        <ele>214</ele>
        <time>2019-07-29T13:36:36Z</time>
      </trkpt>
      <trkpt lat="46.14807" lon="6.26106">
        <ele>213</ele>
        <time>2019-07-29T13:36:40Z</time>
      </trkpt>
      <trkpt lat="46.14793" lon="6.26143">
        <ele>213</ele>
        <time>2019-07-29T13:36:44Z</time>
      </trkpt>
      <trkpt lat="46.14768" lon="6.26174">
        <ele>211</ele>
        <time>2019-07-29T13:36:48Z</time>
      </trkpt>
      <trkpt lat="46.14736" lon="6.26195">
        <ele>209</ele>
        <time>2019-07-29T13:36:52Z</time>
      </trkpt>
      <trkpt lat="46.147" lon="6.26215">
        <ele>206</ele>
        <time>2019-07-29T13:36:56Z</time>
      </trkpt>
      <trkpt lat="46.14665" lon="6.26242">
        <ele>203</ele>
        <time>2019-07-29T13:37:00Z</time>
      </trkpt>
      <trkpt lat="46.14633" lon="6.26277">
        <ele>203</ele>
        <time>2019-07-29T13:37:04Z</time>
      </trkpt>
      <trkpt lat="46.14603" lon="6.26316">
        <ele>202</ele>
        <time>2019-07-29T13:37:08Z</time>
      </trkpt>
      <trkpt lat="46.14575" lon="6.2636">
        <ele>200</ele>
        <time>2019-07-29T13:37:12Z</time>
      </trkpt>
      <trkpt lat="46.14555" lon="6.26413">
        <ele>200</ele>
        <time>2019-07-29T13:37:16Z</time>
      </trkpt>
      <trkpt lat="46.1455" lon="6.2647">
        <ele>197</ele>
        <time>2019-07-29T13:37:20Z</time>
      </trkpt>
      <trkpt lat="46.14549" lon="6.26527">
        <ele>198</ele>
        <time>2019-07-29T13:37:24Z</time>
      </trkpt>
      <trkpt lat="46.14549" lon="6.26582">
        <ele>199</ele>
        <time>2019-07-29T13:37:28Z</time>
      </trkpt>
      <trkpt lat="46.14548" lon="6.26633">
        <ele>198</ele>
        <time>2019-07-29T13:37:32Z</time>
      </trkpt>
      <trkpt lat="46.14548" lon="6.26681">
        <ele>199</ele>
        <time>2019-07-29T13:37:36Z</time>
      </trkpt>
      <trkpt lat="46.14547" lon="6.26725">
        <ele>200</ele>
        <time>2019-07-29T13:37:40Z</time>
      </trkpt>
      <trkpt lat="46.14547" lon="6.26767">
        <ele>202</ele>
        <time>2019-07-29T13:37:44Z</time>
      </trkpt>
      <trkpt lat="46.14543" lon="6.26805">
        <ele>203</ele>
        <time>2019-07-29T13:37:48Z</time>
      </trkpt>
      <trkpt lat="46.14541" lon="6.26837">
        <ele>203</ele>
        <time>2019-07-29T13:37:52Z</time>
      </trkpt>
      <trkpt lat="46.14564" lon="6.26841">
        <ele>201</ele>
        <time>2019-07-29T13:37:56Z</time>
      </trkpt>
      <trkpt lat="46.14592" lon="6.26857">
        <ele>199</ele>
        <time>2019-07-29T13:38:00Z</time>
      </trkpt>
      <trkpt lat="46.14621" lon="6.26886">
        <ele>197</ele>
        <time>2019-07-29T13:38:04Z</time>
      </trkpt>
      <trkpt lat="46.14649" lon="6.26921">
        <ele>195</ele>
        <time>2019-07-29T13:38:08Z</time>
      </trkpt>
      <trkpt lat="46.14677" lon="6.26959">
        <ele>194</ele>
        <time>2019-07-29T13:38:12Z</time>
      </trkpt>
      <trkpt lat="46.14705" lon="6.26993">
        <ele>192</ele>
        <time>2019-07-29T13:38:16Z</time>
      </trkpt>
      <trkpt lat="46.14733" lon="6.27021">
        <ele>193</ele>
        <time>2019-07-29T13:38:20Z</time>
      </trkpt>
      <trkpt lat="46.1476" lon="6.27043">
        <ele>193</ele>
        <time>2019-07-29T13:38:24Z</time>
      </trkpt>
      <trkpt lat="46.14788" lon="6.27061">
        <ele>193</ele>
        <time>2019-07-29T13:38:28Z</time>
      </trkpt>
      <trkpt lat="46.14816" lon="6.27075">
        <ele>193</ele>
        <time>2019-07-29T13:38:32Z</time>
      </trkpt>
      <trkpt lat="46.14843" lon="6.27088">
        <ele>193</ele>
        <time>2019-07-29T13:38:36Z</time>
      </trkpt>
      <trkpt lat="46.1487" lon="6.271">
        <ele>194</ele>
        <time>2019-07-29T13:38:40Z</time>
      </trkpt>
      <trkpt lat="46.14897" lon="6.27113">
        <ele>194</ele>
        <time>2019-07-29T13:38:44Z</time>
      </trkpt>
      <trkpt lat="46.14924" lon="6.27126">
        <ele>193</ele>
        <time>2019-07-29T13:38:48Z</time>
      </trkpt>
      <trkpt lat="46.14949" lon="6.27137">
        <ele>194</ele>
        <time>2019-07-29T13:38:52Z</time>
      </trkpt>
      <trkpt lat="46.14972" lon="6.27143">
        <ele>195</ele>
        <time>2019-07-29T13:38:56Z</time>
      </trkpt>
      <trkpt lat="46.14992" lon="6.27142">
        <ele>198</ele>
        <time>2019-07-29T13:39:00Z</time>
      </trkpt>
      <trkpt lat="46.1501" lon="6.27133">
        <ele>199</ele>
        <time>2019-07-29T13:39:04Z</time>
      </trkpt>
      <trkpt lat="46.15024" lon="6.27113">
        <ele>199</ele>
        <time>2019-07-29T13:39:08Z</time>
      </trkpt>
      <trkpt lat="46.15037" lon="6.27089">
        <ele>200</ele>
        <time>2019-07-29T13:39:12Z</time>
      </trkpt>
      <trkpt lat="46.1505" lon="6.27065">
        <ele>200</ele>
        <time>2019-07-29T13:39:16Z</time>
      </trkpt>
      <trkpt lat="46.15064" lon="6.27041">
        <ele>200</ele>
        <time>2019-07-29T13:39:20Z</time>
      </trkpt>
      <trkpt lat="46.15078" lon="6.27019">
        <ele>199</ele>
        <time>2019-07-29T13:39:24Z</time>
      </trkpt>
      <trkpt lat="46.15098" lon="6.27023">
        <ele>197</ele>
        <time>2019-07-29T13:39:28Z</time>
      </trkpt>
      <trkpt lat="46.15119" lon="6.27042">
        <ele>198</ele>
        <time>2019-07-29T13:39:32Z</time>
      </trkpt>
      <trkpt lat="46.15142" lon="6.27058">
        <ele>199</ele>
        <time>2019-07-29T13:39:36Z</time>
      </trkpt>
      <trkpt lat="46.15165" lon="6.27072">
        <ele>198</ele>
        <time>2019-07-29T13:39:40Z</time>
      </trkpt>
      <trkpt lat="46.15185" lon="6.27083">
        <ele>199</ele>
        <time>2019-07-29T13:39:44Z</time>
      </trkpt>
      <trkpt lat="46.152" lon="6.27092">
        <ele>200</ele>
        <time>2019-07-29T13:39:48Z</time>
      </trkpt>
      <trkpt lat="46.15214" lon="6.27101">
        <ele>204</ele>
        <time>2019-07-29T13:39:52Z</time>
      </trkpt>
      <trkpt lat="46.15227" lon="6.27108">
        <ele>204</ele>
        <time>2019-07-29T13:39:56Z</time>
      </trkpt>
      <trkpt lat="46.15239" lon="6.27114">
        <ele>206</ele>
        <time>2019-07-29T13:40:00Z</time>
      </trkpt>
      <trkpt lat="46.1525" lon="6.27121">
        <ele>206</ele>
        <time>2019-07-29T13:40:04Z</time>
      </trkpt>
      <trkpt lat="46.1526" lon="6.27127">
        <ele>208</ele>
        <time>2019-07-29T13:40:08Z</time>
      </trkpt>
      <trkpt lat="46.1527" lon="6.27133">
        <ele>209</ele>
        <time>2019-07-29T13:40:12Z</time>
      </trkpt>
      <trkpt lat="46.1528" lon="6.27139">
        <ele>211</ele>
        <time>2019-07-29T13:40:16Z</time>
      </trkpt>
      <trkpt lat="46.15289" lon="6.27144">
        <ele>212</ele>
        <time>2019-07-29T13:40:20Z</time>
      </trkpt>
      <trkpt lat="46.15299" lon="6.27148">
        <ele>213</ele>
        <time>2019-07-29T13:40:24Z</time>
      </trkpt>
      <trkpt lat="46.15309" lon="6.27151">
        <ele>214</ele>
        <time>2019-07-29T13:40:28Z</time>
      </trkpt>
      <trkpt lat="46.15319" lon="6.27154">
        <ele>216</ele>
        <time>2019-07-29T13:40:32Z</time>
      </trkpt>
      <trkpt lat="46.1533" lon="6.27155">
        <ele>217</ele>
        <time>2019-07-29T13:40:36Z</time>
      </trkpt>
      <trkpt lat="46.1534" lon="6.27155">
        <ele>217</ele>
        <time>2019-07-29T13:40:40Z</time>
      </trkpt>
      <trkpt lat="46.1535" lon="6.27154">
        <ele>219</ele>
        <time>2019-07-29T13:40:44Z</time>
      </trkpt>
      <trkpt lat="46.1536" lon="6.27152">
        <ele>221</ele>
        <time>2019-07-29T13:40:48Z</time>
      </trkpt>
      <trkpt lat="46.1537" lon="6.27149">
        <ele>221</ele>
        <time>2019-07-29T13:40:52Z</time>
      </trkpt>
      <trkpt lat="46.1538" lon="6.27145">
        <ele>222</ele>
        <time>2019-07-29T13:40:56Z</time>
      </trkpt>
      <trkpt lat="46.1539" lon="6.27142">
        <ele>223</ele>
        <time>2019-07-29T13:41:00Z</time>
      </trkpt>
      <trkpt lat="46.154" lon="6.27139">
        <ele>223</ele>
        <time>2019-07-29T13:41:04Z</time>
      </trkpt>
      <trkpt lat="46.1541" lon="6.27135">
        <ele>224</ele>
        <time>2019-07-29T13:41:08Z</time>
      </trkpt>
      <trkpt lat="46.1542" lon="6.2713">
        <ele>225</ele>
        <time>2019-07-29T13:41:12Z</time>
      </trkpt>
      <trkpt lat="46.1543" lon="6.27126">
        <ele>226</ele>
        <time>2019-07-29T13:41:16Z</time>
      </trkpt>
      <trkpt lat="46.15439" lon="6.27121">
        <ele>227</ele>
        <time>2019-07-29T13:41:20Z</time>
      </trkpt>
      <trkpt lat="46.15448" lon="6.27113">
        <ele>228</ele>
        <time>2019-07-29T13:41:24Z</time>
      </trkpt>
      <trkpt lat="46.15457" lon="6.27107">
        <ele>229</ele>
        <time>2019-07-29T13:41:28Z</time>
      </trkpt>
      <trkpt lat="46.15466" lon="6.27102">
        <ele>231</ele>
        <time>2019-07-29T13:41:32Z</time>
      </trkpt>
      <trkpt lat="46.15475" lon="6.27097">
        <ele>231</ele>
        <time>2019-07-29T13:41:36Z</time>
      </trkpt>
      <trkpt lat="46.15484" lon="6.2709">
        <ele>232</ele>
        <time>2019-07-29T13:41:40Z</time>
      </trkpt>
      <trkpt lat="46.15493" lon="6.27082">
        <ele>232</ele>
        <time>2019-07-29T13:41:44Z</time>
      </trkpt>
      <trkpt lat="46.15503" lon="6.27076">
        <ele>234</ele>
        <time>2019-07-29T13:41:48Z</time>
      </trkpt>
      <trkpt lat="46.15512" lon="6.27069">
        <ele>235</ele>
        <time>2019-07-29T13:41:52Z</time>
      </trkpt>
      <trkpt lat="46.15522" lon="6.27063">
        <ele>237</ele>
        <time>2019-07-29T13:41:56Z</time>
      </trkpt>
      <trkpt lat="46.15531" lon="6.27056">
        <ele>237</ele>
        <time>2019-07-29T13:42:00Z</time>
      </trkpt>
      <trkpt lat="46.15539" lon="6.27049">
        <ele>239</ele>
        <time>2019-07-29T13:42:04Z</time>
      </trkpt>
      <trkpt lat="46.15548" lon="6.27043">
        <ele>239</ele>
        <time>2019-07-29T13:42:08Z</time>
      </trkpt>
      <trkpt lat="46.15557" lon="6.27037">
        <ele>240</ele>
        <time>2019-07-29T13:42:12Z</time>
      </trkpt>
      <trkpt lat="46.15566" lon="6.27031">
        <ele>241</ele>
        <time>2019-07-29T13:42:16Z</time>
      </trkpt>
      <trkpt lat="46.15574" lon="6.27025">
        <ele>242</ele>
        <time>2019-07-29T13:42:20Z</time>
      </trkpt>
      <trkpt lat="46.15583" lon="6.27021">
        <ele>243</ele>
        <time>2019-07-29T13:42:24Z</time>
      </trkpt>
      <trkpt lat="46.15591" lon="6.27016">
        <ele>244</ele>
        <time>2019-07-29T13:42:28Z</time>
      </trkpt>
      <trkpt lat="46.156" lon="6.27013">
        <ele>244</ele>
        <time>2019-07-29T13:42:32Z</time>
      </trkpt>
      <trkpt lat="46.1561" lon="6.27009">
        <ele>245</ele>
        <time>2019-07-29T13:42:36Z</time>
      </trkpt>
      <trkpt lat="46.15619" lon="6.27006">
        <ele>246</ele>
        <time>2019-07-29T13:42:40Z</time>
      </trkpt>
      <trkpt lat="46.15627" lon="6.27002">
        <ele>247</ele>
        <time>2019-07-29T13:42:44Z</time>
      </trkpt>
      <trkpt lat="46.15636" lon="6.26998">
        <ele>248</ele>
        <time>2019-07-29T13:42:48Z</time>
      </trkpt>
      <trkpt lat="46.15646" lon="6.26994">
        <ele>248</ele>
        <time>2019-07-29T13:42:52Z</time>
      </trkpt>
      <trkpt lat="46.15656" lon="6.26991">
        <ele>250</ele>
        <time>2019-07-29T13:42:56Z</time>
      </trkpt>
      <trkpt lat="46.15666" lon="6.26987">
        <ele>251</ele>
        <time>2019-07-29T13:43:00Z</time>
      </trkpt>
      <trkpt lat="46.15677" lon="6.26983">
        <ele>251</ele>
        <time>2019-07-29T13:43:04Z</time>
      </trkpt>
      <trkpt lat="46.15688" lon="6.2698">
        <ele>253</ele>
        <time>2019-07-29T13:43:08Z</time>
      </trkpt>
      <trkpt lat="46.15698" lon="6.26976">
        <ele>253</ele>
        <time>2019-07-29T13:43:12Z</time>
      </trkpt>
      <trkpt lat="46.15711" lon="6.26974">
        <ele>253</ele>
        <time>2019-07-29T13:43:16Z</time>
      </trkpt>
      <trkpt lat="46.15724" lon="6.26976">
        <ele>253</ele>
        <time>2019-07-29T13:43:20Z</time>
      </trkpt>
      <trkpt lat="46.15738" lon="6.26985">
        <ele>254</ele>
        <time>2019-07-29T13:43:24Z</time>
      </trkpt>
      <trkpt lat="46.15751" lon="6.26999">
        <ele>254</ele>
        <time>2019-07-29T13:43:28Z</time>
      </trkpt>
      <trkpt lat="46.15761" lon="6.27014">
        <ele>254</ele>
        <time>2019-07-29T13:43:32Z</time>
      </trkpt>
      <trkpt lat="46.15772" lon="6.27025">
        <ele>254</ele>
        <time>2019-07-29T13:43:36Z</time>
      </trkpt>
      <trkpt lat="46.15778" lon="6.27032">
        <ele>255</ele>
        <time>2019-07-29T13:43:40Z</time>
      </trkpt>
      <trkpt lat="46.15783" lon="6.27036">
        <ele>256</ele>
        <time>2019-07-29T13:44:40Z</time>
      </trkpt>
      <trkpt lat="46.15786" lon="6.27037">
        <ele>255</ele>
        <time>2019-07-29T13:44:52Z</time>
      </trkpt>
      <trkpt lat="46.15791" lon="6.27042">
        <ele>255</ele>
        <time>2019-07-29T13:44:56Z</time>
      </trkpt>
      <trkpt lat="46.15794" lon="6.27042">
        <ele>254</ele>
        <time>2019-07-29T13:45:00Z</time>
      </trkpt>
      <trkpt lat="46.15802" lon="6.27049">
        <ele>254</ele>
        <time>2019-07-29T13:45:04Z</time>
      </trkpt>
      <trkpt lat="46.15814" lon="6.27062">
        <ele>254</ele>
        <time>2019-07-29T13:45:08Z</time>
      </trkpt>
      <trkpt lat="46.15828" lon="6.27076">
        <ele>253</ele>
        <time>2019-07-29T13:45:12Z</time>
      </trkpt>
      <trkpt lat="46.15842" lon="6.27091">
        <ele>254</ele>
        <time>2019-07-29T13:45:16Z</time>
      </trkpt>
      <trkpt lat="46.15859" lon="6.2711">
        <ele>253</ele>
        <time>2019-07-29T13:45:20Z</time>
      </trkpt>
      <trkpt lat="46.15878" lon="6.27128">
        <ele>253</ele>
        <time>2019-07-29T13:45:24Z</time>
      </trkpt>
      <trkpt lat="46.15895" lon="6.27152">
        <ele>253</ele>
        <time>2019-07-29T13:45:28Z</time>
      </trkpt>
      <trkpt lat="46.1591" lon="6.27181">
        <ele>253</ele>
        <time>2019-07-29T13:45:32Z</time>
      </trkpt>
      <trkpt lat="46.15923" lon="6.27215">
        <ele>251</ele>
        <time>2019-07-29T13:45:36Z</time>
      </trkpt>
      <trkpt lat="46.15939" lon="6.27255">
        <ele>246</ele>
        <time>2019-07-29T13:45:40Z</time>
      </trkpt>
      <trkpt lat="46.15962" lon="6.2729">
        <ele>250</ele>
        <time>2019-07-29T13:45:44Z</time>
      </trkpt>
      <trkpt lat="46.1597" lon="6.27323">
        <ele>254</ele>
        <time>2019-07-29T13:45:48Z</time>
      </trkpt>
      <trkpt lat="46.15978" lon="6.27348">
        <ele>254</ele>
        <time>2019-07-29T13:45:52Z</time>
      </trkpt>
      <trkpt lat="46.15986" lon="6.27373">
        <ele>254</ele>
        <time>2019-07-29T13:45:56Z</time>
      </trkpt>
      <trkpt lat="46.15998" lon="6.27397">
        <ele>254</ele>
        <time>2019-07-29T13:46:00Z</time>
      </trkpt>
      <trkpt lat="46.16013" lon="6.27417">
        <ele>254</ele>
        <time>2019-07-29T13:46:04Z</time>
      </trkpt>
      <trkpt lat="46.1603" lon="6.27436">
        <ele>254</ele>
        <time>2019-07-29T13:46:08Z</time>
      </trkpt>
      <trkpt lat="46.16048" lon="6.27453">
        <ele>254</ele>
        <time>2019-07-29T13:46:12Z</time>
      </trkpt>
      <trkpt lat="46.16062" lon="6.27466">
        <ele>257</ele>
        <time>2019-07-29T13:46:16Z</time>
      </trkpt>
      <trkpt lat="46.16066" lon="6.27468">
        <ele>257</ele>
        <time>2019-07-29T13:46:56Z</time>
      </trkpt>
      <trkpt lat="46.16073" lon="6.27473">
        <ele>256</ele>
        <time>2019-07-29T13:47:00Z</time>
      </trkpt>
      <trkpt lat="46.16087" lon="6.27481">
        <ele>255</ele>
        <time>2019-07-29T13:47:04Z</time>
      </trkpt>
      <trkpt lat="46.16101" lon="6.27491">
        <ele>254</ele>
        <time>2019-07-29T13:47:08Z</time>
      </trkpt>
      <trkpt lat="46.16118" lon="6.27505">
        <ele>255</ele>
        <time>2019-07-29T13:47:12Z</time>
      </trkpt>
      <trkpt lat="46.16137" lon="6.2752">
        <ele>255</ele>
        <time>2019-07-29T13:47:16Z</time>
      </trkpt>
      <trkpt lat="46.16157" lon="6.27536">
        <ele>255</ele>
        <time>2019-07-29T13:47:20Z</time>
      </trkpt>
      <trkpt lat="46.16176" lon="6.27556">
        <ele>255</ele>
        <time>2019-07-29T13:47:24Z</time>
      </trkpt>
      <trkpt lat="46.16194" lon="6.27582">
        <ele>253</ele>
        <time>2019-07-29T13:47:28Z</time>
      </trkpt>
      <trkpt lat="46.16208" lon="6.27612">
        <ele>255</ele>
        <time>2019-07-29T13:47:32Z</time>
      </trkpt>
      <trkpt lat="46.16223" lon="6.27631">
        <ele>256</ele>
        <time>2019-07-29T13:47:36Z</time>
      </trkpt>
      <trkpt lat="46.16235" lon="6.2761">
        <ele>256</ele>
        <time>2019-07-29T13:47:40Z</time>
      </trkpt>
      <trkpt lat="46.1624" lon="6.27577">
        <ele>256</ele>
        <time>2019-07-29T13:47:44Z</time>
      </trkpt>
      <trkpt lat="46.16251" lon="6.27547">
        <ele>256</ele>
        <time>2019-07-29T13:47:48Z</time>
      </trkpt>
      <trkpt lat="46.16263" lon="6.27515">
        <ele>256</ele>
        <time>2019-07-29T13:47:52Z</time>
      </trkpt>
      <trkpt lat="46.16275" lon="6.27483">
        <ele>256</ele>
        <time>2019-07-29T13:47:56Z</time>
      </trkpt>
      <trkpt lat="46.16288" lon="6.2745">
        <ele>255</ele>
        <time>2019-07-29T13:48:00Z</time>
      </trkpt>
      <trkpt lat="46.163" lon="6.27418">
        <ele>254</ele>
        <time>2019-07-29T13:48:04Z</time>
      </trkpt>
      <trkpt lat="46.16313" lon="6.27385">
        <ele>256</ele>
        <time>2019-07-29T13:48:08Z</time>
      </trkpt>
      <trkpt lat="46.16325" lon="6.27353">
        <ele>256</ele>
        <time>2019-07-29T13:48:12Z</time>
      </trkpt>
      <trkpt lat="46.16338" lon="6.2732">
        <ele>255</ele>
        <time>2019-07-29T13:48:16Z</time>
      </trkpt>
      <trkpt lat="46.16351" lon="6.27287">
        <ele>255</ele>
        <time>2019-07-29T13:48:20Z</time>
      </trkpt>
      <trkpt lat="46.16369" lon="6.27257">
        <ele>253</ele>
        <time>2019-07-29T13:48:24Z</time>
      </trkpt>
      <trkpt lat="46.16396" lon="6.27235">
        <ele>252</ele>
        <time>2019-07-29T13:48:28Z</time>
      </trkpt>
      <trkpt lat="46.16431" lon="6.2723">
        <ele>249</ele>
        <time>2019-07-29T13:48:32Z</time>
      </trkpt>
      <trkpt lat="46.16466" lon="6.27239">
        <ele>247</ele>
        <time>2019-07-29T13:48:36Z</time>
      </trkpt>
      <trkpt lat="46.16498" lon="6.27251">
        <ele>245</ele>
        <time>2019-07-29T13:48:40Z</time>
      </trkpt>
      <trkpt lat="46.16537" lon="6.27264">
        <ele>245</ele>
        <time>2019-07-29T13:48:44Z</time>
      </trkpt>
      <trkpt lat="46.16572" lon="6.27286">
        <ele>242</ele>
        <time>2019-07-29T13:48:48Z</time>
      </trkpt>
      <trkpt lat="46.16608" lon="6.2732">
        <ele>241</ele>
        <time>2019-07-29T13:48:52Z</time>
      </trkpt>
      <trkpt lat="46.16645" lon="6.27342">
        <ele>239</ele>
        <time>2019-07-29T13:48:56Z</time>
      </trkpt>
      <trkpt lat="46.16687" lon="6.27349">
        <ele>235</ele>
        <time>2019-07-29T13:49:00Z</time>
      </trkpt>
      <trkpt lat="46.16738" lon="6.27362">
        <ele>234</ele>
        <time>2019-07-29T13:49:04Z</time>
      </trkpt>
      <trkpt lat="46.16783" lon="6.27366">
        <ele>232</ele>
        <time>2019-07-29T13:49:08Z</time>
      </trkpt>
      <trkpt lat="46.16821" lon="6.27337">
        <ele>229</ele>
        <time>2019-07-29T13:49:12Z</time>
      </trkpt>
      <trkpt lat="46.1684" lon="6.27284">
        <ele>230</ele>
        <time>2019-07-29T13:49:16Z</time>
      </trkpt>
      <trkpt lat="46.16848" lon="6.27229">
        <ele>230</ele>
        <time>2019-07-29T13:49:20Z</time>
      </trkpt>
      <trkpt lat="46.16855" lon="6.27178">
        <ele>231</ele>
        <time>2019-07-29T13:49:24Z</time>
      </trkpt>
      <trkpt lat="46.16839" lon="6.27138">
        <ele>232</ele>
        <time>2019-07-29T13:49:28Z</time>
      </trkpt>
      <trkpt lat="46.16808" lon="6.27124">
        <ele>234</ele>
        <time>2019-07-29T13:49:32Z</time>
      </trkpt>
      <trkpt lat="46.16779" lon="6.27114">
        <ele>237</ele>
        <time>2019-07-29T13:49:36Z</time>
      </trkpt>
      <trkpt lat="46.16761" lon="6.27096">
        <ele>238</ele>
        <time>2019-07-29T13:49:40Z</time>
      </trkpt>
      <trkpt lat="46.16751" lon="6.2708">
        <ele>241</ele>
        <time>2019-07-29T13:49:44Z</time>
      </trkpt>
      <trkpt lat="46.16742" lon="6.27067">
        <ele>242</ele>
        <time>2019-07-29T13:49:48Z</time>
      </trkpt>
      <trkpt lat="46.16733" lon="6.27054">
        <ele>243</ele>
        <time>2019-07-29T13:49:52Z</time>
      </trkpt>
      <trkpt lat="46.16725" lon="6.27039">
        <ele>245</ele>
        <time>2019-07-29T13:49:56Z</time>
      </trkpt>
      <trkpt lat="46.16724" lon="6.27021">
        <ele>246</ele>
        <time>2019-07-29T13:50:00Z</time>
      </trkpt>
      <trkpt lat="46.16729" lon="6.27005">
        <ele>247</ele>
        <time>2019-07-29T13:50:04Z</time>
      </trkpt>
      <trkpt lat="46.16735" lon="6.2699">
        <ele>248</ele>
        <time>2019-07-29T13:50:08Z</time>
      </trkpt>
      <trkpt lat="46.16743" lon="6.26976">
        <ele>249</ele>
        <time>2019-07-29T13:50:12Z</time>
      </trkpt>
      <trkpt lat="46.16754" lon="6.26967">
        <ele>249</ele>
        <time>2019-07-29T13:50:16Z</time>
      </trkpt>
      <trkpt lat="46.16763" lon="6.26955">
        <ele>250</ele>
        <time>2019-07-29T13:50:20Z</time>
      </trkpt>
      <trkpt lat="46.16773" lon="6.26943">
        <ele>251</ele>
        <time>2019-07-29T13:50:24Z</time>
      </trkpt>
      <trkpt lat="46.16783" lon="6.26933">
        <ele>251</ele>
        <time>2019-07-29T13:50:28Z</time>
      </trkpt>
      <trkpt lat="46.16793" lon="6.26924">
        <ele>252</ele>
        <time>2019-07-29T13:50:32Z</time>
      </trkpt>
      <trkpt lat="46.16804" lon="6.26914">
        <ele>254</ele>
        <time>2019-07-29T13:50:36Z</time>
      </trkpt>
      <trkpt lat="46.16815" lon="6.26906">
        <ele>254</ele>
        <time>2019-07-29T13:50:40Z</time>
      </trkpt>
      <trkpt lat="46.16826" lon="6.26902">
        <ele>255</ele>
        <time>2019-07-29T13:50:44Z</time>
      </trkpt>
      <trkpt lat="46.16839" lon="6.26894">
        <ele>256</ele>
        <time>2019-07-29T13:50:48Z</time>
      </trkpt>
      <trkpt lat="46.1685" lon="6.26883">
        <ele>258</ele>
        <time>2019-07-29T13:50:52Z</time>
      </trkpt>
      <trkpt lat="46.16861" lon="6.26871">
        <ele>257</ele>
        <time>2019-07-29T13:50:56Z</time>
      </trkpt>
      <trkpt lat="46.1687" lon="6.26858">
        <ele>257</ele>
        <time>2019-07-29T13:51:00Z</time>
      </trkpt>
      <trkpt lat="46.1688" lon="6.26843">
        <ele>259</ele>
        <time>2019-07-29T13:51:04Z</time>
      </trkpt>
      <trkpt lat="46.16888" lon="6.26828">
        <ele>260</ele>
        <time>2019-07-29T13:51:08Z</time>
      </trkpt>
      <trkpt lat="46.16895" lon="6.2681">
        <ele>260</ele>
        <time>2019-07-29T13:51:12Z</time>
      </trkpt>
      <trkpt lat="46.16901" lon="6.26792">
        <ele>260</ele>
        <time>2019-07-29T13:51:16Z</time>
      </trkpt>
      <trkpt lat="46.16905" lon="6.26774">
        <ele>261</ele>
        <time>2019-07-29T13:51:20Z</time>
      </trkpt>
      <trkpt lat="46.16908" lon="6.2675">
        <ele>260</ele>
        <time>2019-07-29T13:51:24Z</time>
      </trkpt>
      <trkpt lat="46.16909" lon="6.26728">
        <ele>260</ele>
        <time>2019-07-29T13:51:28Z</time>
      </trkpt>
      <trkpt lat="46.16917" lon="6.26703">
        <ele>261</ele>
        <time>2019-07-29T13:51:32Z</time>
      </trkpt>
      <trkpt lat="46.16927" lon="6.26678">
        <ele>260</ele>
        <time>2019-07-29T13:51:36Z</time>
      </trkpt>
      <trkpt lat="46.16938" lon="6.26654">
        <ele>260</ele>
        <time>2019-07-29T13:51:40Z</time>
      </trkpt>
      <trkpt lat="46.16951" lon="6.26631">
        <ele>260</ele>
        <time>2019-07-29T13:51:44Z</time>
      </trkpt>
      <trkpt lat="46.16964" lon="6.26608">
        <ele>261</ele>
        <time>2019-07-29T13:51:48Z</time>
      </trkpt>
      <trkpt lat="46.16977" lon="6.26585">
        <ele>262</ele>
        <time>2019-07-29T13:51:52Z</time>
      </trkpt>
      <trkpt lat="46.16991" lon="6.26564">
        <ele>263</ele>
        <time>2019-07-29T13:51:56Z</time>
      </trkpt>
      <trkpt lat="46.17002" lon="6.26545">
        <ele>265</ele>
        <time>2019-07-29T13:52:00Z</time>
      </trkpt>
      <trkpt lat="46.17012" lon="6.26529">
        <ele>266</ele>
        <time>2019-07-29T13:52:04Z</time>
      </trkpt>
      <trkpt lat="46.17021" lon="6.26514">
        <ele>267</ele>
        <time>2019-07-29T13:52:08Z</time>
      </trkpt>
      <trkpt lat="46.1703" lon="6.26498">
        <ele>267</ele>
        <time>2019-07-29T13:52:12Z</time>
      </trkpt>
      <trkpt lat="46.17039" lon="6.26484">
        <ele>269</ele>
        <time>2019-07-29T13:52:16Z</time>
      </trkpt>
      <trkpt lat="46.17048" lon="6.26468">
        <ele>270</ele>
        <time>2019-07-29T13:52:20Z</time>
      </trkpt>
      <trkpt lat="46.17057" lon="6.26453">
        <ele>270</ele>
        <time>2019-07-29T13:52:24Z</time>
      </trkpt>
      <trkpt lat="46.17067" lon="6.26439">
        <ele>271</ele>
        <time>2019-07-29T13:52:28Z</time>
      </trkpt>
      <trkpt lat="46.17075" lon="6.26423">
        <ele>272</ele>
        <time>2019-07-29T13:52:32Z</time>
      </trkpt>
      <trkpt lat="46.17084" lon="6.26408">
        <ele>272</ele>
        <time>2019-07-29T13:52:36Z</time>
      </trkpt>
      <trkpt lat="46.17095" lon="6.26394">
        <ele>271</ele>
        <time>2019-07-29T13:52:40Z</time>
      </trkpt>
      <trkpt lat="46.17106" lon="6.26376">
        <ele>272</ele>
        <time>2019-07-29T13:52:44Z</time>
      </trkpt>
      <trkpt lat="46.17118" lon="6.26356">
        <ele>273</ele>
        <time>2019-07-29T13:52:48Z</time>
      </trkpt>
      <trkpt lat="46.17129" lon="6.26334">
        <ele>273</ele>
        <time>2019-07-29T13:52:52Z</time>
      </trkpt>
      <trkpt lat="46.17142" lon="6.26313">
        <ele>273</ele>
        <time>2019-07-29T13:52:56Z</time>
      </trkpt>
      <trkpt lat="46.17155" lon="6.26291">
        <ele>273</ele>
        <time>2019-07-29T13:53:00Z</time>
      </trkpt>
      <trkpt lat="46.17169" lon="6.26269">
        <ele>273</ele>
        <time>2019-07-29T13:53:04Z</time>
      </trkpt>
      <trkpt lat="46.17183" lon="6.26246">
        <ele>273</ele>
        <time>2019-07-29T13:53:08Z</time>
      </trkpt>
      <trkpt lat="46.17196" lon="6.26219">
        <ele>273</ele>
        <time>2019-07-29T13:53:12Z</time>
      </trkpt>
      <trkpt lat="46.1721" lon="6.26197">
        <ele>274</ele>
        <time>2019-07-29T13:53:16Z</time>
      </trkpt>
      <trkpt lat="46.17224" lon="6.26175">
        <ele>275</ele>
        <time>2019-07-29T13:53:20Z</time>
      </trkpt>
      <trkpt lat="46.17236" lon="6.26152">
        <ele>273</ele>
        <time>2019-07-29T13:53:24Z</time>
      </trkpt>
      <trkpt lat="46.17251" lon="6.26131">
        <ele>271</ele>
        <time>2019-07-29T13:53:28Z</time>
      </trkpt>
      <trkpt lat="46.17264" lon="6.26101">
        <ele>271</ele>
        <time>2019-07-29T13:53:32Z</time>
      </trkpt>
      <trkpt lat="46.17271" lon="6.2609">
        <ele>272</ele>
        <time>2019-07-29T13:53:36Z</time>
      </trkpt>
      <trkpt lat="46.17277" lon="6.26076">
        <ele>270</ele>
        <time>2019-07-29T13:53:40Z</time>
      </trkpt>
      <trkpt lat="46.17293" lon="6.2605">
        <ele>267</ele>
        <time>2019-07-29T13:53:44Z</time>
      </trkpt>
      <trkpt lat="46.1731" lon="6.26017">
        <ele>267</ele>
        <time>2019-07-29T13:53:48Z</time>
      </trkpt>
      <trkpt lat="46.17326" lon="6.25982">
        <ele>265</ele>
        <time>2019-07-29T13:53:52Z</time>
      </trkpt>
      <trkpt lat="46.17342" lon="6.25949">
        <ele>266</ele>
        <time>2019-07-29T13:53:56Z</time>
      </trkpt>
      <trkpt lat="46.17355" lon="6.25915">
        <ele>269</ele>
        <time>2019-07-29T13:54:00Z</time>
      </trkpt>
      <trkpt lat="46.17369" lon="6.25884">
        <ele>268</ele>
        <time>2019-07-29T13:54:04Z</time>
      </trkpt>
      <trkpt lat="46.17387" lon="6.25863">
        <ele>269</ele>
        <time>2019-07-29T13:54:08Z</time>
      </trkpt>
      <trkpt lat="46.17403" lon="6.25845">
        <ele>271</ele>
        <time>2019-07-29T13:54:12Z</time>
      </trkpt>
      <trkpt lat="46.17416" lon="6.25824">
        <ele>271</ele>
        <time>2019-07-29T13:54:16Z</time>
      </trkpt>
      <trkpt lat="46.1742" lon="6.25794">
        <ele>270</ele>
        <time>2019-07-29T13:54:20Z</time>
      </trkpt>
      <trkpt lat="46.17437" lon="6.25771">
        <ele>270</ele>
        <time>2019-07-29T13:54:24Z</time>
      </trkpt>
      <trkpt lat="46.17457" lon="6.25749">
        <ele>270</ele>
        <time>2019-07-29T13:54:28Z</time>
      </trkpt>
      <trkpt lat="46.17482" lon="6.25726">
        <ele>264</ele>
        <time>2019-07-29T13:54:32Z</time>
      </trkpt>
      <trkpt lat="46.17513" lon="6.25701">
        <ele>261</ele>
        <time>2019-07-29T13:54:36Z</time>
      </trkpt>
      <trkpt lat="46.17544" lon="6.25674">
        <ele>260</ele>
        <time>2019-07-29T13:54:40Z</time>
      </trkpt>
      <trkpt lat="46.17577" lon="6.25652">
        <ele>258</ele>
        <time>2019-07-29T13:54:44Z</time>
      </trkpt>
      <trkpt lat="46.1761" lon="6.25633">
        <ele>258</ele>
        <time>2019-07-29T13:54:48Z</time>
      </trkpt>
      <trkpt lat="46.17643" lon="6.25616">
        <ele>256</ele>
        <time>2019-07-29T13:54:52Z</time>
      </trkpt>
      <trkpt lat="46.17676" lon="6.25598">
        <ele>257</ele>
        <time>2019-07-29T13:54:56Z</time>
      </trkpt>
      <trkpt lat="46.17708" lon="6.25582">
        <ele>255</ele>
        <time>2019-07-29T13:55:00Z</time>
      </trkpt>
      <trkpt lat="46.17741" lon="6.25564">
        <ele>257</ele>
        <time>2019-07-29T13:55:04Z</time>
      </trkpt>
      <trkpt lat="46.17775" lon="6.25552">
        <ele>255</ele>
        <time>2019-07-29T13:55:08Z</time>
      </trkpt>
      <trkpt lat="46.17809" lon="6.25548">
        <ele>256</ele>
        <time>2019-07-29T13:55:12Z</time>
      </trkpt>
      <trkpt lat="46.17839" lon="6.25546">
        <ele>259</ele>
        <time>2019-07-29T13:55:16Z</time>
      </trkpt>
      <trkpt lat="46.17867" lon="6.2555">
        <ele>261</ele>
        <time>2019-07-29T13:55:20Z</time>
      </trkpt>
      <trkpt lat="46.17891" lon="6.25552">
        <ele>261</ele>
        <time>2019-07-29T13:55:24Z</time>
      </trkpt>
      <trkpt lat="46.17912" lon="6.25551">
        <ele>263</ele>
        <time>2019-07-29T13:55:28Z</time>
      </trkpt>
      <trkpt lat="46.17933" lon="6.25546">
        <ele>263</ele>
        <time>2019-07-29T13:55:32Z</time>
      </trkpt>
      <trkpt lat="46.17952" lon="6.25541">
        <ele>264</ele>
        <time>2019-07-29T13:55:36Z</time>
      </trkpt>
      <trkpt lat="46.17973" lon="6.25532">
        <ele>264</ele>
        <time>2019-07-29T13:55:40Z</time>
      </trkpt>
      <trkpt lat="46.17995" lon="6.2552">
        <ele>263</ele>
        <time>2019-07-29T13:55:44Z</time>
      </trkpt>
      <trkpt lat="46.18016" lon="6.25502">
        <ele>262</ele>
        <time>2019-07-29T13:55:48Z</time>
      </trkpt>
      <trkpt lat="46.18038" lon="6.25478">
        <ele>260</ele>
        <time>2019-07-29T13:55:52Z</time>
      </trkpt>
      <trkpt lat="46.18059" lon="6.25447">
        <ele>260</ele>
        <time>2019-07-29T13:55:56Z</time>
      </trkpt>
      <trkpt lat="46.18086" lon="6.25416">
        <ele>256</ele>
        <time>2019-07-29T13:56:00Z</time>
      </trkpt>
      <trkpt lat="46.18118" lon="6.25393">
        <ele>255</ele>
        <time>2019-07-29T13:56:04Z</time>
      </trkpt>
      <trkpt lat="46.18152" lon="6.25372">
        <ele>252</ele>
        <time>2019-07-29T13:56:08Z</time>
      </trkpt>
      <trkpt lat="46.18184" lon="6.25353">
        <ele>253</ele>
        <time>2019-07-29T13:56:12Z</time>
      </trkpt>
      <trkpt lat="46.18215" lon="6.25332">
        <ele>253</ele>
        <time>2019-07-29T13:56:16Z</time>
      </trkpt>
      <trkpt lat="46.18247" lon="6.25311">
        <ele>251</ele>
        <time>2019-07-29T13:56:20Z</time>
      </trkpt>
      <trkpt lat="46.18278" lon="6.25291">
        <ele>251</ele>
        <time>2019-07-29T13:56:24Z</time>
      </trkpt>
      <trkpt lat="46.18311" lon="6.2527">
        <ele>247</ele>
        <time>2019-07-29T13:56:28Z</time>
      </trkpt>
      <trkpt lat="46.18345" lon="6.25247">
        <ele>246</ele>
        <time>2019-07-29T13:56:32Z</time>
      </trkpt>
      <trkpt lat="46.18381" lon="6.25224">
        <ele>244</ele>
        <time>2019-07-29T13:56:36Z</time>
      </trkpt>
      <trkpt lat="46.18416" lon="6.25203">
        <ele>244</ele>
        <time>2019-07-29T13:56:40Z</time>
      </trkpt>
      <trkpt lat="46.18452" lon="6.25187">
        <ele>243</ele>
        <time>2019-07-29T13:56:44Z</time>
      </trkpt>
      <trkpt lat="46.18488" lon="6.25177">
        <ele>242</ele>
        <time>2019-07-29T13:56:48Z</time>
      </trkpt>
      <trkpt lat="46.18525" lon="6.25168">
        <ele>242</ele>
        <time>2019-07-29T13:56:52Z</time>
      </trkpt>
      <trkpt lat="46.18558" lon="6.25161">
        <ele>242</ele>
        <time>2019-07-29T13:56:56Z</time>
      </trkpt>
      <trkpt lat="46.18573" lon="6.25158">
        <ele>246</ele>
        <time>2019-07-29T13:57:00Z</time>
      </trkpt>
      <trkpt lat="46.18588" lon="6.25154">
        <ele>243</ele>
        <time>2019-07-29T13:57:04Z</time>
      </trkpt>
      <trkpt lat="46.18611" lon="6.25147">
        <ele>242</ele>
        <time>2019-07-29T13:57:08Z</time>
      </trkpt>
      <trkpt lat="46.18636" lon="6.25136">
        <ele>240</ele>
        <time>2019-07-29T13:57:12Z</time>
      </trkpt>
      <trkpt lat="46.18664" lon="6.25127">
        <ele>239</ele>
        <time>2019-07-29T13:57:16Z</time>
      </trkpt>
      <trkpt lat="46.18693" lon="6.25116">
        <ele>238</ele>
        <time>2019-07-29T13:57:20Z</time>
      </trkpt>
      <trkpt lat="46.18721" lon="6.25104">
        <ele>238</ele>
        <time>2019-07-29T13:57:24Z</time>
      </trkpt>
      <trkpt lat="46.1875" lon="6.25092">
        <ele>239</ele>
        <time>2019-07-29T13:57:28Z</time>
      </trkpt>
      <trkpt lat="46.1878" lon="6.25083">
        <ele>236</ele>
        <time>2019-07-29T13:57:32Z</time>
      </trkpt>
      <trkpt lat="46.1881" lon="6.2508">
        <ele>236</ele>
        <time>2019-07-29T13:57:36Z</time>
      </trkpt>
      <trkpt lat="46.18841" lon="6.2508">
        <ele>236</ele>
        <time>2019-07-29T13:57:40Z</time>
      </trkpt>
      <trkpt lat="46.18871" lon="6.2508">
        <ele>235</ele>
        <time>2019-07-29T13:57:44Z</time>
      </trkpt>
      <trkpt lat="46.18902" lon="6.25078">
        <ele>235</ele>
        <time>2019-07-29T13:57:48Z</time>
      </trkpt>
      <trkpt lat="46.18934" lon="6.25072">
        <ele>233</ele>
        <time>2019-07-29T13:57:52Z</time>
      </trkpt>
      <trkpt lat="46.18967" lon="6.25068">
        <ele>231</ele>
        <time>2019-07-29T13:57:56Z</time>
      </trkpt>
      <trkpt lat="46.18999" lon="6.25077">
        <ele>231</ele>
        <time>2019-07-29T13:58:00Z</time>
      </trkpt>
      <trkpt lat="46.19016" lon="6.25086">
        <ele>234</ele>
        <time>2019-07-29T13:58:04Z</time>
      </trkpt>
      <trkpt lat="46.19024" lon="6.25096">
        <ele>233</ele>
        <time>2019-07-29T13:58:08Z</time>
      </trkpt>
      <trkpt lat="46.19042" lon="6.25104">
        <ele>231</ele>
        <time>2019-07-29T13:58:12Z</time>
      </trkpt>
      <trkpt lat="46.19065" lon="6.25114">
        <ele>231</ele>
        <time>2019-07-29T13:58:16Z</time>
      </trkpt>
      <trkpt lat="46.19089" lon="6.25115">
        <ele>231</ele>
        <time>2019-07-29T13:58:20Z</time>
      </trkpt>
      <trkpt lat="46.19107" lon="6.25108">
        <ele>235</ele>
        <time>2019-07-29T13:58:24Z</time>
      </trkpt>
      <trkpt lat="46.19121" lon="6.25102">
        <ele>235</ele>
        <time>2019-07-29T13:58:28Z</time>
      </trkpt>
      <trkpt lat="46.19138" lon="6.25109">
        <ele>236</ele>
        <time>2019-07-29T13:58:32Z</time>
      </trkpt>
      <trkpt lat="46.19157" lon="6.25106">
        <ele>235</ele>
        <time>2019-07-29T13:58:36Z</time>
      </trkpt>
      <trkpt lat="46.19173" lon="6.25082">
        <ele>233</ele>
        <time>2019-07-29T13:58:40Z</time>
      </trkpt>
      <trkpt lat="46.19194" lon="6.25095">
        <ele>232</ele>
        <time>2019-07-29T13:58:44Z</time>
      </trkpt>
      <trkpt lat="46.19216" lon="6.25115">
        <ele>231</ele>
        <time>2019-07-29T13:58:48Z</time>
      </trkpt>
      <trkpt lat="46.19243" lon="6.25113">
        <ele>231</ele>
        <time>2019-07-29T13:58:52Z</time>
      </trkpt>
      <trkpt lat="46.19267" lon="6.25111">
        <ele>231</ele>
        <time>2019-07-29T13:58:56Z</time>
      </trkpt>
      <trkpt lat="46.19276" lon="6.25103">
        <ele>232</ele>
        <time>2019-07-29T13:59:00Z</time>
      </trkpt>
      <trkpt lat="46.19277" lon="6.25098">
        <ele>232</ele>
        <time>2019-07-29T13:59:08Z</time>
      </trkpt>
      <trkpt lat="46.19276" lon="6.25096">
        <ele>232</ele>
        <time>2019-07-29T13:59:16Z</time>
      </trkpt>
      <trkpt lat="46.19278" lon="6.25085">
        <ele>232</ele>
        <time>2019-07-29T13:59:20Z</time>
      </trkpt>
      <trkpt lat="46.19281" lon="6.25067">
        <ele>231</ele>
        <time>2019-07-29T13:59:24Z</time>
      </trkpt>
      <trkpt lat="46.19283" lon="6.25046">
        <ele>230</ele>
        <time>2019-07-29T13:59:28Z</time>
      </trkpt>
      <trkpt lat="46.19288" lon="6.25022">
        <ele>230</ele>
        <time>2019-07-29T13:59:32Z</time>
      </trkpt>
    </trkseg>
  </trk>
</gpx>